GFSNGP_prec_precacc_024.txt.gz
Total_Precipitation_Accumulation
0.04 0.00 0.00 0.01 0.00 0.00 0.00 0.00 0.00 0.00 0.00 0.00 0.00 0.00 0.00 0.00 0.00 0.00 0.00 0.00 0.00 0.00 0.00 0.00 0.00 0.00 0.00 0.00 0.00 0.00 0.00 0.00 0.00 0.00 0.00 0.00 0.00 0.00 0.00 0.00 0.00 0.00 0.00 0.00
0.00 0.00 0.00 0.00 0.00 0.00 0.00 0.00 0.00 0.00 0.00 0.00 0.00 0.00 0.00 0.00 0.00 0.00 0.00 0.00 0.00 0.00 0.00 0.00 0.00 0.00 0.00 0.00 0.00 0.00 0.00 0.00 0.00 0.00 0.00 0.00 0.00 0.00 0.00 0.00 0.00 0.00 0.00 0.00
0.00 0.00 0.00 0.00 0.00 0.00 0.00 0.00 0.00 0.00 0.00 0.00 0.00 0.00 0.00 0.00 0.00 0.00 0.00 0.00 0.00 0.00 0.00 0.00 0.00 0.00 0.00 0.00 0.00 0.00 0.00 0.00 0.00 0.00 0.00 0.00 0.00 0.00 0.00 0.00 0.00 0.00 0.00 0.00
0.00 0.00 0.00 0.00 0.00 0.00 0.00 0.00 0.00 0.00 0.00 0.00 0.00 0.00 0.00 0.00 0.00 0.00 0.00 0.00 0.00 0.00 0.00 0.00 0.00 0.00 0.00 0.00 0.00 0.00 0.00 0.00 0.00 0.00 0.00 0.00 0.00 0.00 0.00 0.00 0.00 0.00 0.00 0.00
0.00 0.00 0.00 0.00 0.00 0.00 0.00 0.00 0.00 0.00 0.00 0.00 0.00 0.00 0.00 0.00 0.00 0.00 0.00 0.00 0.00 0.00 0.00 0.00 0.00 0.00 0.00 0.00 0.00 0.00 0.00 0.00 0.00 0.00 0.00 0.00 0.00 0.00 0.00 0.00 0.00 0.00 0.00 0.00
0.02 0.00 0.00 0.00 0.00 0.00 0.00 0.00 0.00 0.00 0.00 0.00 0.00 0.00 0.00 0.00 0.00 0.00 0.00 0.00 0.00 0.00 0.00 0.00 0.00 0.00 0.00 0.00 0.00 0.00 0.00 0.00 0.00 0.00 0.00 0.00 0.00 0.00 0.00 0.00 0.00 0.00 0.00 0.00
0.05 0.02 0.00 0.00 0.00 0.00 0.00 0.00 0.00 0.00 0.00 0.00 0.00 0.00 0.00 0.00 0.00 0.00 0.00 0.00 0.00 0.00 0.00 0.00 0.00 0.00 0.00 0.00 0.00 0.00 0.00 0.00 0.00 0.00 0.00 0.00 0.00 0.00 0.00 0.00 0.00 0.00 0.00 0.00
0.04 0.01 0.00 0.00 0.00 0.00 0.00 0.00 0.00 0.00 0.00 0.00 0.00 0.00 0.00 0.00 0.00 0.00 0.00 0.00 0.00 0.00 0.00 0.00 0.00 0.00 0.00 0.00 0.00 0.00 0.00 0.00 0.00 0.00 0.00 0.00 0.00 0.00 0.00 0.00 0.00 0.00 0.00 0.00
0.00 0.00 0.00 0.00 0.00 0.00 0.00 0.00 0.00 0.00 0.00 0.00 0.00 0.00 0.00 0.00 0.00 0.00 0.00 0.00 0.00 0.00 0.00 0.00 0.00 0.00 0.00 0.00 0.00 0.00 0.00 0.00 0.00 0.00 0.00 0.00 0.00 0.00 0.00 0.00 0.00 0.00 0.00 0.00
0.00 0.00 0.00 0.00 0.00 0.00 0.00 0.00 0.00 0.00 0.00 0.00 0.00 0.00 0.00 0.00 0.00 0.00 0.00 0.00 0.00 0.00 0.00 0.00 0.00 0.00 0.00 0.00 0.00 0.00 0.00 0.00 0.00 0.00 0.00 0.00 0.00 0.00 0.00 0.00 0.00 0.00 0.00 0.00
0.00 0.00 0.00 0.00 0.00 0.00 0.00 0.00 0.00 0.00 0.00 0.00 0.00 0.00 0.00 0.00 0.00 0.00 0.00 0.00 0.00 0.00 0.00 0.00 0.00 0.00 0.00 0.00 0.00 0.00 0.00 0.00 0.00 0.00 0.00 0.00 0.00 0.00 0.00 0.00 0.00 0.00 0.00 0.01
0.00 0.00 0.00 0.00 0.00 0.00 0.00 0.00 0.00 0.00 0.00 0.00 0.00 0.00 0.00 0.00 0.00 0.00 0.00 0.00 0.00 0.00 0.00 0.00 0.00 0.00 0.00 0.00 0.00 0.00 0.00 0.00 0.00 0.00 0.00 0.00 0.00 0.00 0.00 0.00 0.00 0.00 0.00 0.01
0.00 0.00 0.00 0.00 0.00 0.00 0.00 0.00 0.00 0.00 0.00 0.00 0.00 0.00 0.00 0.00 0.00 0.00 0.00 0.00 0.00 0.00 0.00 0.00 0.00 0.00 0.00 0.00 0.00 0.00 0.00 0.00 0.00 0.00 0.00 0.00 0.00 0.00 0.00 0.00 0.00 0.00 0.00 0.01
0.00 0.00 0.00 0.00 0.00 0.00 0.00 0.00 0.00 0.00 0.00 0.00 0.00 0.00 0.00 0.00 0.00 0.00 0.00 0.00 0.00 0.00 0.00 0.00 0.00 0.00 0.00 0.00 0.00 0.00 0.00 0.00 0.00 0.00 0.00 0.00 0.00 0.00 0.00 0.00 0.00 0.00 0.00 0.00
0.00 0.00 0.00 0.00 0.00 0.00 0.00 0.00 0.00 0.00 0.00 0.00 0.00 0.00 0.00 0.00 0.00 0.00 0.00 0.00 0.00 0.00 0.00 0.00 0.00 0.00 0.00 0.00 0.00 0.00 0.00 0.00 0.00 0.00 0.00 0.00 0.00 0.00 0.00 0.00 0.00 0.00 0.00 0.00
0.00 0.00 0.00 0.00 0.00 0.00 0.00 0.00 0.00 0.00 0.00 0.00 0.00 0.00 0.00 0.00 0.00 0.00 0.00 0.00 0.00 0.00 0.00 0.00 0.00 0.00 0.00 0.00 0.00 0.00 0.00 0.00 0.00 0.00 0.00 0.00 0.00 0.00 0.00 0.00 0.00 0.01 0.01 0.00
0.00 0.00 0.00 0.00 0.00 0.00 0.00 0.00 0.00 0.00 0.00 0.00 0.00 0.00 0.00 0.00 0.00 0.00 0.00 0.00 0.00 0.00 0.00 0.00 0.00 0.00 0.00 0.00 0.00 0.00 0.00 0.00 0.00 0.00 0.00 0.00 0.00 0.00 0.00 0.01 0.02 0.01 0.00 0.00
0.00 0.00 0.00 0.00 0.00 0.00 0.00 0.00 0.00 0.00 0.00 0.00 0.00 0.00 0.00 0.00 0.00 0.00 0.00 0.00 0.00 0.00 0.00 0.00 0.00 0.00 0.00 0.00 0.00 0.00 0.00 0.00 0.00 0.00 0.00 0.00 0.00 0.00 0.01 0.01 0.01 0.01 0.01 0.01
0.00 0.00 0.00 0.00 0.00 0.00 0.00 0.00 0.00 0.00 0.00 0.00 0.00 0.00 0.00 0.00 0.00 0.00 0.00 0.00 0.00 0.00 0.00 0.00 0.00 0.00 0.00 0.00 0.00 0.00 0.00 0.00 0.00 0.00 0.00 0.01 0.01 0.01 0.01 0.01 0.01 0.01 0.02 0.02
0.00 0.00 0.00 0.00 0.00 0.00 0.00 0.00 0.00 0.00 0.00 0.00 0.00 0.00 0.00 0.00 0.00 0.00 0.00 0.00 0.00 0.00 0.00 0.00 0.00 0.00 0.00 0.00 0.00 0.00 0.00 0.00 0.00 0.00 0.01 0.01 0.01 0.01 0.00 0.01 0.02 0.02 0.01 0.01
0.00 0.00 0.00 0.00 0.00 0.00 0.00 0.00 0.00 0.00 0.00 0.00 0.00 0.00 0.00 0.00 0.00 0.00 0.00 0.00 0.00 0.00 0.00 0.00 0.00 0.00 0.00 0.00 0.00 0.00 0.00 0.00 0.00 0.00 0.00 0.00 0.01 0.01 0.01 0.01 0.00 0.01 0.01 0.02
0.00 0.00 0.00 0.00 0.00 0.00 0.00 0.00 0.00 0.00 0.00 0.00 0.00 0.00 0.00 0.00 0.00 0.00 0.00 0.00 0.00 0.00 0.00 0.00 0.00 0.00 0.00 0.00 0.00 0.00 0.00 0.00 0.00 0.00 0.00 0.00 0.00 0.00 0.00 0.00 0.01 0.02 0.02 0.02
0.00 0.00 0.00 0.00 0.00 0.00 0.00 0.00 0.00 0.00 0.00 0.00 0.00 0.00 0.00 0.00 0.00 0.00 0.00 0.00 0.00 0.00 0.00 0.00 0.00 0.00 0.00 0.00 0.00 0.00 0.00 0.00 0.00 0.00 0.00 0.00 0.00 0.01 0.02 0.03 0.03 0.03 0.02 0.02
0.00 0.00 0.00 0.00 0.00 0.00 0.00 0.00 0.00 0.00 0.00 0.00 0.00 0.00 0.00 0.00 0.00 0.00 0.00 0.00 0.00 0.00 0.00 0.00 0.00 0.00 0.00 0.00 0.00 0.00 0.00 0.00 0.00 0.00 0.00 0.01 0.01 0.03 0.03 0.02 0.03 0.02 0.02 0.03
0.00 0.00 0.00 0.00 0.00 0.00 0.00 0.00 0.00 0.00 0.00 0.00 0.00 0.00 0.00 0.00 0.00 0.00 0.00 0.00 0.00 0.00 0.00 0.00 0.00 0.00 0.00 0.00 0.00 0.00 0.00 0.00 0.00 0.00 0.01 0.03 0.03 0.03 0.03 0.03 0.04 0.04 0.05 0.05
0.00 0.00 0.00 0.00 0.00 0.00 0.00 0.00 0.00 0.00 0.00 0.00 0.00 0.00 0.00 0.00 0.00 0.00 0.00 0.00 0.00 0.00 0.00 0.00 0.00 0.00 0.00 0.00 0.00 0.00 0.00 0.00 0.00 0.00 0.01 0.02 0.02 0.03 0.03 0.03 0.02 0.02 0.01 0.01
0.00 0.00 0.00 0.00 0.00 0.00 0.00 0.00 0.00 0.00 0.00 0.00 0.00 0.00 0.00 0.00 0.00 0.00 0.00 0.00 0.00 0.00 0.00 0.00 0.00 0.00 0.00 0.00 0.00 0.00 0.00 0.00 0.00 0.01 0.03 0.05 0.04 0.04 0.03 0.02 0.02 0.02 0.01 0.01

GFSNGP_prec_precacc_027.txt.gz
Total_Precipitation_Accumulation
0.14 0.00 0.01 0.02 0.01 0.01 0.03 0.02 0.01 0.00 0.00 0.00 0.00 0.00 0.00 0.00 0.00 0.00 0.00 0.00 0.00 0.00 0.00 0.00 0.00 0.00 0.00 0.00 0.00 0.00 0.00 0.00 0.00 0.00 0.00 0.00 0.00 0.00 0.00 0.00 0.00 0.00 0.00 0.00
0.11 0.00 0.00 0.00 0.00 0.00 0.01 0.00 0.00 0.00 0.00 0.00 0.00 0.00 0.00 0.00 0.00 0.00 0.00 0.00 0.00 0.00 0.00 0.00 0.00 0.00 0.00 0.00 0.00 0.00 0.00 0.00 0.00 0.00 0.00 0.00 0.00 0.00 0.00 0.00 0.00 0.00 0.00 0.00
0.05 0.01 0.00 0.00 0.00 0.00 0.00 0.00 0.00 0.00 0.00 0.00 0.00 0.00 0.00 0.00 0.00 0.00 0.00 0.00 0.00 0.00 0.00 0.00 0.00 0.00 0.00 0.00 0.00 0.00 0.00 0.00 0.00 0.00 0.00 0.00 0.00 0.00 0.00 0.00 0.00 0.00 0.00 0.00
0.00 0.00 0.00 0.00 0.00 0.00 0.00 0.00 0.00 0.00 0.00 0.00 0.00 0.00 0.00 0.00 0.00 0.00 0.00 0.00 0.00 0.00 0.00 0.00 0.00 0.00 0.00 0.00 0.00 0.00 0.00 0.00 0.00 0.00 0.00 0.00 0.00 0.00 0.00 0.00 0.00 0.00 0.00 0.00
0.00 0.00 0.00 0.00 0.00 0.00 0.00 0.00 0.00 0.00 0.00 0.00 0.00 0.00 0.00 0.00 0.00 0.00 0.00 0.00 0.00 0.00 0.00 0.00 0.00 0.00 0.00 0.00 0.00 0.00 0.00 0.00 0.00 0.00 0.00 0.00 0.00 0.00 0.00 0.00 0.00 0.00 0.00 0.00
0.02 0.00 0.00 0.00 0.00 0.00 0.00 0.00 0.00 0.00 0.00 0.00 0.00 0.00 0.00 0.00 0.00 0.00 0.00 0.00 0.00 0.00 0.00 0.00 0.00 0.00 0.00 0.00 0.00 0.00 0.00 0.00 0.00 0.00 0.00 0.00 0.00 0.00 0.00 0.00 0.00 0.00 0.00 0.00
0.05 0.02 0.00 0.00 0.00 0.00 0.00 0.00 0.00 0.00 0.00 0.00 0.00 0.00 0.00 0.00 0.00 0.00 0.00 0.00 0.00 0.00 0.00 0.00 0.00 0.00 0.00 0.00 0.00 0.00 0.00 0.00 0.00 0.00 0.00 0.00 0.00 0.00 0.00 0.00 0.00 0.00 0.00 0.00
0.04 0.01 0.00 0.00 0.00 0.00 0.00 0.00 0.00 0.00 0.00 0.00 0.00 0.00 0.00 0.00 0.00 0.00 0.00 0.00 0.00 0.00 0.00 0.00 0.00 0.00 0.00 0.00 0.00 0.00 0.00 0.00 0.00 0.00 0.00 0.00 0.00 0.00 0.00 0.00 0.00 0.00 0.00 0.00
0.00 0.00 0.00 0.00 0.00 0.00 0.00 0.00 0.00 0.00 0.00 0.00 0.00 0.00 0.00 0.00 0.00 0.00 0.00 0.00 0.00 0.00 0.00 0.00 0.00 0.00 0.00 0.00 0.00 0.00 0.00 0.00 0.00 0.00 0.00 0.00 0.00 0.00 0.00 0.00 0.00 0.00 0.00 0.00
0.00 0.00 0.00 0.00 0.00 0.00 0.00 0.00 0.00 0.00 0.00 0.00 0.00 0.00 0.00 0.00 0.00 0.00 0.00 0.00 0.00 0.00 0.00 0.00 0.00 0.00 0.00 0.00 0.00 0.00 0.00 0.00 0.00 0.00 0.00 0.00 0.00 0.00 0.00 0.00 0.00 0.00 0.00 0.00
0.00 0.00 0.00 0.00 0.00 0.00 0.00 0.00 0.00 0.00 0.00 0.00 0.00 0.00 0.00 0.00 0.00 0.00 0.00 0.00 0.00 0.00 0.00 0.00 0.00 0.00 0.00 0.00 0.00 0.00 0.00 0.00 0.00 0.00 0.00 0.00 0.00 0.00 0.00 0.00 0.00 0.00 0.00 0.01
0.00 0.00 0.00 0.00 0.00 0.00 0.00 0.00 0.00 0.00 0.00 0.00 0.00 0.00 0.00 0.00 0.00 0.00 0.00 0.00 0.00 0.00 0.00 0.00 0.00 0.00 0.00 0.00 0.00 0.00 0.00 0.00 0.00 0.00 0.00 0.00 0.00 0.00 0.00 0.00 0.00 0.00 0.00 0.01
0.00 0.00 0.00 0.00 0.00 0.00 0.00 0.00 0.00 0.00 0.00 0.00 0.00 0.00 0.00 0.00 0.00 0.00 0.00 0.00 0.00 0.00 0.00 0.00 0.00 0.00 0.00 0.00 0.00 0.00 0.00 0.00 0.00 0.00 0.00 0.00 0.00 0.00 0.00 0.00 0.00 0.00 0.00 0.01
0.00 0.00 0.00 0.00 0.00 0.00 0.00 0.00 0.00 0.00 0.00 0.00 0.00 0.00 0.00 0.00 0.00 0.00 0.00 0.00 0.00 0.00 0.00 0.00 0.00 0.00 0.00 0.00 0.00 0.00 0.00 0.00 0.00 0.00 0.00 0.00 0.00 0.00 0.00 0.00 0.00 0.00 0.00 0.00
0.00 0.00 0.00 0.00 0.00 0.00 0.00 0.00 0.00 0.00 0.00 0.00 0.00 0.00 0.00 0.00 0.00 0.00 0.00 0.00 0.00 0.00 0.00 0.00 0.00 0.00 0.00 0.00 0.00 0.00 0.00 0.00 0.00 0.00 0.00 0.00 0.00 0.00 0.00 0.00 0.00 0.00 0.00 0.00
0.00 0.00 0.00 0.00 0.00 0.00 0.00 0.00 0.00 0.00 0.00 0.00 0.00 0.00 0.00 0.00 0.00 0.00 0.00 0.00 0.00 0.00 0.00 0.00 0.00 0.00 0.00 0.00 0.00 0.00 0.00 0.00 0.00 0.00 0.00 0.00 0.00 0.00 0.00 0.00 0.00 0.01 0.01 0.00
0.00 0.00 0.00 0.00 0.00 0.00 0.00 0.00 0.00 0.00 0.00 0.00 0.00 0.00 0.00 0.00 0.00 0.00 0.00 0.00 0.00 0.00 0.00 0.00 0.00 0.00 0.00 0.00 0.00 0.00 0.00 0.00 0.00 0.00 0.00 0.00 0.00 0.00 0.00 0.01 0.02 0.01 0.00 0.00
0.00 0.00 0.00 0.00 0.00 0.00 0.00 0.00 0.00 0.00 0.00 0.00 0.00 0.00 0.00 0.00 0.00 0.00 0.00 0.00 0.00 0.00 0.00 0.00 0.00 0.00 0.00 0.00 0.00 0.00 0.00 0.00 0.00 0.00 0.00 0.00 0.00 0.00 0.01 0.01 0.01 0.01 0.01 0.01
0.00 0.00 0.00 0.00 0.00 0.00 0.00 0.00 0.00 0.00 0.00 0.00 0.00 0.00 0.00 0.00 0.00 0.00 0.00 0.00 0.00 0.00 0.00 0.00 0.00 0.00 0.00 0.00 0.00 0.00 0.00 0.00 0.00 0.00 0.00 0.01 0.01 0.01 0.01 0.01 0.01 0.01 0.02 0.02
0.00 0.00 0.00 0.00 0.00 0.00 0.00 0.00 0.00 0.00 0.00 0.00 0.00 0.00 0.00 0.00 0.00 0.00 0.00 0.00 0.00 0.00 0.00 0.00 0.00 0.00 0.00 0.00 0.00 0.00 0.00 0.00 0.00 0.00 0.01 0.01 0.01 0.01 0.00 0.01 0.02 0.02 0.01 0.01
0.00 0.00 0.00 0.00 0.00 0.00 0.00 0.00 0.00 0.00 0.00 0.00 0.00 0.00 0.00 0.00 0.00 0.00 0.00 0.00 0.00 0.00 0.00 0.00 0.00 0.00 0.00 0.00 0.00 0.00 0.00 0.00 0.00 0.00 0.00 0.00 0.01 0.01 0.01 0.01 0.00 0.01 0.01 0.02
0.00 0.00 0.00 0.00 0.00 0.00 0.00 0.00 0.00 0.00 0.00 0.00 0.00 0.00 0.00 0.00 0.00 0.00 0.00 0.00 0.00 0.00 0.00 0.00 0.00 0.00 0.00 0.00 0.00 0.00 0.00 0.00 0.00 0.00 0.00 0.00 0.00 0.00 0.00 0.00 0.01 0.02 0.02 0.02
0.00 0.00 0.00 0.00 0.00 0.00 0.00 0.00 0.00 0.00 0.00 0.00 0.00 0.00 0.00 0.00 0.00 0.00 0.00 0.00 0.00 0.00 0.00 0.00 0.00 0.00 0.00 0.00 0.00 0.00 0.00 0.00 0.00 0.00 0.00 0.00 0.00 0.01 0.03 0.03 0.03 0.03 0.03 0.03
0.00 0.00 0.00 0.00 0.00 0.00 0.00 0.00 0.00 0.00 0.00 0.00 0.00 0.00 0.00 0.00 0.00 0.00 0.00 0.00 0.00 0.00 0.00 0.00 0.00 0.00 0.00 0.00 0.00 0.00 0.00 0.00 0.00 0.00 0.00 0.01 0.01 0.03 0.03 0.02 0.03 0.02 0.02 0.03
0.00 0.00 0.00 0.00 0.00 0.00 0.00 0.00 0.00 0.00 0.00 0.00 0.00 0.00 0.00 0.00 0.00 0.00 0.00 0.00 0.00 0.00 0.00 0.00 0.00 0.00 0.00 0.00 0.00 0.00 0.00 0.00 0.00 0.00 0.01 0.03 0.03 0.03 0.03 0.03 0.04 0.04 0.06 0.05
0.00 0.00 0.00 0.00 0.00 0.00 0.00 0.00 0.00 0.00 0.00 0.00 0.00 0.00 0.00 0.00 0.00 0.00 0.00 0.00 0.00 0.00 0.00 0.00 0.00 0.00 0.00 0.00 0.00 0.00 0.00 0.00 0.00 0.00 0.01 0.02 0.02 0.03 0.03 0.03 0.02 0.02 0.02 0.01
0.00 0.00 0.00 0.00 0.00 0.00 0.00 0.00 0.00 0.00 0.00 0.00 0.00 0.00 0.00 0.00 0.00 0.00 0.00 0.00 0.00 0.00 0.00 0.00 0.00 0.00 0.00 0.00 0.00 0.00 0.00 0.00 0.00 0.01 0.03 0.05 0.04 0.04 0.03 0.02 0.02 0.02 0.02 0.01

GFSNGP_prec_precacc_030.txt.gz
Total_Precipitation_Accumulation
0.36 0.12 0.04 0.10 0.16 0.09 0.22 0.17 0.13 0.05 0.03 0.01 0.00 0.00 0.00 0.00 0.00 0.00 0.00 0.00 0.00 0.00 0.00 0.00 0.00 0.00 0.00 0.00 0.00 0.00 0.00 0.00 0.00 0.00 0.00 0.00 0.00 0.00 0.00 0.00 0.00 0.00 0.00 0.00
0.25 0.04 0.07 0.09 0.26 0.08 0.36 0.17 0.10 0.02 0.01 0.00 0.00 0.00 0.00 0.00 0.00 0.00 0.00 0.00 0.00 0.00 0.00 0.00 0.00 0.00 0.00 0.00 0.00 0.00 0.00 0.00 0.00 0.00 0.00 0.00 0.00 0.00 0.00 0.00 0.00 0.00 0.00 0.00
0.16 0.04 0.02 0.05 0.10 0.07 0.15 0.06 0.04 0.02 0.00 0.00 0.00 0.00 0.00 0.00 0.00 0.00 0.00 0.00 0.00 0.00 0.00 0.00 0.00 0.00 0.00 0.00 0.00 0.00 0.00 0.00 0.00 0.00 0.00 0.00 0.00 0.00 0.00 0.00 0.00 0.00 0.00 0.00
0.05 0.00 0.00 0.00 0.00 0.00 0.00 0.00 0.00 0.00 0.00 0.00 0.00 0.00 0.00 0.00 0.00 0.00 0.00 0.00 0.00 0.00 0.00 0.00 0.00 0.00 0.00 0.00 0.00 0.00 0.00 0.00 0.00 0.00 0.00 0.00 0.00 0.00 0.00 0.00 0.00 0.00 0.00 0.00
0.00 0.00 0.00 0.00 0.00 0.00 0.00 0.00 0.00 0.00 0.00 0.00 0.00 0.00 0.00 0.00 0.00 0.00 0.00 0.00 0.00 0.00 0.00 0.00 0.00 0.00 0.00 0.00 0.00 0.00 0.00 0.00 0.00 0.00 0.00 0.00 0.00 0.00 0.00 0.00 0.00 0.00 0.00 0.00
0.02 0.00 0.00 0.00 0.00 0.00 0.00 0.00 0.00 0.00 0.00 0.00 0.00 0.00 0.00 0.00 0.00 0.00 0.00 0.00 0.00 0.00 0.00 0.00 0.00 0.00 0.00 0.00 0.00 0.00 0.00 0.00 0.00 0.00 0.00 0.00 0.00 0.00 0.00 0.00 0.00 0.00 0.00 0.00
0.05 0.02 0.00 0.00 0.00 0.00 0.00 0.00 0.00 0.00 0.00 0.00 0.00 0.00 0.00 0.00 0.00 0.00 0.00 0.00 0.00 0.00 0.00 0.00 0.00 0.00 0.00 0.00 0.00 0.00 0.00 0.00 0.00 0.00 0.00 0.00 0.00 0.00 0.00 0.00 0.00 0.00 0.00 0.00
0.04 0.01 0.00 0.00 0.00 0.00 0.00 0.00 0.00 0.00 0.00 0.00 0.00 0.00 0.00 0.00 0.00 0.00 0.00 0.00 0.00 0.00 0.00 0.00 0.00 0.00 0.00 0.00 0.00 0.00 0.00 0.00 0.00 0.00 0.00 0.00 0.00 0.00 0.00 0.00 0.00 0.00 0.00 0.00
0.00 0.00 0.00 0.00 0.00 0.00 0.00 0.00 0.00 0.00 0.00 0.00 0.00 0.00 0.00 0.00 0.00 0.00 0.00 0.00 0.00 0.00 0.00 0.00 0.00 0.00 0.00 0.00 0.00 0.00 0.00 0.00 0.00 0.00 0.00 0.00 0.00 0.00 0.00 0.00 0.00 0.00 0.00 0.00
0.00 0.00 0.00 0.00 0.00 0.00 0.00 0.00 0.00 0.00 0.00 0.00 0.00 0.00 0.00 0.00 0.00 0.00 0.00 0.00 0.00 0.00 0.00 0.00 0.00 0.00 0.00 0.00 0.00 0.00 0.00 0.00 0.00 0.00 0.00 0.00 0.00 0.00 0.00 0.00 0.00 0.00 0.00 0.00
0.00 0.00 0.00 0.00 0.00 0.00 0.00 0.00 0.00 0.00 0.00 0.00 0.00 0.00 0.00 0.00 0.00 0.00 0.00 0.00 0.00 0.00 0.00 0.00 0.00 0.00 0.00 0.00 0.00 0.00 0.00 0.00 0.00 0.00 0.00 0.00 0.00 0.00 0.00 0.00 0.00 0.00 0.00 0.01
0.00 0.00 0.00 0.00 0.00 0.00 0.00 0.00 0.00 0.00 0.00 0.00 0.00 0.00 0.00 0.00 0.00 0.00 0.00 0.00 0.00 0.00 0.00 0.00 0.00 0.00 0.00 0.00 0.00 0.00 0.00 0.00 0.00 0.00 0.00 0.00 0.00 0.00 0.00 0.00 0.00 0.00 0.00 0.01
0.00 0.00 0.00 0.00 0.00 0.00 0.00 0.00 0.00 0.00 0.00 0.00 0.00 0.00 0.00 0.00 0.00 0.00 0.00 0.00 0.00 0.00 0.00 0.00 0.00 0.00 0.00 0.00 0.00 0.00 0.00 0.00 0.00 0.00 0.00 0.00 0.00 0.00 0.00 0.00 0.00 0.00 0.00 0.01
0.00 0.00 0.00 0.00 0.00 0.00 0.00 0.00 0.00 0.00 0.00 0.00 0.00 0.00 0.00 0.00 0.00 0.00 0.00 0.00 0.00 0.00 0.00 0.00 0.00 0.00 0.00 0.00 0.00 0.00 0.00 0.00 0.00 0.00 0.00 0.00 0.00 0.00 0.00 0.00 0.00 0.00 0.00 0.00
0.00 0.00 0.00 0.00 0.00 0.00 0.00 0.00 0.00 0.00 0.00 0.00 0.00 0.00 0.00 0.00 0.00 0.00 0.00 0.00 0.00 0.00 0.00 0.00 0.00 0.00 0.00 0.00 0.00 0.00 0.00 0.00 0.00 0.00 0.00 0.00 0.00 0.00 0.00 0.00 0.00 0.00 0.00 0.00
0.00 0.00 0.00 0.00 0.00 0.00 0.00 0.00 0.00 0.00 0.00 0.00 0.00 0.00 0.00 0.00 0.00 0.00 0.00 0.00 0.00 0.00 0.00 0.00 0.00 0.00 0.00 0.00 0.00 0.00 0.00 0.00 0.00 0.00 0.00 0.00 0.00 0.00 0.00 0.00 0.00 0.01 0.01 0.00
0.00 0.00 0.00 0.00 0.00 0.00 0.00 0.00 0.00 0.00 0.00 0.00 0.00 0.00 0.00 0.00 0.00 0.00 0.00 0.00 0.00 0.00 0.00 0.00 0.00 0.00 0.00 0.00 0.00 0.00 0.00 0.00 0.00 0.00 0.00 0.00 0.00 0.00 0.00 0.01 0.02 0.01 0.00 0.00
0.00 0.00 0.00 0.00 0.00 0.00 0.00 0.00 0.00 0.00 0.00 0.00 0.00 0.00 0.00 0.00 0.00 0.00 0.00 0.00 0.00 0.00 0.00 0.00 0.00 0.00 0.00 0.00 0.00 0.00 0.00 0.00 0.00 0.00 0.00 0.00 0.00 0.00 0.01 0.01 0.01 0.01 0.01 0.01
0.00 0.00 0.00 0.00 0.00 0.00 0.00 0.00 0.00 0.00 0.00 0.00 0.00 0.00 0.00 0.00 0.00 0.00 0.00 0.00 0.00 0.00 0.00 0.00 0.00 0.00 0.00 0.00 0.00 0.00 0.00 0.00 0.00 0.00 0.00 0.01 0.01 0.01 0.01 0.01 0.01 0.01 0.02 0.02
0.00 0.00 0.00 0.00 0.00 0.00 0.00 0.00 0.00 0.00 0.00 0.00 0.00 0.00 0.00 0.00 0.00 0.00 0.00 0.00 0.00 0.00 0.00 0.00 0.00 0.00 0.00 0.00 0.00 0.00 0.00 0.00 0.00 0.00 0.01 0.01 0.01 0.01 0.00 0.01 0.02 0.02 0.01 0.01
0.00 0.00 0.00 0.00 0.00 0.00 0.00 0.00 0.00 0.00 0.00 0.00 0.00 0.00 0.00 0.00 0.00 0.00 0.00 0.00 0.00 0.00 0.00 0.00 0.00 0.00 0.00 0.00 0.00 0.00 0.00 0.00 0.00 0.00 0.00 0.00 0.01 0.01 0.01 0.01 0.00 0.01 0.01 0.02
0.00 0.00 0.00 0.00 0.00 0.00 0.00 0.00 0.00 0.00 0.00 0.00 0.00 0.00 0.00 0.00 0.00 0.00 0.00 0.00 0.00 0.00 0.00 0.00 0.00 0.00 0.00 0.00 0.00 0.00 0.00 0.00 0.00 0.00 0.00 0.00 0.00 0.00 0.00 0.01 0.02 0.02 0.02 0.02
0.00 0.00 0.00 0.00 0.00 0.00 0.00 0.00 0.00 0.00 0.00 0.00 0.00 0.00 0.00 0.00 0.00 0.00 0.00 0.00 0.00 0.00 0.00 0.00 0.00 0.00 0.00 0.00 0.00 0.00 0.00 0.00 0.00 0.00 0.00 0.00 0.00 0.01 0.03 0.03 0.03 0.04 0.03 0.03
0.00 0.00 0.00 0.00 0.00 0.00 0.00 0.00 0.00 0.00 0.00 0.00 0.00 0.00 0.00 0.00 0.00 0.00 0.00 0.00 0.00 0.00 0.00 0.00 0.00 0.00 0.00 0.00 0.00 0.00 0.00 0.00 0.00 0.00 0.00 0.01 0.01 0.03 0.03 0.03 0.03 0.03 0.03 0.03
0.00 0.00 0.00 0.00 0.00 0.00 0.00 0.00 0.00 0.00 0.00 0.00 0.00 0.00 0.00 0.00 0.00 0.00 0.00 0.00 0.00 0.00 0.00 0.00 0.00 0.00 0.00 0.00 0.00 0.00 0.00 0.00 0.00 0.00 0.01 0.03 0.03 0.03 0.03 0.03 0.04 0.04 0.06 0.06
0.00 0.00 0.00 0.00 0.00 0.00 0.00 0.00 0.00 0.00 0.00 0.00 0.00 0.00 0.00 0.00 0.00 0.00 0.00 0.00 0.00 0.00 0.00 0.00 0.00 0.00 0.00 0.00 0.00 0.00 0.00 0.00 0.00 0.00 0.01 0.02 0.02 0.04 0.04 0.03 0.03 0.02 0.02 0.02
0.00 0.00 0.00 0.00 0.00 0.00 0.00 0.00 0.00 0.00 0.00 0.00 0.00 0.00 0.00 0.00 0.00 0.00 0.00 0.00 0.00 0.00 0.00 0.00 0.00 0.00 0.00 0.00 0.00 0.00 0.00 0.00 0.00 0.01 0.03 0.05 0.05 0.04 0.03 0.03 0.02 0.02 0.02 0.01

GFSNGP_prec_precacc_033.txt.gz
Total_Precipitation_Accumulation
0.45 0.21 0.24 0.23 0.19 0.10 0.23 0.17 0.14 0.07 0.06 0.02 0.02 0.01 0.02 0.01 0.00 0.00 0.00 0.00 0.00 0.00 0.00 0.00 0.00 0.00 0.00 0.00 0.00 0.00 0.00 0.00 0.00 0.00 0.00 0.00 0.00 0.00 0.00 0.00 0.00 0.00 0.00 0.00
0.56 0.14 0.15 0.19 0.31 0.11 0.43 0.20 0.16 0.14 0.11 0.00 0.00 0.00 0.00 0.00 0.00 0.00 0.00 0.00 0.00 0.00 0.00 0.00 0.00 0.00 0.00 0.00 0.00 0.00 0.00 0.00 0.00 0.00 0.00 0.00 0.00 0.00 0.00 0.00 0.00 0.00 0.00 0.00
0.51 0.31 0.18 0.28 0.30 0.47 0.43 0.17 0.21 0.25 0.12 0.00 0.00 0.00 0.00 0.00 0.00 0.00 0.00 0.00 0.00 0.00 0.00 0.00 0.00 0.00 0.00 0.00 0.00 0.00 0.00 0.00 0.00 0.00 0.00 0.00 0.00 0.00 0.00 0.00 0.00 0.00 0.00 0.00
0.18 0.03 0.08 0.05 0.07 0.24 0.18 0.16 0.21 0.10 0.05 0.01 0.00 0.00 0.00 0.00 0.00 0.00 0.00 0.00 0.00 0.00 0.00 0.00 0.00 0.00 0.00 0.00 0.00 0.00 0.00 0.00 0.00 0.00 0.00 0.00 0.00 0.00 0.00 0.00 0.00 0.00 0.00 0.00
0.02 0.00 0.01 0.00 0.00 0.01 0.02 0.07 0.06 0.04 0.01 0.00 0.00 0.00 0.00 0.00 0.00 0.00 0.00 0.00 0.00 0.00 0.00 0.00 0.00 0.00 0.00 0.00 0.00 0.00 0.00 0.00 0.00 0.00 0.00 0.00 0.00 0.00 0.00 0.00 0.00 0.00 0.00 0.00
0.02 0.00 0.00 0.00 0.00 0.00 0.00 0.01 0.00 0.00 0.00 0.00 0.00 0.00 0.00 0.00 0.00 0.00 0.00 0.00 0.00 0.00 0.00 0.00 0.00 0.00 0.00 0.00 0.00 0.00 0.00 0.00 0.00 0.00 0.00 0.00 0.00 0.00 0.00 0.00 0.00 0.00 0.00 0.00
0.05 0.02 0.00 0.00 0.00 0.00 0.00 0.00 0.00 0.00 0.00 0.00 0.00 0.01 0.00 0.00 0.00 0.00 0.00 0.00 0.00 0.00 0.00 0.00 0.00 0.00 0.00 0.00 0.00 0.00 0.00 0.00 0.00 0.00 0.00 0.00 0.00 0.00 0.00 0.00 0.00 0.00 0.00 0.00
0.04 0.01 0.00 0.00 0.00 0.00 0.00 0.00 0.00 0.00 0.00 0.00 0.00 0.00 0.00 0.00 0.00 0.00 0.00 0.00 0.00 0.00 0.00 0.00 0.00 0.00 0.00 0.00 0.00 0.00 0.00 0.00 0.00 0.00 0.00 0.00 0.00 0.00 0.00 0.00 0.00 0.00 0.00 0.00
0.00 0.00 0.00 0.00 0.00 0.00 0.00 0.00 0.00 0.00 0.00 0.00 0.00 0.00 0.00 0.00 0.00 0.00 0.00 0.00 0.00 0.00 0.00 0.00 0.00 0.00 0.00 0.00 0.00 0.00 0.00 0.00 0.00 0.00 0.00 0.00 0.00 0.00 0.00 0.00 0.00 0.00 0.00 0.00
0.00 0.00 0.00 0.00 0.00 0.00 0.00 0.00 0.00 0.00 0.00 0.00 0.00 0.00 0.00 0.00 0.00 0.00 0.00 0.00 0.00 0.00 0.00 0.00 0.00 0.00 0.00 0.00 0.00 0.00 0.00 0.00 0.00 0.00 0.00 0.00 0.00 0.00 0.00 0.00 0.00 0.00 0.00 0.00
0.00 0.00 0.00 0.00 0.00 0.00 0.00 0.00 0.00 0.00 0.00 0.00 0.00 0.00 0.00 0.00 0.00 0.00 0.00 0.00 0.00 0.00 0.00 0.00 0.00 0.00 0.00 0.00 0.00 0.00 0.00 0.00 0.00 0.00 0.00 0.00 0.00 0.00 0.00 0.00 0.00 0.00 0.00 0.01
0.00 0.00 0.00 0.00 0.00 0.00 0.00 0.00 0.00 0.00 0.00 0.00 0.00 0.00 0.00 0.00 0.00 0.00 0.00 0.00 0.00 0.00 0.00 0.00 0.00 0.00 0.00 0.00 0.00 0.00 0.00 0.00 0.00 0.00 0.00 0.00 0.00 0.00 0.00 0.00 0.00 0.00 0.00 0.01
0.00 0.00 0.00 0.00 0.00 0.00 0.00 0.00 0.00 0.00 0.00 0.00 0.00 0.00 0.00 0.00 0.00 0.00 0.00 0.00 0.00 0.00 0.00 0.00 0.00 0.00 0.00 0.00 0.00 0.00 0.00 0.00 0.00 0.00 0.00 0.00 0.00 0.00 0.00 0.00 0.00 0.00 0.00 0.01
0.00 0.00 0.00 0.00 0.00 0.00 0.00 0.00 0.00 0.00 0.00 0.00 0.00 0.00 0.00 0.00 0.00 0.00 0.00 0.00 0.00 0.00 0.00 0.00 0.00 0.00 0.00 0.00 0.00 0.00 0.00 0.00 0.00 0.00 0.00 0.00 0.00 0.00 0.00 0.00 0.00 0.00 0.00 0.00
0.00 0.00 0.00 0.00 0.00 0.00 0.00 0.00 0.00 0.00 0.00 0.00 0.00 0.00 0.00 0.00 0.00 0.00 0.00 0.00 0.00 0.00 0.00 0.00 0.00 0.00 0.00 0.00 0.00 0.00 0.00 0.00 0.00 0.00 0.00 0.00 0.00 0.00 0.00 0.00 0.00 0.00 0.00 0.00
0.00 0.00 0.00 0.00 0.00 0.00 0.00 0.00 0.00 0.00 0.00 0.00 0.00 0.00 0.00 0.00 0.00 0.00 0.00 0.00 0.00 0.00 0.00 0.00 0.00 0.00 0.00 0.00 0.00 0.00 0.00 0.00 0.00 0.00 0.00 0.00 0.00 0.00 0.00 0.00 0.00 0.01 0.01 0.00
0.00 0.00 0.00 0.00 0.00 0.00 0.00 0.00 0.00 0.00 0.00 0.00 0.00 0.00 0.00 0.00 0.00 0.00 0.00 0.00 0.00 0.00 0.00 0.00 0.00 0.00 0.00 0.00 0.00 0.00 0.00 0.00 0.00 0.00 0.00 0.00 0.00 0.00 0.00 0.01 0.02 0.01 0.00 0.00
0.00 0.00 0.00 0.00 0.00 0.00 0.00 0.00 0.00 0.00 0.00 0.00 0.00 0.00 0.00 0.00 0.00 0.00 0.00 0.00 0.00 0.00 0.00 0.00 0.00 0.00 0.00 0.00 0.00 0.00 0.00 0.00 0.00 0.00 0.00 0.00 0.00 0.00 0.01 0.01 0.01 0.01 0.01 0.01
0.00 0.00 0.00 0.00 0.00 0.00 0.00 0.00 0.00 0.00 0.00 0.00 0.00 0.00 0.00 0.00 0.00 0.00 0.00 0.00 0.00 0.00 0.00 0.00 0.00 0.00 0.00 0.00 0.00 0.00 0.00 0.00 0.00 0.00 0.00 0.01 0.01 0.01 0.01 0.01 0.01 0.01 0.02 0.02
0.00 0.00 0.00 0.00 0.00 0.00 0.00 0.00 0.00 0.00 0.00 0.00 0.00 0.00 0.00 0.00 0.00 0.00 0.00 0.00 0.00 0.00 0.00 0.00 0.00 0.00 0.00 0.00 0.00 0.00 0.00 0.00 0.00 0.00 0.01 0.01 0.01 0.01 0.00 0.01 0.02 0.02 0.01 0.01
0.00 0.00 0.00 0.00 0.00 0.00 0.00 0.00 0.00 0.00 0.00 0.00 0.00 0.00 0.00 0.00 0.00 0.00 0.00 0.00 0.00 0.00 0.00 0.00 0.00 0.00 0.00 0.00 0.00 0.00 0.00 0.00 0.00 0.00 0.00 0.00 0.01 0.01 0.01 0.01 0.00 0.01 0.01 0.02
0.00 0.00 0.00 0.00 0.00 0.00 0.00 0.00 0.00 0.00 0.00 0.00 0.00 0.00 0.00 0.00 0.00 0.00 0.00 0.00 0.00 0.00 0.00 0.00 0.00 0.00 0.00 0.00 0.00 0.00 0.00 0.00 0.00 0.00 0.00 0.00 0.00 0.00 0.00 0.01 0.02 0.02 0.03 0.02
0.00 0.00 0.00 0.00 0.00 0.00 0.00 0.00 0.00 0.00 0.00 0.00 0.00 0.00 0.00 0.00 0.00 0.00 0.00 0.00 0.00 0.00 0.00 0.00 0.00 0.00 0.00 0.00 0.00 0.00 0.00 0.00 0.00 0.00 0.00 0.00 0.00 0.01 0.03 0.03 0.04 0.04 0.03 0.03
0.00 0.00 0.00 0.00 0.00 0.00 0.00 0.00 0.00 0.00 0.00 0.00 0.00 0.00 0.00 0.00 0.00 0.00 0.00 0.00 0.00 0.00 0.00 0.00 0.00 0.00 0.00 0.00 0.00 0.00 0.00 0.00 0.00 0.00 0.00 0.01 0.01 0.03 0.04 0.03 0.03 0.03 0.03 0.03
0.00 0.00 0.00 0.00 0.00 0.00 0.00 0.00 0.00 0.00 0.00 0.00 0.00 0.00 0.00 0.00 0.00 0.00 0.00 0.00 0.00 0.00 0.00 0.00 0.00 0.00 0.00 0.00 0.00 0.00 0.00 0.00 0.00 0.00 0.01 0.03 0.03 0.03 0.03 0.03 0.04 0.05 0.06 0.06
0.00 0.00 0.00 0.00 0.00 0.00 0.00 0.00 0.00 0.00 0.00 0.00 0.00 0.00 0.00 0.00 0.00 0.00 0.00 0.00 0.00 0.00 0.00 0.00 0.00 0.00 0.00 0.00 0.00 0.00 0.00 0.00 0.00 0.00 0.01 0.02 0.02 0.04 0.04 0.03 0.03 0.02 0.02 0.02
0.00 0.00 0.00 0.00 0.00 0.00 0.00 0.00 0.00 0.00 0.00 0.00 0.00 0.00 0.00 0.00 0.00 0.00 0.00 0.00 0.00 0.00 0.00 0.00 0.00 0.00 0.00 0.00 0.00 0.00 0.00 0.00 0.00 0.01 0.03 0.05 0.05 0.04 0.03 0.03 0.03 0.02 0.03 0.02

GFSNGP_prec_precacc_036.txt.gz
Total_Precipitation_Accumulation
0.49 0.28 0.37 0.39 0.33 0.23 0.34 0.20 0.15 0.07 0.07 0.03 0.02 0.01 0.02 0.01 0.01 0.02 0.00 0.00 0.00 0.00 0.00 0.00 0.00 0.00 0.00 0.00 0.00 0.00 0.00 0.00 0.00 0.00 0.00 0.00 0.00 0.00 0.00 0.00 0.00 0.00 0.00 0.00
0.61 0.24 0.31 0.31 0.36 0.16 0.46 0.21 0.16 0.14 0.12 0.01 0.01 0.01 0.00 0.00 0.00 0.01 0.00 0.00 0.00 0.00 0.00 0.00 0.00 0.00 0.00 0.00 0.00 0.00 0.00 0.00 0.00 0.00 0.00 0.00 0.00 0.00 0.00 0.00 0.00 0.00 0.00 0.00
0.62 0.48 0.25 0.40 0.42 0.50 0.43 0.17 0.21 0.26 0.14 0.01 0.01 0.01 0.00 0.00 0.01 0.00 0.00 0.00 0.00 0.00 0.00 0.00 0.00 0.00 0.00 0.00 0.00 0.00 0.00 0.00 0.00 0.00 0.00 0.00 0.00 0.00 0.00 0.00 0.00 0.00 0.00 0.00
0.27 0.13 0.14 0.10 0.10 0.30 0.25 0.22 0.24 0.13 0.06 0.02 0.00 0.00 0.00 0.00 0.00 0.00 0.00 0.00 0.00 0.00 0.00 0.00 0.00 0.00 0.00 0.00 0.00 0.00 0.00 0.00 0.00 0.00 0.00 0.00 0.00 0.00 0.00 0.00 0.00 0.00 0.00 0.00
0.08 0.03 0.02 0.00 0.00 0.02 0.11 0.20 0.13 0.06 0.01 0.00 0.00 0.00 0.00 0.00 0.00 0.00 0.00 0.00 0.00 0.00 0.00 0.00 0.00 0.00 0.00 0.00 0.00 0.00 0.00 0.00 0.00 0.00 0.00 0.00 0.00 0.00 0.00 0.00 0.00 0.00 0.00 0.00
0.03 0.03 0.01 0.00 0.00 0.00 0.00 0.03 0.01 0.01 0.02 0.02 0.01 0.01 0.00 0.00 0.00 0.00 0.00 0.00 0.00 0.00 0.00 0.00 0.00 0.00 0.00 0.00 0.00 0.00 0.00 0.00 0.00 0.00 0.00 0.00 0.00 0.00 0.00 0.00 0.00 0.00 0.00 0.00
0.06 0.03 0.00 0.00 0.00 0.00 0.00 0.00 0.00 0.00 0.00 0.01 0.01 0.02 0.01 0.00 0.00 0.00 0.00 0.00 0.00 0.00 0.00 0.00 0.00 0.00 0.00 0.00 0.00 0.00 0.00 0.00 0.00 0.00 0.00 0.00 0.00 0.00 0.00 0.00 0.00 0.00 0.00 0.00
0.04 0.01 0.00 0.00 0.00 0.00 0.00 0.00 0.00 0.00 0.00 0.00 0.00 0.00 0.00 0.00 0.00 0.00 0.00 0.00 0.00 0.00 0.00 0.00 0.00 0.00 0.00 0.00 0.00 0.00 0.00 0.00 0.00 0.00 0.00 0.00 0.00 0.00 0.00 0.00 0.00 0.00 0.00 0.00
0.00 0.00 0.00 0.00 0.00 0.00 0.00 0.00 0.00 0.00 0.00 0.00 0.00 0.00 0.00 0.00 0.00 0.00 0.00 0.00 0.00 0.00 0.00 0.00 0.00 0.00 0.00 0.00 0.00 0.00 0.00 0.00 0.00 0.00 0.00 0.00 0.00 0.00 0.00 0.00 0.00 0.00 0.00 0.00
0.00 0.00 0.00 0.00 0.00 0.00 0.00 0.00 0.00 0.00 0.00 0.00 0.00 0.00 0.00 0.00 0.00 0.00 0.00 0.00 0.00 0.00 0.00 0.00 0.00 0.00 0.00 0.00 0.00 0.00 0.00 0.00 0.00 0.00 0.00 0.00 0.00 0.00 0.00 0.00 0.00 0.00 0.00 0.00
0.00 0.00 0.00 0.00 0.00 0.00 0.00 0.00 0.00 0.00 0.00 0.00 0.00 0.00 0.00 0.00 0.00 0.00 0.00 0.00 0.00 0.00 0.00 0.00 0.00 0.00 0.00 0.00 0.00 0.00 0.00 0.00 0.00 0.00 0.00 0.00 0.00 0.00 0.00 0.00 0.00 0.00 0.00 0.01
0.00 0.00 0.00 0.00 0.00 0.00 0.00 0.00 0.00 0.00 0.00 0.00 0.00 0.00 0.00 0.00 0.00 0.00 0.00 0.00 0.00 0.00 0.00 0.00 0.00 0.00 0.00 0.00 0.00 0.00 0.00 0.00 0.00 0.00 0.00 0.00 0.00 0.00 0.00 0.00 0.00 0.00 0.00 0.01
0.00 0.00 0.00 0.00 0.00 0.00 0.00 0.00 0.00 0.00 0.00 0.00 0.00 0.00 0.00 0.00 0.00 0.00 0.00 0.00 0.00 0.00 0.00 0.00 0.00 0.00 0.00 0.00 0.00 0.00 0.00 0.00 0.00 0.00 0.00 0.00 0.00 0.00 0.00 0.00 0.00 0.00 0.00 0.01
0.00 0.00 0.00 0.00 0.00 0.00 0.00 0.00 0.00 0.00 0.00 0.00 0.00 0.00 0.00 0.00 0.00 0.00 0.00 0.00 0.00 0.00 0.00 0.00 0.00 0.00 0.00 0.00 0.00 0.00 0.00 0.00 0.00 0.00 0.00 0.00 0.00 0.00 0.00 0.00 0.00 0.00 0.00 0.00
0.00 0.00 0.00 0.00 0.00 0.00 0.00 0.00 0.00 0.00 0.00 0.00 0.00 0.00 0.00 0.00 0.00 0.00 0.00 0.00 0.00 0.00 0.00 0.00 0.00 0.00 0.00 0.00 0.00 0.00 0.00 0.00 0.00 0.00 0.00 0.00 0.00 0.00 0.00 0.00 0.00 0.00 0.00 0.00
0.00 0.00 0.00 0.00 0.00 0.00 0.00 0.00 0.00 0.00 0.00 0.00 0.00 0.00 0.00 0.00 0.00 0.00 0.00 0.00 0.00 0.00 0.00 0.00 0.00 0.00 0.00 0.00 0.00 0.00 0.00 0.00 0.00 0.00 0.00 0.00 0.00 0.00 0.00 0.00 0.00 0.01 0.01 0.00
0.00 0.00 0.00 0.00 0.00 0.00 0.00 0.00 0.00 0.00 0.00 0.00 0.00 0.00 0.00 0.00 0.00 0.00 0.00 0.00 0.00 0.00 0.00 0.00 0.00 0.00 0.00 0.00 0.00 0.00 0.00 0.00 0.00 0.00 0.00 0.00 0.00 0.00 0.00 0.01 0.02 0.01 0.00 0.00
0.00 0.00 0.00 0.00 0.00 0.00 0.00 0.00 0.00 0.00 0.00 0.00 0.00 0.00 0.00 0.00 0.00 0.00 0.00 0.00 0.00 0.00 0.00 0.00 0.00 0.00 0.00 0.00 0.00 0.00 0.00 0.00 0.00 0.00 0.00 0.00 0.00 0.00 0.01 0.01 0.01 0.01 0.01 0.01
0.00 0.00 0.00 0.00 0.00 0.00 0.00 0.00 0.00 0.00 0.00 0.00 0.00 0.00 0.00 0.00 0.00 0.00 0.00 0.00 0.00 0.00 0.00 0.00 0.00 0.00 0.00 0.00 0.00 0.00 0.00 0.00 0.00 0.00 0.00 0.01 0.01 0.01 0.01 0.01 0.01 0.01 0.02 0.02
0.00 0.00 0.00 0.00 0.00 0.00 0.00 0.00 0.00 0.00 0.00 0.00 0.00 0.00 0.00 0.00 0.00 0.00 0.00 0.00 0.00 0.00 0.00 0.00 0.00 0.00 0.00 0.00 0.00 0.00 0.00 0.00 0.00 0.00 0.01 0.01 0.01 0.01 0.00 0.01 0.02 0.02 0.01 0.01
0.00 0.00 0.00 0.00 0.00 0.00 0.00 0.00 0.00 0.00 0.00 0.00 0.00 0.00 0.00 0.00 0.00 0.00 0.00 0.00 0.00 0.00 0.00 0.00 0.00 0.00 0.00 0.00 0.00 0.00 0.00 0.00 0.00 0.00 0.00 0.00 0.01 0.01 0.01 0.01 0.00 0.01 0.01 0.02
0.00 0.00 0.00 0.00 0.00 0.00 0.00 0.00 0.00 0.00 0.00 0.00 0.00 0.00 0.00 0.00 0.00 0.00 0.00 0.00 0.00 0.00 0.00 0.00 0.00 0.00 0.00 0.00 0.00 0.00 0.00 0.00 0.00 0.00 0.00 0.00 0.00 0.00 0.00 0.01 0.02 0.02 0.03 0.03
0.00 0.00 0.00 0.00 0.00 0.00 0.00 0.00 0.00 0.00 0.00 0.00 0.00 0.00 0.00 0.00 0.00 0.00 0.00 0.00 0.00 0.00 0.00 0.00 0.00 0.00 0.00 0.00 0.00 0.00 0.00 0.00 0.00 0.00 0.00 0.00 0.00 0.01 0.03 0.03 0.04 0.04 0.03 0.03
0.00 0.00 0.00 0.00 0.00 0.00 0.00 0.00 0.00 0.00 0.00 0.00 0.00 0.00 0.00 0.00 0.00 0.00 0.00 0.00 0.00 0.00 0.00 0.00 0.00 0.00 0.00 0.00 0.00 0.00 0.00 0.00 0.00 0.00 0.00 0.01 0.01 0.03 0.04 0.03 0.03 0.03 0.03 0.03
0.00 0.00 0.00 0.00 0.00 0.00 0.00 0.00 0.00 0.00 0.00 0.00 0.00 0.00 0.00 0.00 0.00 0.00 0.00 0.00 0.00 0.00 0.00 0.00 0.00 0.00 0.00 0.00 0.00 0.00 0.00 0.00 0.00 0.00 0.01 0.03 0.03 0.03 0.03 0.03 0.04 0.05 0.06 0.06
0.00 0.00 0.00 0.00 0.00 0.00 0.00 0.00 0.00 0.00 0.00 0.00 0.00 0.00 0.00 0.00 0.00 0.00 0.00 0.00 0.00 0.00 0.00 0.00 0.00 0.00 0.00 0.00 0.00 0.00 0.00 0.00 0.00 0.00 0.01 0.02 0.02 0.04 0.04 0.03 0.03 0.02 0.02 0.02
0.00 0.00 0.00 0.00 0.00 0.00 0.00 0.00 0.00 0.00 0.00 0.00 0.00 0.00 0.00 0.00 0.00 0.00 0.00 0.00 0.00 0.00 0.00 0.00 0.00 0.00 0.00 0.00 0.00 0.00 0.00 0.00 0.00 0.01 0.03 0.05 0.05 0.04 0.03 0.03 0.03 0.02 0.03 0.02

GFSNGP_prec_precacc_039.txt.gz
Total_Precipitation_Accumulation
0.49 0.28 0.42 0.52 0.50 0.39 0.54 0.25 0.20 0.09 0.07 0.03 0.03 0.02 0.02 0.01 0.01 0.02 0.00 0.00 0.00 0.00 0.00 0.00 0.00 0.00 0.00 0.00 0.00 0.00 0.00 0.00 0.00 0.00 0.00 0.00 0.00 0.00 0.00 0.00 0.00 0.00 0.00 0.00
0.61 0.24 0.38 0.47 0.47 0.24 0.48 0.21 0.18 0.14 0.12 0.01 0.01 0.01 0.00 0.00 0.01 0.02 0.00 0.00 0.00 0.00 0.00 0.00 0.00 0.00 0.00 0.00 0.00 0.00 0.00 0.00 0.00 0.00 0.00 0.00 0.00 0.00 0.00 0.00 0.00 0.00 0.00 0.00
0.63 0.48 0.28 0.46 0.55 0.60 0.44 0.18 0.22 0.26 0.14 0.01 0.01 0.01 0.00 0.01 0.02 0.01 0.00 0.00 0.00 0.00 0.00 0.00 0.00 0.00 0.00 0.00 0.00 0.00 0.00 0.00 0.00 0.00 0.00 0.00 0.00 0.00 0.00 0.00 0.00 0.00 0.00 0.00
0.28 0.14 0.15 0.11 0.14 0.39 0.26 0.22 0.24 0.14 0.07 0.02 0.00 0.00 0.00 0.00 0.00 0.00 0.00 0.00 0.00 0.00 0.00 0.00 0.00 0.00 0.00 0.00 0.00 0.00 0.00 0.00 0.00 0.00 0.00 0.00 0.00 0.00 0.00 0.00 0.00 0.00 0.00 0.00
0.11 0.05 0.03 0.00 0.00 0.05 0.13 0.20 0.13 0.06 0.01 0.00 0.00 0.00 0.00 0.00 0.00 0.00 0.00 0.00 0.00 0.00 0.00 0.00 0.00 0.00 0.00 0.00 0.00 0.00 0.00 0.00 0.00 0.00 0.00 0.00 0.00 0.00 0.00 0.00 0.00 0.00 0.00 0.00
0.05 0.07 0.01 0.00 0.00 0.00 0.01 0.04 0.01 0.01 0.02 0.02 0.01 0.01 0.00 0.00 0.00 0.00 0.00 0.00 0.00 0.00 0.00 0.00 0.00 0.00 0.00 0.00 0.00 0.00 0.00 0.00 0.00 0.00 0.00 0.00 0.00 0.00 0.00 0.00 0.00 0.00 0.00 0.00
0.08 0.06 0.00 0.00 0.00 0.00 0.01 0.02 0.00 0.00 0.00 0.01 0.01 0.02 0.01 0.00 0.00 0.00 0.00 0.00 0.00 0.00 0.00 0.00 0.00 0.00 0.00 0.00 0.00 0.00 0.00 0.00 0.00 0.00 0.00 0.00 0.00 0.00 0.00 0.00 0.00 0.00 0.00 0.00
0.05 0.01 0.00 0.00 0.00 0.00 0.00 0.00 0.00 0.00 0.00 0.00 0.00 0.02 0.01 0.00 0.00 0.00 0.00 0.00 0.00 0.00 0.00 0.00 0.00 0.00 0.00 0.00 0.00 0.00 0.00 0.00 0.00 0.00 0.00 0.00 0.00 0.00 0.00 0.00 0.00 0.00 0.00 0.00
0.00 0.00 0.00 0.00 0.00 0.00 0.00 0.00 0.00 0.00 0.00 0.00 0.00 0.01 0.00 0.01 0.00 0.00 0.00 0.00 0.00 0.00 0.00 0.00 0.00 0.00 0.00 0.00 0.00 0.00 0.00 0.00 0.00 0.00 0.00 0.00 0.00 0.00 0.00 0.00 0.00 0.00 0.00 0.00
0.00 0.00 0.00 0.00 0.00 0.00 0.00 0.00 0.00 0.00 0.00 0.00 0.00 0.00 0.00 0.00 0.00 0.00 0.00 0.00 0.00 0.00 0.00 0.00 0.00 0.00 0.00 0.00 0.00 0.00 0.00 0.00 0.00 0.00 0.00 0.00 0.00 0.00 0.00 0.00 0.00 0.00 0.00 0.00
0.00 0.00 0.00 0.00 0.00 0.00 0.00 0.00 0.00 0.00 0.00 0.00 0.00 0.00 0.00 0.00 0.00 0.00 0.00 0.00 0.00 0.00 0.00 0.00 0.00 0.00 0.00 0.00 0.00 0.00 0.00 0.00 0.00 0.00 0.00 0.00 0.00 0.00 0.00 0.00 0.00 0.00 0.00 0.01
0.00 0.00 0.00 0.00 0.00 0.00 0.00 0.00 0.00 0.00 0.00 0.00 0.00 0.00 0.00 0.00 0.00 0.00 0.00 0.00 0.00 0.00 0.00 0.00 0.00 0.00 0.00 0.00 0.00 0.00 0.00 0.00 0.00 0.00 0.00 0.00 0.00 0.00 0.00 0.00 0.00 0.00 0.00 0.01
0.00 0.00 0.00 0.00 0.00 0.00 0.00 0.00 0.00 0.00 0.00 0.00 0.00 0.00 0.00 0.00 0.00 0.00 0.00 0.00 0.00 0.00 0.00 0.00 0.00 0.00 0.00 0.00 0.00 0.00 0.00 0.00 0.00 0.00 0.00 0.00 0.00 0.00 0.00 0.00 0.00 0.00 0.00 0.01
0.00 0.00 0.00 0.00 0.00 0.00 0.00 0.00 0.00 0.00 0.00 0.00 0.00 0.00 0.00 0.00 0.00 0.00 0.00 0.00 0.00 0.00 0.00 0.00 0.00 0.00 0.00 0.00 0.00 0.00 0.00 0.00 0.00 0.00 0.00 0.00 0.00 0.00 0.00 0.00 0.00 0.00 0.00 0.00
0.00 0.00 0.00 0.00 0.00 0.00 0.00 0.00 0.00 0.00 0.00 0.00 0.00 0.00 0.00 0.00 0.00 0.00 0.00 0.00 0.00 0.00 0.00 0.00 0.00 0.00 0.00 0.00 0.00 0.00 0.00 0.00 0.00 0.00 0.00 0.00 0.00 0.00 0.00 0.00 0.00 0.00 0.00 0.00
0.00 0.00 0.00 0.00 0.00 0.00 0.00 0.00 0.00 0.00 0.00 0.00 0.00 0.00 0.00 0.00 0.00 0.00 0.00 0.00 0.00 0.00 0.00 0.00 0.00 0.00 0.00 0.00 0.00 0.00 0.00 0.00 0.00 0.00 0.00 0.00 0.00 0.00 0.00 0.00 0.00 0.01 0.01 0.00
0.00 0.00 0.00 0.00 0.00 0.00 0.00 0.00 0.00 0.00 0.00 0.00 0.00 0.00 0.00 0.00 0.00 0.00 0.00 0.00 0.00 0.00 0.00 0.00 0.00 0.00 0.00 0.00 0.00 0.00 0.00 0.00 0.00 0.00 0.00 0.00 0.00 0.00 0.00 0.01 0.02 0.01 0.00 0.00
0.00 0.00 0.00 0.00 0.00 0.00 0.00 0.00 0.00 0.00 0.00 0.00 0.00 0.00 0.00 0.00 0.00 0.00 0.00 0.00 0.00 0.00 0.00 0.00 0.00 0.00 0.00 0.00 0.00 0.00 0.00 0.00 0.00 0.00 0.00 0.00 0.00 0.00 0.01 0.01 0.01 0.01 0.01 0.01
0.00 0.00 0.00 0.00 0.00 0.00 0.00 0.00 0.00 0.00 0.00 0.00 0.00 0.00 0.00 0.00 0.00 0.00 0.00 0.00 0.00 0.00 0.00 0.00 0.00 0.00 0.00 0.00 0.00 0.00 0.00 0.00 0.00 0.00 0.00 0.01 0.01 0.01 0.01 0.01 0.01 0.01 0.02 0.02
0.00 0.00 0.00 0.00 0.00 0.00 0.00 0.00 0.00 0.00 0.00 0.00 0.00 0.00 0.00 0.00 0.00 0.00 0.00 0.00 0.00 0.00 0.00 0.00 0.00 0.00 0.00 0.00 0.00 0.00 0.00 0.00 0.00 0.00 0.01 0.01 0.01 0.01 0.00 0.01 0.02 0.02 0.01 0.01
0.00 0.00 0.00 0.00 0.00 0.00 0.00 0.00 0.00 0.00 0.00 0.00 0.00 0.00 0.00 0.00 0.00 0.00 0.00 0.00 0.00 0.00 0.00 0.00 0.00 0.00 0.00 0.00 0.00 0.00 0.00 0.00 0.00 0.00 0.00 0.00 0.01 0.01 0.01 0.01 0.00 0.01 0.01 0.02
0.00 0.00 0.00 0.00 0.00 0.00 0.00 0.00 0.00 0.00 0.00 0.00 0.00 0.00 0.00 0.00 0.00 0.00 0.00 0.00 0.00 0.00 0.00 0.00 0.00 0.00 0.00 0.00 0.00 0.00 0.00 0.00 0.00 0.00 0.00 0.00 0.00 0.00 0.00 0.01 0.02 0.02 0.03 0.03
0.00 0.00 0.00 0.00 0.00 0.00 0.00 0.00 0.00 0.00 0.00 0.00 0.00 0.00 0.00 0.00 0.00 0.00 0.00 0.00 0.00 0.00 0.00 0.00 0.00 0.00 0.00 0.00 0.00 0.00 0.00 0.00 0.00 0.00 0.00 0.00 0.00 0.01 0.03 0.03 0.04 0.04 0.03 0.03
0.00 0.00 0.00 0.00 0.00 0.00 0.00 0.00 0.00 0.00 0.00 0.00 0.00 0.00 0.00 0.00 0.00 0.00 0.00 0.00 0.00 0.00 0.00 0.00 0.00 0.00 0.00 0.00 0.00 0.00 0.00 0.00 0.00 0.00 0.00 0.01 0.01 0.03 0.04 0.03 0.03 0.03 0.03 0.03
0.00 0.00 0.00 0.00 0.00 0.00 0.00 0.00 0.00 0.00 0.00 0.00 0.00 0.00 0.00 0.00 0.00 0.00 0.00 0.00 0.00 0.00 0.00 0.00 0.00 0.00 0.00 0.00 0.00 0.00 0.00 0.00 0.00 0.00 0.01 0.03 0.03 0.03 0.03 0.03 0.04 0.05 0.07 0.06
0.00 0.00 0.00 0.00 0.00 0.00 0.00 0.00 0.00 0.00 0.00 0.00 0.00 0.00 0.00 0.00 0.00 0.00 0.00 0.00 0.00 0.00 0.00 0.00 0.00 0.00 0.00 0.00 0.00 0.00 0.00 0.00 0.00 0.00 0.01 0.02 0.02 0.04 0.04 0.03 0.03 0.02 0.02 0.02
0.00 0.00 0.00 0.00 0.00 0.00 0.00 0.00 0.00 0.00 0.00 0.00 0.00 0.00 0.00 0.00 0.00 0.00 0.00 0.00 0.00 0.00 0.00 0.00 0.00 0.00 0.00 0.00 0.00 0.00 0.00 0.00 0.00 0.01 0.03 0.05 0.05 0.04 0.03 0.03 0.03 0.02 0.03 0.02

GFSNGP_prec_precacc_042.txt.gz
Total_Precipitation_Accumulation
0.49 0.28 0.42 0.57 0.56 0.48 0.77 0.35 0.28 0.10 0.07 0.03 0.03 0.02 0.02 0.01 0.01 0.02 0.01 0.00 0.00 0.00 0.00 0.00 0.00 0.00 0.00 0.00 0.00 0.00 0.00 0.00 0.00 0.00 0.00 0.00 0.00 0.00 0.00 0.00 0.00 0.00 0.00 0.00
0.61 0.24 0.38 0.48 0.55 0.34 0.52 0.22 0.19 0.15 0.12 0.01 0.01 0.01 0.00 0.00 0.01 0.02 0.00 0.00 0.00 0.00 0.00 0.00 0.00 0.00 0.00 0.00 0.00 0.00 0.00 0.00 0.00 0.00 0.00 0.00 0.00 0.00 0.00 0.00 0.00 0.00 0.00 0.00
0.64 0.48 0.28 0.46 0.58 0.66 0.46 0.18 0.22 0.27 0.14 0.01 0.01 0.01 0.00 0.01 0.02 0.02 0.00 0.00 0.00 0.00 0.00 0.00 0.00 0.00 0.00 0.00 0.00 0.00 0.00 0.00 0.00 0.00 0.00 0.00 0.00 0.00 0.00 0.00 0.00 0.00 0.00 0.00
0.30 0.15 0.15 0.11 0.14 0.43 0.27 0.22 0.24 0.14 0.07 0.02 0.00 0.00 0.01 0.02 0.01 0.01 0.00 0.00 0.00 0.00 0.00 0.00 0.00 0.00 0.00 0.00 0.00 0.00 0.00 0.00 0.00 0.00 0.00 0.00 0.00 0.00 0.00 0.00 0.00 0.00 0.00 0.00
0.13 0.06 0.03 0.00 0.00 0.07 0.13 0.20 0.13 0.06 0.01 0.00 0.00 0.01 0.15 0.08 0.02 0.00 0.00 0.00 0.00 0.00 0.00 0.00 0.00 0.00 0.00 0.00 0.00 0.00 0.00 0.00 0.00 0.00 0.00 0.00 0.00 0.00 0.00 0.00 0.00 0.00 0.00 0.00
0.07 0.10 0.02 0.00 0.00 0.00 0.01 0.05 0.02 0.01 0.02 0.02 0.01 0.02 0.02 0.05 0.02 0.00 0.00 0.00 0.00 0.00 0.00 0.00 0.00 0.00 0.00 0.00 0.00 0.00 0.00 0.00 0.00 0.00 0.00 0.00 0.00 0.00 0.00 0.00 0.00 0.00 0.00 0.00
0.10 0.12 0.00 0.00 0.00 0.00 0.04 0.05 0.01 0.02 0.01 0.01 0.01 0.02 0.01 0.00 0.00 0.00 0.00 0.00 0.00 0.00 0.00 0.00 0.00 0.00 0.00 0.00 0.00 0.00 0.00 0.00 0.00 0.00 0.00 0.00 0.00 0.00 0.00 0.00 0.00 0.00 0.00 0.00
0.06 0.03 0.00 0.00 0.00 0.00 0.00 0.01 0.01 0.02 0.01 0.01 0.01 0.02 0.02 0.00 0.00 0.00 0.00 0.00 0.01 0.00 0.00 0.00 0.00 0.00 0.00 0.00 0.00 0.00 0.00 0.00 0.00 0.00 0.00 0.00 0.00 0.00 0.00 0.00 0.00 0.00 0.00 0.00
0.00 0.00 0.00 0.00 0.00 0.00 0.00 0.00 0.00 0.01 0.01 0.04 0.05 0.03 0.01 0.01 0.00 0.00 0.00 0.00 0.00 0.00 0.00 0.00 0.00 0.00 0.00 0.00 0.00 0.00 0.00 0.00 0.00 0.00 0.00 0.00 0.00 0.00 0.00 0.00 0.00 0.00 0.00 0.00
0.00 0.00 0.00 0.00 0.00 0.00 0.00 0.00 0.00 0.00 0.00 0.00 0.00 0.00 0.01 0.03 0.01 0.00 0.00 0.00 0.00 0.00 0.00 0.00 0.00 0.00 0.00 0.00 0.00 0.00 0.00 0.00 0.00 0.00 0.00 0.00 0.00 0.00 0.00 0.00 0.00 0.00 0.00 0.00
0.00 0.00 0.00 0.00 0.00 0.00 0.00 0.00 0.00 0.00 0.00 0.00 0.00 0.00 0.00 0.00 0.00 0.00 0.00 0.00 0.00 0.00 0.00 0.00 0.00 0.00 0.00 0.00 0.00 0.00 0.00 0.00 0.00 0.00 0.00 0.00 0.00 0.00 0.00 0.00 0.00 0.00 0.00 0.01
0.00 0.00 0.00 0.00 0.00 0.00 0.00 0.00 0.00 0.00 0.00 0.00 0.00 0.00 0.00 0.00 0.00 0.00 0.00 0.00 0.00 0.00 0.00 0.00 0.00 0.00 0.00 0.00 0.00 0.00 0.00 0.00 0.00 0.00 0.00 0.00 0.00 0.00 0.00 0.00 0.00 0.00 0.00 0.01
0.00 0.00 0.00 0.00 0.00 0.00 0.00 0.00 0.00 0.00 0.00 0.00 0.00 0.00 0.00 0.00 0.00 0.00 0.00 0.00 0.00 0.00 0.00 0.00 0.00 0.00 0.00 0.00 0.00 0.00 0.00 0.00 0.00 0.00 0.00 0.00 0.00 0.00 0.00 0.00 0.00 0.00 0.00 0.01
0.00 0.00 0.00 0.00 0.00 0.00 0.00 0.00 0.02 0.00 0.00 0.00 0.00 0.00 0.00 0.00 0.00 0.00 0.00 0.00 0.00 0.00 0.00 0.00 0.00 0.00 0.00 0.00 0.00 0.00 0.00 0.00 0.00 0.00 0.00 0.00 0.00 0.00 0.00 0.00 0.00 0.00 0.00 0.00
0.00 0.00 0.00 0.00 0.00 0.02 0.00 0.00 0.00 0.01 0.02 0.00 0.00 0.00 0.00 0.00 0.00 0.00 0.00 0.00 0.00 0.00 0.00 0.00 0.00 0.00 0.00 0.00 0.00 0.00 0.00 0.00 0.00 0.00 0.00 0.00 0.00 0.00 0.00 0.00 0.00 0.00 0.00 0.00
0.00 0.00 0.00 0.00 0.01 0.03 0.02 0.00 0.00 0.00 0.00 0.00 0.00 0.00 0.00 0.00 0.00 0.00 0.00 0.00 0.00 0.00 0.00 0.00 0.00 0.00 0.00 0.00 0.00 0.00 0.00 0.00 0.00 0.00 0.00 0.00 0.00 0.00 0.00 0.00 0.00 0.01 0.01 0.00
0.01 0.01 0.00 0.00 0.00 0.01 0.02 0.02 0.00 0.00 0.00 0.00 0.00 0.00 0.00 0.00 0.00 0.00 0.00 0.00 0.00 0.00 0.00 0.00 0.00 0.00 0.00 0.00 0.00 0.00 0.00 0.00 0.00 0.00 0.00 0.00 0.00 0.00 0.00 0.01 0.02 0.01 0.00 0.00
0.00 0.01 0.00 0.00 0.00 0.00 0.00 0.00 0.00 0.00 0.00 0.00 0.00 0.00 0.00 0.00 0.00 0.00 0.00 0.00 0.00 0.00 0.00 0.00 0.00 0.00 0.00 0.00 0.00 0.00 0.00 0.00 0.00 0.00 0.00 0.00 0.00 0.00 0.01 0.01 0.01 0.01 0.01 0.01
0.00 0.00 0.00 0.00 0.00 0.00 0.00 0.00 0.00 0.00 0.00 0.00 0.00 0.00 0.00 0.00 0.00 0.00 0.00 0.00 0.00 0.00 0.00 0.00 0.00 0.00 0.00 0.00 0.00 0.00 0.00 0.00 0.00 0.00 0.00 0.01 0.01 0.01 0.01 0.01 0.01 0.01 0.02 0.02
0.00 0.00 0.00 0.00 0.00 0.00 0.00 0.00 0.00 0.00 0.00 0.00 0.00 0.00 0.00 0.00 0.00 0.00 0.00 0.00 0.00 0.00 0.00 0.00 0.00 0.00 0.00 0.00 0.00 0.00 0.00 0.00 0.00 0.00 0.01 0.01 0.01 0.01 0.00 0.01 0.02 0.02 0.01 0.01
0.00 0.00 0.00 0.00 0.00 0.00 0.00 0.00 0.00 0.00 0.00 0.00 0.00 0.00 0.00 0.00 0.00 0.00 0.00 0.00 0.00 0.00 0.00 0.00 0.00 0.00 0.00 0.00 0.00 0.00 0.00 0.00 0.00 0.00 0.00 0.00 0.01 0.01 0.01 0.01 0.00 0.01 0.01 0.02
0.00 0.00 0.00 0.00 0.00 0.00 0.00 0.00 0.00 0.00 0.00 0.00 0.00 0.00 0.00 0.00 0.00 0.00 0.00 0.00 0.00 0.00 0.00 0.00 0.00 0.00 0.00 0.00 0.00 0.00 0.00 0.00 0.00 0.00 0.00 0.00 0.00 0.00 0.00 0.01 0.02 0.02 0.03 0.03
0.00 0.00 0.00 0.00 0.00 0.00 0.00 0.00 0.00 0.00 0.00 0.00 0.00 0.00 0.00 0.00 0.00 0.00 0.00 0.00 0.00 0.00 0.00 0.00 0.00 0.00 0.00 0.00 0.00 0.00 0.00 0.00 0.00 0.00 0.00 0.00 0.00 0.01 0.03 0.03 0.04 0.04 0.03 0.03
0.00 0.00 0.00 0.00 0.00 0.00 0.00 0.00 0.00 0.00 0.00 0.00 0.00 0.00 0.00 0.00 0.00 0.00 0.00 0.00 0.00 0.00 0.00 0.00 0.00 0.00 0.00 0.00 0.00 0.00 0.00 0.00 0.00 0.00 0.00 0.01 0.01 0.03 0.04 0.03 0.03 0.03 0.03 0.04
0.00 0.00 0.00 0.00 0.00 0.00 0.00 0.00 0.00 0.00 0.00 0.00 0.00 0.00 0.00 0.00 0.00 0.00 0.00 0.00 0.00 0.00 0.00 0.00 0.00 0.00 0.00 0.00 0.00 0.00 0.00 0.00 0.00 0.00 0.01 0.03 0.03 0.03 0.03 0.03 0.04 0.05 0.07 0.06
0.00 0.00 0.00 0.00 0.00 0.00 0.00 0.00 0.00 0.00 0.00 0.00 0.00 0.00 0.00 0.00 0.00 0.00 0.00 0.00 0.00 0.00 0.00 0.00 0.00 0.00 0.00 0.00 0.00 0.00 0.00 0.00 0.00 0.00 0.01 0.02 0.02 0.04 0.04 0.03 0.03 0.02 0.02 0.02
0.00 0.00 0.00 0.00 0.00 0.00 0.00 0.00 0.00 0.00 0.00 0.00 0.00 0.00 0.00 0.00 0.00 0.00 0.00 0.00 0.00 0.00 0.00 0.00 0.00 0.00 0.00 0.00 0.00 0.00 0.00 0.00 0.00 0.01 0.03 0.05 0.05 0.04 0.03 0.03 0.03 0.02 0.03 0.02

GFSNGP_prec_precacc_045.txt.gz
Total_Precipitation_Accumulation
0.49 0.28 0.42 0.57 0.56 0.49 0.89 0.49 0.41 0.13 0.07 0.03 0.03 0.02 0.02 0.01 0.01 0.03 0.02 0.01 0.00 0.00 0.00 0.00 0.00 0.00 0.00 0.00 0.00 0.00 0.00 0.00 0.00 0.00 0.00 0.00 0.00 0.00 0.00 0.00 0.00 0.00 0.00 0.00
0.61 0.24 0.38 0.48 0.55 0.36 0.56 0.25 0.22 0.15 0.12 0.01 0.01 0.01 0.00 0.00 0.02 0.04 0.04 0.02 0.01 0.00 0.00 0.00 0.00 0.00 0.00 0.00 0.00 0.00 0.00 0.00 0.00 0.00 0.00 0.00 0.00 0.00 0.00 0.00 0.00 0.00 0.00 0.00
0.64 0.48 0.28 0.46 0.58 0.68 0.48 0.19 0.22 0.27 0.14 0.01 0.01 0.04 0.05 0.03 0.04 0.03 0.02 0.00 0.00 0.00 0.00 0.00 0.00 0.00 0.00 0.00 0.00 0.00 0.00 0.00 0.00 0.00 0.00 0.00 0.00 0.00 0.00 0.00 0.00 0.00 0.00 0.00
0.31 0.15 0.16 0.11 0.14 0.44 0.28 0.23 0.24 0.14 0.07 0.02 0.00 0.00 0.01 0.03 0.02 0.01 0.01 0.00 0.00 0.00 0.00 0.00 0.00 0.01 0.01 0.00 0.00 0.00 0.00 0.00 0.00 0.00 0.00 0.00 0.00 0.00 0.00 0.00 0.00 0.00 0.00 0.00
0.14 0.07 0.03 0.00 0.00 0.07 0.13 0.20 0.13 0.06 0.01 0.00 0.00 0.16 0.29 0.12 0.04 0.01 0.00 0.00 0.00 0.00 0.00 0.00 0.01 0.02 0.01 0.00 0.00 0.01 0.01 0.00 0.00 0.00 0.00 0.00 0.00 0.00 0.00 0.00 0.00 0.00 0.00 0.00
0.08 0.12 0.02 0.00 0.00 0.01 0.02 0.08 0.02 0.02 0.03 0.02 0.01 0.18 0.16 0.13 0.03 0.01 0.00 0.00 0.00 0.00 0.01 0.04 0.07 0.05 0.03 0.03 0.02 0.01 0.01 0.00 0.00 0.00 0.00 0.00 0.00 0.00 0.00 0.00 0.00 0.00 0.00 0.00
0.12 0.16 0.01 0.00 0.00 0.01 0.05 0.09 0.01 0.04 0.02 0.01 0.01 0.02 0.04 0.05 0.02 0.00 0.00 0.00 0.01 0.01 0.02 0.02 0.02 0.01 0.01 0.00 0.00 0.00 0.00 0.00 0.00 0.00 0.00 0.00 0.00 0.00 0.00 0.00 0.00 0.00 0.00 0.00
0.09 0.07 0.00 0.00 0.00 0.00 0.00 0.01 0.02 0.08 0.01 0.01 0.01 0.02 0.02 0.00 0.00 0.00 0.00 0.00 0.01 0.00 0.00 0.00 0.00 0.00 0.00 0.00 0.00 0.00 0.00 0.00 0.00 0.00 0.00 0.00 0.00 0.00 0.00 0.00 0.00 0.00 0.00 0.00
0.00 0.00 0.00 0.00 0.00 0.00 0.00 0.00 0.00 0.02 0.09 0.10 0.07 0.14 0.06 0.01 0.00 0.01 0.02 0.01 0.03 0.02 0.01 0.01 0.00 0.00 0.00 0.00 0.00 0.00 0.00 0.00 0.00 0.00 0.00 0.00 0.00 0.00 0.00 0.00 0.00 0.00 0.00 0.00
0.00 0.00 0.00 0.00 0.00 0.00 0.00 0.00 0.00 0.00 0.01 0.10 0.03 0.02 0.02 0.04 0.02 0.00 0.00 0.00 0.01 0.01 0.00 0.00 0.00 0.00 0.00 0.00 0.00 0.00 0.00 0.00 0.00 0.00 0.00 0.00 0.00 0.00 0.00 0.00 0.00 0.00 0.00 0.00
0.00 0.00 0.00 0.00 0.00 0.00 0.00 0.00 0.00 0.00 0.00 0.00 0.00 0.01 0.01 0.07 0.03 0.00 0.00 0.00 0.00 0.00 0.00 0.00 0.00 0.00 0.00 0.00 0.00 0.00 0.00 0.00 0.00 0.00 0.00 0.00 0.00 0.00 0.00 0.00 0.00 0.00 0.00 0.01
0.00 0.00 0.00 0.00 0.00 0.00 0.00 0.00 0.00 0.00 0.00 0.00 0.00 0.00 0.00 0.00 0.00 0.00 0.00 0.00 0.00 0.00 0.00 0.00 0.00 0.00 0.00 0.00 0.00 0.00 0.00 0.00 0.00 0.00 0.00 0.00 0.00 0.00 0.00 0.00 0.00 0.00 0.00 0.01
0.00 0.00 0.00 0.00 0.00 0.00 0.00 0.00 0.00 0.00 0.00 0.00 0.00 0.00 0.00 0.00 0.00 0.00 0.00 0.00 0.00 0.00 0.00 0.00 0.00 0.00 0.00 0.00 0.00 0.00 0.00 0.00 0.00 0.00 0.00 0.00 0.00 0.00 0.00 0.00 0.00 0.00 0.00 0.01
0.00 0.00 0.00 0.00 0.00 0.00 0.00 0.00 0.03 0.01 0.00 0.00 0.00 0.00 0.00 0.00 0.00 0.00 0.00 0.00 0.00 0.00 0.00 0.00 0.00 0.00 0.00 0.00 0.00 0.00 0.00 0.00 0.00 0.00 0.00 0.00 0.00 0.00 0.00 0.00 0.00 0.00 0.00 0.00
0.00 0.00 0.00 0.00 0.00 0.02 0.01 0.00 0.00 0.01 0.02 0.00 0.00 0.00 0.00 0.00 0.00 0.00 0.00 0.00 0.00 0.00 0.00 0.00 0.00 0.00 0.00 0.00 0.00 0.00 0.00 0.00 0.00 0.00 0.00 0.00 0.00 0.00 0.00 0.00 0.00 0.00 0.00 0.00
0.00 0.00 0.00 0.00 0.01 0.03 0.03 0.00 0.00 0.00 0.01 0.00 0.00 0.00 0.00 0.00 0.00 0.00 0.00 0.00 0.00 0.00 0.00 0.00 0.00 0.00 0.00 0.00 0.00 0.00 0.00 0.00 0.00 0.00 0.00 0.00 0.00 0.00 0.00 0.00 0.00 0.01 0.01 0.00
0.01 0.01 0.00 0.00 0.00 0.02 0.03 0.04 0.00 0.00 0.00 0.00 0.00 0.00 0.00 0.00 0.00 0.00 0.00 0.00 0.00 0.00 0.00 0.00 0.00 0.00 0.00 0.00 0.00 0.00 0.00 0.00 0.00 0.00 0.00 0.00 0.00 0.00 0.00 0.01 0.02 0.01 0.00 0.00
0.00 0.01 0.02 0.01 0.00 0.00 0.00 0.02 0.00 0.00 0.00 0.00 0.00 0.00 0.00 0.00 0.00 0.00 0.00 0.00 0.00 0.00 0.00 0.00 0.00 0.00 0.00 0.00 0.00 0.00 0.00 0.00 0.00 0.00 0.00 0.00 0.00 0.00 0.01 0.01 0.01 0.01 0.01 0.01
0.00 0.00 0.01 0.00 0.00 0.00 0.00 0.00 0.00 0.00 0.00 0.00 0.00 0.00 0.00 0.00 0.00 0.00 0.00 0.00 0.00 0.00 0.00 0.00 0.00 0.00 0.00 0.00 0.00 0.00 0.00 0.00 0.00 0.00 0.00 0.01 0.01 0.01 0.01 0.01 0.01 0.01 0.02 0.02
0.00 0.00 0.00 0.00 0.00 0.00 0.00 0.00 0.00 0.00 0.00 0.00 0.00 0.00 0.00 0.00 0.00 0.00 0.00 0.00 0.00 0.00 0.00 0.00 0.00 0.00 0.00 0.00 0.00 0.00 0.00 0.00 0.00 0.00 0.01 0.01 0.01 0.01 0.00 0.01 0.02 0.02 0.01 0.01
0.00 0.00 0.00 0.00 0.00 0.00 0.00 0.00 0.00 0.00 0.00 0.00 0.00 0.00 0.00 0.00 0.00 0.00 0.00 0.00 0.00 0.00 0.00 0.00 0.00 0.00 0.00 0.00 0.00 0.00 0.00 0.00 0.00 0.00 0.00 0.00 0.01 0.01 0.01 0.01 0.00 0.01 0.01 0.02
0.00 0.00 0.00 0.00 0.00 0.00 0.00 0.00 0.00 0.00 0.00 0.00 0.00 0.00 0.00 0.00 0.00 0.00 0.00 0.00 0.00 0.00 0.00 0.00 0.00 0.00 0.00 0.00 0.00 0.00 0.00 0.00 0.00 0.00 0.00 0.00 0.00 0.00 0.00 0.01 0.02 0.02 0.03 0.03
0.00 0.00 0.00 0.00 0.00 0.00 0.00 0.00 0.00 0.00 0.00 0.00 0.00 0.00 0.00 0.00 0.00 0.00 0.00 0.00 0.00 0.00 0.00 0.00 0.00 0.00 0.00 0.00 0.00 0.00 0.00 0.00 0.00 0.00 0.00 0.00 0.00 0.01 0.03 0.03 0.04 0.04 0.03 0.03
0.00 0.00 0.00 0.00 0.00 0.00 0.00 0.00 0.00 0.00 0.00 0.00 0.00 0.00 0.00 0.00 0.00 0.00 0.00 0.00 0.00 0.00 0.00 0.00 0.00 0.00 0.00 0.00 0.00 0.00 0.00 0.00 0.00 0.00 0.00 0.01 0.01 0.03 0.04 0.03 0.03 0.03 0.03 0.04
0.00 0.00 0.00 0.00 0.00 0.00 0.00 0.00 0.00 0.00 0.00 0.00 0.00 0.00 0.00 0.00 0.00 0.00 0.00 0.00 0.00 0.00 0.00 0.00 0.00 0.00 0.00 0.00 0.00 0.00 0.00 0.00 0.00 0.00 0.01 0.03 0.03 0.03 0.03 0.03 0.04 0.05 0.07 0.06
0.00 0.00 0.00 0.00 0.00 0.00 0.00 0.00 0.00 0.00 0.00 0.00 0.00 0.00 0.00 0.00 0.00 0.00 0.00 0.00 0.00 0.00 0.00 0.00 0.00 0.00 0.00 0.00 0.00 0.00 0.00 0.00 0.00 0.00 0.01 0.02 0.02 0.04 0.04 0.03 0.03 0.02 0.02 0.02
0.00 0.00 0.00 0.00 0.00 0.00 0.00 0.00 0.00 0.00 0.00 0.00 0.00 0.00 0.00 0.00 0.00 0.00 0.00 0.00 0.00 0.00 0.00 0.00 0.00 0.00 0.00 0.00 0.00 0.00 0.00 0.00 0.00 0.01 0.03 0.05 0.05 0.04 0.03 0.03 0.03 0.02 0.03 0.02

GFSNGP_prec_precacc_051.txt.gz
Total_Precipitation_Accumulation
0.49 0.28 0.42 0.57 0.56 0.49 0.94 0.52 0.52 0.16 0.07 0.03 0.03 0.02 0.02 0.01 0.01 0.04 0.05 0.04 0.02 0.00 0.00 0.00 0.04 0.04 0.06 0.07 0.04 0.01 0.01 0.01 0.01 0.01 0.00 0.00 0.00 0.00 0.00 0.00 0.01 0.00 0.00 0.00
0.61 0.24 0.38 0.48 0.55 0.36 0.56 0.27 0.26 0.17 0.13 0.01 0.01 0.01 0.00 0.01 0.04 0.07 0.07 0.04 0.02 0.00 0.00 0.00 0.00 0.00 0.02 0.05 0.05 0.02 0.02 0.02 0.02 0.00 0.00 0.00 0.00 0.00 0.00 0.00 0.00 0.00 0.00 0.00
0.64 0.48 0.28 0.47 0.58 0.68 0.48 0.20 0.25 0.28 0.15 0.01 0.01 0.04 0.06 0.04 0.06 0.04 0.03 0.02 0.01 0.00 0.00 0.00 0.00 0.00 0.01 0.02 0.01 0.02 0.02 0.02 0.01 0.00 0.01 0.02 0.02 0.01 0.00 0.00 0.00 0.01 0.00 0.00
0.31 0.15 0.16 0.11 0.14 0.44 0.28 0.23 0.26 0.14 0.07 0.02 0.00 0.00 0.02 0.04 0.02 0.01 0.01 0.00 0.00 0.00 0.00 0.00 0.00 0.01 0.01 0.02 0.02 0.03 0.02 0.02 0.02 0.05 0.07 0.04 0.01 0.00 0.00 0.00 0.01 0.01 0.00 0.00
0.15 0.07 0.03 0.00 0.00 0.07 0.13 0.22 0.14 0.07 0.02 0.00 0.00 0.22 0.35 0.14 0.04 0.01 0.00 0.00 0.00 0.00 0.00 0.00 0.01 0.02 0.02 0.02 0.02 0.05 0.04 0.04 0.06 0.07 0.03 0.01 0.01 0.01 0.00 0.00 0.00 0.00 0.00 0.00
0.09 0.12 0.02 0.00 0.00 0.01 0.02 0.15 0.02 0.05 0.04 0.02 0.01 0.29 0.32 0.23 0.05 0.02 0.00 0.00 0.00 0.00 0.01 0.04 0.08 0.08 0.07 0.07 0.09 0.25 0.24 0.17 0.11 0.07 0.08 0.12 0.09 0.04 0.02 0.00 0.00 0.00 0.00 0.00
0.14 0.18 0.01 0.00 0.00 0.01 0.06 0.10 0.01 0.06 0.06 0.01 0.01 0.03 0.06 0.07 0.10 0.08 0.12 0.11 0.13 0.08 0.16 0.24 0.37 0.35 0.40 0.34 0.38 0.49 0.33 0.29 0.30 0.34 0.21 0.11 0.05 0.01 0.00 0.00 0.00 0.00 0.00 0.00
0.11 0.08 0.00 0.00 0.00 0.00 0.00 0.01 0.02 0.10 0.03 0.02 0.01 0.02 0.02 0.00 0.07 0.09 0.13 0.11 0.30 0.45 0.50 0.57 0.67 0.63 0.52 0.52 0.48 0.46 0.35 0.22 0.17 0.08 0.02 0.00 0.00 0.00 0.00 0.00 0.00 0.00 0.00 0.00
0.00 0.00 0.00 0.00 0.00 0.00 0.00 0.00 0.00 0.02 0.10 0.13 0.12 0.19 0.07 0.01 0.01 0.03 0.07 0.03 0.11 0.19 0.10 0.13 0.16 0.25 0.16 0.15 0.12 0.07 0.05 0.01 0.00 0.00 0.00 0.00 0.00 0.00 0.00 0.00 0.00 0.00 0.00 0.00
0.00 0.00 0.00 0.00 0.00 0.00 0.00 0.00 0.00 0.00 0.01 0.22 0.07 0.08 0.03 0.05 0.03 0.04 0.05 0.02 0.04 0.04 0.04 0.03 0.02 0.01 0.01 0.00 0.00 0.00 0.00 0.00 0.00 0.00 0.00 0.00 0.00 0.00 0.00 0.00 0.00 0.00 0.00 0.00
0.00 0.00 0.00 0.00 0.00 0.00 0.00 0.00 0.00 0.00 0.00 0.00 0.05 0.06 0.01 0.15 0.07 0.00 0.00 0.00 0.00 0.01 0.02 0.00 0.00 0.00 0.00 0.00 0.00 0.00 0.00 0.00 0.00 0.00 0.00 0.00 0.00 0.00 0.00 0.00 0.00 0.00 0.00 0.01
0.00 0.00 0.00 0.00 0.00 0.00 0.00 0.00 0.00 0.00 0.00 0.00 0.00 0.07 0.01 0.03 0.02 0.00 0.00 0.00 0.00 0.00 0.00 0.00 0.00 0.00 0.00 0.00 0.00 0.00 0.00 0.00 0.00 0.00 0.00 0.00 0.00 0.00 0.00 0.00 0.00 0.00 0.00 0.01
0.00 0.00 0.00 0.00 0.00 0.00 0.00 0.00 0.00 0.00 0.00 0.00 0.00 0.00 0.00 0.07 0.00 0.00 0.00 0.00 0.00 0.00 0.00 0.00 0.00 0.00 0.00 0.00 0.00 0.00 0.00 0.00 0.00 0.00 0.00 0.00 0.00 0.00 0.00 0.00 0.00 0.00 0.00 0.01
0.00 0.00 0.00 0.00 0.00 0.00 0.00 0.00 0.03 0.01 0.00 0.00 0.00 0.00 0.00 0.06 0.01 0.01 0.01 0.00 0.00 0.00 0.00 0.00 0.00 0.00 0.00 0.00 0.00 0.00 0.00 0.00 0.00 0.00 0.00 0.00 0.00 0.00 0.00 0.00 0.00 0.00 0.00 0.00
0.00 0.00 0.00 0.00 0.00 0.02 0.01 0.00 0.00 0.01 0.02 0.00 0.00 0.00 0.00 0.01 0.02 0.00 0.00 0.00 0.00 0.00 0.00 0.00 0.00 0.00 0.00 0.00 0.00 0.00 0.00 0.00 0.00 0.00 0.00 0.00 0.00 0.00 0.00 0.00 0.00 0.00 0.00 0.00
0.00 0.00 0.00 0.00 0.01 0.03 0.03 0.01 0.00 0.00 0.01 0.00 0.00 0.00 0.00 0.00 0.00 0.00 0.00 0.00 0.00 0.00 0.00 0.00 0.00 0.00 0.00 0.00 0.00 0.00 0.00 0.00 0.00 0.00 0.00 0.00 0.00 0.00 0.00 0.00 0.00 0.01 0.01 0.00
0.01 0.01 0.00 0.00 0.00 0.02 0.03 0.05 0.00 0.00 0.00 0.00 0.00 0.00 0.00 0.00 0.00 0.00 0.00 0.00 0.00 0.00 0.00 0.00 0.00 0.00 0.00 0.00 0.00 0.00 0.00 0.00 0.00 0.00 0.00 0.00 0.00 0.00 0.00 0.01 0.02 0.01 0.00 0.00
0.00 0.01 0.02 0.01 0.00 0.00 0.00 0.03 0.01 0.00 0.00 0.00 0.00 0.00 0.00 0.00 0.00 0.00 0.00 0.00 0.00 0.00 0.00 0.00 0.00 0.00 0.00 0.00 0.00 0.00 0.00 0.00 0.00 0.00 0.00 0.00 0.00 0.00 0.01 0.01 0.01 0.01 0.01 0.01
0.00 0.00 0.01 0.01 0.02 0.02 0.01 0.01 0.01 0.00 0.00 0.00 0.00 0.00 0.00 0.00 0.00 0.00 0.00 0.00 0.00 0.00 0.00 0.00 0.00 0.00 0.00 0.00 0.00 0.00 0.00 0.00 0.00 0.00 0.00 0.01 0.01 0.01 0.01 0.01 0.01 0.01 0.02 0.02
0.00 0.00 0.02 0.01 0.00 0.00 0.01 0.04 0.02 0.00 0.00 0.00 0.00 0.00 0.00 0.00 0.00 0.00 0.00 0.00 0.00 0.00 0.00 0.00 0.00 0.00 0.00 0.00 0.00 0.00 0.00 0.00 0.00 0.00 0.01 0.01 0.01 0.01 0.00 0.01 0.02 0.02 0.01 0.01
0.00 0.00 0.02 0.00 0.00 0.00 0.00 0.01 0.00 0.00 0.00 0.00 0.00 0.00 0.00 0.00 0.00 0.00 0.00 0.00 0.00 0.00 0.00 0.00 0.00 0.00 0.00 0.00 0.00 0.00 0.00 0.00 0.00 0.00 0.00 0.00 0.01 0.01 0.01 0.01 0.00 0.01 0.01 0.02
0.00 0.00 0.00 0.00 0.00 0.00 0.00 0.00 0.00 0.00 0.00 0.00 0.00 0.00 0.00 0.00 0.00 0.00 0.00 0.00 0.00 0.00 0.00 0.00 0.00 0.00 0.00 0.00 0.00 0.00 0.00 0.00 0.00 0.00 0.00 0.00 0.00 0.00 0.00 0.01 0.02 0.02 0.03 0.03
0.00 0.00 0.00 0.00 0.00 0.00 0.00 0.01 0.02 0.00 0.00 0.00 0.00 0.00 0.00 0.00 0.00 0.00 0.00 0.00 0.00 0.00 0.00 0.00 0.00 0.00 0.00 0.00 0.00 0.00 0.00 0.00 0.00 0.00 0.00 0.00 0.00 0.01 0.03 0.03 0.04 0.04 0.03 0.03
0.00 0.00 0.00 0.00 0.00 0.00 0.00 0.00 0.01 0.00 0.00 0.00 0.00 0.00 0.00 0.00 0.00 0.00 0.00 0.00 0.00 0.00 0.00 0.00 0.00 0.00 0.00 0.00 0.00 0.00 0.00 0.00 0.00 0.00 0.00 0.01 0.01 0.03 0.04 0.03 0.03 0.03 0.03 0.04
0.00 0.00 0.00 0.00 0.00 0.00 0.00 0.00 0.00 0.00 0.00 0.00 0.00 0.00 0.00 0.00 0.00 0.00 0.00 0.00 0.00 0.00 0.00 0.00 0.00 0.00 0.00 0.00 0.00 0.00 0.00 0.00 0.00 0.00 0.01 0.03 0.03 0.03 0.03 0.03 0.04 0.05 0.07 0.06
0.00 0.00 0.00 0.00 0.00 0.00 0.00 0.00 0.00 0.00 0.00 0.00 0.00 0.00 0.00 0.00 0.00 0.00 0.00 0.00 0.00 0.00 0.00 0.00 0.00 0.00 0.00 0.00 0.00 0.00 0.00 0.00 0.00 0.00 0.01 0.02 0.02 0.04 0.04 0.03 0.03 0.02 0.02 0.02
0.00 0.00 0.00 0.00 0.00 0.00 0.00 0.00 0.00 0.00 0.00 0.00 0.00 0.00 0.00 0.00 0.00 0.00 0.00 0.00 0.00 0.00 0.00 0.00 0.00 0.00 0.00 0.00 0.00 0.00 0.00 0.00 0.00 0.01 0.03 0.05 0.05 0.04 0.03 0.03 0.03 0.02 0.03 0.02

GFSNGP_prec_precacc_054.txt.gz
Total_Precipitation_Accumulation
0.49 0.28 0.42 0.57 0.56 0.49 0.94 0.52 0.52 0.16 0.07 0.03 0.03 0.02 0.02 0.01 0.01 0.04 0.05 0.04 0.02 0.02 0.03 0.02 0.04 0.04 0.06 0.09 0.07 0.06 0.05 0.03 0.02 0.02 0.01 0.01 0.01 0.01 0.01 0.01 0.01 0.02 0.01 0.01
0.61 0.24 0.38 0.48 0.55 0.36 0.56 0.27 0.26 0.17 0.13 0.01 0.01 0.01 0.00 0.01 0.04 0.07 0.07 0.04 0.02 0.01 0.01 0.01 0.00 0.00 0.02 0.08 0.09 0.09 0.10 0.06 0.03 0.01 0.01 0.01 0.01 0.01 0.01 0.02 0.03 0.04 0.08 0.08
0.64 0.48 0.28 0.47 0.58 0.68 0.48 0.20 0.25 0.28 0.15 0.01 0.01 0.04 0.06 0.05 0.06 0.04 0.03 0.02 0.01 0.00 0.00 0.00 0.00 0.00 0.01 0.03 0.05 0.09 0.08 0.06 0.04 0.01 0.01 0.02 0.03 0.04 0.05 0.03 0.04 0.07 0.04 0.02
0.31 0.15 0.16 0.11 0.14 0.44 0.28 0.23 0.26 0.14 0.07 0.02 0.00 0.00 0.02 0.04 0.02 0.01 0.01 0.00 0.01 0.00 0.00 0.00 0.00 0.01 0.02 0.09 0.11 0.23 0.06 0.08 0.03 0.05 0.10 0.10 0.13 0.11 0.10 0.14 0.05 0.04 0.04 0.03
0.15 0.07 0.03 0.00 0.00 0.07 0.13 0.22 0.14 0.07 0.02 0.00 0.00 0.22 0.35 0.15 0.04 0.01 0.00 0.00 0.00 0.00 0.00 0.00 0.01 0.02 0.02 0.04 0.10 0.15 0.07 0.05 0.10 0.21 0.22 0.16 0.14 0.19 0.07 0.05 0.03 0.02 0.01 0.01
0.09 0.12 0.02 0.00 0.00 0.01 0.02 0.15 0.02 0.05 0.04 0.02 0.01 0.29 0.32 0.24 0.05 0.02 0.00 0.00 0.00 0.00 0.01 0.04 0.08 0.08 0.07 0.07 0.10 0.31 0.31 0.29 0.27 0.44 0.31 0.31 0.19 0.11 0.13 0.13 0.08 0.03 0.01 0.01
0.14 0.18 0.01 0.00 0.00 0.01 0.06 0.10 0.01 0.06 0.06 0.01 0.01 0.03 0.06 0.08 0.11 0.08 0.12 0.12 0.14 0.08 0.16 0.24 0.37 0.35 0.41 0.43 0.60 0.83 0.54 0.52 0.53 0.59 0.39 0.31 0.29 0.20 0.11 0.05 0.02 0.01 0.00 0.00
0.11 0.09 0.00 0.00 0.00 0.00 0.00 0.01 0.02 0.10 0.03 0.02 0.01 0.02 0.02 0.01 0.07 0.11 0.14 0.12 0.33 0.47 0.52 0.60 0.72 0.65 0.62 0.68 0.66 0.76 0.54 0.39 0.32 0.19 0.15 0.10 0.08 0.05 0.02 0.01 0.00 0.00 0.00 0.00
0.00 0.00 0.00 0.00 0.00 0.00 0.00 0.00 0.00 0.02 0.10 0.13 0.12 0.19 0.07 0.02 0.01 0.03 0.07 0.03 0.12 0.22 0.13 0.18 0.29 0.33 0.25 0.23 0.21 0.16 0.13 0.06 0.04 0.02 0.01 0.00 0.00 0.00 0.00 0.00 0.00 0.00 0.00 0.00
0.00 0.00 0.00 0.00 0.00 0.00 0.00 0.00 0.00 0.00 0.01 0.22 0.07 0.08 0.03 0.06 0.04 0.05 0.05 0.02 0.04 0.04 0.04 0.04 0.04 0.04 0.03 0.02 0.01 0.01 0.01 0.01 0.00 0.00 0.00 0.00 0.00 0.00 0.00 0.00 0.00 0.00 0.00 0.00
0.00 0.00 0.00 0.00 0.00 0.00 0.00 0.00 0.00 0.00 0.00 0.00 0.05 0.06 0.02 0.16 0.08 0.00 0.00 0.00 0.00 0.01 0.02 0.00 0.00 0.00 0.00 0.00 0.00 0.00 0.00 0.00 0.00 0.00 0.00 0.00 0.00 0.00 0.00 0.00 0.00 0.00 0.00 0.01
0.00 0.00 0.00 0.00 0.00 0.00 0.00 0.00 0.00 0.00 0.00 0.00 0.00 0.12 0.01 0.05 0.02 0.00 0.00 0.00 0.00 0.00 0.00 0.00 0.00 0.00 0.00 0.00 0.00 0.00 0.00 0.00 0.00 0.00 0.00 0.00 0.00 0.00 0.00 0.00 0.00 0.00 0.00 0.01
0.00 0.00 0.00 0.00 0.00 0.00 0.00 0.00 0.00 0.00 0.00 0.00 0.00 0.00 0.00 0.09 0.00 0.00 0.00 0.00 0.00 0.00 0.00 0.00 0.00 0.00 0.00 0.00 0.00 0.00 0.00 0.00 0.00 0.00 0.00 0.00 0.00 0.00 0.00 0.00 0.00 0.00 0.00 0.01
0.00 0.00 0.00 0.00 0.00 0.00 0.00 0.00 0.03 0.01 0.00 0.00 0.00 0.00 0.00 0.18 0.07 0.03 0.04 0.00 0.00 0.00 0.00 0.00 0.00 0.00 0.00 0.00 0.00 0.00 0.00 0.00 0.00 0.00 0.00 0.00 0.00 0.00 0.00 0.00 0.00 0.00 0.00 0.00
0.00 0.00 0.00 0.00 0.00 0.02 0.01 0.00 0.00 0.01 0.02 0.00 0.00 0.00 0.00 0.01 0.15 0.02 0.00 0.00 0.00 0.00 0.00 0.00 0.00 0.00 0.00 0.00 0.00 0.00 0.00 0.00 0.00 0.00 0.00 0.00 0.00 0.00 0.00 0.00 0.00 0.00 0.00 0.00
0.00 0.00 0.00 0.00 0.01 0.03 0.03 0.01 0.00 0.00 0.01 0.00 0.00 0.00 0.00 0.02 0.05 0.00 0.00 0.00 0.00 0.00 0.00 0.00 0.00 0.00 0.00 0.00 0.00 0.00 0.00 0.00 0.00 0.00 0.00 0.00 0.00 0.00 0.00 0.00 0.00 0.01 0.01 0.00
0.01 0.01 0.00 0.00 0.00 0.02 0.03 0.05 0.00 0.00 0.00 0.00 0.00 0.00 0.00 0.01 0.01 0.00 0.00 0.00 0.00 0.00 0.00 0.00 0.00 0.00 0.00 0.00 0.00 0.00 0.00 0.00 0.00 0.00 0.00 0.00 0.00 0.00 0.00 0.01 0.02 0.01 0.00 0.00
0.00 0.01 0.02 0.01 0.00 0.00 0.00 0.03 0.01 0.00 0.00 0.00 0.00 0.01 0.02 0.02 0.00 0.00 0.00 0.00 0.00 0.00 0.00 0.00 0.00 0.00 0.00 0.00 0.00 0.00 0.00 0.00 0.00 0.00 0.00 0.00 0.00 0.00 0.01 0.01 0.01 0.01 0.01 0.01
0.00 0.00 0.01 0.01 0.02 0.02 0.01 0.01 0.01 0.00 0.00 0.00 0.01 0.01 0.01 0.01 0.00 0.00 0.00 0.00 0.00 0.00 0.00 0.00 0.00 0.00 0.00 0.00 0.00 0.00 0.00 0.00 0.00 0.00 0.00 0.01 0.01 0.01 0.01 0.01 0.01 0.01 0.02 0.02
0.00 0.00 0.02 0.02 0.00 0.00 0.02 0.05 0.03 0.01 0.01 0.01 0.00 0.00 0.00 0.00 0.00 0.00 0.00 0.00 0.00 0.00 0.00 0.00 0.00 0.00 0.00 0.00 0.00 0.00 0.00 0.00 0.00 0.00 0.01 0.01 0.01 0.01 0.00 0.01 0.02 0.02 0.01 0.01
0.00 0.01 0.08 0.04 0.00 0.00 0.00 0.03 0.04 0.01 0.00 0.00 0.00 0.00 0.00 0.00 0.00 0.00 0.00 0.00 0.00 0.00 0.00 0.00 0.00 0.00 0.00 0.00 0.00 0.00 0.00 0.00 0.00 0.00 0.00 0.00 0.01 0.01 0.01 0.01 0.00 0.01 0.01 0.02
0.02 0.00 0.00 0.00 0.00 0.01 0.00 0.00 0.00 0.00 0.00 0.00 0.00 0.00 0.00 0.00 0.00 0.00 0.00 0.00 0.00 0.00 0.00 0.00 0.00 0.00 0.00 0.00 0.00 0.00 0.00 0.00 0.00 0.00 0.00 0.00 0.00 0.00 0.00 0.01 0.02 0.02 0.03 0.03
0.01 0.00 0.01 0.02 0.00 0.00 0.00 0.02 0.04 0.02 0.00 0.00 0.00 0.00 0.00 0.00 0.00 0.00 0.00 0.00 0.00 0.00 0.00 0.00 0.00 0.00 0.00 0.00 0.00 0.00 0.00 0.00 0.00 0.00 0.00 0.00 0.00 0.01 0.03 0.03 0.04 0.04 0.03 0.03
0.00 0.00 0.00 0.00 0.00 0.00 0.00 0.00 0.03 0.05 0.01 0.00 0.00 0.00 0.00 0.00 0.00 0.00 0.00 0.00 0.00 0.00 0.00 0.00 0.00 0.00 0.00 0.00 0.00 0.00 0.00 0.00 0.00 0.00 0.00 0.01 0.01 0.03 0.04 0.03 0.03 0.03 0.03 0.04
0.00 0.00 0.00 0.00 0.00 0.00 0.00 0.00 0.00 0.00 0.00 0.00 0.00 0.00 0.00 0.00 0.00 0.00 0.00 0.00 0.00 0.00 0.00 0.00 0.00 0.00 0.00 0.00 0.00 0.00 0.00 0.00 0.00 0.00 0.01 0.03 0.03 0.03 0.03 0.03 0.04 0.05 0.07 0.06
0.00 0.00 0.00 0.00 0.00 0.00 0.00 0.00 0.00 0.00 0.00 0.00 0.00 0.00 0.00 0.00 0.00 0.00 0.00 0.00 0.00 0.00 0.00 0.00 0.00 0.00 0.00 0.00 0.00 0.00 0.00 0.00 0.00 0.00 0.01 0.02 0.02 0.04 0.04 0.03 0.03 0.02 0.02 0.02
0.00 0.00 0.00 0.00 0.00 0.00 0.00 0.00 0.00 0.00 0.00 0.00 0.00 0.00 0.00 0.00 0.00 0.00 0.00 0.00 0.00 0.00 0.00 0.00 0.00 0.00 0.00 0.00 0.00 0.00 0.00 0.00 0.00 0.01 0.03 0.05 0.05 0.04 0.03 0.03 0.03 0.02 0.03 0.02

GFSNGP_prec_precacc_057.txt.gz
Total_Precipitation_Accumulation
0.49 0.28 0.42 0.57 0.56 0.49 0.94 0.52 0.52 0.16 0.07 0.03 0.03 0.02 0.02 0.01 0.01 0.04 0.05 0.04 0.02 0.02 0.03 0.02 0.05 0.05 0.06 0.09 0.07 0.07 0.07 0.05 0.05 0.05 0.04 0.03 0.02 0.02 0.01 0.01 0.01 0.02 0.01 0.01
0.61 0.24 0.38 0.48 0.55 0.36 0.56 0.27 0.26 0.17 0.13 0.01 0.01 0.01 0.00 0.01 0.04 0.07 0.07 0.04 0.02 0.01 0.01 0.01 0.00 0.00 0.02 0.08 0.09 0.09 0.11 0.06 0.04 0.02 0.01 0.01 0.01 0.01 0.01 0.02 0.03 0.04 0.09 0.15
0.64 0.48 0.28 0.47 0.58 0.68 0.48 0.20 0.25 0.28 0.15 0.01 0.01 0.04 0.06 0.05 0.06 0.04 0.03 0.02 0.01 0.00 0.00 0.00 0.00 0.00 0.01 0.03 0.05 0.09 0.08 0.06 0.05 0.02 0.02 0.03 0.03 0.05 0.06 0.05 0.07 0.12 0.16 0.15
0.31 0.15 0.16 0.11 0.14 0.44 0.28 0.23 0.26 0.14 0.07 0.02 0.00 0.00 0.02 0.04 0.02 0.01 0.01 0.00 0.01 0.00 0.00 0.00 0.00 0.01 0.02 0.09 0.12 0.40 0.10 0.15 0.16 0.14 0.16 0.14 0.16 0.14 0.17 0.23 0.16 0.16 0.18 0.19
0.15 0.07 0.03 0.00 0.00 0.07 0.13 0.22 0.14 0.07 0.02 0.00 0.00 0.22 0.35 0.15 0.04 0.01 0.00 0.00 0.00 0.00 0.00 0.00 0.01 0.02 0.02 0.04 0.13 0.36 0.22 0.24 0.33 0.28 0.24 0.21 0.24 0.32 0.24 0.25 0.30 0.26 0.16 0.07
0.10 0.12 0.02 0.00 0.00 0.01 0.02 0.15 0.02 0.05 0.04 0.02 0.01 0.29 0.32 0.24 0.05 0.02 0.00 0.00 0.00 0.00 0.02 0.05 0.08 0.08 0.07 0.07 0.10 0.31 0.32 0.30 0.28 0.47 0.39 0.45 0.37 0.31 0.34 0.37 0.27 0.13 0.07 0.05
0.15 0.18 0.01 0.00 0.00 0.01 0.06 0.10 0.01 0.06 0.06 0.01 0.01 0.03 0.06 0.08 0.11 0.08 0.12 0.12 0.14 0.08 0.16 0.24 0.37 0.35 0.41 0.43 0.62 0.88 0.57 0.59 0.64 0.76 0.62 0.53 0.56 0.43 0.23 0.12 0.07 0.05 0.03 0.02
0.12 0.09 0.00 0.00 0.00 0.00 0.00 0.01 0.02 0.10 0.03 0.02 0.01 0.02 0.02 0.01 0.07 0.11 0.14 0.12 0.33 0.47 0.52 0.60 0.72 0.65 0.63 0.71 0.74 0.89 0.66 0.54 0.46 0.35 0.24 0.14 0.11 0.08 0.04 0.03 0.02 0.01 0.00 0.00
0.00 0.00 0.00 0.00 0.00 0.00 0.00 0.00 0.00 0.02 0.10 0.13 0.12 0.19 0.07 0.02 0.01 0.03 0.07 0.03 0.12 0.22 0.13 0.18 0.29 0.34 0.25 0.24 0.23 0.19 0.15 0.09 0.08 0.04 0.02 0.01 0.00 0.00 0.00 0.00 0.00 0.00 0.00 0.00
0.00 0.00 0.00 0.00 0.00 0.00 0.00 0.00 0.00 0.00 0.01 0.22 0.07 0.08 0.03 0.06 0.04 0.05 0.05 0.02 0.04 0.04 0.04 0.04 0.04 0.04 0.03 0.02 0.02 0.01 0.01 0.01 0.00 0.00 0.00 0.00 0.00 0.00 0.00 0.00 0.00 0.00 0.00 0.00
0.00 0.00 0.00 0.00 0.00 0.00 0.00 0.00 0.00 0.00 0.00 0.00 0.05 0.06 0.02 0.16 0.08 0.00 0.00 0.00 0.00 0.01 0.02 0.00 0.00 0.00 0.00 0.00 0.00 0.00 0.00 0.00 0.00 0.00 0.00 0.00 0.00 0.00 0.00 0.00 0.00 0.00 0.00 0.01
0.00 0.00 0.00 0.00 0.00 0.00 0.00 0.00 0.00 0.00 0.00 0.00 0.00 0.12 0.01 0.05 0.03 0.00 0.00 0.00 0.00 0.00 0.00 0.00 0.00 0.00 0.00 0.00 0.00 0.00 0.00 0.00 0.00 0.00 0.00 0.00 0.00 0.00 0.00 0.00 0.00 0.00 0.00 0.01
0.00 0.00 0.00 0.00 0.00 0.00 0.00 0.00 0.00 0.00 0.00 0.00 0.00 0.00 0.00 0.09 0.00 0.00 0.00 0.00 0.00 0.00 0.00 0.00 0.00 0.00 0.00 0.00 0.00 0.00 0.00 0.00 0.00 0.00 0.00 0.00 0.00 0.00 0.00 0.00 0.00 0.00 0.00 0.01
0.00 0.00 0.00 0.00 0.00 0.00 0.00 0.00 0.03 0.01 0.00 0.00 0.00 0.01 0.00 0.20 0.21 0.04 0.06 0.00 0.00 0.00 0.00 0.00 0.00 0.00 0.00 0.00 0.00 0.00 0.00 0.00 0.00 0.00 0.00 0.00 0.00 0.00 0.00 0.00 0.00 0.00 0.00 0.00
0.00 0.00 0.00 0.00 0.00 0.02 0.01 0.00 0.00 0.01 0.02 0.00 0.00 0.00 0.00 0.02 0.20 0.07 0.01 0.00 0.00 0.00 0.00 0.00 0.00 0.00 0.00 0.00 0.00 0.00 0.00 0.00 0.00 0.00 0.00 0.00 0.00 0.00 0.00 0.00 0.00 0.00 0.00 0.00
0.00 0.00 0.00 0.00 0.01 0.03 0.03 0.01 0.00 0.00 0.01 0.00 0.00 0.00 0.00 0.03 0.10 0.05 0.00 0.00 0.00 0.00 0.00 0.00 0.00 0.00 0.00 0.00 0.00 0.00 0.00 0.00 0.00 0.00 0.00 0.00 0.00 0.00 0.00 0.00 0.00 0.01 0.01 0.00
0.01 0.01 0.00 0.00 0.00 0.02 0.03 0.05 0.00 0.00 0.00 0.00 0.00 0.00 0.00 0.04 0.05 0.03 0.00 0.01 0.01 0.00 0.00 0.00 0.00 0.00 0.00 0.00 0.00 0.00 0.00 0.00 0.00 0.00 0.00 0.00 0.00 0.00 0.00 0.01 0.02 0.01 0.00 0.00
0.00 0.01 0.02 0.01 0.00 0.00 0.00 0.03 0.01 0.00 0.00 0.00 0.00 0.02 0.02 0.04 0.08 0.03 0.02 0.00 0.00 0.00 0.00 0.00 0.00 0.00 0.00 0.00 0.00 0.00 0.00 0.00 0.00 0.00 0.00 0.00 0.00 0.00 0.01 0.01 0.01 0.01 0.01 0.01
0.00 0.00 0.01 0.01 0.02 0.02 0.01 0.01 0.01 0.00 0.00 0.00 0.01 0.02 0.03 0.05 0.05 0.03 0.01 0.00 0.00 0.00 0.00 0.00 0.00 0.00 0.00 0.00 0.00 0.00 0.00 0.00 0.00 0.00 0.00 0.01 0.01 0.01 0.01 0.01 0.01 0.01 0.02 0.02
0.00 0.00 0.02 0.02 0.00 0.00 0.02 0.05 0.04 0.02 0.02 0.03 0.01 0.02 0.02 0.02 0.02 0.00 0.00 0.00 0.00 0.00 0.00 0.00 0.00 0.00 0.00 0.00 0.00 0.00 0.00 0.00 0.00 0.00 0.01 0.01 0.01 0.01 0.00 0.01 0.02 0.02 0.01 0.01
0.00 0.02 0.10 0.05 0.00 0.00 0.00 0.03 0.05 0.02 0.01 0.02 0.02 0.02 0.01 0.00 0.00 0.00 0.00 0.00 0.00 0.00 0.00 0.00 0.00 0.00 0.00 0.00 0.00 0.00 0.00 0.00 0.00 0.00 0.00 0.00 0.01 0.01 0.01 0.01 0.00 0.01 0.01 0.02
0.07 0.06 0.07 0.01 0.01 0.01 0.00 0.00 0.00 0.00 0.00 0.00 0.00 0.00 0.00 0.00 0.00 0.00 0.00 0.00 0.00 0.00 0.00 0.00 0.00 0.00 0.00 0.00 0.00 0.00 0.00 0.00 0.00 0.00 0.00 0.00 0.00 0.00 0.00 0.01 0.02 0.02 0.03 0.03
0.06 0.02 0.04 0.07 0.04 0.01 0.00 0.04 0.05 0.02 0.00 0.00 0.00 0.00 0.00 0.00 0.00 0.00 0.00 0.00 0.00 0.00 0.00 0.00 0.00 0.00 0.00 0.00 0.00 0.00 0.00 0.00 0.00 0.00 0.00 0.00 0.00 0.01 0.03 0.03 0.04 0.04 0.03 0.03
0.00 0.00 0.01 0.05 0.10 0.04 0.00 0.01 0.06 0.10 0.03 0.01 0.00 0.00 0.00 0.00 0.00 0.00 0.00 0.00 0.00 0.00 0.00 0.00 0.00 0.00 0.00 0.00 0.00 0.00 0.00 0.00 0.00 0.00 0.00 0.01 0.01 0.03 0.04 0.03 0.03 0.03 0.03 0.04
0.00 0.00 0.00 0.00 0.00 0.00 0.00 0.00 0.00 0.00 0.01 0.02 0.01 0.00 0.00 0.00 0.00 0.00 0.00 0.00 0.00 0.00 0.00 0.00 0.00 0.00 0.00 0.00 0.00 0.00 0.00 0.00 0.00 0.00 0.01 0.03 0.03 0.03 0.03 0.03 0.04 0.05 0.07 0.06
0.00 0.00 0.00 0.00 0.00 0.00 0.00 0.00 0.00 0.00 0.00 0.00 0.00 0.00 0.00 0.00 0.00 0.00 0.00 0.00 0.00 0.00 0.00 0.00 0.00 0.00 0.00 0.00 0.00 0.00 0.00 0.00 0.00 0.00 0.01 0.02 0.02 0.04 0.04 0.03 0.03 0.02 0.02 0.02
0.00 0.00 0.00 0.00 0.00 0.00 0.00 0.00 0.00 0.00 0.00 0.00 0.00 0.00 0.00 0.00 0.00 0.00 0.00 0.00 0.00 0.00 0.00 0.00 0.00 0.00 0.00 0.00 0.00 0.00 0.00 0.00 0.00 0.01 0.03 0.05 0.05 0.04 0.03 0.03 0.03 0.02 0.03 0.02

GFSNGP_prec_precacc_060.txt.gz
Total_Precipitation_Accumulation
0.49 0.28 0.42 0.57 0.56 0.49 0.94 0.52 0.52 0.16 0.07 0.03 0.03 0.02 0.02 0.01 0.01 0.04 0.05 0.04 0.02 0.02 0.03 0.02 0.05 0.05 0.06 0.09 0.07 0.07 0.07 0.05 0.05 0.05 0.05 0.04 0.04 0.04 0.04 0.03 0.03 0.02 0.01 0.01
0.61 0.24 0.38 0.48 0.55 0.36 0.56 0.27 0.26 0.17 0.13 0.01 0.01 0.01 0.00 0.01 0.04 0.07 0.07 0.04 0.02 0.01 0.01 0.01 0.00 0.00 0.02 0.08 0.09 0.09 0.11 0.06 0.04 0.02 0.04 0.04 0.05 0.05 0.05 0.09 0.05 0.05 0.09 0.15
0.64 0.48 0.28 0.47 0.58 0.68 0.48 0.20 0.25 0.28 0.15 0.01 0.01 0.04 0.06 0.05 0.06 0.04 0.03 0.02 0.01 0.00 0.00 0.00 0.00 0.00 0.01 0.03 0.05 0.09 0.08 0.06 0.05 0.03 0.04 0.06 0.07 0.12 0.10 0.06 0.08 0.15 0.18 0.17
0.31 0.15 0.16 0.11 0.14 0.44 0.28 0.23 0.26 0.14 0.07 0.02 0.00 0.00 0.02 0.04 0.02 0.01 0.01 0.00 0.01 0.00 0.00 0.00 0.00 0.01 0.02 0.09 0.12 0.40 0.10 0.15 0.16 0.14 0.17 0.19 0.27 0.21 0.19 0.25 0.19 0.20 0.24 0.28
0.16 0.07 0.03 0.00 0.00 0.07 0.13 0.22 0.14 0.07 0.02 0.00 0.00 0.22 0.35 0.15 0.04 0.01 0.00 0.00 0.00 0.00 0.00 0.00 0.02 0.02 0.02 0.04 0.14 0.36 0.22 0.25 0.36 0.31 0.28 0.25 0.31 0.38 0.30 0.40 0.46 0.42 0.35 0.21
0.10 0.12 0.02 0.00 0.00 0.01 0.02 0.16 0.02 0.05 0.04 0.02 0.01 0.29 0.32 0.24 0.05 0.02 0.00 0.00 0.00 0.00 0.02 0.05 0.08 0.08 0.07 0.07 0.10 0.31 0.32 0.31 0.30 0.48 0.40 0.47 0.42 0.45 0.57 0.48 0.44 0.23 0.14 0.09
0.15 0.18 0.01 0.00 0.00 0.01 0.06 0.10 0.01 0.06 0.06 0.01 0.01 0.03 0.06 0.08 0.11 0.08 0.12 0.12 0.14 0.08 0.16 0.24 0.37 0.35 0.41 0.43 0.62 0.88 0.57 0.60 0.64 0.77 0.66 0.59 0.64 0.53 0.38 0.24 0.15 0.09 0.06 0.04
0.13 0.09 0.00 0.00 0.00 0.00 0.00 0.01 0.02 0.10 0.03 0.02 0.01 0.02 0.02 0.01 0.07 0.11 0.14 0.12 0.33 0.47 0.53 0.60 0.72 0.65 0.63 0.71 0.74 0.90 0.67 0.57 0.54 0.47 0.39 0.29 0.24 0.16 0.09 0.07 0.05 0.03 0.01 0.00
0.00 0.00 0.00 0.00 0.00 0.00 0.00 0.00 0.00 0.02 0.10 0.13 0.12 0.19 0.07 0.02 0.01 0.03 0.07 0.03 0.12 0.22 0.13 0.18 0.29 0.34 0.25 0.24 0.23 0.20 0.16 0.12 0.13 0.08 0.05 0.02 0.00 0.00 0.00 0.00 0.00 0.00 0.00 0.00
0.00 0.00 0.00 0.00 0.00 0.00 0.00 0.00 0.00 0.00 0.01 0.22 0.07 0.08 0.03 0.06 0.04 0.05 0.05 0.02 0.04 0.04 0.04 0.04 0.04 0.04 0.03 0.02 0.02 0.01 0.01 0.01 0.00 0.00 0.00 0.00 0.00 0.00 0.00 0.00 0.00 0.00 0.00 0.00
0.00 0.00 0.00 0.00 0.00 0.00 0.00 0.00 0.00 0.00 0.00 0.00 0.05 0.07 0.02 0.16 0.08 0.00 0.00 0.00 0.00 0.01 0.02 0.00 0.00 0.00 0.00 0.00 0.00 0.00 0.00 0.00 0.00 0.00 0.00 0.00 0.00 0.00 0.00 0.00 0.00 0.00 0.00 0.01
0.00 0.00 0.00 0.00 0.00 0.00 0.00 0.00 0.00 0.00 0.00 0.00 0.00 0.12 0.01 0.06 0.03 0.00 0.00 0.00 0.00 0.00 0.00 0.00 0.00 0.00 0.00 0.00 0.00 0.00 0.00 0.00 0.00 0.00 0.00 0.00 0.00 0.00 0.00 0.00 0.00 0.00 0.00 0.01
0.00 0.00 0.00 0.00 0.00 0.00 0.00 0.00 0.00 0.00 0.00 0.00 0.00 0.01 0.01 0.10 0.01 0.00 0.00 0.00 0.00 0.00 0.00 0.00 0.00 0.00 0.00 0.00 0.00 0.00 0.00 0.00 0.00 0.00 0.00 0.00 0.00 0.00 0.00 0.00 0.00 0.00 0.00 0.01
0.00 0.00 0.00 0.00 0.00 0.00 0.00 0.00 0.03 0.01 0.00 0.00 0.01 0.04 0.05 0.21 0.23 0.07 0.06 0.00 0.00 0.00 0.00 0.00 0.00 0.00 0.00 0.00 0.00 0.00 0.00 0.00 0.00 0.00 0.00 0.00 0.00 0.00 0.00 0.00 0.00 0.00 0.00 0.00
0.00 0.00 0.00 0.00 0.00 0.02 0.01 0.00 0.00 0.01 0.02 0.00 0.00 0.00 0.02 0.05 0.25 0.14 0.02 0.00 0.00 0.00 0.00 0.00 0.00 0.00 0.00 0.00 0.00 0.00 0.00 0.00 0.00 0.00 0.00 0.00 0.00 0.00 0.00 0.00 0.00 0.00 0.00 0.00
0.00 0.00 0.00 0.00 0.01 0.03 0.03 0.01 0.00 0.00 0.01 0.00 0.00 0.00 0.00 0.04 0.13 0.08 0.01 0.01 0.00 0.00 0.00 0.00 0.00 0.00 0.00 0.00 0.00 0.00 0.00 0.00 0.00 0.00 0.00 0.00 0.00 0.00 0.00 0.00 0.00 0.01 0.01 0.00
0.01 0.01 0.00 0.00 0.00 0.02 0.03 0.05 0.00 0.00 0.00 0.00 0.00 0.00 0.00 0.04 0.08 0.09 0.04 0.02 0.01 0.00 0.00 0.00 0.00 0.00 0.00 0.00 0.00 0.00 0.00 0.00 0.00 0.00 0.00 0.00 0.00 0.00 0.00 0.01 0.02 0.01 0.00 0.00
0.00 0.01 0.02 0.01 0.00 0.00 0.00 0.03 0.01 0.00 0.00 0.00 0.00 0.02 0.02 0.05 0.11 0.09 0.08 0.02 0.02 0.00 0.00 0.00 0.00 0.00 0.00 0.00 0.00 0.00 0.00 0.00 0.00 0.00 0.00 0.00 0.00 0.00 0.01 0.01 0.01 0.01 0.01 0.01
0.00 0.00 0.01 0.01 0.02 0.02 0.01 0.01 0.01 0.00 0.00 0.00 0.01 0.02 0.03 0.05 0.06 0.06 0.06 0.05 0.03 0.01 0.00 0.00 0.00 0.00 0.00 0.00 0.00 0.00 0.00 0.00 0.00 0.00 0.00 0.01 0.01 0.01 0.01 0.01 0.01 0.01 0.02 0.02
0.00 0.00 0.02 0.02 0.00 0.00 0.02 0.05 0.04 0.02 0.02 0.03 0.01 0.02 0.02 0.03 0.05 0.02 0.04 0.07 0.04 0.01 0.00 0.00 0.00 0.00 0.00 0.00 0.00 0.00 0.00 0.00 0.00 0.00 0.01 0.01 0.01 0.01 0.00 0.01 0.02 0.02 0.01 0.01
0.01 0.02 0.11 0.05 0.00 0.00 0.00 0.03 0.05 0.02 0.01 0.03 0.03 0.03 0.04 0.03 0.03 0.02 0.01 0.03 0.01 0.00 0.00 0.00 0.00 0.00 0.00 0.00 0.00 0.00 0.00 0.00 0.00 0.00 0.00 0.00 0.01 0.01 0.01 0.01 0.00 0.01 0.01 0.02
0.14 0.14 0.14 0.06 0.02 0.01 0.00 0.00 0.00 0.01 0.00 0.01 0.01 0.01 0.02 0.01 0.01 0.01 0.00 0.00 0.00 0.00 0.00 0.00 0.00 0.00 0.00 0.00 0.00 0.00 0.00 0.00 0.00 0.00 0.00 0.00 0.00 0.00 0.00 0.01 0.02 0.02 0.03 0.03
0.16 0.12 0.15 0.17 0.10 0.04 0.00 0.04 0.05 0.02 0.00 0.00 0.01 0.02 0.01 0.00 0.00 0.00 0.00 0.00 0.00 0.00 0.00 0.00 0.00 0.00 0.00 0.00 0.00 0.00 0.00 0.00 0.00 0.00 0.00 0.00 0.00 0.01 0.03 0.03 0.04 0.04 0.03 0.03
0.02 0.00 0.02 0.08 0.17 0.12 0.02 0.03 0.07 0.10 0.04 0.01 0.00 0.00 0.00 0.00 0.00 0.00 0.00 0.00 0.00 0.00 0.00 0.00 0.00 0.00 0.00 0.00 0.00 0.00 0.00 0.00 0.00 0.00 0.00 0.01 0.01 0.03 0.04 0.03 0.03 0.03 0.03 0.04
0.00 0.00 0.00 0.00 0.00 0.00 0.00 0.00 0.01 0.01 0.02 0.04 0.03 0.01 0.00 0.00 0.00 0.00 0.00 0.00 0.00 0.00 0.00 0.00 0.00 0.00 0.00 0.00 0.00 0.00 0.00 0.00 0.00 0.00 0.01 0.03 0.03 0.03 0.03 0.03 0.04 0.05 0.07 0.06
0.00 0.00 0.00 0.00 0.00 0.00 0.00 0.00 0.00 0.00 0.00 0.00 0.02 0.04 0.03 0.01 0.00 0.00 0.00 0.00 0.00 0.00 0.00 0.00 0.00 0.00 0.00 0.00 0.00 0.00 0.00 0.00 0.00 0.00 0.01 0.02 0.02 0.04 0.04 0.03 0.03 0.02 0.02 0.02
0.00 0.00 0.00 0.00 0.00 0.00 0.00 0.00 0.00 0.00 0.00 0.00 0.00 0.01 0.01 0.00 0.00 0.00 0.00 0.00 0.00 0.00 0.00 0.00 0.00 0.00 0.00 0.00 0.00 0.00 0.00 0.00 0.00 0.01 0.03 0.05 0.05 0.04 0.03 0.03 0.03 0.02 0.03 0.02

GFSNGP_prec_precacc_063.txt.gz
Total_Precipitation_Accumulation
0.49 0.28 0.42 0.57 0.56 0.49 0.94 0.52 0.52 0.16 0.07 0.03 0.03 0.02 0.02 0.01 0.01 0.04 0.05 0.04 0.02 0.02 0.03 0.02 0.05 0.05 0.06 0.09 0.07 0.07 0.07 0.05 0.05 0.05 0.05 0.04 0.04 0.05 0.05 0.04 0.04 0.04 0.03 0.02
0.61 0.24 0.38 0.48 0.55 0.36 0.56 0.27 0.26 0.17 0.13 0.01 0.01 0.01 0.00 0.01 0.04 0.07 0.07 0.04 0.02 0.01 0.01 0.01 0.00 0.00 0.02 0.08 0.09 0.09 0.11 0.06 0.04 0.02 0.05 0.05 0.06 0.06 0.06 0.14 0.12 0.08 0.11 0.16
0.64 0.48 0.28 0.47 0.58 0.68 0.48 0.20 0.25 0.28 0.15 0.01 0.01 0.04 0.06 0.05 0.06 0.04 0.03 0.02 0.01 0.00 0.00 0.00 0.00 0.00 0.01 0.03 0.05 0.09 0.08 0.06 0.05 0.03 0.04 0.07 0.09 0.16 0.20 0.21 0.46 0.41 0.32 0.25
0.31 0.15 0.16 0.11 0.14 0.44 0.28 0.23 0.26 0.14 0.07 0.02 0.00 0.00 0.02 0.04 0.02 0.01 0.01 0.00 0.01 0.00 0.00 0.00 0.00 0.01 0.02 0.09 0.12 0.40 0.10 0.15 0.16 0.14 0.17 0.20 0.33 0.42 0.42 0.35 0.27 0.32 0.52 0.49
0.16 0.07 0.03 0.00 0.00 0.07 0.13 0.22 0.14 0.07 0.02 0.00 0.00 0.22 0.35 0.15 0.04 0.01 0.00 0.00 0.00 0.00 0.00 0.00 0.02 0.02 0.02 0.04 0.14 0.36 0.22 0.25 0.36 0.31 0.28 0.26 0.40 0.48 0.33 0.46 0.56 0.48 0.39 0.29
0.10 0.12 0.02 0.00 0.00 0.01 0.02 0.16 0.02 0.05 0.04 0.02 0.01 0.29 0.32 0.24 0.05 0.02 0.00 0.00 0.00 0.00 0.02 0.05 0.08 0.08 0.07 0.07 0.10 0.31 0.32 0.31 0.30 0.48 0.40 0.48 0.44 0.49 0.71 0.56 0.52 0.39 0.28 0.18
0.15 0.18 0.01 0.00 0.00 0.01 0.07 0.10 0.01 0.06 0.06 0.01 0.01 0.03 0.06 0.08 0.11 0.08 0.12 0.12 0.14 0.08 0.16 0.24 0.37 0.35 0.41 0.43 0.62 0.88 0.57 0.60 0.64 0.78 0.67 0.60 0.65 0.56 0.48 0.34 0.24 0.18 0.11 0.05
0.13 0.09 0.00 0.00 0.00 0.00 0.00 0.01 0.02 0.10 0.03 0.02 0.01 0.02 0.02 0.01 0.07 0.11 0.14 0.12 0.33 0.48 0.53 0.60 0.72 0.65 0.63 0.71 0.75 0.91 0.67 0.59 0.57 0.49 0.43 0.34 0.27 0.18 0.10 0.09 0.05 0.03 0.01 0.00
0.00 0.00 0.00 0.00 0.00 0.00 0.00 0.00 0.00 0.02 0.10 0.13 0.12 0.19 0.07 0.02 0.01 0.03 0.07 0.03 0.12 0.22 0.13 0.18 0.29 0.34 0.25 0.24 0.23 0.20 0.16 0.13 0.13 0.08 0.05 0.03 0.00 0.00 0.00 0.00 0.00 0.00 0.00 0.00
0.00 0.00 0.00 0.00 0.00 0.00 0.00 0.00 0.00 0.00 0.01 0.22 0.07 0.08 0.03 0.06 0.04 0.05 0.05 0.02 0.04 0.04 0.04 0.04 0.04 0.04 0.03 0.02 0.02 0.01 0.01 0.01 0.00 0.00 0.00 0.00 0.00 0.00 0.00 0.00 0.00 0.00 0.00 0.00
0.00 0.00 0.00 0.00 0.00 0.00 0.00 0.00 0.00 0.00 0.00 0.00 0.05 0.07 0.02 0.16 0.08 0.00 0.00 0.00 0.00 0.01 0.02 0.00 0.00 0.00 0.00 0.00 0.00 0.00 0.00 0.00 0.00 0.00 0.00 0.00 0.00 0.00 0.00 0.00 0.00 0.00 0.00 0.01
0.00 0.00 0.00 0.00 0.00 0.00 0.00 0.00 0.00 0.00 0.00 0.00 0.00 0.12 0.01 0.06 0.03 0.00 0.00 0.00 0.00 0.00 0.00 0.00 0.00 0.00 0.00 0.00 0.00 0.00 0.00 0.00 0.00 0.00 0.00 0.00 0.00 0.00 0.00 0.00 0.00 0.00 0.00 0.01
0.00 0.00 0.00 0.00 0.00 0.00 0.00 0.00 0.00 0.00 0.00 0.00 0.00 0.01 0.01 0.11 0.02 0.00 0.00 0.00 0.00 0.00 0.00 0.00 0.00 0.00 0.00 0.00 0.00 0.00 0.00 0.00 0.00 0.00 0.00 0.00 0.00 0.00 0.00 0.00 0.00 0.00 0.00 0.01
0.00 0.00 0.00 0.00 0.00 0.00 0.00 0.00 0.03 0.01 0.00 0.00 0.01 0.04 0.07 0.23 0.24 0.07 0.06 0.00 0.00 0.00 0.00 0.00 0.00 0.00 0.00 0.00 0.00 0.00 0.00 0.00 0.00 0.00 0.00 0.00 0.00 0.00 0.00 0.00 0.00 0.00 0.00 0.00
0.00 0.00 0.00 0.00 0.00 0.02 0.01 0.00 0.00 0.01 0.02 0.00 0.00 0.00 0.02 0.06 0.27 0.17 0.03 0.00 0.00 0.00 0.00 0.00 0.00 0.00 0.00 0.00 0.00 0.00 0.00 0.00 0.00 0.00 0.00 0.00 0.00 0.00 0.00 0.00 0.00 0.00 0.00 0.00
0.00 0.00 0.00 0.00 0.01 0.03 0.03 0.01 0.00 0.00 0.01 0.00 0.00 0.00 0.00 0.04 0.16 0.12 0.04 0.01 0.00 0.00 0.00 0.00 0.00 0.00 0.00 0.00 0.00 0.00 0.00 0.00 0.00 0.00 0.00 0.00 0.00 0.00 0.00 0.00 0.00 0.01 0.01 0.00
0.01 0.01 0.00 0.00 0.00 0.02 0.03 0.05 0.00 0.00 0.00 0.00 0.00 0.00 0.00 0.04 0.08 0.10 0.05 0.03 0.02 0.00 0.00 0.00 0.00 0.00 0.00 0.00 0.00 0.00 0.00 0.00 0.00 0.00 0.00 0.00 0.00 0.00 0.00 0.01 0.02 0.01 0.00 0.00
0.00 0.01 0.02 0.01 0.00 0.00 0.00 0.03 0.01 0.00 0.00 0.00 0.00 0.02 0.02 0.05 0.11 0.12 0.12 0.08 0.05 0.02 0.00 0.00 0.00 0.00 0.00 0.00 0.00 0.00 0.00 0.00 0.00 0.00 0.00 0.00 0.00 0.00 0.01 0.01 0.01 0.01 0.01 0.01
0.00 0.00 0.01 0.01 0.02 0.02 0.01 0.01 0.01 0.00 0.00 0.00 0.01 0.02 0.03 0.05 0.06 0.08 0.08 0.08 0.06 0.07 0.03 0.00 0.00 0.00 0.00 0.00 0.00 0.00 0.00 0.00 0.00 0.00 0.00 0.01 0.01 0.01 0.01 0.01 0.01 0.01 0.02 0.02
0.00 0.00 0.03 0.02 0.00 0.00 0.02 0.05 0.04 0.02 0.02 0.03 0.01 0.02 0.02 0.03 0.05 0.04 0.07 0.11 0.10 0.09 0.06 0.02 0.00 0.00 0.00 0.00 0.00 0.00 0.00 0.00 0.00 0.00 0.01 0.01 0.01 0.01 0.00 0.01 0.02 0.02 0.01 0.01
0.01 0.02 0.12 0.05 0.01 0.00 0.00 0.03 0.05 0.02 0.01 0.03 0.03 0.03 0.04 0.04 0.03 0.04 0.07 0.11 0.12 0.10 0.05 0.02 0.00 0.00 0.00 0.00 0.00 0.00 0.00 0.00 0.00 0.00 0.00 0.00 0.01 0.01 0.01 0.01 0.00 0.01 0.01 0.02
0.16 0.17 0.18 0.11 0.08 0.05 0.01 0.00 0.00 0.01 0.00 0.01 0.02 0.01 0.02 0.02 0.03 0.04 0.04 0.05 0.06 0.05 0.02 0.00 0.00 0.00 0.00 0.00 0.00 0.00 0.00 0.00 0.00 0.00 0.00 0.00 0.00 0.00 0.00 0.01 0.02 0.02 0.03 0.03
0.22 0.16 0.21 0.27 0.24 0.15 0.04 0.07 0.06 0.03 0.01 0.01 0.02 0.03 0.04 0.03 0.02 0.02 0.02 0.01 0.02 0.02 0.00 0.00 0.00 0.00 0.00 0.00 0.00 0.00 0.00 0.00 0.00 0.00 0.00 0.00 0.00 0.01 0.03 0.03 0.04 0.04 0.03 0.03
0.06 0.05 0.04 0.08 0.19 0.16 0.05 0.04 0.08 0.11 0.04 0.01 0.00 0.00 0.00 0.00 0.00 0.00 0.00 0.00 0.00 0.00 0.00 0.00 0.00 0.00 0.00 0.00 0.00 0.00 0.00 0.00 0.00 0.00 0.00 0.01 0.01 0.03 0.04 0.03 0.03 0.03 0.03 0.04
0.00 0.00 0.00 0.00 0.00 0.00 0.01 0.01 0.02 0.05 0.07 0.06 0.05 0.02 0.00 0.00 0.00 0.00 0.00 0.00 0.00 0.00 0.00 0.00 0.00 0.00 0.00 0.00 0.00 0.00 0.00 0.00 0.00 0.00 0.01 0.03 0.03 0.03 0.03 0.03 0.04 0.05 0.07 0.06
0.00 0.00 0.00 0.00 0.00 0.00 0.00 0.00 0.00 0.00 0.00 0.01 0.03 0.05 0.05 0.03 0.01 0.00 0.00 0.00 0.00 0.00 0.00 0.00 0.00 0.00 0.00 0.00 0.00 0.00 0.00 0.00 0.00 0.00 0.01 0.02 0.02 0.04 0.04 0.03 0.03 0.02 0.02 0.02
0.00 0.00 0.00 0.00 0.00 0.00 0.00 0.00 0.00 0.00 0.00 0.00 0.00 0.01 0.01 0.01 0.01 0.01 0.00 0.00 0.00 0.00 0.00 0.00 0.00 0.00 0.00 0.00 0.00 0.00 0.00 0.00 0.00 0.01 0.03 0.05 0.05 0.04 0.03 0.03 0.03 0.02 0.03 0.02

GFSNGP_prec_precacc_066.txt.gz
Total_Precipitation_Accumulation
0.49 0.28 0.42 0.57 0.56 0.49 0.94 0.52 0.52 0.16 0.07 0.03 0.03 0.02 0.02 0.01 0.01 0.04 0.05 0.04 0.02 0.02 0.03 0.02 0.05 0.05 0.06 0.09 0.07 0.07 0.07 0.05 0.05 0.05 0.05 0.04 0.04 0.05 0.05 0.04 0.04 0.04 0.03 0.02
0.61 0.24 0.38 0.48 0.55 0.36 0.56 0.27 0.26 0.17 0.13 0.01 0.01 0.01 0.00 0.01 0.04 0.07 0.07 0.04 0.02 0.01 0.01 0.01 0.00 0.00 0.02 0.08 0.09 0.09 0.11 0.06 0.04 0.02 0.05 0.05 0.06 0.06 0.07 0.14 0.12 0.10 0.13 0.17
0.64 0.48 0.28 0.47 0.58 0.68 0.48 0.20 0.25 0.28 0.15 0.01 0.01 0.04 0.06 0.05 0.06 0.04 0.03 0.02 0.01 0.00 0.00 0.00 0.00 0.00 0.01 0.03 0.05 0.09 0.08 0.06 0.05 0.03 0.04 0.07 0.09 0.16 0.21 0.27 0.56 0.55 0.55 0.39
0.31 0.15 0.16 0.11 0.14 0.44 0.28 0.23 0.26 0.14 0.07 0.02 0.00 0.00 0.02 0.04 0.02 0.01 0.01 0.00 0.01 0.00 0.00 0.00 0.00 0.01 0.02 0.09 0.12 0.40 0.10 0.15 0.16 0.14 0.17 0.20 0.33 0.45 0.48 0.47 0.47 0.53 0.86 0.87
0.16 0.07 0.03 0.00 0.00 0.07 0.13 0.22 0.14 0.07 0.02 0.00 0.00 0.22 0.35 0.15 0.04 0.01 0.00 0.00 0.00 0.00 0.00 0.00 0.02 0.02 0.02 0.04 0.14 0.36 0.22 0.25 0.36 0.31 0.28 0.26 0.40 0.50 0.37 0.51 0.67 0.61 0.53 0.42
0.10 0.12 0.02 0.00 0.00 0.01 0.02 0.17 0.02 0.05 0.04 0.02 0.01 0.29 0.32 0.24 0.05 0.02 0.00 0.00 0.00 0.00 0.02 0.05 0.08 0.08 0.07 0.07 0.10 0.31 0.33 0.31 0.30 0.48 0.40 0.48 0.44 0.49 0.75 0.60 0.54 0.44 0.34 0.22
0.15 0.18 0.01 0.00 0.00 0.01 0.08 0.12 0.01 0.06 0.06 0.01 0.01 0.03 0.06 0.08 0.11 0.08 0.12 0.12 0.14 0.08 0.16 0.24 0.37 0.35 0.41 0.43 0.62 0.88 0.57 0.60 0.64 0.78 0.67 0.61 0.66 0.57 0.50 0.37 0.26 0.20 0.12 0.06
0.13 0.10 0.00 0.00 0.00 0.00 0.00 0.01 0.02 0.10 0.03 0.02 0.01 0.02 0.02 0.01 0.07 0.11 0.14 0.12 0.33 0.48 0.53 0.60 0.72 0.65 0.63 0.71 0.75 0.91 0.67 0.59 0.57 0.49 0.44 0.35 0.27 0.18 0.10 0.09 0.05 0.03 0.01 0.00
0.00 0.00 0.00 0.00 0.00 0.00 0.00 0.00 0.00 0.02 0.10 0.13 0.12 0.19 0.07 0.02 0.01 0.03 0.07 0.03 0.12 0.22 0.13 0.18 0.29 0.34 0.25 0.24 0.23 0.20 0.16 0.13 0.13 0.08 0.05 0.03 0.00 0.00 0.00 0.00 0.00 0.00 0.00 0.00
0.00 0.00 0.00 0.00 0.00 0.00 0.00 0.00 0.00 0.00 0.01 0.22 0.07 0.08 0.03 0.06 0.04 0.05 0.05 0.02 0.04 0.04 0.04 0.04 0.05 0.04 0.03 0.02 0.02 0.01 0.01 0.01 0.00 0.00 0.00 0.00 0.00 0.00 0.00 0.00 0.00 0.00 0.00 0.00
0.00 0.00 0.00 0.00 0.00 0.00 0.00 0.00 0.00 0.00 0.00 0.00 0.05 0.07 0.02 0.16 0.08 0.00 0.00 0.00 0.00 0.01 0.02 0.00 0.00 0.00 0.00 0.00 0.00 0.00 0.00 0.00 0.00 0.00 0.00 0.00 0.00 0.00 0.00 0.00 0.00 0.00 0.00 0.01
0.00 0.00 0.00 0.00 0.00 0.00 0.00 0.01 0.00 0.00 0.00 0.00 0.00 0.12 0.01 0.06 0.03 0.00 0.00 0.00 0.00 0.00 0.00 0.00 0.00 0.00 0.00 0.00 0.00 0.00 0.00 0.00 0.00 0.00 0.00 0.00 0.00 0.00 0.00 0.00 0.00 0.00 0.00 0.01
0.00 0.00 0.00 0.00 0.00 0.00 0.00 0.00 0.00 0.00 0.00 0.00 0.00 0.01 0.01 0.11 0.02 0.00 0.00 0.00 0.00 0.00 0.00 0.00 0.00 0.00 0.00 0.00 0.00 0.00 0.00 0.00 0.00 0.00 0.00 0.00 0.00 0.00 0.00 0.00 0.00 0.00 0.00 0.01
0.00 0.00 0.00 0.00 0.00 0.00 0.00 0.00 0.03 0.01 0.00 0.00 0.01 0.04 0.07 0.23 0.25 0.08 0.06 0.00 0.00 0.00 0.00 0.00 0.00 0.00 0.00 0.00 0.00 0.00 0.00 0.00 0.00 0.00 0.00 0.00 0.00 0.00 0.00 0.00 0.00 0.00 0.00 0.00
0.00 0.00 0.00 0.00 0.00 0.02 0.01 0.00 0.00 0.01 0.02 0.00 0.00 0.00 0.02 0.06 0.27 0.17 0.03 0.00 0.00 0.00 0.00 0.00 0.00 0.00 0.00 0.00 0.00 0.00 0.00 0.00 0.00 0.00 0.00 0.00 0.00 0.00 0.00 0.00 0.00 0.00 0.00 0.00
0.00 0.00 0.00 0.00 0.01 0.03 0.03 0.01 0.00 0.00 0.01 0.00 0.00 0.00 0.00 0.04 0.16 0.12 0.04 0.01 0.00 0.00 0.00 0.00 0.00 0.00 0.00 0.00 0.00 0.00 0.00 0.00 0.00 0.00 0.00 0.00 0.00 0.00 0.00 0.00 0.00 0.01 0.01 0.00
0.01 0.01 0.00 0.00 0.00 0.02 0.03 0.05 0.00 0.00 0.00 0.00 0.00 0.00 0.00 0.04 0.08 0.10 0.06 0.03 0.03 0.02 0.00 0.00 0.00 0.00 0.00 0.00 0.00 0.00 0.00 0.00 0.00 0.00 0.00 0.00 0.00 0.00 0.00 0.01 0.02 0.01 0.00 0.00
0.00 0.01 0.02 0.01 0.00 0.00 0.00 0.03 0.01 0.00 0.00 0.00 0.00 0.02 0.02 0.05 0.11 0.12 0.13 0.10 0.08 0.04 0.01 0.01 0.00 0.00 0.00 0.00 0.00 0.00 0.00 0.00 0.00 0.00 0.00 0.00 0.00 0.00 0.01 0.01 0.01 0.01 0.01 0.01
0.00 0.00 0.01 0.01 0.02 0.02 0.01 0.01 0.01 0.00 0.00 0.00 0.01 0.02 0.03 0.05 0.06 0.08 0.09 0.10 0.09 0.09 0.06 0.03 0.01 0.00 0.00 0.00 0.00 0.00 0.00 0.00 0.00 0.00 0.00 0.01 0.01 0.01 0.01 0.01 0.01 0.01 0.02 0.02
0.00 0.00 0.03 0.03 0.00 0.00 0.02 0.05 0.04 0.02 0.02 0.03 0.01 0.02 0.02 0.04 0.06 0.05 0.08 0.13 0.11 0.13 0.16 0.12 0.04 0.01 0.00 0.00 0.00 0.00 0.00 0.00 0.00 0.00 0.01 0.01 0.01 0.01 0.00 0.01 0.02 0.02 0.01 0.01
0.03 0.03 0.12 0.06 0.01 0.01 0.01 0.03 0.05 0.02 0.01 0.03 0.03 0.03 0.04 0.04 0.04 0.05 0.10 0.16 0.17 0.19 0.18 0.15 0.10 0.03 0.00 0.00 0.00 0.00 0.00 0.00 0.00 0.00 0.00 0.00 0.01 0.01 0.01 0.01 0.00 0.01 0.01 0.02
0.20 0.19 0.20 0.13 0.10 0.08 0.04 0.01 0.00 0.01 0.00 0.01 0.02 0.02 0.03 0.03 0.03 0.05 0.07 0.10 0.16 0.17 0.15 0.13 0.09 0.04 0.00 0.00 0.00 0.00 0.00 0.00 0.00 0.00 0.00 0.00 0.00 0.00 0.00 0.01 0.02 0.02 0.03 0.03
0.27 0.21 0.25 0.30 0.29 0.24 0.14 0.12 0.09 0.05 0.02 0.02 0.03 0.04 0.05 0.04 0.03 0.03 0.03 0.04 0.09 0.09 0.06 0.05 0.04 0.02 0.00 0.00 0.00 0.00 0.00 0.00 0.00 0.00 0.00 0.00 0.00 0.01 0.03 0.03 0.04 0.04 0.03 0.03
0.06 0.05 0.06 0.11 0.22 0.21 0.12 0.13 0.15 0.14 0.05 0.02 0.02 0.03 0.04 0.05 0.05 0.02 0.01 0.02 0.04 0.04 0.03 0.02 0.02 0.01 0.00 0.00 0.00 0.00 0.00 0.00 0.00 0.00 0.00 0.01 0.01 0.03 0.04 0.03 0.03 0.03 0.03 0.04
0.00 0.00 0.00 0.00 0.00 0.02 0.03 0.01 0.02 0.06 0.13 0.13 0.09 0.04 0.01 0.01 0.02 0.01 0.01 0.01 0.01 0.01 0.01 0.01 0.00 0.00 0.00 0.00 0.00 0.00 0.00 0.00 0.00 0.00 0.01 0.03 0.03 0.03 0.03 0.03 0.04 0.05 0.07 0.06
0.00 0.00 0.00 0.00 0.00 0.00 0.00 0.00 0.00 0.00 0.00 0.01 0.03 0.06 0.06 0.04 0.01 0.00 0.00 0.00 0.00 0.00 0.00 0.00 0.00 0.00 0.00 0.00 0.00 0.00 0.00 0.00 0.00 0.00 0.01 0.02 0.02 0.04 0.04 0.03 0.03 0.02 0.02 0.02
0.00 0.00 0.00 0.00 0.00 0.00 0.00 0.00 0.00 0.00 0.00 0.00 0.00 0.01 0.02 0.02 0.04 0.04 0.01 0.00 0.00 0.00 0.00 0.00 0.00 0.00 0.00 0.00 0.00 0.00 0.00 0.00 0.00 0.01 0.03 0.05 0.05 0.04 0.03 0.03 0.03 0.02 0.03 0.02

GFSNGP_prec_precacc_069.txt.gz
Total_Precipitation_Accumulation
0.49 0.28 0.42 0.57 0.56 0.49 0.94 0.52 0.52 0.16 0.07 0.03 0.03 0.02 0.02 0.01 0.01 0.04 0.05 0.04 0.02 0.02 0.03 0.02 0.05 0.05 0.06 0.09 0.07 0.07 0.07 0.05 0.05 0.05 0.05 0.04 0.04 0.05 0.05 0.04 0.04 0.04 0.03 0.02
0.61 0.24 0.38 0.48 0.55 0.36 0.56 0.27 0.26 0.17 0.13 0.01 0.01 0.01 0.00 0.01 0.04 0.07 0.07 0.04 0.02 0.01 0.01 0.01 0.00 0.00 0.02 0.08 0.09 0.09 0.11 0.06 0.04 0.02 0.05 0.05 0.06 0.06 0.07 0.14 0.12 0.10 0.13 0.17
0.64 0.48 0.28 0.47 0.58 0.68 0.48 0.20 0.25 0.28 0.15 0.01 0.01 0.04 0.06 0.05 0.06 0.04 0.03 0.02 0.01 0.00 0.00 0.00 0.00 0.00 0.01 0.03 0.05 0.09 0.08 0.06 0.05 0.03 0.04 0.07 0.09 0.16 0.21 0.27 0.56 0.55 0.55 0.41
0.31 0.15 0.16 0.11 0.14 0.44 0.28 0.23 0.26 0.14 0.07 0.02 0.00 0.00 0.02 0.04 0.02 0.01 0.01 0.00 0.01 0.00 0.00 0.00 0.00 0.01 0.02 0.09 0.12 0.40 0.10 0.15 0.16 0.14 0.17 0.20 0.33 0.45 0.48 0.47 0.48 0.55 0.89 0.94
0.16 0.07 0.03 0.00 0.00 0.07 0.13 0.22 0.14 0.07 0.02 0.00 0.00 0.22 0.35 0.15 0.04 0.01 0.00 0.00 0.00 0.00 0.00 0.00 0.02 0.02 0.02 0.04 0.14 0.36 0.22 0.25 0.36 0.31 0.28 0.26 0.40 0.50 0.37 0.51 0.67 0.62 0.54 0.44
0.10 0.12 0.02 0.00 0.00 0.01 0.02 0.18 0.02 0.05 0.04 0.02 0.01 0.29 0.32 0.24 0.05 0.02 0.00 0.00 0.00 0.00 0.02 0.05 0.08 0.08 0.07 0.07 0.10 0.31 0.33 0.31 0.30 0.48 0.40 0.48 0.44 0.49 0.75 0.60 0.54 0.44 0.34 0.23
0.15 0.18 0.01 0.00 0.00 0.01 0.08 0.13 0.01 0.06 0.06 0.01 0.01 0.03 0.06 0.08 0.11 0.08 0.12 0.12 0.14 0.08 0.16 0.24 0.37 0.35 0.41 0.43 0.62 0.88 0.57 0.60 0.64 0.78 0.67 0.61 0.66 0.57 0.50 0.37 0.26 0.20 0.12 0.06
0.13 0.10 0.00 0.00 0.00 0.00 0.01 0.01 0.02 0.10 0.03 0.02 0.01 0.02 0.02 0.01 0.07 0.11 0.14 0.12 0.33 0.48 0.53 0.60 0.72 0.65 0.63 0.71 0.75 0.91 0.67 0.59 0.57 0.49 0.44 0.35 0.27 0.18 0.10 0.09 0.05 0.03 0.01 0.00
0.00 0.00 0.00 0.00 0.00 0.00 0.00 0.00 0.00 0.02 0.10 0.13 0.12 0.19 0.07 0.02 0.01 0.03 0.07 0.03 0.12 0.22 0.13 0.18 0.29 0.34 0.25 0.24 0.23 0.20 0.16 0.13 0.13 0.08 0.05 0.03 0.00 0.00 0.00 0.00 0.00 0.00 0.00 0.00
0.00 0.00 0.00 0.00 0.00 0.00 0.00 0.00 0.00 0.00 0.01 0.22 0.07 0.08 0.03 0.06 0.04 0.05 0.05 0.02 0.04 0.04 0.04 0.04 0.05 0.04 0.03 0.02 0.02 0.01 0.01 0.01 0.00 0.00 0.00 0.00 0.00 0.00 0.00 0.00 0.00 0.00 0.00 0.00
0.00 0.00 0.00 0.00 0.00 0.00 0.00 0.00 0.00 0.00 0.00 0.00 0.05 0.07 0.02 0.16 0.08 0.00 0.00 0.00 0.00 0.01 0.02 0.00 0.00 0.00 0.00 0.00 0.00 0.00 0.00 0.00 0.00 0.00 0.00 0.00 0.00 0.00 0.00 0.00 0.00 0.00 0.00 0.01
0.00 0.00 0.00 0.00 0.00 0.00 0.00 0.01 0.00 0.00 0.00 0.00 0.00 0.12 0.01 0.06 0.03 0.00 0.00 0.00 0.00 0.00 0.00 0.00 0.00 0.00 0.00 0.00 0.00 0.00 0.00 0.00 0.00 0.00 0.00 0.00 0.00 0.00 0.00 0.00 0.00 0.00 0.00 0.01
0.00 0.00 0.00 0.00 0.00 0.00 0.00 0.00 0.00 0.00 0.00 0.00 0.00 0.01 0.01 0.11 0.02 0.00 0.00 0.00 0.00 0.00 0.00 0.00 0.00 0.00 0.00 0.00 0.00 0.00 0.00 0.00 0.00 0.00 0.00 0.00 0.00 0.00 0.00 0.00 0.00 0.00 0.00 0.01
0.00 0.00 0.00 0.00 0.00 0.00 0.00 0.00 0.03 0.01 0.00 0.00 0.01 0.04 0.07 0.23 0.25 0.08 0.06 0.00 0.00 0.00 0.00 0.00 0.00 0.00 0.00 0.00 0.00 0.00 0.00 0.00 0.00 0.00 0.00 0.00 0.00 0.00 0.00 0.00 0.00 0.00 0.00 0.00
0.00 0.00 0.00 0.00 0.00 0.02 0.01 0.00 0.00 0.01 0.02 0.00 0.00 0.00 0.02 0.06 0.27 0.17 0.03 0.00 0.00 0.00 0.00 0.00 0.00 0.00 0.00 0.00 0.00 0.00 0.00 0.00 0.00 0.00 0.00 0.00 0.00 0.00 0.00 0.00 0.00 0.00 0.00 0.00
0.00 0.00 0.00 0.00 0.01 0.03 0.03 0.01 0.00 0.00 0.01 0.00 0.00 0.00 0.00 0.04 0.16 0.12 0.05 0.01 0.00 0.00 0.00 0.00 0.00 0.00 0.00 0.00 0.00 0.00 0.00 0.00 0.00 0.00 0.00 0.00 0.00 0.00 0.00 0.00 0.00 0.01 0.01 0.00
0.01 0.01 0.00 0.00 0.00 0.02 0.03 0.05 0.00 0.00 0.00 0.00 0.00 0.00 0.00 0.04 0.08 0.10 0.06 0.03 0.03 0.02 0.01 0.00 0.00 0.00 0.00 0.00 0.00 0.00 0.00 0.00 0.00 0.00 0.00 0.00 0.00 0.00 0.00 0.01 0.02 0.01 0.00 0.00
0.00 0.01 0.02 0.01 0.00 0.00 0.00 0.03 0.01 0.00 0.00 0.00 0.00 0.02 0.02 0.05 0.11 0.12 0.13 0.10 0.08 0.05 0.02 0.02 0.00 0.00 0.00 0.00 0.00 0.00 0.00 0.00 0.00 0.00 0.00 0.00 0.00 0.00 0.01 0.01 0.01 0.01 0.01 0.01
0.00 0.00 0.01 0.01 0.02 0.02 0.01 0.01 0.01 0.00 0.00 0.00 0.01 0.02 0.03 0.05 0.06 0.08 0.09 0.10 0.09 0.10 0.07 0.07 0.06 0.01 0.00 0.00 0.00 0.00 0.00 0.00 0.00 0.00 0.00 0.01 0.01 0.01 0.01 0.01 0.01 0.01 0.02 0.02
0.00 0.00 0.03 0.03 0.00 0.00 0.02 0.05 0.04 0.02 0.02 0.03 0.01 0.02 0.02 0.04 0.06 0.05 0.08 0.13 0.11 0.13 0.18 0.21 0.17 0.06 0.01 0.00 0.00 0.00 0.00 0.00 0.00 0.00 0.01 0.01 0.01 0.01 0.00 0.01 0.02 0.02 0.01 0.01
0.03 0.04 0.13 0.07 0.02 0.01 0.01 0.03 0.05 0.02 0.01 0.03 0.03 0.03 0.04 0.04 0.04 0.05 0.10 0.16 0.17 0.20 0.23 0.23 0.19 0.11 0.04 0.01 0.00 0.00 0.00 0.00 0.00 0.00 0.00 0.00 0.01 0.01 0.01 0.01 0.00 0.01 0.01 0.02
0.21 0.22 0.22 0.14 0.11 0.08 0.05 0.03 0.01 0.01 0.00 0.01 0.02 0.02 0.03 0.03 0.03 0.05 0.07 0.10 0.16 0.22 0.21 0.18 0.15 0.11 0.07 0.03 0.01 0.00 0.00 0.00 0.00 0.00 0.00 0.00 0.00 0.00 0.00 0.01 0.02 0.02 0.03 0.03
0.27 0.22 0.28 0.33 0.32 0.27 0.17 0.17 0.14 0.08 0.05 0.04 0.04 0.05 0.05 0.05 0.03 0.04 0.04 0.05 0.11 0.13 0.11 0.11 0.13 0.14 0.11 0.04 0.01 0.01 0.00 0.00 0.00 0.00 0.00 0.00 0.00 0.01 0.03 0.03 0.04 0.04 0.03 0.03
0.06 0.05 0.06 0.11 0.23 0.24 0.16 0.21 0.23 0.20 0.08 0.06 0.06 0.06 0.07 0.08 0.08 0.05 0.03 0.05 0.05 0.06 0.06 0.07 0.12 0.12 0.08 0.03 0.02 0.01 0.00 0.00 0.00 0.00 0.00 0.01 0.01 0.03 0.04 0.03 0.03 0.03 0.03 0.04
0.00 0.00 0.00 0.00 0.00 0.02 0.04 0.03 0.04 0.07 0.14 0.16 0.14 0.08 0.05 0.06 0.06 0.05 0.06 0.05 0.04 0.04 0.03 0.04 0.05 0.05 0.03 0.01 0.01 0.00 0.00 0.00 0.00 0.00 0.01 0.03 0.03 0.03 0.03 0.03 0.04 0.05 0.07 0.06
0.00 0.00 0.00 0.00 0.00 0.00 0.00 0.00 0.00 0.00 0.00 0.01 0.04 0.07 0.08 0.05 0.02 0.01 0.00 0.01 0.01 0.02 0.02 0.02 0.03 0.02 0.01 0.01 0.00 0.00 0.00 0.00 0.00 0.00 0.01 0.02 0.02 0.04 0.04 0.03 0.03 0.02 0.02 0.02
0.00 0.00 0.00 0.00 0.00 0.00 0.00 0.00 0.00 0.00 0.00 0.00 0.00 0.01 0.02 0.02 0.04 0.06 0.02 0.00 0.00 0.00 0.00 0.00 0.01 0.01 0.00 0.00 0.00 0.00 0.00 0.00 0.00 0.01 0.03 0.05 0.05 0.04 0.03 0.03 0.03 0.02 0.03 0.02

GFSNGP_prec_precacc_072.txt.gz
Total_Precipitation_Accumulation
0.49 0.28 0.42 0.57 0.56 0.49 0.94 0.52 0.52 0.16 0.07 0.03 0.03 0.02 0.02 0.01 0.01 0.04 0.05 0.04 0.02 0.02 0.03 0.02 0.05 0.05 0.06 0.09 0.07 0.07 0.07 0.05 0.05 0.05 0.05 0.04 0.04 0.05 0.05 0.04 0.04 0.04 0.03 0.02
0.61 0.24 0.38 0.48 0.55 0.36 0.56 0.27 0.26 0.17 0.13 0.01 0.01 0.01 0.00 0.01 0.04 0.07 0.07 0.04 0.02 0.01 0.01 0.01 0.00 0.00 0.02 0.08 0.09 0.09 0.11 0.06 0.04 0.02 0.05 0.05 0.06 0.06 0.07 0.14 0.12 0.10 0.13 0.17
0.64 0.48 0.28 0.47 0.58 0.68 0.48 0.20 0.25 0.28 0.15 0.01 0.01 0.04 0.06 0.05 0.06 0.04 0.03 0.02 0.01 0.00 0.00 0.00 0.00 0.00 0.01 0.03 0.05 0.09 0.08 0.06 0.05 0.03 0.04 0.07 0.09 0.16 0.21 0.27 0.56 0.55 0.55 0.41
0.31 0.15 0.16 0.11 0.14 0.44 0.28 0.23 0.26 0.14 0.07 0.02 0.00 0.00 0.02 0.04 0.02 0.01 0.01 0.00 0.01 0.00 0.00 0.00 0.00 0.01 0.02 0.09 0.12 0.40 0.10 0.15 0.16 0.14 0.17 0.20 0.33 0.45 0.48 0.47 0.48 0.55 0.89 0.94
0.16 0.07 0.03 0.00 0.00 0.07 0.13 0.22 0.14 0.07 0.02 0.00 0.00 0.22 0.35 0.15 0.04 0.01 0.00 0.00 0.00 0.00 0.00 0.00 0.02 0.02 0.02 0.04 0.14 0.36 0.22 0.25 0.36 0.31 0.28 0.26 0.40 0.50 0.37 0.51 0.67 0.62 0.54 0.44
0.10 0.12 0.02 0.00 0.00 0.01 0.02 0.19 0.02 0.05 0.04 0.02 0.01 0.29 0.32 0.24 0.05 0.02 0.00 0.00 0.00 0.00 0.02 0.05 0.08 0.08 0.07 0.07 0.10 0.31 0.33 0.31 0.30 0.48 0.40 0.48 0.44 0.49 0.75 0.60 0.54 0.44 0.34 0.23
0.15 0.18 0.01 0.00 0.00 0.01 0.09 0.14 0.01 0.06 0.06 0.01 0.01 0.03 0.06 0.08 0.11 0.08 0.12 0.12 0.14 0.08 0.16 0.24 0.37 0.35 0.41 0.43 0.62 0.88 0.58 0.60 0.65 0.78 0.67 0.61 0.66 0.57 0.50 0.37 0.26 0.20 0.12 0.06
0.14 0.10 0.00 0.00 0.00 0.00 0.01 0.01 0.02 0.10 0.03 0.02 0.01 0.02 0.02 0.01 0.07 0.11 0.14 0.12 0.33 0.48 0.53 0.60 0.72 0.65 0.63 0.71 0.75 0.91 0.67 0.59 0.57 0.49 0.44 0.35 0.27 0.18 0.10 0.09 0.05 0.03 0.01 0.00
0.00 0.00 0.00 0.00 0.00 0.00 0.00 0.00 0.00 0.02 0.10 0.13 0.12 0.19 0.07 0.02 0.01 0.03 0.07 0.03 0.12 0.22 0.13 0.18 0.29 0.34 0.25 0.24 0.23 0.20 0.16 0.13 0.13 0.08 0.05 0.03 0.00 0.00 0.00 0.00 0.00 0.00 0.00 0.00
0.00 0.00 0.00 0.00 0.00 0.00 0.00 0.00 0.00 0.00 0.01 0.22 0.07 0.08 0.03 0.06 0.04 0.05 0.05 0.02 0.04 0.04 0.04 0.04 0.05 0.04 0.03 0.02 0.02 0.01 0.01 0.01 0.00 0.00 0.00 0.00 0.00 0.00 0.00 0.00 0.00 0.00 0.00 0.00
0.00 0.00 0.00 0.00 0.00 0.00 0.00 0.00 0.00 0.00 0.00 0.00 0.05 0.07 0.02 0.16 0.08 0.00 0.00 0.00 0.00 0.01 0.02 0.00 0.00 0.00 0.00 0.00 0.00 0.00 0.00 0.00 0.00 0.00 0.00 0.00 0.00 0.00 0.00 0.00 0.00 0.00 0.00 0.01
0.00 0.00 0.00 0.00 0.00 0.00 0.00 0.01 0.00 0.00 0.00 0.00 0.00 0.12 0.01 0.06 0.03 0.00 0.00 0.00 0.00 0.00 0.00 0.00 0.00 0.00 0.00 0.00 0.00 0.00 0.00 0.00 0.00 0.00 0.00 0.00 0.00 0.00 0.00 0.00 0.00 0.00 0.00 0.01
0.00 0.00 0.00 0.00 0.00 0.00 0.00 0.00 0.00 0.00 0.00 0.00 0.00 0.01 0.01 0.11 0.02 0.00 0.00 0.00 0.00 0.00 0.00 0.00 0.00 0.00 0.00 0.00 0.00 0.00 0.00 0.00 0.00 0.00 0.00 0.00 0.00 0.00 0.00 0.00 0.00 0.00 0.00 0.01
0.00 0.00 0.00 0.00 0.00 0.00 0.00 0.00 0.03 0.01 0.00 0.00 0.01 0.04 0.07 0.23 0.25 0.08 0.06 0.00 0.00 0.00 0.00 0.00 0.00 0.00 0.00 0.00 0.00 0.00 0.00 0.00 0.00 0.00 0.00 0.00 0.00 0.00 0.00 0.00 0.00 0.00 0.00 0.00
0.00 0.00 0.00 0.00 0.00 0.02 0.01 0.00 0.00 0.01 0.02 0.00 0.00 0.00 0.02 0.06 0.27 0.17 0.03 0.00 0.00 0.00 0.00 0.00 0.00 0.00 0.00 0.00 0.00 0.00 0.00 0.00 0.00 0.00 0.00 0.00 0.00 0.00 0.00 0.00 0.00 0.00 0.00 0.00
0.00 0.00 0.00 0.00 0.01 0.03 0.03 0.01 0.00 0.00 0.01 0.00 0.00 0.00 0.00 0.04 0.16 0.12 0.05 0.01 0.00 0.00 0.00 0.00 0.00 0.00 0.00 0.00 0.00 0.00 0.00 0.00 0.00 0.00 0.00 0.00 0.00 0.00 0.00 0.00 0.00 0.01 0.01 0.00
0.01 0.01 0.00 0.00 0.00 0.02 0.03 0.05 0.00 0.00 0.00 0.00 0.00 0.00 0.00 0.04 0.08 0.10 0.06 0.03 0.03 0.02 0.01 0.00 0.00 0.00 0.00 0.00 0.00 0.00 0.00 0.00 0.00 0.00 0.00 0.00 0.00 0.00 0.00 0.01 0.02 0.01 0.00 0.00
0.00 0.01 0.02 0.01 0.00 0.00 0.00 0.03 0.01 0.00 0.00 0.00 0.00 0.02 0.02 0.05 0.11 0.12 0.13 0.10 0.08 0.05 0.02 0.02 0.00 0.00 0.00 0.00 0.00 0.00 0.00 0.00 0.00 0.00 0.00 0.00 0.00 0.00 0.01 0.01 0.01 0.01 0.01 0.01
0.00 0.00 0.01 0.01 0.02 0.02 0.01 0.01 0.01 0.00 0.00 0.00 0.01 0.02 0.03 0.05 0.06 0.08 0.09 0.10 0.09 0.10 0.07 0.07 0.09 0.04 0.02 0.00 0.00 0.00 0.00 0.00 0.00 0.00 0.00 0.01 0.01 0.01 0.01 0.01 0.01 0.01 0.02 0.02
0.00 0.00 0.03 0.03 0.00 0.00 0.02 0.05 0.04 0.02 0.02 0.03 0.01 0.02 0.02 0.04 0.06 0.05 0.08 0.13 0.11 0.13 0.18 0.22 0.21 0.09 0.04 0.02 0.00 0.00 0.00 0.00 0.00 0.00 0.01 0.01 0.01 0.01 0.00 0.01 0.02 0.02 0.01 0.01
0.03 0.04 0.13 0.07 0.02 0.01 0.01 0.03 0.05 0.02 0.01 0.03 0.03 0.03 0.04 0.04 0.04 0.05 0.10 0.16 0.17 0.21 0.25 0.28 0.24 0.12 0.07 0.06 0.02 0.00 0.00 0.00 0.00 0.01 0.00 0.00 0.01 0.01 0.01 0.01 0.00 0.01 0.01 0.02
0.22 0.22 0.22 0.15 0.12 0.09 0.06 0.04 0.02 0.02 0.01 0.01 0.02 0.02 0.03 0.03 0.03 0.05 0.07 0.10 0.16 0.23 0.22 0.19 0.16 0.14 0.12 0.13 0.07 0.02 0.01 0.01 0.01 0.01 0.01 0.00 0.00 0.00 0.00 0.01 0.02 0.02 0.03 0.03
0.27 0.22 0.28 0.33 0.32 0.28 0.18 0.18 0.16 0.12 0.08 0.06 0.06 0.07 0.07 0.05 0.04 0.04 0.04 0.05 0.11 0.14 0.13 0.12 0.15 0.19 0.19 0.16 0.09 0.05 0.03 0.02 0.01 0.01 0.00 0.00 0.00 0.01 0.03 0.03 0.04 0.04 0.03 0.03
0.06 0.05 0.06 0.11 0.23 0.24 0.17 0.22 0.27 0.24 0.11 0.10 0.10 0.11 0.11 0.12 0.12 0.08 0.06 0.07 0.07 0.09 0.09 0.10 0.16 0.19 0.18 0.11 0.09 0.08 0.05 0.02 0.01 0.01 0.00 0.01 0.01 0.03 0.04 0.03 0.03 0.03 0.03 0.04
0.00 0.00 0.00 0.00 0.00 0.02 0.04 0.03 0.04 0.07 0.14 0.17 0.18 0.12 0.09 0.10 0.10 0.09 0.10 0.10 0.09 0.08 0.07 0.08 0.09 0.10 0.09 0.06 0.08 0.06 0.02 0.01 0.01 0.01 0.01 0.03 0.03 0.03 0.03 0.03 0.04 0.05 0.07 0.06
0.00 0.00 0.00 0.00 0.00 0.00 0.00 0.00 0.00 0.00 0.00 0.01 0.04 0.07 0.08 0.07 0.06 0.04 0.03 0.04 0.04 0.05 0.04 0.04 0.04 0.04 0.02 0.02 0.03 0.01 0.01 0.00 0.00 0.00 0.01 0.02 0.02 0.04 0.04 0.03 0.03 0.02 0.02 0.02
0.00 0.00 0.00 0.00 0.00 0.00 0.00 0.00 0.00 0.00 0.00 0.00 0.00 0.01 0.02 0.02 0.04 0.06 0.02 0.01 0.01 0.01 0.02 0.02 0.03 0.03 0.02 0.02 0.03 0.01 0.01 0.01 0.00 0.01 0.03 0.05 0.05 0.04 0.03 0.03 0.03 0.02 0.03 0.02

GFSNGP_prec_precacc_075.txt.gz
Total_Precipitation_Accumulation
0.49 0.28 0.42 0.57 0.56 0.49 0.94 0.52 0.52 0.16 0.07 0.03 0.03 0.02 0.02 0.01 0.01 0.04 0.05 0.04 0.02 0.02 0.03 0.02 0.05 0.05 0.06 0.09 0.07 0.07 0.07 0.05 0.05 0.05 0.05 0.04 0.04 0.05 0.05 0.04 0.04 0.04 0.03 0.02
0.61 0.24 0.38 0.48 0.55 0.36 0.56 0.27 0.26 0.17 0.13 0.01 0.01 0.01 0.00 0.01 0.04 0.07 0.07 0.04 0.02 0.01 0.01 0.01 0.00 0.00 0.02 0.08 0.09 0.09 0.11 0.06 0.04 0.02 0.05 0.05 0.06 0.06 0.07 0.14 0.12 0.10 0.13 0.17
0.64 0.48 0.28 0.47 0.58 0.68 0.48 0.20 0.25 0.28 0.15 0.01 0.01 0.04 0.06 0.05 0.06 0.04 0.03 0.02 0.01 0.00 0.00 0.00 0.00 0.00 0.01 0.03 0.05 0.09 0.08 0.06 0.05 0.03 0.04 0.07 0.09 0.16 0.21 0.27 0.56 0.55 0.55 0.41
0.31 0.15 0.16 0.11 0.14 0.44 0.28 0.23 0.26 0.14 0.07 0.02 0.00 0.00 0.02 0.04 0.02 0.01 0.01 0.00 0.01 0.00 0.00 0.00 0.00 0.01 0.02 0.09 0.12 0.40 0.10 0.15 0.16 0.14 0.17 0.20 0.33 0.45 0.48 0.47 0.48 0.55 0.89 0.94
0.16 0.07 0.03 0.00 0.00 0.07 0.13 0.22 0.14 0.07 0.02 0.00 0.00 0.22 0.35 0.15 0.04 0.01 0.00 0.00 0.00 0.00 0.00 0.00 0.02 0.02 0.02 0.04 0.14 0.36 0.22 0.25 0.36 0.31 0.28 0.26 0.40 0.50 0.37 0.51 0.67 0.62 0.54 0.44
0.10 0.12 0.02 0.00 0.00 0.01 0.02 0.19 0.02 0.05 0.04 0.02 0.01 0.29 0.32 0.24 0.05 0.02 0.00 0.00 0.00 0.00 0.02 0.05 0.08 0.08 0.07 0.07 0.10 0.31 0.33 0.31 0.30 0.48 0.40 0.48 0.44 0.49 0.75 0.60 0.54 0.44 0.34 0.23
0.15 0.18 0.01 0.00 0.00 0.01 0.09 0.14 0.01 0.06 0.06 0.01 0.01 0.03 0.06 0.08 0.11 0.08 0.12 0.12 0.14 0.08 0.16 0.24 0.37 0.35 0.41 0.43 0.62 0.88 0.58 0.60 0.65 0.78 0.67 0.61 0.66 0.57 0.50 0.37 0.26 0.20 0.12 0.06
0.14 0.10 0.00 0.00 0.00 0.00 0.01 0.01 0.02 0.10 0.03 0.02 0.01 0.02 0.02 0.01 0.07 0.11 0.14 0.12 0.33 0.48 0.53 0.60 0.72 0.65 0.63 0.71 0.75 0.91 0.67 0.59 0.57 0.49 0.44 0.35 0.27 0.18 0.10 0.09 0.05 0.03 0.01 0.00
0.00 0.00 0.00 0.00 0.00 0.00 0.00 0.00 0.00 0.02 0.10 0.13 0.12 0.19 0.07 0.02 0.01 0.03 0.07 0.03 0.12 0.22 0.13 0.18 0.29 0.34 0.25 0.24 0.23 0.20 0.16 0.13 0.13 0.08 0.05 0.03 0.00 0.00 0.00 0.00 0.00 0.00 0.00 0.00
0.00 0.00 0.00 0.00 0.00 0.00 0.00 0.00 0.00 0.00 0.01 0.22 0.07 0.08 0.03 0.06 0.04 0.05 0.05 0.02 0.04 0.04 0.04 0.04 0.05 0.04 0.03 0.02 0.02 0.01 0.01 0.01 0.00 0.00 0.00 0.00 0.00 0.00 0.00 0.00 0.00 0.00 0.00 0.00
0.00 0.00 0.00 0.00 0.00 0.00 0.00 0.00 0.00 0.00 0.00 0.00 0.05 0.07 0.02 0.16 0.08 0.00 0.00 0.00 0.00 0.01 0.02 0.00 0.00 0.00 0.00 0.00 0.00 0.00 0.00 0.00 0.00 0.00 0.00 0.00 0.00 0.00 0.00 0.00 0.00 0.00 0.00 0.01
0.00 0.00 0.00 0.00 0.00 0.00 0.00 0.01 0.00 0.00 0.00 0.00 0.00 0.12 0.01 0.06 0.03 0.00 0.00 0.00 0.00 0.00 0.00 0.00 0.00 0.00 0.00 0.00 0.00 0.00 0.00 0.00 0.00 0.00 0.00 0.00 0.00 0.00 0.00 0.00 0.00 0.00 0.00 0.01
0.00 0.00 0.00 0.00 0.00 0.00 0.00 0.00 0.00 0.00 0.00 0.00 0.00 0.01 0.01 0.11 0.02 0.00 0.00 0.00 0.00 0.00 0.00 0.00 0.00 0.00 0.00 0.00 0.00 0.00 0.00 0.00 0.00 0.00 0.00 0.00 0.00 0.00 0.00 0.00 0.00 0.00 0.00 0.01
0.00 0.00 0.00 0.00 0.00 0.00 0.00 0.00 0.03 0.01 0.00 0.00 0.01 0.04 0.07 0.23 0.25 0.08 0.06 0.00 0.00 0.00 0.00 0.00 0.00 0.00 0.00 0.00 0.00 0.00 0.00 0.00 0.00 0.00 0.00 0.00 0.00 0.00 0.00 0.00 0.00 0.00 0.00 0.00
0.00 0.00 0.00 0.00 0.00 0.02 0.01 0.00 0.00 0.01 0.02 0.00 0.00 0.00 0.02 0.06 0.27 0.17 0.03 0.00 0.00 0.00 0.00 0.00 0.00 0.00 0.00 0.00 0.00 0.00 0.00 0.00 0.00 0.00 0.00 0.00 0.00 0.00 0.00 0.00 0.00 0.00 0.00 0.00
0.00 0.00 0.00 0.00 0.01 0.03 0.03 0.01 0.00 0.00 0.01 0.00 0.00 0.00 0.00 0.04 0.16 0.12 0.05 0.01 0.00 0.00 0.00 0.00 0.00 0.00 0.00 0.00 0.00 0.00 0.00 0.00 0.00 0.00 0.00 0.00 0.00 0.00 0.00 0.00 0.00 0.01 0.01 0.00
0.01 0.01 0.00 0.00 0.00 0.02 0.03 0.05 0.00 0.00 0.00 0.00 0.00 0.00 0.00 0.04 0.08 0.10 0.06 0.03 0.03 0.02 0.01 0.00 0.00 0.00 0.00 0.00 0.00 0.00 0.00 0.00 0.00 0.00 0.00 0.00 0.00 0.00 0.00 0.01 0.02 0.01 0.00 0.00
0.00 0.01 0.02 0.01 0.00 0.00 0.00 0.03 0.01 0.00 0.00 0.00 0.00 0.02 0.02 0.05 0.11 0.12 0.13 0.10 0.08 0.05 0.02 0.02 0.00 0.00 0.00 0.00 0.00 0.00 0.00 0.00 0.00 0.00 0.00 0.00 0.00 0.00 0.01 0.01 0.01 0.01 0.01 0.01
0.00 0.00 0.01 0.01 0.02 0.02 0.01 0.01 0.01 0.00 0.00 0.00 0.01 0.02 0.03 0.05 0.06 0.08 0.09 0.10 0.09 0.10 0.07 0.07 0.09 0.04 0.02 0.01 0.00 0.00 0.00 0.00 0.00 0.00 0.00 0.01 0.01 0.01 0.01 0.01 0.01 0.01 0.02 0.02
0.00 0.00 0.03 0.03 0.00 0.00 0.02 0.05 0.04 0.02 0.02 0.03 0.01 0.02 0.02 0.04 0.06 0.05 0.08 0.13 0.11 0.13 0.18 0.22 0.22 0.09 0.05 0.03 0.02 0.00 0.00 0.00 0.00 0.00 0.01 0.01 0.01 0.01 0.00 0.01 0.02 0.02 0.01 0.01
0.03 0.04 0.13 0.07 0.02 0.01 0.01 0.03 0.05 0.02 0.01 0.03 0.03 0.03 0.04 0.04 0.04 0.05 0.10 0.16 0.17 0.21 0.25 0.28 0.24 0.12 0.07 0.07 0.05 0.01 0.00 0.00 0.01 0.01 0.00 0.00 0.01 0.01 0.01 0.01 0.00 0.01 0.01 0.02
0.23 0.22 0.22 0.15 0.12 0.10 0.06 0.05 0.03 0.03 0.02 0.02 0.03 0.03 0.03 0.03 0.03 0.05 0.07 0.10 0.16 0.23 0.22 0.19 0.17 0.16 0.13 0.17 0.11 0.04 0.02 0.02 0.02 0.02 0.02 0.02 0.03 0.02 0.01 0.01 0.02 0.02 0.03 0.03
0.28 0.22 0.28 0.33 0.32 0.28 0.18 0.19 0.17 0.13 0.09 0.08 0.07 0.08 0.08 0.06 0.04 0.04 0.04 0.05 0.12 0.14 0.13 0.12 0.15 0.21 0.22 0.20 0.14 0.10 0.10 0.08 0.05 0.04 0.03 0.03 0.03 0.03 0.04 0.04 0.04 0.04 0.03 0.03
0.06 0.05 0.06 0.11 0.23 0.24 0.17 0.22 0.27 0.25 0.12 0.12 0.13 0.13 0.14 0.15 0.14 0.10 0.08 0.09 0.09 0.11 0.10 0.12 0.20 0.23 0.23 0.15 0.13 0.14 0.13 0.12 0.09 0.07 0.04 0.04 0.03 0.04 0.04 0.03 0.03 0.03 0.03 0.04
0.00 0.00 0.00 0.00 0.00 0.02 0.04 0.03 0.04 0.07 0.14 0.18 0.18 0.13 0.12 0.14 0.15 0.14 0.15 0.14 0.13 0.12 0.11 0.12 0.13 0.14 0.13 0.10 0.14 0.14 0.12 0.10 0.08 0.07 0.05 0.05 0.05 0.04 0.03 0.03 0.04 0.05 0.07 0.06
0.00 0.00 0.00 0.00 0.00 0.00 0.00 0.00 0.00 0.00 0.00 0.01 0.04 0.07 0.08 0.07 0.07 0.07 0.07 0.09 0.10 0.11 0.10 0.10 0.08 0.08 0.06 0.05 0.06 0.04 0.04 0.04 0.05 0.04 0.04 0.05 0.04 0.04 0.04 0.04 0.03 0.02 0.02 0.02
0.00 0.00 0.00 0.00 0.00 0.00 0.00 0.00 0.00 0.00 0.00 0.00 0.00 0.01 0.02 0.02 0.04 0.06 0.03 0.02 0.04 0.06 0.06 0.05 0.06 0.06 0.05 0.04 0.03 0.02 0.02 0.02 0.03 0.03 0.05 0.07 0.05 0.05 0.03 0.03 0.03 0.02 0.03 0.02

GFSNGP_prec_precacc_078.txt.gz
Total_Precipitation_Accumulation
0.49 0.28 0.42 0.57 0.56 0.49 0.94 0.52 0.52 0.16 0.07 0.03 0.03 0.02 0.02 0.01 0.01 0.04 0.05 0.04 0.02 0.02 0.03 0.02 0.05 0.05 0.06 0.09 0.07 0.07 0.07 0.05 0.05 0.05 0.05 0.04 0.04 0.05 0.05 0.04 0.04 0.04 0.03 0.02
0.61 0.24 0.38 0.48 0.55 0.36 0.56 0.27 0.26 0.17 0.13 0.01 0.01 0.01 0.00 0.01 0.04 0.07 0.07 0.04 0.02 0.01 0.01 0.01 0.00 0.00 0.02 0.08 0.09 0.09 0.11 0.06 0.04 0.02 0.05 0.05 0.06 0.06 0.07 0.14 0.12 0.10 0.13 0.17
0.64 0.48 0.28 0.47 0.58 0.68 0.48 0.20 0.25 0.28 0.15 0.01 0.01 0.04 0.06 0.05 0.06 0.04 0.03 0.02 0.01 0.00 0.00 0.00 0.00 0.00 0.01 0.03 0.05 0.09 0.08 0.06 0.05 0.03 0.04 0.07 0.09 0.16 0.21 0.27 0.56 0.55 0.56 0.41
0.31 0.15 0.16 0.11 0.14 0.44 0.28 0.23 0.26 0.14 0.07 0.02 0.00 0.00 0.02 0.04 0.02 0.01 0.01 0.00 0.01 0.00 0.00 0.00 0.00 0.01 0.02 0.09 0.12 0.40 0.10 0.15 0.16 0.14 0.17 0.20 0.33 0.45 0.48 0.47 0.48 0.55 0.89 0.94
0.16 0.07 0.03 0.00 0.00 0.07 0.13 0.22 0.14 0.07 0.02 0.00 0.00 0.22 0.35 0.15 0.04 0.01 0.00 0.00 0.00 0.00 0.00 0.00 0.02 0.02 0.02 0.04 0.14 0.36 0.22 0.25 0.36 0.31 0.28 0.26 0.40 0.50 0.37 0.51 0.67 0.62 0.54 0.44
0.10 0.12 0.02 0.00 0.00 0.01 0.02 0.19 0.02 0.05 0.04 0.02 0.01 0.29 0.32 0.24 0.05 0.02 0.00 0.00 0.00 0.00 0.02 0.05 0.08 0.08 0.07 0.07 0.10 0.31 0.33 0.31 0.30 0.48 0.40 0.48 0.44 0.49 0.75 0.60 0.54 0.44 0.34 0.23
0.15 0.18 0.01 0.00 0.00 0.01 0.09 0.14 0.01 0.06 0.06 0.01 0.01 0.03 0.06 0.08 0.11 0.08 0.12 0.12 0.14 0.08 0.16 0.24 0.37 0.35 0.41 0.43 0.62 0.88 0.58 0.60 0.65 0.78 0.67 0.61 0.66 0.57 0.50 0.37 0.26 0.20 0.12 0.06
0.14 0.10 0.00 0.00 0.00 0.00 0.01 0.01 0.02 0.10 0.03 0.02 0.01 0.02 0.02 0.01 0.07 0.11 0.14 0.12 0.33 0.48 0.53 0.60 0.72 0.65 0.63 0.71 0.75 0.91 0.67 0.59 0.57 0.49 0.44 0.35 0.27 0.18 0.10 0.09 0.05 0.03 0.01 0.00
0.00 0.00 0.00 0.00 0.00 0.00 0.00 0.00 0.00 0.02 0.10 0.13 0.12 0.19 0.07 0.02 0.01 0.03 0.07 0.03 0.12 0.22 0.13 0.18 0.29 0.34 0.25 0.24 0.23 0.20 0.16 0.13 0.13 0.08 0.05 0.03 0.00 0.00 0.00 0.00 0.00 0.00 0.00 0.00
0.00 0.00 0.00 0.00 0.00 0.00 0.00 0.00 0.00 0.00 0.01 0.22 0.07 0.08 0.03 0.06 0.04 0.05 0.05 0.02 0.04 0.04 0.04 0.04 0.05 0.04 0.03 0.02 0.02 0.01 0.01 0.01 0.00 0.00 0.00 0.00 0.00 0.00 0.00 0.00 0.00 0.00 0.00 0.00
0.00 0.00 0.00 0.00 0.00 0.00 0.00 0.00 0.00 0.00 0.00 0.00 0.05 0.07 0.02 0.16 0.08 0.00 0.00 0.00 0.00 0.01 0.02 0.00 0.00 0.00 0.00 0.00 0.00 0.00 0.00 0.00 0.00 0.00 0.00 0.00 0.00 0.00 0.00 0.00 0.00 0.00 0.00 0.01
0.00 0.00 0.00 0.00 0.00 0.00 0.00 0.01 0.00 0.00 0.00 0.00 0.00 0.12 0.01 0.06 0.03 0.00 0.00 0.00 0.00 0.00 0.00 0.00 0.00 0.00 0.00 0.00 0.00 0.00 0.00 0.00 0.00 0.00 0.00 0.00 0.00 0.00 0.00 0.00 0.00 0.00 0.00 0.01
0.00 0.00 0.00 0.00 0.00 0.00 0.00 0.00 0.00 0.00 0.00 0.00 0.00 0.01 0.01 0.11 0.02 0.00 0.00 0.00 0.00 0.00 0.00 0.00 0.00 0.00 0.00 0.00 0.00 0.00 0.00 0.00 0.00 0.00 0.00 0.00 0.00 0.00 0.00 0.00 0.00 0.00 0.00 0.01
0.00 0.00 0.00 0.00 0.00 0.00 0.00 0.00 0.03 0.01 0.00 0.00 0.01 0.04 0.07 0.23 0.25 0.08 0.06 0.00 0.00 0.00 0.00 0.00 0.00 0.00 0.00 0.00 0.00 0.00 0.00 0.00 0.00 0.00 0.00 0.00 0.00 0.00 0.00 0.00 0.00 0.00 0.00 0.00
0.00 0.00 0.00 0.00 0.00 0.02 0.01 0.00 0.00 0.01 0.02 0.00 0.00 0.00 0.02 0.06 0.27 0.17 0.03 0.00 0.00 0.00 0.00 0.00 0.00 0.00 0.00 0.00 0.00 0.00 0.00 0.00 0.00 0.00 0.00 0.00 0.00 0.00 0.00 0.00 0.00 0.00 0.00 0.00
0.00 0.00 0.00 0.00 0.01 0.03 0.03 0.01 0.00 0.00 0.01 0.00 0.00 0.00 0.00 0.04 0.16 0.12 0.05 0.01 0.00 0.00 0.00 0.00 0.00 0.00 0.00 0.00 0.00 0.00 0.00 0.00 0.00 0.00 0.00 0.00 0.00 0.00 0.00 0.00 0.00 0.01 0.01 0.00
0.01 0.01 0.00 0.00 0.00 0.02 0.03 0.05 0.00 0.00 0.00 0.00 0.00 0.00 0.00 0.04 0.08 0.10 0.06 0.03 0.03 0.02 0.01 0.00 0.00 0.00 0.00 0.00 0.00 0.00 0.00 0.00 0.00 0.00 0.00 0.00 0.00 0.00 0.00 0.01 0.02 0.01 0.00 0.00
0.00 0.01 0.02 0.01 0.00 0.00 0.00 0.03 0.01 0.00 0.00 0.00 0.00 0.02 0.02 0.05 0.11 0.12 0.13 0.10 0.08 0.05 0.02 0.02 0.00 0.00 0.00 0.00 0.00 0.00 0.00 0.00 0.00 0.00 0.00 0.00 0.00 0.00 0.01 0.01 0.01 0.01 0.01 0.01
0.00 0.00 0.01 0.01 0.02 0.02 0.01 0.01 0.01 0.00 0.00 0.00 0.01 0.02 0.03 0.05 0.06 0.08 0.09 0.10 0.09 0.10 0.07 0.07 0.09 0.04 0.02 0.01 0.01 0.00 0.00 0.00 0.00 0.00 0.00 0.01 0.01 0.01 0.01 0.01 0.01 0.01 0.02 0.02
0.00 0.00 0.03 0.03 0.00 0.00 0.02 0.05 0.04 0.02 0.02 0.03 0.01 0.02 0.02 0.04 0.06 0.05 0.08 0.13 0.11 0.13 0.18 0.22 0.22 0.09 0.05 0.04 0.04 0.00 0.00 0.00 0.00 0.00 0.01 0.01 0.01 0.01 0.00 0.01 0.02 0.02 0.01 0.01
0.03 0.04 0.13 0.07 0.02 0.02 0.01 0.03 0.05 0.02 0.01 0.03 0.03 0.03 0.04 0.04 0.04 0.05 0.10 0.16 0.17 0.21 0.25 0.28 0.24 0.12 0.07 0.08 0.07 0.01 0.00 0.00 0.01 0.01 0.01 0.01 0.01 0.01 0.01 0.01 0.01 0.01 0.01 0.02
0.26 0.22 0.22 0.15 0.12 0.10 0.06 0.05 0.03 0.03 0.02 0.03 0.03 0.04 0.04 0.03 0.03 0.05 0.07 0.10 0.16 0.24 0.22 0.19 0.17 0.16 0.13 0.18 0.11 0.04 0.02 0.02 0.03 0.04 0.04 0.04 0.04 0.04 0.04 0.03 0.03 0.03 0.03 0.03
0.30 0.22 0.28 0.33 0.32 0.28 0.18 0.19 0.17 0.13 0.09 0.08 0.09 0.09 0.09 0.07 0.05 0.05 0.05 0.06 0.12 0.15 0.13 0.12 0.15 0.21 0.22 0.21 0.15 0.11 0.11 0.11 0.11 0.11 0.09 0.09 0.07 0.07 0.07 0.06 0.05 0.05 0.03 0.03
0.06 0.05 0.06 0.11 0.23 0.24 0.17 0.22 0.27 0.25 0.12 0.12 0.13 0.14 0.15 0.16 0.15 0.12 0.10 0.10 0.10 0.12 0.11 0.13 0.21 0.25 0.25 0.16 0.14 0.16 0.17 0.18 0.18 0.17 0.16 0.15 0.12 0.10 0.08 0.05 0.05 0.03 0.03 0.04
0.00 0.00 0.00 0.00 0.00 0.02 0.04 0.03 0.04 0.07 0.14 0.18 0.18 0.13 0.12 0.15 0.16 0.16 0.17 0.17 0.15 0.15 0.14 0.16 0.16 0.16 0.15 0.13 0.17 0.20 0.18 0.17 0.17 0.17 0.16 0.16 0.13 0.12 0.09 0.07 0.06 0.05 0.07 0.06
0.00 0.00 0.00 0.00 0.00 0.00 0.00 0.00 0.00 0.00 0.00 0.01 0.04 0.07 0.08 0.07 0.07 0.07 0.08 0.11 0.13 0.15 0.15 0.14 0.14 0.14 0.12 0.12 0.12 0.10 0.08 0.08 0.10 0.09 0.09 0.11 0.11 0.12 0.09 0.06 0.04 0.02 0.02 0.02
0.00 0.00 0.00 0.00 0.00 0.00 0.00 0.00 0.00 0.00 0.00 0.00 0.00 0.01 0.02 0.02 0.04 0.06 0.03 0.02 0.04 0.08 0.09 0.09 0.11 0.13 0.13 0.10 0.09 0.07 0.05 0.04 0.05 0.05 0.07 0.09 0.09 0.07 0.05 0.03 0.03 0.02 0.03 0.02

GFSNGP_prec_precacc_081.txt.gz
Total_Precipitation_Accumulation
0.49 0.28 0.42 0.57 0.56 0.49 0.94 0.52 0.52 0.16 0.07 0.03 0.03 0.02 0.02 0.01 0.01 0.04 0.05 0.04 0.02 0.02 0.03 0.02 0.05 0.05 0.06 0.09 0.07 0.07 0.07 0.05 0.05 0.05 0.05 0.04 0.04 0.05 0.05 0.04 0.04 0.04 0.03 0.02
0.61 0.24 0.38 0.48 0.55 0.36 0.56 0.27 0.26 0.17 0.13 0.01 0.01 0.01 0.00 0.01 0.04 0.07 0.07 0.04 0.02 0.01 0.01 0.01 0.00 0.00 0.02 0.08 0.09 0.09 0.11 0.06 0.04 0.02 0.05 0.05 0.06 0.06 0.07 0.14 0.12 0.10 0.13 0.17
0.64 0.48 0.28 0.47 0.58 0.68 0.48 0.20 0.25 0.28 0.15 0.01 0.01 0.04 0.06 0.05 0.06 0.04 0.03 0.02 0.01 0.00 0.00 0.00 0.00 0.00 0.01 0.03 0.05 0.09 0.08 0.06 0.05 0.03 0.04 0.07 0.09 0.16 0.21 0.27 0.56 0.55 0.56 0.41
0.31 0.15 0.16 0.11 0.14 0.44 0.28 0.23 0.26 0.14 0.07 0.02 0.00 0.00 0.02 0.04 0.02 0.01 0.01 0.00 0.01 0.00 0.00 0.00 0.00 0.01 0.02 0.09 0.12 0.40 0.10 0.15 0.16 0.14 0.17 0.20 0.33 0.45 0.48 0.47 0.48 0.55 0.89 0.94
0.16 0.07 0.03 0.00 0.00 0.07 0.13 0.22 0.14 0.07 0.02 0.00 0.00 0.22 0.35 0.15 0.04 0.01 0.00 0.00 0.00 0.00 0.00 0.00 0.02 0.02 0.02 0.04 0.14 0.36 0.22 0.25 0.36 0.31 0.28 0.26 0.40 0.50 0.37 0.51 0.67 0.62 0.54 0.44
0.10 0.12 0.02 0.00 0.00 0.01 0.02 0.19 0.02 0.05 0.04 0.02 0.01 0.29 0.32 0.24 0.05 0.02 0.00 0.00 0.00 0.00 0.02 0.05 0.08 0.08 0.07 0.07 0.10 0.31 0.33 0.31 0.30 0.48 0.40 0.48 0.44 0.49 0.75 0.60 0.54 0.44 0.34 0.23
0.15 0.18 0.01 0.00 0.00 0.01 0.09 0.14 0.01 0.06 0.06 0.01 0.01 0.03 0.06 0.08 0.11 0.08 0.12 0.12 0.14 0.08 0.16 0.24 0.37 0.35 0.41 0.43 0.62 0.88 0.58 0.60 0.65 0.78 0.67 0.61 0.66 0.57 0.50 0.37 0.26 0.20 0.12 0.06
0.14 0.10 0.00 0.00 0.00 0.00 0.01 0.01 0.02 0.10 0.03 0.02 0.01 0.02 0.02 0.01 0.07 0.11 0.14 0.12 0.33 0.48 0.53 0.60 0.72 0.65 0.63 0.71 0.75 0.91 0.67 0.59 0.57 0.49 0.44 0.35 0.27 0.18 0.10 0.09 0.05 0.03 0.01 0.00
0.00 0.00 0.00 0.00 0.00 0.00 0.00 0.00 0.00 0.02 0.10 0.13 0.12 0.19 0.07 0.02 0.01 0.03 0.07 0.03 0.12 0.22 0.13 0.18 0.29 0.34 0.25 0.24 0.23 0.20 0.16 0.13 0.13 0.08 0.05 0.03 0.00 0.00 0.00 0.00 0.00 0.00 0.00 0.00
0.00 0.00 0.00 0.00 0.00 0.00 0.00 0.00 0.00 0.00 0.01 0.22 0.07 0.08 0.03 0.06 0.04 0.05 0.05 0.02 0.04 0.04 0.04 0.04 0.05 0.04 0.03 0.02 0.02 0.01 0.01 0.01 0.00 0.00 0.00 0.00 0.00 0.00 0.00 0.00 0.00 0.00 0.00 0.00
0.00 0.00 0.00 0.00 0.00 0.00 0.00 0.00 0.00 0.00 0.00 0.00 0.05 0.07 0.02 0.16 0.08 0.00 0.00 0.00 0.00 0.01 0.02 0.00 0.00 0.00 0.00 0.00 0.00 0.00 0.00 0.00 0.00 0.00 0.00 0.00 0.00 0.00 0.00 0.00 0.00 0.00 0.00 0.01
0.00 0.00 0.00 0.00 0.00 0.00 0.00 0.01 0.00 0.00 0.00 0.00 0.00 0.12 0.01 0.06 0.03 0.00 0.00 0.00 0.00 0.00 0.00 0.00 0.00 0.00 0.00 0.00 0.00 0.00 0.00 0.00 0.00 0.00 0.00 0.00 0.00 0.00 0.00 0.00 0.00 0.00 0.00 0.01
0.00 0.00 0.00 0.00 0.00 0.00 0.00 0.00 0.00 0.00 0.00 0.00 0.00 0.01 0.01 0.11 0.02 0.00 0.00 0.00 0.00 0.00 0.00 0.00 0.00 0.00 0.00 0.00 0.00 0.00 0.00 0.00 0.00 0.00 0.00 0.00 0.00 0.00 0.00 0.00 0.00 0.00 0.00 0.01
0.00 0.00 0.00 0.00 0.00 0.00 0.00 0.00 0.03 0.01 0.00 0.00 0.01 0.04 0.07 0.23 0.25 0.08 0.06 0.00 0.00 0.00 0.00 0.00 0.00 0.00 0.00 0.00 0.00 0.00 0.00 0.00 0.00 0.00 0.00 0.00 0.00 0.00 0.00 0.00 0.00 0.00 0.00 0.00
0.00 0.00 0.00 0.00 0.00 0.02 0.01 0.00 0.00 0.01 0.02 0.00 0.00 0.00 0.02 0.06 0.27 0.17 0.03 0.00 0.00 0.00 0.00 0.00 0.00 0.00 0.00 0.00 0.00 0.00 0.00 0.00 0.00 0.00 0.00 0.00 0.00 0.00 0.00 0.00 0.00 0.00 0.00 0.00
0.00 0.00 0.00 0.00 0.01 0.03 0.03 0.01 0.00 0.00 0.01 0.00 0.00 0.00 0.00 0.04 0.16 0.12 0.05 0.01 0.00 0.01 0.00 0.00 0.00 0.00 0.00 0.00 0.00 0.00 0.00 0.00 0.00 0.00 0.00 0.00 0.00 0.00 0.00 0.00 0.00 0.01 0.01 0.00
0.01 0.01 0.00 0.00 0.00 0.02 0.03 0.05 0.00 0.00 0.00 0.00 0.00 0.00 0.00 0.04 0.08 0.10 0.06 0.03 0.03 0.02 0.01 0.00 0.00 0.00 0.00 0.00 0.00 0.00 0.00 0.00 0.00 0.00 0.00 0.00 0.00 0.00 0.00 0.01 0.02 0.01 0.00 0.00
0.00 0.01 0.02 0.01 0.00 0.00 0.00 0.03 0.01 0.00 0.00 0.00 0.00 0.02 0.02 0.05 0.11 0.12 0.13 0.10 0.08 0.05 0.02 0.02 0.00 0.00 0.00 0.00 0.00 0.00 0.00 0.00 0.00 0.00 0.00 0.00 0.00 0.00 0.01 0.01 0.01 0.01 0.01 0.01
0.00 0.00 0.01 0.01 0.02 0.02 0.01 0.01 0.01 0.00 0.00 0.00 0.01 0.02 0.03 0.05 0.06 0.08 0.09 0.10 0.09 0.10 0.07 0.07 0.09 0.04 0.02 0.01 0.01 0.00 0.00 0.00 0.00 0.00 0.00 0.01 0.01 0.01 0.01 0.01 0.01 0.01 0.02 0.02
0.00 0.00 0.03 0.03 0.00 0.00 0.02 0.05 0.04 0.02 0.02 0.03 0.01 0.02 0.02 0.04 0.06 0.05 0.08 0.13 0.11 0.13 0.18 0.22 0.23 0.10 0.05 0.05 0.04 0.00 0.00 0.00 0.00 0.00 0.01 0.01 0.01 0.01 0.01 0.01 0.02 0.02 0.01 0.01
0.03 0.04 0.13 0.07 0.02 0.02 0.01 0.03 0.05 0.02 0.01 0.03 0.03 0.03 0.04 0.04 0.04 0.05 0.10 0.16 0.17 0.21 0.25 0.28 0.24 0.12 0.07 0.10 0.11 0.02 0.01 0.01 0.01 0.01 0.01 0.01 0.01 0.01 0.02 0.01 0.01 0.01 0.02 0.03
0.28 0.23 0.22 0.15 0.12 0.10 0.06 0.05 0.03 0.03 0.02 0.03 0.03 0.04 0.04 0.04 0.04 0.05 0.07 0.10 0.16 0.25 0.23 0.19 0.17 0.16 0.14 0.19 0.12 0.04 0.02 0.02 0.03 0.04 0.04 0.04 0.04 0.04 0.04 0.04 0.04 0.04 0.04 0.03
0.34 0.23 0.28 0.33 0.32 0.28 0.18 0.19 0.17 0.13 0.09 0.08 0.09 0.10 0.09 0.07 0.06 0.05 0.06 0.06 0.12 0.15 0.13 0.12 0.16 0.22 0.22 0.21 0.15 0.11 0.11 0.11 0.12 0.12 0.12 0.13 0.13 0.11 0.10 0.08 0.06 0.05 0.04 0.04
0.06 0.05 0.06 0.11 0.23 0.24 0.17 0.22 0.27 0.25 0.12 0.12 0.13 0.14 0.15 0.16 0.16 0.13 0.11 0.11 0.11 0.12 0.12 0.14 0.23 0.26 0.25 0.16 0.14 0.16 0.18 0.21 0.22 0.21 0.21 0.22 0.20 0.17 0.14 0.09 0.08 0.05 0.04 0.04
0.00 0.00 0.00 0.00 0.00 0.02 0.04 0.03 0.04 0.07 0.14 0.18 0.18 0.13 0.12 0.15 0.16 0.16 0.18 0.17 0.17 0.17 0.16 0.18 0.18 0.19 0.18 0.15 0.20 0.24 0.24 0.24 0.22 0.23 0.21 0.21 0.18 0.17 0.14 0.13 0.11 0.09 0.09 0.07
0.00 0.00 0.00 0.00 0.00 0.00 0.00 0.00 0.00 0.00 0.00 0.01 0.04 0.07 0.08 0.07 0.07 0.07 0.08 0.11 0.13 0.17 0.17 0.17 0.18 0.19 0.17 0.17 0.17 0.15 0.14 0.13 0.15 0.13 0.12 0.14 0.15 0.16 0.13 0.10 0.07 0.05 0.04 0.03
0.00 0.00 0.00 0.00 0.00 0.00 0.00 0.00 0.00 0.00 0.00 0.00 0.00 0.01 0.02 0.02 0.04 0.06 0.03 0.02 0.04 0.08 0.10 0.10 0.14 0.17 0.19 0.18 0.16 0.14 0.12 0.11 0.10 0.10 0.11 0.13 0.12 0.10 0.06 0.05 0.04 0.03 0.03 0.03

GFSNGP_prec_precacc_084.txt.gz
Total_Precipitation_Accumulation
0.49 0.28 0.42 0.57 0.56 0.49 0.94 0.52 0.52 0.16 0.07 0.03 0.03 0.02 0.02 0.01 0.01 0.04 0.05 0.04 0.02 0.02 0.03 0.02 0.05 0.05 0.06 0.09 0.07 0.07 0.07 0.05 0.05 0.05 0.05 0.04 0.04 0.05 0.05 0.04 0.04 0.04 0.03 0.02
0.61 0.24 0.38 0.48 0.55 0.36 0.56 0.27 0.26 0.17 0.13 0.01 0.01 0.01 0.00 0.01 0.04 0.07 0.07 0.04 0.02 0.01 0.01 0.01 0.00 0.00 0.02 0.08 0.09 0.09 0.11 0.06 0.04 0.02 0.05 0.05 0.06 0.06 0.07 0.14 0.12 0.10 0.13 0.17
0.64 0.48 0.28 0.47 0.58 0.68 0.48 0.20 0.25 0.28 0.15 0.01 0.01 0.04 0.06 0.05 0.06 0.04 0.03 0.02 0.01 0.00 0.00 0.00 0.00 0.00 0.01 0.03 0.05 0.09 0.08 0.06 0.05 0.03 0.04 0.07 0.09 0.16 0.21 0.27 0.56 0.55 0.56 0.41
0.31 0.15 0.16 0.11 0.14 0.44 0.28 0.23 0.26 0.14 0.07 0.02 0.00 0.00 0.02 0.04 0.02 0.01 0.01 0.00 0.01 0.00 0.00 0.00 0.00 0.01 0.02 0.09 0.12 0.40 0.10 0.15 0.16 0.14 0.17 0.20 0.33 0.45 0.48 0.47 0.48 0.55 0.89 0.94
0.16 0.07 0.03 0.00 0.00 0.07 0.13 0.22 0.14 0.07 0.02 0.00 0.00 0.22 0.35 0.15 0.04 0.01 0.00 0.00 0.00 0.00 0.00 0.00 0.02 0.02 0.02 0.04 0.14 0.36 0.22 0.25 0.36 0.31 0.28 0.26 0.40 0.50 0.37 0.51 0.67 0.62 0.54 0.44
0.10 0.12 0.02 0.00 0.00 0.01 0.02 0.19 0.02 0.05 0.04 0.02 0.01 0.29 0.32 0.24 0.05 0.02 0.00 0.00 0.00 0.00 0.02 0.05 0.08 0.08 0.07 0.07 0.10 0.31 0.33 0.31 0.30 0.48 0.40 0.48 0.44 0.49 0.75 0.60 0.54 0.44 0.34 0.23
0.15 0.18 0.01 0.00 0.00 0.01 0.09 0.14 0.01 0.06 0.06 0.01 0.01 0.03 0.06 0.08 0.11 0.08 0.12 0.12 0.14 0.08 0.16 0.24 0.37 0.35 0.41 0.43 0.62 0.88 0.58 0.60 0.65 0.78 0.67 0.61 0.66 0.57 0.50 0.37 0.26 0.20 0.12 0.06
0.14 0.10 0.00 0.00 0.00 0.00 0.01 0.01 0.02 0.10 0.03 0.02 0.01 0.02 0.02 0.01 0.07 0.11 0.14 0.12 0.33 0.48 0.53 0.60 0.72 0.65 0.63 0.71 0.75 0.91 0.67 0.59 0.57 0.49 0.44 0.35 0.27 0.18 0.10 0.09 0.05 0.03 0.01 0.00
0.00 0.00 0.00 0.00 0.00 0.00 0.00 0.00 0.00 0.02 0.10 0.13 0.12 0.19 0.07 0.02 0.01 0.03 0.07 0.03 0.12 0.22 0.13 0.18 0.29 0.34 0.25 0.24 0.23 0.20 0.16 0.13 0.13 0.08 0.05 0.03 0.00 0.00 0.00 0.00 0.00 0.00 0.00 0.00
0.00 0.00 0.00 0.00 0.00 0.00 0.00 0.00 0.00 0.00 0.01 0.22 0.07 0.08 0.03 0.06 0.04 0.05 0.05 0.02 0.04 0.04 0.04 0.04 0.05 0.04 0.03 0.02 0.02 0.01 0.01 0.01 0.00 0.00 0.00 0.00 0.00 0.00 0.00 0.00 0.00 0.00 0.00 0.00
0.00 0.00 0.00 0.00 0.00 0.00 0.00 0.00 0.00 0.00 0.00 0.00 0.05 0.07 0.02 0.16 0.08 0.00 0.00 0.00 0.00 0.01 0.02 0.00 0.00 0.00 0.00 0.00 0.00 0.00 0.00 0.00 0.00 0.00 0.00 0.00 0.00 0.00 0.00 0.00 0.00 0.00 0.00 0.01
0.00 0.00 0.00 0.00 0.00 0.00 0.00 0.01 0.00 0.00 0.00 0.00 0.00 0.12 0.01 0.06 0.03 0.00 0.00 0.00 0.00 0.00 0.00 0.00 0.00 0.00 0.00 0.00 0.00 0.00 0.00 0.00 0.00 0.00 0.00 0.00 0.00 0.00 0.00 0.00 0.00 0.00 0.00 0.01
0.00 0.00 0.00 0.00 0.00 0.00 0.00 0.00 0.00 0.00 0.00 0.00 0.00 0.01 0.01 0.11 0.02 0.00 0.00 0.00 0.00 0.00 0.00 0.00 0.00 0.00 0.00 0.00 0.00 0.00 0.00 0.00 0.00 0.00 0.00 0.00 0.00 0.00 0.00 0.00 0.00 0.00 0.00 0.01
0.00 0.00 0.00 0.00 0.00 0.00 0.00 0.00 0.03 0.01 0.00 0.00 0.01 0.04 0.07 0.23 0.25 0.08 0.06 0.00 0.00 0.00 0.00 0.00 0.00 0.00 0.00 0.00 0.00 0.00 0.00 0.00 0.00 0.00 0.00 0.00 0.00 0.00 0.00 0.00 0.00 0.00 0.00 0.00
0.00 0.00 0.00 0.00 0.00 0.02 0.01 0.00 0.00 0.01 0.02 0.00 0.00 0.00 0.02 0.06 0.27 0.17 0.03 0.00 0.00 0.00 0.00 0.00 0.00 0.00 0.00 0.00 0.00 0.00 0.00 0.00 0.00 0.00 0.00 0.00 0.00 0.00 0.00 0.00 0.00 0.00 0.00 0.00
0.00 0.00 0.00 0.00 0.01 0.03 0.03 0.01 0.00 0.00 0.01 0.00 0.00 0.00 0.00 0.04 0.16 0.12 0.05 0.01 0.00 0.01 0.01 0.00 0.00 0.00 0.00 0.00 0.00 0.00 0.00 0.00 0.00 0.00 0.00 0.00 0.00 0.00 0.00 0.00 0.00 0.01 0.01 0.00
0.01 0.01 0.00 0.00 0.00 0.02 0.03 0.05 0.00 0.00 0.00 0.00 0.00 0.00 0.00 0.04 0.08 0.10 0.06 0.03 0.03 0.02 0.01 0.00 0.00 0.00 0.00 0.00 0.00 0.00 0.00 0.00 0.00 0.00 0.00 0.00 0.00 0.00 0.00 0.01 0.02 0.01 0.00 0.00
0.00 0.01 0.02 0.01 0.00 0.00 0.00 0.03 0.01 0.00 0.00 0.00 0.00 0.02 0.02 0.05 0.11 0.12 0.13 0.10 0.08 0.05 0.02 0.02 0.00 0.00 0.00 0.00 0.00 0.00 0.00 0.00 0.00 0.00 0.00 0.00 0.00 0.00 0.01 0.01 0.01 0.01 0.01 0.01
0.00 0.00 0.01 0.01 0.02 0.02 0.01 0.01 0.01 0.00 0.00 0.00 0.01 0.02 0.03 0.05 0.06 0.08 0.09 0.10 0.09 0.10 0.07 0.07 0.09 0.04 0.02 0.01 0.01 0.00 0.00 0.00 0.00 0.00 0.00 0.01 0.01 0.01 0.01 0.01 0.01 0.01 0.02 0.02
0.00 0.00 0.03 0.03 0.00 0.00 0.02 0.05 0.04 0.02 0.02 0.03 0.01 0.02 0.02 0.04 0.06 0.05 0.08 0.13 0.11 0.13 0.18 0.22 0.23 0.10 0.05 0.05 0.05 0.00 0.00 0.00 0.00 0.00 0.01 0.01 0.01 0.01 0.01 0.01 0.02 0.02 0.01 0.01
0.03 0.04 0.13 0.07 0.02 0.02 0.01 0.03 0.05 0.02 0.01 0.03 0.03 0.03 0.04 0.04 0.04 0.05 0.10 0.16 0.17 0.21 0.25 0.28 0.24 0.12 0.08 0.11 0.13 0.04 0.01 0.01 0.01 0.01 0.01 0.01 0.02 0.02 0.02 0.01 0.01 0.01 0.02 0.03
0.32 0.26 0.24 0.15 0.12 0.10 0.06 0.05 0.03 0.03 0.02 0.03 0.03 0.04 0.04 0.04 0.04 0.06 0.08 0.11 0.16 0.25 0.23 0.20 0.17 0.16 0.15 0.20 0.12 0.04 0.03 0.03 0.04 0.05 0.05 0.04 0.05 0.05 0.05 0.04 0.05 0.04 0.04 0.03
0.40 0.25 0.28 0.33 0.32 0.28 0.18 0.19 0.17 0.13 0.09 0.08 0.09 0.10 0.09 0.07 0.06 0.05 0.06 0.07 0.12 0.15 0.13 0.12 0.16 0.22 0.23 0.22 0.15 0.11 0.12 0.13 0.13 0.13 0.13 0.14 0.14 0.14 0.14 0.11 0.09 0.07 0.05 0.04
0.07 0.05 0.06 0.11 0.23 0.24 0.17 0.22 0.27 0.25 0.12 0.12 0.13 0.14 0.15 0.16 0.16 0.13 0.11 0.11 0.11 0.13 0.12 0.15 0.23 0.27 0.27 0.17 0.15 0.16 0.19 0.23 0.24 0.25 0.25 0.26 0.24 0.21 0.18 0.13 0.12 0.09 0.09 0.10
0.00 0.00 0.00 0.00 0.00 0.02 0.04 0.03 0.04 0.07 0.14 0.18 0.18 0.13 0.12 0.15 0.16 0.16 0.18 0.17 0.17 0.17 0.17 0.19 0.19 0.21 0.20 0.18 0.24 0.27 0.28 0.29 0.27 0.28 0.26 0.24 0.21 0.19 0.17 0.16 0.15 0.14 0.15 0.14
0.00 0.00 0.00 0.00 0.00 0.00 0.00 0.00 0.00 0.00 0.00 0.01 0.04 0.07 0.08 0.07 0.07 0.07 0.08 0.11 0.13 0.17 0.17 0.18 0.18 0.20 0.20 0.20 0.21 0.19 0.17 0.17 0.19 0.17 0.15 0.17 0.19 0.20 0.17 0.14 0.12 0.12 0.11 0.08
0.00 0.00 0.00 0.00 0.00 0.00 0.00 0.00 0.00 0.00 0.00 0.00 0.00 0.01 0.02 0.02 0.04 0.06 0.03 0.02 0.04 0.08 0.10 0.10 0.14 0.17 0.19 0.19 0.18 0.17 0.16 0.15 0.16 0.15 0.16 0.18 0.18 0.16 0.12 0.11 0.09 0.08 0.08 0.06

GFSNGP_prec_precacc_087.txt.gz
Total_Precipitation_Accumulation
0.49 0.28 0.42 0.57 0.56 0.49 0.94 0.52 0.52 0.16 0.07 0.03 0.03 0.02 0.02 0.01 0.01 0.04 0.05 0.04 0.02 0.02 0.03 0.02 0.05 0.05 0.06 0.09 0.07 0.07 0.07 0.05 0.05 0.05 0.05 0.04 0.04 0.05 0.05 0.04 0.04 0.04 0.03 0.02
0.61 0.24 0.38 0.48 0.55 0.36 0.56 0.27 0.26 0.17 0.13 0.01 0.01 0.01 0.00 0.01 0.04 0.07 0.07 0.04 0.02 0.01 0.01 0.01 0.00 0.00 0.02 0.08 0.09 0.09 0.11 0.06 0.04 0.02 0.05 0.05 0.06 0.06 0.07 0.14 0.12 0.10 0.13 0.17
0.64 0.48 0.28 0.47 0.58 0.68 0.48 0.20 0.25 0.28 0.15 0.01 0.01 0.04 0.06 0.05 0.06 0.04 0.03 0.02 0.01 0.00 0.00 0.00 0.00 0.00 0.01 0.03 0.05 0.09 0.08 0.06 0.05 0.03 0.04 0.07 0.09 0.16 0.21 0.27 0.56 0.55 0.56 0.41
0.31 0.15 0.16 0.11 0.14 0.44 0.28 0.23 0.26 0.14 0.07 0.02 0.00 0.00 0.02 0.04 0.02 0.01 0.01 0.00 0.01 0.00 0.00 0.00 0.00 0.01 0.02 0.09 0.12 0.40 0.10 0.15 0.16 0.14 0.17 0.20 0.33 0.45 0.48 0.47 0.48 0.55 0.89 0.94
0.16 0.07 0.03 0.00 0.00 0.07 0.13 0.22 0.14 0.07 0.02 0.00 0.00 0.22 0.35 0.15 0.04 0.01 0.00 0.00 0.00 0.00 0.00 0.00 0.02 0.02 0.02 0.04 0.14 0.36 0.22 0.25 0.36 0.31 0.28 0.26 0.40 0.50 0.37 0.51 0.67 0.62 0.54 0.44
0.10 0.12 0.02 0.00 0.00 0.01 0.02 0.19 0.02 0.05 0.04 0.02 0.01 0.29 0.32 0.24 0.05 0.02 0.00 0.00 0.00 0.00 0.02 0.05 0.08 0.08 0.07 0.07 0.10 0.31 0.33 0.31 0.30 0.48 0.40 0.48 0.44 0.49 0.75 0.60 0.54 0.44 0.34 0.23
0.15 0.18 0.01 0.00 0.00 0.01 0.09 0.14 0.01 0.06 0.06 0.01 0.01 0.03 0.06 0.08 0.11 0.08 0.12 0.12 0.14 0.08 0.16 0.24 0.37 0.35 0.41 0.43 0.62 0.88 0.58 0.60 0.65 0.78 0.67 0.61 0.66 0.57 0.50 0.37 0.26 0.20 0.12 0.06
0.14 0.10 0.00 0.00 0.00 0.00 0.01 0.01 0.02 0.10 0.03 0.02 0.01 0.02 0.02 0.01 0.07 0.11 0.14 0.12 0.33 0.48 0.53 0.60 0.72 0.65 0.63 0.71 0.75 0.91 0.67 0.59 0.57 0.49 0.44 0.35 0.27 0.18 0.10 0.09 0.05 0.03 0.01 0.00
0.00 0.00 0.00 0.00 0.00 0.00 0.00 0.00 0.00 0.02 0.10 0.13 0.12 0.19 0.07 0.02 0.01 0.03 0.07 0.03 0.12 0.22 0.13 0.18 0.29 0.34 0.25 0.24 0.23 0.20 0.16 0.13 0.13 0.08 0.05 0.03 0.00 0.00 0.00 0.00 0.00 0.00 0.00 0.00
0.00 0.00 0.00 0.00 0.00 0.00 0.00 0.00 0.00 0.00 0.01 0.22 0.07 0.08 0.03 0.06 0.04 0.05 0.05 0.02 0.04 0.04 0.04 0.04 0.05 0.04 0.03 0.02 0.02 0.01 0.01 0.01 0.00 0.00 0.01 0.00 0.00 0.00 0.00 0.00 0.00 0.00 0.00 0.00
0.00 0.00 0.00 0.00 0.00 0.00 0.00 0.00 0.00 0.00 0.00 0.00 0.05 0.07 0.02 0.16 0.08 0.00 0.00 0.00 0.00 0.01 0.02 0.00 0.00 0.00 0.00 0.00 0.00 0.00 0.00 0.00 0.00 0.00 0.01 0.00 0.00 0.00 0.00 0.00 0.00 0.00 0.00 0.01
0.00 0.00 0.00 0.00 0.00 0.00 0.00 0.01 0.00 0.00 0.00 0.00 0.00 0.12 0.01 0.06 0.03 0.00 0.00 0.00 0.00 0.00 0.00 0.00 0.00 0.00 0.00 0.00 0.00 0.00 0.00 0.00 0.00 0.00 0.00 0.00 0.00 0.00 0.00 0.00 0.00 0.00 0.00 0.01
0.00 0.00 0.00 0.00 0.00 0.00 0.00 0.00 0.00 0.00 0.00 0.00 0.00 0.01 0.01 0.11 0.02 0.00 0.00 0.00 0.00 0.00 0.00 0.00 0.00 0.00 0.00 0.00 0.00 0.00 0.00 0.00 0.00 0.00 0.00 0.00 0.00 0.00 0.00 0.00 0.00 0.00 0.00 0.01
0.00 0.00 0.00 0.00 0.00 0.00 0.00 0.00 0.03 0.01 0.00 0.00 0.01 0.04 0.07 0.23 0.25 0.08 0.06 0.00 0.00 0.00 0.00 0.00 0.00 0.00 0.00 0.00 0.00 0.00 0.00 0.00 0.00 0.00 0.00 0.00 0.00 0.00 0.00 0.00 0.00 0.00 0.00 0.00
0.00 0.00 0.00 0.00 0.00 0.02 0.01 0.00 0.00 0.01 0.02 0.00 0.00 0.00 0.02 0.06 0.27 0.17 0.03 0.00 0.00 0.00 0.00 0.00 0.00 0.00 0.00 0.00 0.00 0.00 0.00 0.00 0.00 0.00 0.00 0.00 0.00 0.00 0.00 0.00 0.00 0.00 0.00 0.00
0.00 0.00 0.00 0.00 0.01 0.03 0.03 0.01 0.00 0.00 0.01 0.00 0.00 0.00 0.00 0.04 0.16 0.12 0.05 0.01 0.00 0.01 0.01 0.00 0.00 0.00 0.00 0.00 0.00 0.00 0.00 0.00 0.00 0.00 0.00 0.00 0.00 0.00 0.00 0.00 0.00 0.01 0.01 0.00
0.01 0.01 0.00 0.00 0.00 0.02 0.03 0.05 0.00 0.00 0.00 0.00 0.00 0.00 0.00 0.04 0.08 0.10 0.06 0.03 0.03 0.02 0.01 0.00 0.00 0.00 0.00 0.00 0.00 0.00 0.00 0.00 0.00 0.00 0.00 0.00 0.00 0.00 0.00 0.01 0.02 0.01 0.00 0.00
0.00 0.01 0.02 0.01 0.00 0.00 0.00 0.03 0.01 0.00 0.00 0.00 0.00 0.02 0.02 0.05 0.11 0.12 0.13 0.10 0.08 0.05 0.02 0.02 0.00 0.00 0.00 0.00 0.00 0.00 0.00 0.00 0.00 0.00 0.01 0.00 0.00 0.00 0.01 0.01 0.01 0.01 0.01 0.01
0.00 0.00 0.01 0.01 0.02 0.02 0.01 0.01 0.01 0.00 0.00 0.00 0.01 0.02 0.03 0.05 0.06 0.08 0.09 0.10 0.09 0.10 0.07 0.07 0.09 0.04 0.02 0.01 0.01 0.00 0.00 0.00 0.00 0.00 0.01 0.03 0.03 0.01 0.01 0.01 0.01 0.01 0.02 0.02
0.01 0.00 0.03 0.03 0.00 0.00 0.02 0.05 0.04 0.02 0.02 0.03 0.01 0.02 0.02 0.04 0.06 0.05 0.08 0.13 0.11 0.13 0.18 0.22 0.23 0.10 0.05 0.05 0.05 0.00 0.00 0.00 0.00 0.01 0.01 0.03 0.03 0.02 0.01 0.01 0.02 0.02 0.01 0.01
0.06 0.05 0.13 0.07 0.02 0.02 0.01 0.03 0.05 0.02 0.01 0.03 0.03 0.03 0.04 0.04 0.04 0.05 0.10 0.16 0.17 0.21 0.25 0.28 0.24 0.12 0.08 0.12 0.14 0.04 0.01 0.01 0.01 0.01 0.01 0.02 0.02 0.03 0.03 0.02 0.02 0.02 0.02 0.03
0.37 0.31 0.28 0.16 0.13 0.10 0.06 0.05 0.03 0.03 0.02 0.03 0.03 0.04 0.04 0.04 0.04 0.06 0.08 0.11 0.16 0.25 0.23 0.20 0.18 0.17 0.15 0.21 0.13 0.05 0.03 0.04 0.04 0.06 0.06 0.06 0.07 0.07 0.07 0.07 0.08 0.07 0.07 0.06
0.45 0.30 0.30 0.33 0.32 0.28 0.18 0.19 0.17 0.13 0.09 0.08 0.09 0.10 0.09 0.07 0.06 0.05 0.06 0.07 0.12 0.15 0.13 0.12 0.16 0.23 0.24 0.22 0.16 0.12 0.12 0.13 0.14 0.14 0.14 0.16 0.17 0.17 0.17 0.15 0.12 0.11 0.09 0.07
0.08 0.05 0.06 0.11 0.23 0.24 0.17 0.22 0.27 0.25 0.12 0.12 0.13 0.14 0.15 0.16 0.16 0.13 0.11 0.11 0.11 0.13 0.12 0.15 0.23 0.27 0.27 0.18 0.15 0.17 0.21 0.25 0.27 0.28 0.28 0.29 0.27 0.24 0.20 0.16 0.16 0.13 0.13 0.14
0.01 0.00 0.00 0.00 0.00 0.02 0.04 0.03 0.04 0.07 0.14 0.18 0.18 0.13 0.12 0.15 0.16 0.16 0.18 0.17 0.17 0.17 0.17 0.19 0.19 0.21 0.21 0.19 0.25 0.29 0.30 0.31 0.31 0.31 0.29 0.27 0.23 0.21 0.19 0.18 0.17 0.16 0.18 0.16
0.00 0.00 0.00 0.00 0.00 0.00 0.00 0.00 0.00 0.00 0.00 0.01 0.04 0.07 0.08 0.07 0.07 0.07 0.08 0.11 0.13 0.17 0.17 0.18 0.18 0.20 0.20 0.20 0.21 0.20 0.19 0.19 0.23 0.21 0.18 0.20 0.22 0.24 0.20 0.16 0.15 0.15 0.15 0.11
0.00 0.00 0.00 0.00 0.00 0.00 0.00 0.00 0.00 0.00 0.00 0.00 0.00 0.01 0.02 0.02 0.04 0.06 0.03 0.02 0.04 0.08 0.10 0.10 0.14 0.17 0.19 0.19 0.18 0.17 0.16 0.16 0.17 0.18 0.20 0.22 0.23 0.20 0.16 0.15 0.13 0.12 0.12 0.11

GFSNGP_prec_precacc_090.txt.gz
Total_Precipitation_Accumulation
0.49 0.28 0.42 0.57 0.56 0.49 0.94 0.52 0.52 0.16 0.07 0.03 0.03 0.02 0.02 0.01 0.01 0.04 0.05 0.04 0.02 0.02 0.03 0.02 0.05 0.05 0.06 0.09 0.07 0.07 0.07 0.05 0.05 0.05 0.05 0.04 0.04 0.05 0.05 0.04 0.04 0.04 0.03 0.02
0.61 0.24 0.38 0.48 0.55 0.36 0.56 0.27 0.26 0.17 0.13 0.01 0.01 0.01 0.00 0.01 0.04 0.07 0.07 0.04 0.02 0.01 0.01 0.01 0.00 0.00 0.02 0.08 0.09 0.09 0.11 0.06 0.04 0.02 0.05 0.05 0.06 0.06 0.07 0.14 0.12 0.10 0.13 0.17
0.64 0.48 0.28 0.47 0.58 0.68 0.48 0.20 0.25 0.28 0.15 0.01 0.01 0.04 0.06 0.05 0.06 0.04 0.03 0.02 0.01 0.00 0.00 0.00 0.00 0.00 0.01 0.03 0.05 0.09 0.08 0.06 0.05 0.03 0.04 0.07 0.09 0.16 0.21 0.27 0.56 0.55 0.56 0.41
0.31 0.15 0.16 0.11 0.14 0.44 0.28 0.23 0.26 0.14 0.07 0.02 0.00 0.00 0.02 0.04 0.02 0.01 0.01 0.00 0.01 0.00 0.00 0.00 0.00 0.01 0.02 0.09 0.12 0.40 0.10 0.15 0.16 0.14 0.17 0.20 0.33 0.45 0.48 0.47 0.48 0.55 0.89 0.94
0.16 0.07 0.03 0.00 0.00 0.07 0.13 0.22 0.14 0.07 0.02 0.00 0.00 0.22 0.35 0.15 0.04 0.01 0.00 0.00 0.00 0.00 0.00 0.00 0.02 0.02 0.02 0.04 0.14 0.36 0.22 0.25 0.36 0.31 0.28 0.26 0.40 0.50 0.37 0.51 0.67 0.62 0.54 0.44
0.10 0.12 0.02 0.00 0.00 0.01 0.02 0.19 0.02 0.05 0.04 0.02 0.01 0.29 0.32 0.24 0.05 0.02 0.00 0.00 0.00 0.00 0.02 0.05 0.08 0.08 0.07 0.07 0.10 0.31 0.33 0.31 0.30 0.48 0.40 0.48 0.44 0.49 0.75 0.60 0.54 0.44 0.34 0.23
0.15 0.18 0.01 0.00 0.00 0.01 0.09 0.14 0.01 0.06 0.06 0.01 0.01 0.03 0.06 0.08 0.11 0.08 0.12 0.12 0.14 0.08 0.16 0.24 0.37 0.35 0.41 0.43 0.62 0.88 0.58 0.60 0.65 0.78 0.67 0.61 0.66 0.57 0.50 0.37 0.26 0.20 0.12 0.06
0.14 0.10 0.00 0.00 0.00 0.00 0.01 0.01 0.02 0.10 0.03 0.02 0.01 0.02 0.02 0.01 0.07 0.11 0.14 0.12 0.33 0.48 0.53 0.60 0.72 0.65 0.63 0.71 0.75 0.91 0.67 0.59 0.57 0.49 0.44 0.35 0.27 0.18 0.10 0.09 0.05 0.03 0.01 0.00
0.00 0.00 0.00 0.00 0.00 0.00 0.00 0.00 0.00 0.02 0.10 0.13 0.12 0.19 0.07 0.02 0.01 0.03 0.07 0.03 0.12 0.22 0.13 0.18 0.29 0.34 0.25 0.24 0.23 0.20 0.16 0.13 0.13 0.08 0.05 0.03 0.00 0.00 0.00 0.00 0.00 0.00 0.00 0.00
0.00 0.00 0.00 0.00 0.00 0.00 0.00 0.00 0.00 0.00 0.01 0.22 0.07 0.08 0.03 0.06 0.04 0.05 0.05 0.02 0.04 0.04 0.04 0.04 0.05 0.04 0.03 0.02 0.02 0.01 0.01 0.01 0.00 0.00 0.01 0.00 0.00 0.00 0.00 0.00 0.00 0.00 0.00 0.00
0.00 0.00 0.00 0.00 0.00 0.00 0.01 0.01 0.00 0.00 0.00 0.00 0.05 0.07 0.02 0.16 0.08 0.00 0.00 0.00 0.00 0.01 0.02 0.00 0.00 0.00 0.00 0.00 0.00 0.00 0.00 0.00 0.00 0.00 0.01 0.00 0.00 0.00 0.00 0.00 0.00 0.00 0.00 0.01
0.00 0.00 0.00 0.00 0.00 0.00 0.00 0.01 0.00 0.00 0.00 0.00 0.00 0.12 0.01 0.06 0.03 0.00 0.00 0.00 0.00 0.00 0.00 0.00 0.00 0.00 0.00 0.00 0.00 0.00 0.00 0.00 0.00 0.00 0.00 0.00 0.00 0.00 0.00 0.00 0.00 0.00 0.00 0.01
0.00 0.00 0.00 0.00 0.00 0.00 0.00 0.00 0.00 0.00 0.00 0.00 0.00 0.01 0.01 0.11 0.02 0.00 0.00 0.00 0.00 0.00 0.00 0.00 0.00 0.00 0.00 0.00 0.00 0.00 0.00 0.00 0.00 0.00 0.00 0.00 0.00 0.00 0.00 0.00 0.00 0.00 0.00 0.01
0.00 0.00 0.00 0.00 0.00 0.00 0.00 0.00 0.03 0.01 0.00 0.00 0.01 0.04 0.07 0.23 0.25 0.08 0.06 0.00 0.00 0.00 0.00 0.00 0.00 0.00 0.00 0.00 0.00 0.00 0.00 0.00 0.00 0.00 0.00 0.00 0.00 0.00 0.00 0.00 0.00 0.00 0.00 0.00
0.00 0.00 0.00 0.00 0.00 0.02 0.01 0.00 0.00 0.01 0.02 0.00 0.00 0.00 0.02 0.06 0.27 0.17 0.03 0.00 0.00 0.00 0.00 0.00 0.00 0.00 0.00 0.00 0.00 0.01 0.01 0.00 0.00 0.00 0.00 0.00 0.00 0.00 0.00 0.00 0.00 0.00 0.00 0.00
0.00 0.00 0.00 0.00 0.01 0.03 0.03 0.01 0.00 0.00 0.01 0.00 0.00 0.00 0.00 0.04 0.16 0.12 0.05 0.01 0.00 0.01 0.01 0.00 0.00 0.00 0.00 0.00 0.00 0.00 0.00 0.01 0.00 0.00 0.00 0.00 0.00 0.00 0.00 0.00 0.00 0.01 0.01 0.00
0.01 0.01 0.00 0.00 0.00 0.02 0.03 0.05 0.00 0.00 0.00 0.00 0.00 0.00 0.00 0.04 0.08 0.10 0.06 0.03 0.03 0.02 0.01 0.00 0.00 0.00 0.00 0.00 0.00 0.00 0.01 0.01 0.02 0.00 0.01 0.01 0.01 0.00 0.00 0.01 0.02 0.01 0.00 0.00
0.00 0.01 0.02 0.01 0.00 0.00 0.00 0.03 0.01 0.00 0.00 0.00 0.00 0.02 0.02 0.05 0.11 0.12 0.13 0.10 0.08 0.05 0.02 0.02 0.00 0.00 0.00 0.00 0.00 0.00 0.00 0.00 0.00 0.00 0.03 0.05 0.04 0.03 0.01 0.01 0.01 0.01 0.01 0.01
0.00 0.00 0.01 0.01 0.02 0.02 0.01 0.01 0.01 0.00 0.00 0.00 0.01 0.02 0.03 0.05 0.06 0.08 0.09 0.10 0.09 0.10 0.07 0.07 0.09 0.04 0.02 0.01 0.01 0.00 0.00 0.00 0.00 0.00 0.02 0.06 0.09 0.07 0.04 0.03 0.01 0.01 0.02 0.02
0.04 0.03 0.04 0.03 0.01 0.00 0.02 0.05 0.04 0.02 0.02 0.03 0.01 0.02 0.02 0.04 0.06 0.05 0.08 0.13 0.12 0.13 0.18 0.22 0.23 0.10 0.05 0.05 0.05 0.00 0.00 0.00 0.00 0.01 0.01 0.03 0.05 0.05 0.06 0.07 0.07 0.05 0.02 0.02
0.10 0.09 0.15 0.08 0.02 0.02 0.01 0.03 0.05 0.02 0.01 0.03 0.03 0.03 0.04 0.04 0.04 0.05 0.10 0.16 0.17 0.21 0.25 0.28 0.24 0.12 0.08 0.12 0.15 0.04 0.01 0.01 0.01 0.01 0.02 0.03 0.03 0.06 0.06 0.06 0.08 0.09 0.07 0.07
0.41 0.36 0.34 0.21 0.15 0.10 0.06 0.05 0.03 0.03 0.02 0.03 0.03 0.04 0.04 0.04 0.04 0.06 0.08 0.11 0.16 0.25 0.23 0.20 0.18 0.17 0.16 0.21 0.13 0.05 0.04 0.04 0.05 0.06 0.07 0.07 0.08 0.09 0.09 0.10 0.12 0.12 0.13 0.12
0.50 0.33 0.32 0.34 0.33 0.29 0.18 0.19 0.17 0.13 0.09 0.08 0.09 0.10 0.09 0.07 0.06 0.05 0.06 0.07 0.12 0.15 0.13 0.12 0.16 0.23 0.25 0.22 0.16 0.12 0.12 0.14 0.15 0.15 0.15 0.17 0.19 0.19 0.19 0.17 0.14 0.14 0.12 0.10
0.13 0.09 0.07 0.12 0.24 0.24 0.17 0.22 0.27 0.25 0.12 0.12 0.13 0.14 0.15 0.16 0.16 0.13 0.11 0.11 0.11 0.13 0.12 0.15 0.23 0.28 0.27 0.18 0.15 0.17 0.21 0.26 0.28 0.29 0.29 0.31 0.29 0.26 0.22 0.17 0.17 0.13 0.14 0.15
0.05 0.04 0.02 0.00 0.00 0.02 0.04 0.03 0.04 0.07 0.14 0.18 0.18 0.13 0.12 0.15 0.16 0.16 0.18 0.17 0.17 0.17 0.17 0.19 0.19 0.21 0.21 0.19 0.25 0.29 0.30 0.32 0.32 0.33 0.31 0.28 0.24 0.23 0.20 0.20 0.18 0.17 0.19 0.17
0.00 0.00 0.00 0.00 0.00 0.00 0.00 0.00 0.00 0.00 0.00 0.01 0.04 0.07 0.08 0.07 0.07 0.07 0.08 0.11 0.13 0.17 0.17 0.18 0.18 0.20 0.20 0.20 0.21 0.20 0.19 0.19 0.23 0.22 0.21 0.22 0.25 0.27 0.23 0.18 0.16 0.16 0.16 0.12
0.00 0.00 0.00 0.00 0.00 0.00 0.00 0.00 0.00 0.00 0.00 0.00 0.00 0.01 0.02 0.02 0.04 0.06 0.03 0.02 0.04 0.08 0.10 0.10 0.14 0.17 0.19 0.19 0.18 0.17 0.16 0.16 0.17 0.18 0.20 0.23 0.25 0.23 0.20 0.18 0.16 0.15 0.15 0.13

GFSNGP_prec_precacc_093.txt.gz
Total_Precipitation_Accumulation
0.49 0.28 0.42 0.57 0.56 0.49 0.94 0.52 0.52 0.16 0.07 0.03 0.03 0.02 0.02 0.01 0.01 0.04 0.05 0.04 0.02 0.02 0.03 0.02 0.05 0.05 0.06 0.09 0.07 0.07 0.07 0.05 0.05 0.05 0.05 0.04 0.04 0.05 0.05 0.04 0.04 0.04 0.03 0.02
0.61 0.24 0.38 0.48 0.55 0.36 0.56 0.27 0.26 0.17 0.13 0.01 0.01 0.01 0.00 0.01 0.04 0.07 0.07 0.04 0.02 0.01 0.01 0.01 0.00 0.00 0.02 0.08 0.09 0.09 0.11 0.06 0.04 0.02 0.05 0.05 0.06 0.06 0.07 0.14 0.12 0.10 0.13 0.17
0.64 0.48 0.28 0.47 0.58 0.68 0.48 0.20 0.25 0.28 0.15 0.01 0.01 0.04 0.06 0.05 0.06 0.04 0.03 0.02 0.01 0.00 0.00 0.00 0.00 0.00 0.01 0.03 0.05 0.09 0.08 0.06 0.05 0.03 0.04 0.07 0.09 0.16 0.21 0.27 0.56 0.55 0.56 0.41
0.31 0.15 0.16 0.11 0.14 0.44 0.28 0.23 0.26 0.14 0.07 0.02 0.00 0.00 0.02 0.04 0.02 0.01 0.01 0.00 0.01 0.00 0.00 0.00 0.00 0.01 0.02 0.09 0.12 0.40 0.10 0.15 0.16 0.14 0.17 0.20 0.33 0.45 0.48 0.47 0.48 0.55 0.89 0.94
0.16 0.07 0.03 0.00 0.00 0.07 0.13 0.22 0.14 0.07 0.02 0.00 0.00 0.22 0.35 0.15 0.04 0.01 0.00 0.00 0.00 0.00 0.00 0.00 0.02 0.02 0.02 0.04 0.14 0.36 0.22 0.25 0.36 0.31 0.28 0.26 0.40 0.50 0.37 0.51 0.67 0.62 0.54 0.44
0.10 0.12 0.02 0.00 0.00 0.01 0.02 0.19 0.02 0.05 0.04 0.02 0.01 0.29 0.32 0.24 0.05 0.02 0.00 0.00 0.00 0.00 0.02 0.05 0.08 0.08 0.07 0.07 0.10 0.31 0.33 0.31 0.30 0.48 0.40 0.48 0.44 0.49 0.75 0.60 0.54 0.44 0.34 0.23
0.15 0.18 0.01 0.00 0.00 0.01 0.09 0.14 0.01 0.06 0.06 0.01 0.01 0.03 0.06 0.08 0.11 0.08 0.12 0.12 0.14 0.08 0.16 0.24 0.37 0.35 0.41 0.43 0.62 0.88 0.58 0.60 0.65 0.78 0.67 0.61 0.66 0.57 0.50 0.37 0.26 0.20 0.12 0.06
0.14 0.10 0.00 0.00 0.00 0.00 0.01 0.01 0.02 0.10 0.03 0.02 0.01 0.02 0.02 0.01 0.07 0.11 0.14 0.12 0.33 0.48 0.53 0.60 0.72 0.65 0.63 0.71 0.75 0.91 0.67 0.59 0.57 0.49 0.44 0.35 0.27 0.18 0.10 0.09 0.05 0.03 0.01 0.00
0.00 0.00 0.00 0.00 0.00 0.00 0.00 0.00 0.00 0.02 0.10 0.13 0.12 0.19 0.07 0.02 0.01 0.03 0.07 0.03 0.12 0.22 0.13 0.18 0.29 0.34 0.25 0.24 0.23 0.20 0.16 0.13 0.13 0.08 0.05 0.03 0.00 0.00 0.00 0.00 0.00 0.00 0.00 0.00
0.00 0.00 0.00 0.00 0.00 0.00 0.00 0.00 0.00 0.00 0.01 0.22 0.07 0.08 0.03 0.06 0.04 0.05 0.05 0.02 0.04 0.04 0.04 0.04 0.05 0.04 0.03 0.02 0.02 0.01 0.01 0.01 0.00 0.00 0.01 0.00 0.00 0.00 0.00 0.00 0.00 0.00 0.00 0.00
0.00 0.00 0.00 0.00 0.00 0.00 0.01 0.02 0.00 0.00 0.00 0.00 0.05 0.07 0.02 0.16 0.08 0.00 0.00 0.00 0.00 0.01 0.02 0.00 0.00 0.00 0.00 0.00 0.00 0.00 0.00 0.00 0.00 0.00 0.01 0.00 0.00 0.00 0.00 0.00 0.00 0.00 0.00 0.01
0.01 0.00 0.00 0.00 0.00 0.00 0.00 0.01 0.00 0.00 0.00 0.00 0.00 0.12 0.01 0.06 0.03 0.00 0.00 0.00 0.00 0.00 0.01 0.00 0.00 0.00 0.00 0.00 0.00 0.00 0.00 0.00 0.00 0.00 0.00 0.00 0.00 0.01 0.00 0.00 0.00 0.00 0.00 0.01
0.00 0.00 0.00 0.00 0.00 0.00 0.00 0.00 0.00 0.00 0.00 0.00 0.00 0.01 0.01 0.11 0.02 0.00 0.00 0.00 0.00 0.00 0.00 0.00 0.00 0.00 0.00 0.00 0.00 0.00 0.00 0.00 0.00 0.00 0.00 0.00 0.01 0.01 0.01 0.01 0.00 0.00 0.00 0.01
0.00 0.00 0.00 0.00 0.00 0.00 0.00 0.00 0.03 0.01 0.00 0.00 0.01 0.04 0.07 0.23 0.25 0.08 0.06 0.00 0.00 0.00 0.00 0.00 0.00 0.00 0.00 0.00 0.00 0.00 0.00 0.01 0.00 0.00 0.00 0.00 0.00 0.01 0.01 0.01 0.00 0.00 0.00 0.00
0.00 0.00 0.00 0.00 0.00 0.02 0.01 0.00 0.00 0.01 0.02 0.00 0.00 0.00 0.02 0.06 0.27 0.17 0.03 0.00 0.00 0.00 0.00 0.00 0.00 0.00 0.00 0.00 0.00 0.01 0.01 0.01 0.01 0.00 0.00 0.00 0.00 0.01 0.01 0.01 0.00 0.00 0.00 0.00
0.00 0.00 0.00 0.00 0.01 0.03 0.03 0.01 0.00 0.00 0.01 0.00 0.00 0.00 0.00 0.04 0.16 0.12 0.05 0.01 0.00 0.01 0.01 0.00 0.00 0.00 0.00 0.00 0.00 0.00 0.01 0.04 0.02 0.01 0.02 0.01 0.01 0.01 0.01 0.02 0.02 0.01 0.01 0.00
0.01 0.01 0.00 0.00 0.00 0.02 0.03 0.05 0.00 0.00 0.00 0.00 0.00 0.00 0.00 0.04 0.08 0.10 0.06 0.03 0.03 0.02 0.01 0.00 0.00 0.00 0.00 0.00 0.00 0.00 0.01 0.02 0.04 0.01 0.02 0.04 0.04 0.02 0.01 0.03 0.04 0.03 0.01 0.01
0.00 0.01 0.02 0.01 0.00 0.00 0.01 0.03 0.01 0.00 0.00 0.00 0.00 0.02 0.02 0.05 0.11 0.12 0.13 0.10 0.08 0.05 0.02 0.02 0.00 0.00 0.00 0.00 0.00 0.00 0.00 0.00 0.00 0.00 0.03 0.06 0.07 0.08 0.06 0.03 0.02 0.02 0.01 0.02
0.01 0.00 0.01 0.03 0.03 0.02 0.02 0.01 0.01 0.00 0.00 0.00 0.01 0.02 0.03 0.05 0.06 0.08 0.09 0.10 0.09 0.10 0.07 0.07 0.09 0.04 0.02 0.01 0.01 0.00 0.00 0.00 0.00 0.00 0.02 0.07 0.11 0.08 0.07 0.06 0.04 0.03 0.03 0.03
0.06 0.05 0.05 0.04 0.03 0.02 0.03 0.05 0.04 0.02 0.02 0.03 0.01 0.02 0.02 0.04 0.06 0.05 0.08 0.13 0.12 0.13 0.18 0.22 0.23 0.10 0.05 0.05 0.06 0.00 0.00 0.00 0.00 0.01 0.01 0.04 0.05 0.06 0.06 0.09 0.11 0.10 0.07 0.05
0.11 0.11 0.16 0.08 0.03 0.02 0.01 0.03 0.05 0.02 0.01 0.03 0.03 0.03 0.04 0.04 0.04 0.05 0.10 0.16 0.17 0.21 0.25 0.28 0.24 0.12 0.08 0.12 0.15 0.04 0.01 0.01 0.01 0.01 0.02 0.03 0.04 0.06 0.07 0.06 0.09 0.12 0.11 0.11
0.44 0.39 0.38 0.25 0.18 0.13 0.07 0.05 0.03 0.03 0.02 0.03 0.03 0.04 0.04 0.04 0.04 0.06 0.08 0.11 0.16 0.25 0.23 0.20 0.18 0.17 0.16 0.21 0.13 0.05 0.04 0.04 0.05 0.07 0.08 0.07 0.09 0.09 0.10 0.11 0.12 0.13 0.14 0.14
0.53 0.38 0.37 0.39 0.35 0.30 0.18 0.19 0.17 0.13 0.09 0.08 0.09 0.10 0.09 0.07 0.06 0.05 0.06 0.07 0.12 0.15 0.13 0.12 0.16 0.23 0.25 0.22 0.16 0.12 0.12 0.14 0.15 0.15 0.16 0.18 0.20 0.19 0.19 0.17 0.15 0.14 0.13 0.12
0.16 0.13 0.12 0.15 0.26 0.25 0.17 0.22 0.27 0.25 0.12 0.12 0.13 0.14 0.15 0.16 0.16 0.13 0.11 0.11 0.11 0.13 0.12 0.15 0.23 0.28 0.27 0.18 0.15 0.17 0.21 0.26 0.28 0.29 0.30 0.32 0.30 0.27 0.23 0.18 0.18 0.14 0.14 0.16
0.06 0.06 0.06 0.04 0.02 0.03 0.04 0.03 0.04 0.07 0.14 0.18 0.18 0.13 0.12 0.15 0.16 0.16 0.18 0.17 0.17 0.17 0.17 0.19 0.19 0.21 0.21 0.19 0.25 0.29 0.30 0.32 0.32 0.33 0.31 0.29 0.25 0.23 0.21 0.20 0.19 0.18 0.20 0.18
0.00 0.00 0.00 0.00 0.00 0.00 0.00 0.00 0.00 0.00 0.00 0.01 0.04 0.07 0.08 0.07 0.07 0.07 0.08 0.11 0.13 0.17 0.17 0.18 0.18 0.20 0.20 0.20 0.21 0.20 0.19 0.19 0.23 0.22 0.21 0.22 0.25 0.27 0.23 0.19 0.17 0.17 0.17 0.13
0.00 0.00 0.00 0.00 0.00 0.00 0.00 0.00 0.00 0.00 0.00 0.00 0.00 0.01 0.02 0.02 0.04 0.06 0.03 0.02 0.04 0.08 0.10 0.10 0.14 0.17 0.19 0.19 0.18 0.17 0.16 0.16 0.17 0.18 0.20 0.23 0.25 0.23 0.20 0.18 0.17 0.15 0.16 0.14

GFSNGP_prec_precacc_096.txt.gz
Total_Precipitation_Accumulation
0.49 0.28 0.42 0.57 0.56 0.49 0.94 0.52 0.52 0.16 0.07 0.03 0.03 0.02 0.02 0.01 0.01 0.04 0.05 0.04 0.02 0.02 0.03 0.02 0.05 0.05 0.06 0.09 0.07 0.07 0.07 0.05 0.05 0.05 0.05 0.04 0.04 0.05 0.05 0.04 0.04 0.04 0.03 0.02
0.61 0.24 0.38 0.48 0.55 0.36 0.56 0.27 0.26 0.17 0.13 0.01 0.01 0.01 0.00 0.01 0.04 0.07 0.07 0.04 0.02 0.01 0.01 0.01 0.00 0.00 0.02 0.08 0.09 0.09 0.11 0.06 0.04 0.02 0.05 0.05 0.06 0.06 0.07 0.14 0.12 0.10 0.13 0.17
0.66 0.48 0.28 0.47 0.58 0.68 0.48 0.20 0.25 0.28 0.15 0.01 0.01 0.04 0.06 0.05 0.06 0.04 0.03 0.02 0.01 0.00 0.00 0.00 0.00 0.00 0.01 0.03 0.05 0.09 0.08 0.06 0.05 0.03 0.04 0.07 0.09 0.16 0.21 0.27 0.56 0.55 0.56 0.41
0.31 0.15 0.16 0.11 0.14 0.44 0.28 0.23 0.26 0.14 0.07 0.02 0.00 0.00 0.02 0.04 0.02 0.01 0.01 0.00 0.01 0.00 0.00 0.00 0.00 0.01 0.02 0.09 0.12 0.40 0.10 0.15 0.16 0.14 0.17 0.20 0.33 0.45 0.48 0.47 0.48 0.55 0.89 0.94
0.16 0.07 0.03 0.00 0.00 0.07 0.13 0.22 0.14 0.07 0.02 0.00 0.00 0.22 0.35 0.15 0.04 0.01 0.00 0.00 0.00 0.00 0.00 0.00 0.02 0.02 0.02 0.04 0.14 0.36 0.22 0.25 0.36 0.31 0.28 0.26 0.40 0.50 0.37 0.51 0.67 0.62 0.54 0.44
0.10 0.12 0.02 0.00 0.00 0.01 0.02 0.19 0.02 0.05 0.04 0.02 0.01 0.29 0.32 0.24 0.05 0.02 0.00 0.00 0.00 0.00 0.02 0.05 0.08 0.08 0.07 0.07 0.10 0.31 0.33 0.31 0.30 0.48 0.40 0.48 0.44 0.49 0.75 0.60 0.54 0.44 0.34 0.23
0.16 0.18 0.01 0.00 0.00 0.01 0.09 0.15 0.01 0.06 0.06 0.01 0.01 0.03 0.06 0.08 0.11 0.08 0.12 0.12 0.14 0.08 0.16 0.24 0.37 0.35 0.41 0.43 0.62 0.88 0.58 0.60 0.65 0.78 0.67 0.61 0.66 0.57 0.50 0.37 0.26 0.20 0.12 0.06
0.14 0.10 0.00 0.00 0.00 0.01 0.01 0.01 0.02 0.10 0.03 0.02 0.01 0.02 0.02 0.01 0.07 0.11 0.14 0.12 0.33 0.48 0.53 0.60 0.72 0.65 0.63 0.71 0.75 0.91 0.67 0.59 0.57 0.49 0.44 0.35 0.27 0.18 0.10 0.09 0.05 0.03 0.01 0.00
0.00 0.00 0.00 0.00 0.00 0.00 0.00 0.00 0.00 0.02 0.10 0.13 0.12 0.19 0.07 0.02 0.01 0.03 0.07 0.03 0.12 0.22 0.13 0.18 0.29 0.34 0.25 0.24 0.23 0.20 0.16 0.13 0.13 0.08 0.05 0.03 0.00 0.00 0.00 0.00 0.00 0.00 0.00 0.00
0.00 0.00 0.00 0.00 0.00 0.00 0.00 0.00 0.00 0.00 0.01 0.22 0.07 0.08 0.03 0.06 0.04 0.05 0.05 0.02 0.04 0.04 0.04 0.04 0.05 0.04 0.03 0.02 0.02 0.01 0.01 0.01 0.00 0.00 0.01 0.00 0.00 0.00 0.00 0.00 0.00 0.00 0.00 0.00
0.00 0.00 0.00 0.00 0.00 0.00 0.01 0.02 0.00 0.00 0.00 0.01 0.06 0.07 0.02 0.16 0.08 0.00 0.00 0.00 0.00 0.01 0.02 0.00 0.00 0.00 0.00 0.00 0.00 0.00 0.00 0.00 0.00 0.00 0.01 0.00 0.00 0.00 0.00 0.00 0.00 0.00 0.00 0.01
0.02 0.00 0.00 0.00 0.00 0.00 0.00 0.01 0.00 0.00 0.00 0.00 0.01 0.12 0.01 0.06 0.03 0.00 0.00 0.00 0.00 0.00 0.01 0.00 0.00 0.00 0.00 0.00 0.00 0.00 0.00 0.00 0.00 0.00 0.00 0.00 0.00 0.01 0.00 0.00 0.00 0.00 0.00 0.01
0.00 0.00 0.00 0.00 0.00 0.00 0.00 0.00 0.00 0.00 0.00 0.00 0.00 0.01 0.01 0.11 0.02 0.00 0.00 0.00 0.00 0.00 0.00 0.00 0.00 0.00 0.00 0.00 0.00 0.00 0.00 0.00 0.00 0.00 0.00 0.00 0.01 0.01 0.01 0.01 0.01 0.01 0.01 0.01
0.00 0.00 0.00 0.00 0.00 0.00 0.00 0.00 0.03 0.01 0.00 0.00 0.02 0.05 0.07 0.23 0.25 0.08 0.06 0.00 0.00 0.00 0.00 0.00 0.00 0.00 0.00 0.00 0.00 0.00 0.00 0.02 0.00 0.00 0.00 0.00 0.00 0.01 0.01 0.01 0.01 0.00 0.00 0.01
0.00 0.00 0.00 0.00 0.00 0.02 0.01 0.00 0.00 0.01 0.02 0.00 0.00 0.00 0.02 0.06 0.27 0.17 0.03 0.00 0.00 0.00 0.00 0.00 0.00 0.00 0.00 0.00 0.00 0.01 0.01 0.01 0.01 0.01 0.01 0.01 0.01 0.01 0.01 0.01 0.01 0.00 0.00 0.00
0.00 0.00 0.00 0.00 0.01 0.03 0.03 0.01 0.00 0.00 0.01 0.00 0.00 0.00 0.00 0.04 0.16 0.12 0.05 0.01 0.00 0.01 0.01 0.00 0.00 0.00 0.00 0.00 0.00 0.00 0.01 0.04 0.02 0.01 0.02 0.02 0.02 0.02 0.02 0.03 0.04 0.03 0.02 0.00
0.01 0.01 0.00 0.00 0.00 0.02 0.03 0.05 0.00 0.00 0.00 0.00 0.00 0.00 0.00 0.04 0.08 0.10 0.06 0.03 0.03 0.02 0.01 0.00 0.00 0.00 0.00 0.00 0.00 0.00 0.01 0.02 0.04 0.01 0.03 0.04 0.05 0.04 0.04 0.04 0.05 0.05 0.03 0.03
0.00 0.01 0.02 0.01 0.00 0.01 0.01 0.04 0.01 0.00 0.00 0.00 0.00 0.02 0.02 0.05 0.11 0.12 0.13 0.10 0.08 0.05 0.02 0.02 0.01 0.00 0.00 0.00 0.00 0.00 0.00 0.00 0.00 0.01 0.04 0.06 0.08 0.08 0.07 0.05 0.03 0.04 0.03 0.07
0.01 0.00 0.01 0.03 0.04 0.03 0.03 0.04 0.03 0.01 0.00 0.00 0.01 0.02 0.03 0.05 0.06 0.08 0.09 0.10 0.09 0.10 0.07 0.07 0.09 0.04 0.02 0.01 0.01 0.00 0.00 0.00 0.00 0.00 0.02 0.07 0.12 0.09 0.08 0.07 0.05 0.04 0.05 0.05
0.06 0.05 0.05 0.05 0.04 0.04 0.05 0.07 0.05 0.02 0.02 0.03 0.01 0.02 0.02 0.04 0.06 0.05 0.08 0.13 0.12 0.13 0.18 0.22 0.23 0.10 0.05 0.05 0.06 0.01 0.00 0.00 0.00 0.01 0.02 0.04 0.05 0.06 0.07 0.10 0.11 0.10 0.08 0.06
0.12 0.11 0.17 0.09 0.03 0.02 0.01 0.04 0.06 0.02 0.01 0.03 0.03 0.03 0.04 0.04 0.04 0.05 0.10 0.16 0.17 0.21 0.25 0.28 0.24 0.12 0.08 0.12 0.15 0.04 0.01 0.01 0.01 0.02 0.02 0.03 0.05 0.07 0.08 0.07 0.10 0.12 0.12 0.12
0.44 0.39 0.38 0.26 0.20 0.15 0.09 0.05 0.03 0.04 0.03 0.03 0.04 0.04 0.04 0.04 0.04 0.06 0.08 0.11 0.16 0.25 0.23 0.20 0.18 0.17 0.16 0.21 0.13 0.05 0.04 0.04 0.05 0.07 0.08 0.08 0.10 0.10 0.11 0.12 0.13 0.14 0.15 0.15
0.54 0.38 0.38 0.40 0.37 0.31 0.21 0.22 0.19 0.14 0.10 0.09 0.09 0.10 0.09 0.07 0.06 0.05 0.06 0.07 0.12 0.15 0.13 0.12 0.16 0.23 0.25 0.22 0.16 0.12 0.12 0.14 0.15 0.15 0.16 0.18 0.20 0.20 0.20 0.18 0.16 0.15 0.14 0.12
0.16 0.14 0.13 0.16 0.27 0.27 0.19 0.23 0.27 0.25 0.12 0.12 0.13 0.14 0.15 0.16 0.16 0.13 0.11 0.11 0.11 0.13 0.12 0.15 0.23 0.28 0.27 0.18 0.15 0.17 0.21 0.26 0.28 0.29 0.30 0.32 0.30 0.27 0.23 0.19 0.19 0.15 0.16 0.18
0.07 0.07 0.07 0.05 0.03 0.04 0.05 0.03 0.04 0.07 0.14 0.18 0.18 0.13 0.12 0.15 0.16 0.16 0.18 0.17 0.17 0.17 0.17 0.19 0.19 0.21 0.21 0.19 0.25 0.29 0.30 0.32 0.32 0.33 0.31 0.29 0.25 0.24 0.21 0.21 0.19 0.19 0.21 0.19
0.00 0.00 0.00 0.00 0.00 0.00 0.00 0.00 0.00 0.00 0.00 0.01 0.04 0.07 0.08 0.07 0.07 0.07 0.08 0.11 0.13 0.17 0.17 0.18 0.18 0.20 0.20 0.20 0.21 0.20 0.19 0.19 0.23 0.22 0.21 0.22 0.25 0.27 0.23 0.19 0.17 0.17 0.17 0.13
0.00 0.00 0.00 0.00 0.00 0.00 0.00 0.00 0.00 0.00 0.00 0.00 0.00 0.01 0.02 0.02 0.04 0.06 0.03 0.02 0.04 0.08 0.10 0.10 0.14 0.17 0.19 0.19 0.18 0.17 0.16 0.16 0.17 0.18 0.20 0.23 0.25 0.24 0.20 0.18 0.17 0.15 0.16 0.15

GFSNGP_prec_precacc_099.txt.gz
Total_Precipitation_Accumulation
0.49 0.28 0.42 0.57 0.56 0.49 0.94 0.52 0.52 0.17 0.07 0.03 0.03 0.02 0.02 0.01 0.01 0.04 0.05 0.04 0.02 0.02 0.03 0.02 0.05 0.05 0.06 0.09 0.07 0.07 0.07 0.05 0.05 0.05 0.05 0.04 0.04 0.05 0.05 0.04 0.04 0.04 0.03 0.02
0.61 0.24 0.38 0.48 0.55 0.36 0.56 0.27 0.26 0.17 0.13 0.01 0.01 0.01 0.00 0.01 0.04 0.07 0.07 0.04 0.02 0.01 0.01 0.01 0.00 0.00 0.02 0.08 0.09 0.09 0.11 0.06 0.04 0.02 0.05 0.05 0.06 0.06 0.07 0.14 0.12 0.10 0.13 0.17
0.67 0.48 0.28 0.47 0.58 0.68 0.48 0.20 0.25 0.28 0.15 0.01 0.01 0.04 0.06 0.05 0.06 0.04 0.03 0.02 0.01 0.00 0.00 0.00 0.00 0.00 0.01 0.03 0.05 0.09 0.08 0.06 0.05 0.03 0.04 0.07 0.09 0.16 0.21 0.27 0.56 0.55 0.56 0.41
0.31 0.15 0.16 0.11 0.14 0.44 0.28 0.23 0.26 0.14 0.07 0.02 0.00 0.00 0.02 0.04 0.02 0.01 0.01 0.00 0.01 0.00 0.00 0.00 0.00 0.01 0.02 0.09 0.12 0.40 0.10 0.15 0.16 0.14 0.17 0.20 0.33 0.45 0.48 0.47 0.48 0.55 0.89 0.94
0.16 0.07 0.03 0.00 0.00 0.07 0.13 0.22 0.14 0.07 0.02 0.00 0.00 0.22 0.35 0.15 0.04 0.01 0.00 0.00 0.00 0.00 0.00 0.00 0.02 0.02 0.02 0.04 0.14 0.36 0.22 0.25 0.36 0.31 0.28 0.26 0.40 0.50 0.37 0.51 0.67 0.62 0.54 0.44
0.10 0.12 0.02 0.00 0.00 0.01 0.02 0.19 0.02 0.05 0.04 0.02 0.01 0.29 0.32 0.24 0.05 0.02 0.00 0.00 0.00 0.00 0.02 0.05 0.08 0.08 0.07 0.07 0.10 0.31 0.33 0.31 0.30 0.48 0.40 0.48 0.44 0.49 0.75 0.60 0.54 0.44 0.34 0.23
0.16 0.18 0.01 0.00 0.00 0.01 0.09 0.15 0.01 0.06 0.06 0.01 0.01 0.03 0.06 0.08 0.11 0.08 0.12 0.12 0.14 0.08 0.16 0.24 0.37 0.35 0.41 0.43 0.62 0.88 0.58 0.60 0.65 0.78 0.67 0.61 0.66 0.57 0.50 0.37 0.26 0.20 0.12 0.06
0.14 0.10 0.00 0.00 0.00 0.01 0.01 0.01 0.02 0.10 0.03 0.02 0.01 0.02 0.02 0.01 0.07 0.11 0.14 0.12 0.33 0.48 0.53 0.60 0.72 0.65 0.63 0.71 0.75 0.91 0.67 0.59 0.57 0.49 0.44 0.35 0.27 0.18 0.10 0.09 0.05 0.03 0.01 0.00
0.00 0.00 0.00 0.00 0.00 0.00 0.00 0.00 0.00 0.02 0.10 0.13 0.12 0.19 0.07 0.02 0.01 0.03 0.07 0.03 0.12 0.22 0.13 0.18 0.29 0.34 0.25 0.24 0.23 0.20 0.16 0.13 0.13 0.08 0.05 0.03 0.00 0.00 0.00 0.00 0.00 0.00 0.00 0.00
0.00 0.00 0.00 0.00 0.00 0.00 0.00 0.00 0.00 0.00 0.01 0.22 0.07 0.08 0.03 0.06 0.04 0.05 0.05 0.02 0.04 0.04 0.04 0.04 0.05 0.04 0.03 0.02 0.02 0.01 0.01 0.01 0.00 0.00 0.01 0.00 0.00 0.00 0.00 0.00 0.00 0.00 0.00 0.00
0.01 0.00 0.00 0.00 0.00 0.00 0.01 0.02 0.00 0.00 0.00 0.01 0.08 0.07 0.02 0.16 0.08 0.00 0.00 0.00 0.00 0.01 0.02 0.00 0.00 0.00 0.00 0.00 0.00 0.00 0.00 0.00 0.00 0.00 0.01 0.00 0.00 0.00 0.00 0.00 0.00 0.00 0.00 0.01
0.03 0.01 0.02 0.01 0.00 0.00 0.00 0.01 0.01 0.01 0.00 0.01 0.01 0.12 0.01 0.06 0.03 0.00 0.00 0.00 0.00 0.00 0.01 0.00 0.00 0.00 0.00 0.00 0.00 0.00 0.00 0.00 0.00 0.00 0.00 0.00 0.00 0.01 0.00 0.00 0.00 0.00 0.00 0.01
0.00 0.00 0.01 0.01 0.00 0.00 0.00 0.00 0.00 0.00 0.01 0.00 0.00 0.01 0.01 0.11 0.02 0.00 0.00 0.00 0.00 0.00 0.00 0.00 0.00 0.00 0.00 0.00 0.00 0.00 0.00 0.00 0.00 0.00 0.00 0.00 0.01 0.01 0.01 0.01 0.01 0.01 0.01 0.02
0.00 0.00 0.00 0.00 0.00 0.00 0.00 0.00 0.03 0.02 0.01 0.01 0.02 0.07 0.09 0.23 0.25 0.08 0.06 0.00 0.00 0.00 0.00 0.00 0.00 0.00 0.00 0.00 0.00 0.00 0.00 0.02 0.00 0.00 0.00 0.00 0.01 0.01 0.01 0.01 0.01 0.00 0.01 0.02
0.00 0.00 0.00 0.00 0.00 0.02 0.01 0.00 0.00 0.01 0.02 0.00 0.00 0.00 0.02 0.06 0.27 0.17 0.03 0.00 0.00 0.00 0.00 0.00 0.00 0.00 0.00 0.00 0.00 0.01 0.01 0.01 0.01 0.01 0.01 0.01 0.01 0.01 0.01 0.01 0.01 0.00 0.00 0.01
0.00 0.00 0.00 0.00 0.01 0.03 0.03 0.01 0.00 0.00 0.01 0.00 0.01 0.01 0.00 0.04 0.16 0.12 0.05 0.01 0.00 0.01 0.01 0.00 0.00 0.00 0.00 0.00 0.00 0.00 0.01 0.04 0.02 0.01 0.02 0.03 0.02 0.03 0.03 0.04 0.04 0.03 0.02 0.01
0.01 0.01 0.00 0.00 0.00 0.02 0.03 0.05 0.00 0.00 0.00 0.00 0.00 0.00 0.00 0.04 0.08 0.10 0.06 0.03 0.03 0.02 0.01 0.00 0.00 0.00 0.00 0.00 0.00 0.00 0.01 0.02 0.05 0.01 0.03 0.04 0.05 0.05 0.05 0.05 0.06 0.05 0.03 0.04
0.01 0.02 0.02 0.01 0.00 0.01 0.01 0.04 0.02 0.01 0.02 0.02 0.00 0.02 0.02 0.05 0.11 0.12 0.13 0.10 0.08 0.05 0.02 0.02 0.01 0.00 0.00 0.00 0.00 0.00 0.00 0.00 0.00 0.01 0.04 0.07 0.08 0.10 0.08 0.06 0.04 0.04 0.03 0.07
0.01 0.01 0.02 0.03 0.04 0.03 0.04 0.07 0.08 0.06 0.03 0.01 0.01 0.02 0.03 0.05 0.06 0.08 0.09 0.10 0.09 0.10 0.07 0.07 0.09 0.04 0.02 0.01 0.01 0.00 0.00 0.00 0.01 0.01 0.03 0.09 0.13 0.10 0.09 0.08 0.06 0.05 0.05 0.06
0.07 0.06 0.06 0.05 0.04 0.04 0.06 0.07 0.06 0.03 0.02 0.03 0.01 0.02 0.02 0.04 0.06 0.05 0.08 0.13 0.12 0.13 0.18 0.22 0.23 0.10 0.05 0.05 0.06 0.01 0.00 0.00 0.01 0.01 0.03 0.06 0.06 0.07 0.08 0.12 0.14 0.12 0.08 0.07
0.12 0.11 0.17 0.09 0.03 0.02 0.01 0.04 0.06 0.02 0.01 0.03 0.03 0.03 0.04 0.04 0.04 0.05 0.10 0.16 0.17 0.21 0.25 0.28 0.24 0.12 0.08 0.12 0.15 0.04 0.01 0.01 0.01 0.02 0.03 0.04 0.06 0.08 0.09 0.09 0.12 0.14 0.13 0.14
0.44 0.40 0.38 0.26 0.20 0.15 0.09 0.05 0.03 0.04 0.03 0.04 0.06 0.06 0.06 0.05 0.04 0.06 0.08 0.11 0.16 0.25 0.23 0.20 0.18 0.17 0.16 0.21 0.13 0.05 0.04 0.04 0.05 0.07 0.08 0.08 0.10 0.11 0.11 0.12 0.14 0.15 0.16 0.16
0.54 0.38 0.38 0.40 0.37 0.31 0.21 0.22 0.20 0.15 0.11 0.09 0.09 0.10 0.09 0.07 0.06 0.05 0.06 0.07 0.12 0.15 0.13 0.12 0.16 0.23 0.25 0.22 0.16 0.12 0.12 0.14 0.15 0.15 0.16 0.18 0.20 0.20 0.20 0.19 0.16 0.16 0.15 0.13
0.17 0.14 0.13 0.16 0.28 0.28 0.20 0.23 0.27 0.25 0.12 0.13 0.14 0.14 0.15 0.16 0.16 0.13 0.11 0.11 0.11 0.13 0.12 0.15 0.23 0.28 0.27 0.18 0.15 0.17 0.21 0.26 0.28 0.29 0.30 0.32 0.30 0.27 0.23 0.19 0.19 0.15 0.16 0.19
0.07 0.07 0.07 0.06 0.03 0.04 0.05 0.04 0.04 0.07 0.14 0.18 0.18 0.13 0.12 0.15 0.16 0.16 0.18 0.17 0.17 0.17 0.17 0.19 0.19 0.21 0.21 0.19 0.25 0.29 0.30 0.32 0.32 0.33 0.31 0.29 0.25 0.24 0.21 0.21 0.19 0.19 0.21 0.19
0.00 0.00 0.00 0.00 0.00 0.00 0.00 0.00 0.00 0.00 0.00 0.01 0.04 0.07 0.08 0.07 0.07 0.07 0.08 0.11 0.13 0.17 0.17 0.18 0.18 0.20 0.20 0.20 0.21 0.20 0.19 0.19 0.23 0.22 0.21 0.22 0.25 0.27 0.23 0.19 0.17 0.17 0.17 0.13
0.00 0.00 0.00 0.00 0.00 0.00 0.00 0.00 0.00 0.00 0.00 0.00 0.00 0.01 0.02 0.02 0.04 0.06 0.03 0.02 0.04 0.08 0.10 0.10 0.14 0.17 0.19 0.19 0.18 0.17 0.16 0.16 0.17 0.18 0.20 0.23 0.25 0.24 0.20 0.18 0.17 0.15 0.16 0.15

GFSNGP_prec_precacc_102.txt.gz
Total_Precipitation_Accumulation
0.49 0.28 0.42 0.57 0.56 0.49 0.94 0.52 0.58 0.18 0.07 0.03 0.03 0.02 0.02 0.01 0.01 0.04 0.05 0.04 0.02 0.02 0.03 0.02 0.05 0.05 0.06 0.09 0.07 0.07 0.07 0.05 0.05 0.05 0.05 0.04 0.04 0.05 0.05 0.04 0.04 0.04 0.03 0.02
0.61 0.24 0.38 0.48 0.55 0.36 0.56 0.27 0.28 0.17 0.13 0.01 0.01 0.01 0.00 0.01 0.04 0.07 0.07 0.04 0.02 0.01 0.01 0.01 0.00 0.00 0.02 0.08 0.09 0.09 0.11 0.06 0.04 0.02 0.05 0.05 0.06 0.06 0.07 0.14 0.12 0.10 0.13 0.17
0.67 0.48 0.28 0.47 0.58 0.68 0.48 0.20 0.25 0.28 0.15 0.01 0.01 0.04 0.06 0.05 0.06 0.04 0.03 0.02 0.01 0.00 0.00 0.00 0.00 0.00 0.01 0.03 0.05 0.09 0.08 0.06 0.05 0.03 0.04 0.07 0.09 0.16 0.21 0.27 0.56 0.55 0.56 0.41
0.31 0.15 0.16 0.11 0.14 0.44 0.28 0.23 0.26 0.14 0.07 0.02 0.00 0.00 0.02 0.04 0.02 0.01 0.01 0.00 0.01 0.00 0.00 0.00 0.00 0.01 0.02 0.09 0.12 0.40 0.10 0.15 0.16 0.14 0.17 0.20 0.33 0.45 0.48 0.47 0.48 0.55 0.89 0.94
0.16 0.07 0.03 0.00 0.00 0.07 0.13 0.22 0.14 0.07 0.02 0.00 0.00 0.22 0.35 0.15 0.04 0.01 0.00 0.00 0.00 0.00 0.00 0.00 0.02 0.02 0.02 0.04 0.14 0.36 0.22 0.25 0.36 0.31 0.28 0.26 0.40 0.50 0.37 0.51 0.67 0.62 0.54 0.44
0.10 0.12 0.02 0.00 0.00 0.01 0.02 0.19 0.02 0.05 0.04 0.02 0.01 0.29 0.32 0.24 0.05 0.02 0.00 0.00 0.00 0.00 0.02 0.05 0.08 0.08 0.07 0.07 0.10 0.31 0.33 0.31 0.30 0.48 0.40 0.48 0.44 0.49 0.75 0.60 0.54 0.44 0.34 0.23
0.16 0.18 0.01 0.00 0.00 0.01 0.09 0.15 0.01 0.06 0.06 0.01 0.01 0.03 0.06 0.08 0.11 0.08 0.12 0.12 0.14 0.08 0.16 0.24 0.37 0.35 0.41 0.43 0.62 0.88 0.58 0.60 0.65 0.78 0.67 0.61 0.66 0.57 0.50 0.37 0.26 0.20 0.12 0.06
0.14 0.10 0.00 0.00 0.00 0.01 0.01 0.02 0.02 0.10 0.03 0.02 0.01 0.02 0.02 0.01 0.07 0.11 0.14 0.12 0.33 0.48 0.53 0.60 0.72 0.65 0.63 0.71 0.75 0.91 0.67 0.59 0.57 0.49 0.44 0.35 0.27 0.18 0.10 0.09 0.05 0.03 0.01 0.00
0.00 0.00 0.00 0.00 0.00 0.00 0.00 0.00 0.00 0.02 0.10 0.13 0.12 0.19 0.07 0.02 0.01 0.03 0.07 0.03 0.12 0.22 0.13 0.18 0.29 0.34 0.25 0.24 0.23 0.20 0.16 0.13 0.13 0.08 0.05 0.03 0.00 0.00 0.00 0.00 0.00 0.00 0.00 0.00
0.00 0.00 0.00 0.00 0.00 0.00 0.00 0.00 0.00 0.00 0.01 0.22 0.07 0.08 0.03 0.06 0.04 0.05 0.05 0.02 0.04 0.04 0.04 0.04 0.05 0.04 0.03 0.02 0.02 0.01 0.01 0.01 0.00 0.00 0.01 0.00 0.00 0.00 0.00 0.00 0.00 0.00 0.00 0.00
0.01 0.00 0.00 0.00 0.00 0.00 0.01 0.02 0.00 0.00 0.00 0.02 0.10 0.09 0.03 0.16 0.08 0.00 0.00 0.00 0.00 0.01 0.02 0.00 0.00 0.00 0.00 0.00 0.00 0.00 0.00 0.00 0.00 0.00 0.01 0.00 0.00 0.00 0.00 0.00 0.00 0.00 0.00 0.01
0.03 0.01 0.02 0.02 0.01 0.00 0.00 0.01 0.01 0.02 0.01 0.01 0.02 0.12 0.01 0.06 0.03 0.00 0.00 0.00 0.00 0.00 0.01 0.00 0.00 0.00 0.00 0.00 0.00 0.00 0.00 0.00 0.00 0.00 0.00 0.00 0.00 0.01 0.01 0.01 0.01 0.00 0.00 0.01
0.00 0.00 0.01 0.01 0.01 0.00 0.00 0.00 0.00 0.00 0.01 0.01 0.00 0.01 0.01 0.11 0.02 0.00 0.00 0.00 0.00 0.00 0.00 0.00 0.00 0.00 0.00 0.00 0.00 0.00 0.00 0.00 0.00 0.00 0.00 0.00 0.01 0.01 0.01 0.02 0.02 0.02 0.01 0.02
0.00 0.00 0.00 0.00 0.00 0.00 0.00 0.00 0.03 0.02 0.01 0.01 0.02 0.07 0.09 0.26 0.26 0.08 0.06 0.00 0.00 0.00 0.00 0.00 0.00 0.00 0.00 0.00 0.00 0.00 0.00 0.02 0.00 0.00 0.00 0.00 0.01 0.01 0.02 0.01 0.01 0.01 0.01 0.02
0.00 0.00 0.00 0.00 0.00 0.02 0.01 0.00 0.00 0.01 0.02 0.01 0.00 0.00 0.02 0.06 0.27 0.17 0.03 0.00 0.00 0.00 0.00 0.00 0.00 0.00 0.00 0.00 0.00 0.01 0.01 0.01 0.01 0.01 0.01 0.02 0.01 0.01 0.02 0.02 0.01 0.00 0.00 0.01
0.00 0.00 0.00 0.00 0.01 0.03 0.03 0.01 0.00 0.00 0.01 0.00 0.01 0.02 0.03 0.07 0.16 0.12 0.05 0.01 0.00 0.01 0.01 0.00 0.00 0.00 0.00 0.00 0.00 0.00 0.01 0.04 0.02 0.01 0.03 0.04 0.03 0.03 0.04 0.05 0.05 0.03 0.02 0.01
0.01 0.01 0.00 0.00 0.00 0.02 0.03 0.05 0.00 0.00 0.00 0.01 0.00 0.00 0.01 0.04 0.08 0.10 0.06 0.03 0.03 0.02 0.01 0.00 0.00 0.00 0.00 0.00 0.00 0.01 0.01 0.03 0.05 0.01 0.03 0.05 0.05 0.06 0.06 0.07 0.07 0.06 0.04 0.04
0.01 0.02 0.03 0.02 0.01 0.01 0.01 0.04 0.02 0.02 0.03 0.04 0.03 0.04 0.03 0.05 0.11 0.12 0.13 0.10 0.08 0.05 0.02 0.02 0.01 0.00 0.00 0.00 0.00 0.00 0.00 0.00 0.00 0.01 0.04 0.07 0.09 0.10 0.09 0.07 0.05 0.05 0.04 0.08
0.01 0.01 0.02 0.04 0.04 0.04 0.04 0.07 0.08 0.08 0.05 0.04 0.03 0.05 0.06 0.06 0.06 0.08 0.09 0.10 0.09 0.10 0.07 0.07 0.09 0.04 0.02 0.01 0.01 0.00 0.00 0.00 0.01 0.02 0.04 0.11 0.15 0.11 0.11 0.10 0.07 0.06 0.06 0.06
0.07 0.06 0.06 0.05 0.04 0.04 0.06 0.07 0.06 0.03 0.02 0.03 0.02 0.02 0.03 0.04 0.06 0.05 0.08 0.13 0.12 0.13 0.18 0.22 0.23 0.10 0.05 0.05 0.06 0.01 0.00 0.00 0.01 0.01 0.03 0.06 0.07 0.08 0.09 0.14 0.15 0.13 0.09 0.07
0.12 0.11 0.17 0.09 0.03 0.02 0.01 0.04 0.06 0.02 0.01 0.03 0.04 0.04 0.05 0.05 0.05 0.06 0.11 0.17 0.17 0.21 0.25 0.28 0.24 0.12 0.08 0.12 0.15 0.04 0.01 0.01 0.01 0.02 0.03 0.04 0.06 0.09 0.09 0.09 0.12 0.14 0.14 0.14
0.44 0.40 0.38 0.26 0.20 0.15 0.09 0.05 0.03 0.04 0.04 0.06 0.08 0.09 0.09 0.07 0.05 0.06 0.08 0.11 0.16 0.25 0.23 0.20 0.18 0.17 0.16 0.21 0.13 0.05 0.04 0.04 0.05 0.07 0.08 0.08 0.10 0.11 0.11 0.12 0.14 0.15 0.16 0.17
0.54 0.38 0.38 0.40 0.37 0.31 0.21 0.22 0.20 0.15 0.11 0.10 0.09 0.10 0.09 0.07 0.06 0.05 0.06 0.07 0.12 0.15 0.13 0.12 0.16 0.23 0.25 0.22 0.16 0.12 0.12 0.14 0.15 0.15 0.16 0.18 0.20 0.20 0.20 0.19 0.17 0.16 0.15 0.13
0.17 0.14 0.13 0.16 0.28 0.28 0.20 0.24 0.28 0.25 0.12 0.13 0.14 0.14 0.16 0.17 0.16 0.14 0.11 0.11 0.11 0.13 0.12 0.15 0.23 0.28 0.27 0.18 0.15 0.17 0.21 0.26 0.28 0.29 0.30 0.32 0.30 0.27 0.23 0.19 0.19 0.15 0.16 0.19
0.07 0.07 0.07 0.06 0.04 0.05 0.05 0.04 0.05 0.08 0.14 0.18 0.18 0.13 0.12 0.15 0.16 0.16 0.18 0.17 0.17 0.17 0.17 0.19 0.19 0.21 0.21 0.19 0.25 0.29 0.30 0.32 0.32 0.33 0.31 0.29 0.25 0.24 0.21 0.21 0.19 0.19 0.21 0.19
0.00 0.00 0.00 0.00 0.00 0.00 0.00 0.00 0.00 0.00 0.00 0.01 0.04 0.07 0.08 0.07 0.07 0.07 0.08 0.11 0.13 0.17 0.17 0.18 0.18 0.20 0.20 0.20 0.21 0.20 0.19 0.19 0.23 0.22 0.21 0.22 0.25 0.27 0.23 0.19 0.17 0.17 0.17 0.13
0.00 0.00 0.00 0.00 0.00 0.00 0.00 0.00 0.00 0.00 0.00 0.00 0.00 0.01 0.02 0.02 0.04 0.06 0.03 0.02 0.04 0.08 0.10 0.10 0.14 0.17 0.19 0.19 0.18 0.17 0.16 0.16 0.17 0.18 0.20 0.23 0.25 0.24 0.20 0.18 0.17 0.15 0.16 0.15

GFSNGP_prec_precacc_105.txt.gz
Total_Precipitation_Accumulation
0.49 0.28 0.42 0.57 0.56 0.49 0.94 0.52 0.58 0.18 0.07 0.03 0.03 0.02 0.02 0.01 0.01 0.04 0.05 0.04 0.02 0.02 0.03 0.02 0.05 0.05 0.06 0.09 0.07 0.07 0.07 0.05 0.05 0.05 0.05 0.04 0.04 0.05 0.05 0.04 0.04 0.04 0.03 0.02
0.61 0.24 0.38 0.48 0.55 0.36 0.56 0.27 0.28 0.17 0.13 0.01 0.01 0.01 0.00 0.01 0.04 0.07 0.07 0.04 0.02 0.01 0.01 0.01 0.00 0.00 0.02 0.08 0.09 0.09 0.11 0.06 0.04 0.02 0.05 0.05 0.06 0.06 0.07 0.14 0.12 0.10 0.13 0.17
0.67 0.48 0.28 0.47 0.58 0.68 0.48 0.20 0.25 0.28 0.15 0.01 0.01 0.04 0.06 0.05 0.06 0.04 0.03 0.02 0.01 0.00 0.00 0.00 0.00 0.00 0.01 0.03 0.05 0.09 0.08 0.06 0.05 0.03 0.04 0.07 0.09 0.16 0.21 0.27 0.56 0.55 0.56 0.41
0.31 0.15 0.16 0.11 0.14 0.44 0.28 0.23 0.26 0.14 0.07 0.02 0.00 0.00 0.02 0.04 0.02 0.01 0.01 0.00 0.01 0.00 0.00 0.00 0.00 0.01 0.02 0.09 0.12 0.40 0.10 0.15 0.16 0.14 0.17 0.20 0.33 0.45 0.48 0.47 0.48 0.55 0.89 0.94
0.16 0.07 0.03 0.00 0.00 0.07 0.13 0.22 0.14 0.07 0.02 0.00 0.00 0.22 0.35 0.15 0.04 0.01 0.00 0.00 0.00 0.00 0.00 0.00 0.02 0.02 0.02 0.04 0.14 0.36 0.22 0.25 0.36 0.31 0.28 0.26 0.40 0.50 0.37 0.51 0.67 0.62 0.54 0.44
0.10 0.12 0.02 0.00 0.00 0.01 0.02 0.19 0.02 0.05 0.04 0.02 0.01 0.29 0.32 0.24 0.05 0.02 0.00 0.00 0.00 0.00 0.02 0.05 0.08 0.08 0.07 0.07 0.10 0.31 0.33 0.31 0.30 0.48 0.40 0.48 0.44 0.49 0.75 0.60 0.54 0.44 0.34 0.23
0.16 0.18 0.01 0.00 0.00 0.01 0.09 0.15 0.02 0.06 0.06 0.01 0.01 0.03 0.06 0.08 0.11 0.08 0.12 0.12 0.14 0.08 0.16 0.24 0.37 0.35 0.41 0.43 0.62 0.88 0.58 0.60 0.65 0.78 0.67 0.61 0.66 0.57 0.50 0.37 0.26 0.20 0.12 0.06
0.14 0.10 0.00 0.00 0.00 0.01 0.01 0.02 0.03 0.10 0.03 0.02 0.01 0.02 0.02 0.01 0.07 0.11 0.14 0.12 0.33 0.48 0.53 0.60 0.72 0.65 0.63 0.71 0.75 0.91 0.67 0.59 0.57 0.49 0.44 0.35 0.27 0.18 0.10 0.09 0.05 0.03 0.01 0.00
0.00 0.00 0.00 0.00 0.00 0.00 0.00 0.00 0.00 0.02 0.10 0.13 0.12 0.19 0.07 0.02 0.01 0.03 0.07 0.03 0.12 0.22 0.13 0.18 0.29 0.34 0.25 0.24 0.23 0.20 0.16 0.13 0.13 0.08 0.05 0.03 0.00 0.00 0.00 0.00 0.00 0.00 0.00 0.00
0.00 0.00 0.00 0.00 0.00 0.00 0.00 0.00 0.00 0.00 0.01 0.22 0.07 0.08 0.03 0.06 0.04 0.05 0.05 0.02 0.04 0.04 0.04 0.04 0.05 0.04 0.03 0.02 0.02 0.01 0.01 0.01 0.00 0.00 0.01 0.00 0.00 0.00 0.00 0.00 0.00 0.00 0.00 0.00
0.01 0.00 0.00 0.00 0.00 0.00 0.01 0.02 0.00 0.00 0.01 0.03 0.10 0.10 0.04 0.16 0.08 0.00 0.00 0.00 0.00 0.01 0.02 0.00 0.00 0.00 0.00 0.00 0.00 0.00 0.00 0.00 0.00 0.00 0.01 0.00 0.00 0.00 0.00 0.00 0.00 0.00 0.00 0.01
0.03 0.01 0.02 0.02 0.01 0.00 0.00 0.01 0.01 0.02 0.01 0.02 0.02 0.13 0.01 0.06 0.03 0.00 0.00 0.00 0.00 0.00 0.01 0.00 0.00 0.00 0.00 0.00 0.00 0.00 0.00 0.00 0.00 0.00 0.00 0.00 0.00 0.01 0.01 0.01 0.01 0.00 0.00 0.01
0.00 0.00 0.01 0.01 0.01 0.01 0.00 0.00 0.00 0.00 0.01 0.01 0.00 0.01 0.02 0.11 0.02 0.00 0.00 0.00 0.00 0.00 0.00 0.00 0.00 0.00 0.00 0.00 0.00 0.00 0.00 0.00 0.00 0.00 0.00 0.00 0.01 0.01 0.01 0.02 0.03 0.02 0.02 0.02
0.00 0.00 0.00 0.00 0.00 0.00 0.00 0.00 0.03 0.02 0.01 0.01 0.02 0.07 0.09 0.26 0.26 0.08 0.06 0.00 0.00 0.00 0.00 0.00 0.00 0.00 0.00 0.00 0.00 0.00 0.00 0.02 0.00 0.00 0.00 0.00 0.01 0.01 0.02 0.01 0.01 0.01 0.01 0.03
0.00 0.00 0.00 0.00 0.00 0.02 0.01 0.00 0.00 0.01 0.02 0.01 0.00 0.00 0.02 0.06 0.27 0.17 0.04 0.00 0.00 0.00 0.00 0.00 0.00 0.00 0.00 0.00 0.00 0.01 0.01 0.01 0.01 0.01 0.01 0.02 0.01 0.01 0.02 0.02 0.01 0.00 0.00 0.02
0.00 0.00 0.00 0.00 0.01 0.03 0.03 0.01 0.00 0.00 0.01 0.00 0.01 0.02 0.03 0.07 0.19 0.16 0.08 0.02 0.00 0.01 0.01 0.00 0.00 0.00 0.00 0.00 0.00 0.00 0.01 0.04 0.02 0.01 0.03 0.04 0.03 0.04 0.05 0.06 0.05 0.04 0.02 0.02
0.01 0.01 0.00 0.00 0.00 0.02 0.03 0.05 0.00 0.00 0.00 0.01 0.01 0.01 0.02 0.05 0.09 0.10 0.06 0.03 0.03 0.02 0.01 0.00 0.00 0.00 0.00 0.00 0.00 0.01 0.01 0.03 0.07 0.02 0.03 0.05 0.05 0.06 0.06 0.07 0.07 0.06 0.04 0.05
0.01 0.02 0.03 0.02 0.01 0.01 0.02 0.04 0.03 0.03 0.04 0.04 0.05 0.07 0.06 0.07 0.12 0.12 0.13 0.10 0.08 0.05 0.02 0.02 0.01 0.00 0.00 0.00 0.00 0.00 0.00 0.00 0.01 0.01 0.04 0.07 0.09 0.10 0.09 0.08 0.05 0.05 0.04 0.08
0.01 0.01 0.02 0.04 0.04 0.04 0.04 0.08 0.08 0.08 0.06 0.04 0.04 0.05 0.07 0.08 0.08 0.09 0.10 0.10 0.09 0.10 0.07 0.07 0.09 0.04 0.02 0.01 0.01 0.00 0.00 0.00 0.01 0.02 0.04 0.11 0.15 0.12 0.12 0.11 0.08 0.06 0.06 0.06
0.07 0.06 0.06 0.05 0.04 0.04 0.06 0.07 0.06 0.03 0.02 0.03 0.02 0.02 0.03 0.04 0.06 0.05 0.09 0.13 0.12 0.13 0.18 0.22 0.23 0.10 0.05 0.05 0.06 0.01 0.00 0.00 0.01 0.01 0.03 0.06 0.07 0.08 0.09 0.15 0.16 0.13 0.10 0.08
0.12 0.11 0.17 0.09 0.03 0.02 0.01 0.04 0.06 0.02 0.01 0.03 0.04 0.04 0.05 0.06 0.07 0.08 0.12 0.17 0.18 0.21 0.25 0.28 0.24 0.12 0.08 0.12 0.15 0.04 0.01 0.01 0.01 0.02 0.03 0.04 0.06 0.09 0.09 0.09 0.12 0.14 0.14 0.15
0.44 0.40 0.38 0.26 0.20 0.15 0.09 0.05 0.03 0.04 0.04 0.06 0.08 0.09 0.10 0.08 0.05 0.06 0.08 0.11 0.16 0.25 0.23 0.20 0.18 0.17 0.16 0.21 0.13 0.05 0.04 0.04 0.05 0.07 0.08 0.08 0.10 0.11 0.11 0.12 0.14 0.15 0.16 0.17
0.54 0.38 0.38 0.40 0.37 0.31 0.21 0.22 0.20 0.15 0.11 0.10 0.09 0.10 0.09 0.07 0.06 0.05 0.06 0.07 0.12 0.15 0.13 0.12 0.16 0.23 0.25 0.22 0.16 0.12 0.12 0.14 0.15 0.15 0.16 0.18 0.20 0.20 0.20 0.19 0.17 0.16 0.15 0.13
0.17 0.14 0.13 0.16 0.28 0.28 0.20 0.24 0.28 0.25 0.12 0.13 0.14 0.15 0.16 0.17 0.16 0.14 0.11 0.11 0.11 0.13 0.12 0.15 0.23 0.28 0.27 0.18 0.15 0.17 0.21 0.26 0.28 0.29 0.30 0.32 0.30 0.27 0.23 0.19 0.19 0.15 0.16 0.19
0.07 0.07 0.07 0.06 0.04 0.05 0.05 0.04 0.05 0.08 0.15 0.18 0.18 0.13 0.12 0.15 0.16 0.16 0.18 0.17 0.17 0.17 0.17 0.19 0.19 0.21 0.21 0.19 0.25 0.29 0.30 0.32 0.32 0.33 0.31 0.29 0.25 0.24 0.21 0.21 0.19 0.19 0.21 0.19
0.00 0.00 0.00 0.00 0.00 0.00 0.00 0.00 0.00 0.00 0.00 0.01 0.04 0.07 0.08 0.07 0.07 0.07 0.08 0.11 0.13 0.17 0.17 0.18 0.18 0.20 0.20 0.20 0.21 0.20 0.19 0.19 0.23 0.22 0.21 0.22 0.25 0.27 0.23 0.19 0.17 0.17 0.17 0.13
0.00 0.00 0.00 0.00 0.00 0.00 0.00 0.00 0.00 0.00 0.00 0.00 0.00 0.01 0.02 0.02 0.04 0.06 0.03 0.02 0.04 0.08 0.10 0.10 0.14 0.17 0.19 0.19 0.18 0.17 0.16 0.16 0.17 0.18 0.20 0.23 0.25 0.24 0.20 0.18 0.17 0.15 0.16 0.15

GFSNGP_prec_precacc_108.txt.gz
Total_Precipitation_Accumulation
0.49 0.28 0.42 0.57 0.56 0.49 0.94 0.52 0.58 0.18 0.07 0.03 0.03 0.02 0.02 0.01 0.01 0.04 0.05 0.04 0.02 0.02 0.03 0.02 0.05 0.05 0.06 0.09 0.07 0.07 0.07 0.05 0.05 0.05 0.05 0.04 0.04 0.05 0.05 0.04 0.04 0.04 0.03 0.02
0.61 0.24 0.38 0.48 0.55 0.36 0.56 0.27 0.28 0.17 0.13 0.01 0.01 0.01 0.00 0.01 0.04 0.07 0.07 0.04 0.02 0.01 0.01 0.01 0.00 0.01 0.02 0.08 0.09 0.09 0.11 0.06 0.04 0.02 0.05 0.05 0.06 0.06 0.07 0.14 0.12 0.10 0.13 0.17
0.67 0.48 0.28 0.47 0.58 0.68 0.48 0.20 0.25 0.28 0.15 0.01 0.01 0.04 0.06 0.05 0.06 0.04 0.03 0.02 0.01 0.00 0.00 0.00 0.00 0.00 0.01 0.03 0.05 0.09 0.08 0.06 0.05 0.03 0.04 0.07 0.09 0.16 0.21 0.27 0.56 0.55 0.56 0.41
0.31 0.15 0.16 0.11 0.14 0.44 0.28 0.23 0.26 0.14 0.07 0.02 0.00 0.00 0.02 0.04 0.02 0.01 0.01 0.00 0.01 0.00 0.00 0.00 0.00 0.01 0.02 0.09 0.12 0.40 0.10 0.15 0.16 0.14 0.17 0.20 0.33 0.45 0.48 0.47 0.48 0.55 0.89 0.94
0.16 0.07 0.03 0.00 0.00 0.07 0.13 0.22 0.14 0.07 0.02 0.00 0.00 0.22 0.35 0.15 0.04 0.01 0.00 0.00 0.00 0.00 0.00 0.00 0.02 0.02 0.02 0.04 0.14 0.36 0.22 0.25 0.36 0.31 0.28 0.26 0.40 0.50 0.37 0.51 0.67 0.62 0.54 0.44
0.10 0.12 0.02 0.00 0.00 0.01 0.02 0.20 0.02 0.05 0.04 0.02 0.01 0.29 0.32 0.24 0.05 0.02 0.00 0.00 0.00 0.00 0.02 0.05 0.08 0.08 0.07 0.07 0.10 0.31 0.33 0.31 0.30 0.48 0.40 0.48 0.44 0.49 0.75 0.60 0.54 0.44 0.34 0.23
0.16 0.18 0.01 0.00 0.00 0.01 0.09 0.15 0.02 0.06 0.06 0.01 0.01 0.03 0.06 0.08 0.11 0.08 0.12 0.12 0.14 0.08 0.16 0.24 0.37 0.35 0.41 0.43 0.62 0.88 0.58 0.60 0.65 0.78 0.67 0.61 0.66 0.57 0.50 0.37 0.26 0.20 0.12 0.06
0.14 0.10 0.00 0.00 0.00 0.01 0.01 0.02 0.03 0.10 0.03 0.02 0.01 0.02 0.02 0.01 0.07 0.11 0.14 0.12 0.33 0.48 0.53 0.60 0.72 0.65 0.63 0.71 0.75 0.91 0.67 0.59 0.57 0.49 0.44 0.35 0.27 0.18 0.10 0.09 0.05 0.03 0.01 0.00
0.00 0.00 0.00 0.00 0.00 0.00 0.00 0.00 0.00 0.02 0.10 0.13 0.12 0.19 0.07 0.02 0.01 0.03 0.07 0.03 0.12 0.22 0.13 0.18 0.29 0.34 0.25 0.24 0.23 0.20 0.16 0.13 0.13 0.08 0.05 0.03 0.00 0.00 0.00 0.00 0.00 0.00 0.00 0.00
0.00 0.00 0.00 0.00 0.00 0.00 0.00 0.00 0.00 0.00 0.01 0.22 0.07 0.08 0.03 0.06 0.04 0.05 0.05 0.02 0.04 0.04 0.04 0.04 0.05 0.04 0.03 0.02 0.02 0.01 0.01 0.01 0.00 0.00 0.01 0.00 0.00 0.00 0.00 0.00 0.00 0.00 0.00 0.00
0.01 0.00 0.00 0.00 0.00 0.00 0.01 0.02 0.00 0.00 0.01 0.03 0.10 0.10 0.04 0.16 0.08 0.00 0.00 0.00 0.00 0.01 0.02 0.00 0.00 0.00 0.00 0.00 0.00 0.00 0.00 0.00 0.00 0.00 0.01 0.00 0.00 0.00 0.00 0.00 0.00 0.00 0.00 0.01
0.03 0.01 0.02 0.02 0.01 0.00 0.00 0.01 0.01 0.02 0.01 0.02 0.02 0.13 0.01 0.06 0.03 0.00 0.00 0.00 0.00 0.00 0.01 0.00 0.00 0.00 0.00 0.00 0.00 0.00 0.00 0.00 0.00 0.00 0.00 0.00 0.00 0.01 0.01 0.01 0.01 0.00 0.00 0.01
0.00 0.00 0.01 0.01 0.01 0.01 0.00 0.00 0.00 0.00 0.01 0.01 0.00 0.01 0.02 0.11 0.02 0.00 0.00 0.00 0.00 0.00 0.00 0.00 0.00 0.00 0.00 0.00 0.00 0.00 0.00 0.00 0.00 0.00 0.00 0.00 0.01 0.01 0.01 0.02 0.03 0.02 0.02 0.02
0.00 0.00 0.00 0.00 0.00 0.00 0.00 0.00 0.03 0.02 0.01 0.01 0.02 0.07 0.09 0.26 0.26 0.08 0.07 0.00 0.00 0.00 0.00 0.00 0.00 0.00 0.00 0.00 0.00 0.00 0.00 0.02 0.00 0.00 0.00 0.00 0.01 0.01 0.02 0.01 0.01 0.01 0.01 0.03
0.00 0.00 0.00 0.00 0.00 0.02 0.01 0.00 0.00 0.01 0.02 0.01 0.00 0.00 0.03 0.06 0.27 0.17 0.04 0.01 0.00 0.00 0.00 0.00 0.00 0.00 0.00 0.00 0.00 0.01 0.01 0.01 0.01 0.01 0.01 0.02 0.01 0.01 0.02 0.02 0.01 0.00 0.00 0.02
0.00 0.00 0.00 0.00 0.01 0.03 0.03 0.01 0.00 0.00 0.01 0.00 0.01 0.02 0.03 0.07 0.19 0.16 0.08 0.04 0.02 0.03 0.02 0.00 0.00 0.00 0.00 0.00 0.00 0.00 0.01 0.05 0.03 0.01 0.03 0.04 0.04 0.04 0.05 0.06 0.05 0.04 0.03 0.02
0.01 0.01 0.00 0.00 0.00 0.02 0.03 0.05 0.00 0.00 0.01 0.01 0.01 0.01 0.02 0.06 0.11 0.13 0.07 0.04 0.03 0.02 0.01 0.00 0.00 0.00 0.00 0.00 0.00 0.01 0.01 0.03 0.07 0.02 0.03 0.05 0.06 0.07 0.07 0.08 0.09 0.08 0.05 0.07
0.01 0.02 0.03 0.02 0.01 0.01 0.02 0.05 0.03 0.03 0.04 0.05 0.05 0.07 0.07 0.08 0.15 0.14 0.14 0.10 0.08 0.05 0.02 0.02 0.01 0.00 0.00 0.00 0.00 0.00 0.00 0.00 0.01 0.01 0.05 0.07 0.10 0.11 0.10 0.10 0.07 0.06 0.04 0.09
0.01 0.01 0.02 0.04 0.04 0.04 0.05 0.08 0.09 0.08 0.06 0.04 0.04 0.06 0.07 0.08 0.09 0.09 0.11 0.10 0.09 0.10 0.07 0.07 0.09 0.04 0.02 0.01 0.01 0.00 0.00 0.00 0.01 0.02 0.04 0.11 0.16 0.13 0.13 0.13 0.10 0.08 0.08 0.07
0.07 0.06 0.06 0.05 0.04 0.04 0.06 0.07 0.06 0.03 0.02 0.03 0.02 0.02 0.03 0.04 0.06 0.05 0.09 0.13 0.12 0.13 0.18 0.22 0.23 0.10 0.05 0.05 0.06 0.01 0.00 0.00 0.01 0.01 0.03 0.06 0.07 0.08 0.09 0.15 0.16 0.13 0.10 0.08
0.12 0.11 0.17 0.09 0.03 0.02 0.01 0.04 0.06 0.02 0.01 0.03 0.04 0.04 0.05 0.06 0.07 0.08 0.12 0.17 0.18 0.21 0.25 0.28 0.24 0.12 0.08 0.12 0.15 0.04 0.01 0.01 0.01 0.02 0.03 0.04 0.06 0.09 0.09 0.09 0.12 0.14 0.14 0.15
0.44 0.40 0.38 0.26 0.20 0.15 0.09 0.05 0.03 0.04 0.04 0.06 0.08 0.09 0.10 0.08 0.05 0.06 0.08 0.11 0.16 0.25 0.23 0.20 0.18 0.17 0.16 0.21 0.13 0.05 0.04 0.04 0.05 0.07 0.08 0.08 0.10 0.11 0.11 0.12 0.14 0.15 0.16 0.17
0.54 0.38 0.38 0.40 0.37 0.31 0.21 0.22 0.20 0.15 0.11 0.10 0.09 0.10 0.09 0.07 0.06 0.05 0.06 0.07 0.12 0.15 0.13 0.12 0.16 0.23 0.25 0.22 0.16 0.12 0.12 0.14 0.15 0.15 0.16 0.18 0.20 0.20 0.20 0.19 0.17 0.16 0.15 0.13
0.17 0.14 0.13 0.16 0.28 0.28 0.21 0.24 0.28 0.25 0.12 0.13 0.14 0.15 0.16 0.17 0.16 0.14 0.11 0.11 0.11 0.13 0.12 0.15 0.23 0.28 0.27 0.18 0.15 0.17 0.21 0.26 0.28 0.29 0.30 0.32 0.30 0.27 0.23 0.19 0.19 0.15 0.16 0.19
0.07 0.07 0.07 0.06 0.04 0.05 0.05 0.04 0.05 0.08 0.15 0.18 0.18 0.13 0.12 0.15 0.16 0.16 0.18 0.17 0.17 0.17 0.17 0.19 0.19 0.21 0.21 0.19 0.25 0.29 0.30 0.32 0.32 0.33 0.31 0.29 0.25 0.24 0.21 0.21 0.19 0.19 0.21 0.19
0.00 0.00 0.00 0.00 0.00 0.00 0.00 0.00 0.00 0.00 0.00 0.01 0.04 0.07 0.08 0.07 0.07 0.07 0.08 0.11 0.13 0.17 0.17 0.18 0.18 0.20 0.20 0.20 0.21 0.20 0.19 0.19 0.23 0.22 0.21 0.22 0.25 0.27 0.23 0.19 0.17 0.17 0.17 0.13
0.00 0.00 0.00 0.00 0.00 0.00 0.00 0.00 0.00 0.00 0.00 0.00 0.00 0.01 0.02 0.02 0.04 0.06 0.03 0.02 0.04 0.08 0.10 0.10 0.14 0.17 0.19 0.19 0.18 0.17 0.16 0.16 0.17 0.18 0.20 0.23 0.25 0.24 0.20 0.18 0.17 0.15 0.16 0.15

GFSNGP_prec_precacc_114.txt.gz
Total_Precipitation_Accumulation
0.49 0.28 0.42 0.57 0.56 0.49 0.94 0.52 0.58 0.18 0.07 0.03 0.03 0.02 0.02 0.01 0.01 0.04 0.05 0.04 0.02 0.02 0.03 0.02 0.05 0.05 0.06 0.09 0.08 0.09 0.10 0.08 0.07 0.07 0.07 0.07 0.07 0.07 0.05 0.04 0.04 0.04 0.03 0.02
0.61 0.24 0.38 0.48 0.55 0.36 0.56 0.27 0.28 0.17 0.13 0.01 0.01 0.01 0.00 0.01 0.04 0.07 0.07 0.04 0.02 0.01 0.01 0.01 0.00 0.01 0.02 0.08 0.09 0.10 0.12 0.08 0.04 0.02 0.05 0.05 0.07 0.07 0.07 0.14 0.12 0.10 0.13 0.17
0.67 0.48 0.28 0.47 0.58 0.68 0.48 0.20 0.25 0.28 0.15 0.01 0.01 0.04 0.06 0.05 0.06 0.04 0.03 0.02 0.01 0.00 0.00 0.00 0.00 0.00 0.01 0.03 0.05 0.09 0.08 0.06 0.05 0.03 0.04 0.07 0.10 0.16 0.21 0.27 0.56 0.55 0.56 0.41
0.31 0.15 0.16 0.11 0.14 0.44 0.28 0.23 0.26 0.14 0.07 0.02 0.00 0.00 0.02 0.04 0.02 0.01 0.01 0.00 0.01 0.00 0.00 0.00 0.00 0.01 0.02 0.09 0.12 0.40 0.11 0.15 0.16 0.14 0.17 0.20 0.33 0.45 0.48 0.47 0.48 0.55 0.89 0.94
0.16 0.07 0.03 0.00 0.00 0.07 0.13 0.22 0.14 0.07 0.02 0.00 0.00 0.22 0.35 0.15 0.04 0.01 0.00 0.00 0.00 0.00 0.00 0.00 0.02 0.02 0.02 0.04 0.14 0.36 0.22 0.25 0.36 0.31 0.28 0.26 0.40 0.50 0.37 0.51 0.67 0.62 0.54 0.44
0.10 0.12 0.02 0.00 0.00 0.01 0.02 0.20 0.02 0.05 0.04 0.02 0.01 0.29 0.32 0.24 0.05 0.02 0.00 0.00 0.00 0.00 0.02 0.05 0.08 0.08 0.07 0.07 0.10 0.31 0.33 0.31 0.30 0.48 0.40 0.48 0.44 0.49 0.75 0.60 0.54 0.44 0.34 0.23
0.16 0.18 0.01 0.00 0.00 0.01 0.09 0.15 0.02 0.06 0.06 0.01 0.01 0.03 0.06 0.08 0.11 0.08 0.12 0.12 0.14 0.08 0.16 0.24 0.37 0.35 0.41 0.43 0.62 0.88 0.58 0.60 0.65 0.78 0.67 0.61 0.66 0.57 0.50 0.37 0.26 0.20 0.12 0.06
0.14 0.10 0.00 0.00 0.00 0.01 0.01 0.02 0.03 0.10 0.03 0.02 0.01 0.02 0.02 0.01 0.07 0.11 0.14 0.12 0.33 0.48 0.53 0.60 0.72 0.65 0.63 0.71 0.75 0.91 0.67 0.59 0.57 0.49 0.44 0.35 0.27 0.18 0.10 0.09 0.05 0.03 0.01 0.00
0.00 0.00 0.00 0.00 0.00 0.00 0.00 0.00 0.00 0.02 0.10 0.13 0.12 0.19 0.07 0.02 0.01 0.03 0.07 0.03 0.12 0.22 0.13 0.18 0.29 0.34 0.25 0.24 0.23 0.20 0.16 0.13 0.13 0.08 0.05 0.03 0.00 0.00 0.00 0.00 0.00 0.00 0.00 0.00
0.00 0.00 0.00 0.00 0.00 0.00 0.00 0.00 0.00 0.00 0.01 0.22 0.07 0.08 0.03 0.06 0.04 0.05 0.05 0.02 0.04 0.04 0.04 0.04 0.05 0.04 0.03 0.02 0.02 0.01 0.02 0.01 0.00 0.00 0.01 0.00 0.00 0.00 0.00 0.00 0.00 0.00 0.00 0.00
0.01 0.00 0.00 0.00 0.00 0.00 0.01 0.02 0.00 0.00 0.01 0.03 0.10 0.10 0.04 0.16 0.08 0.00 0.00 0.00 0.00 0.01 0.02 0.00 0.00 0.00 0.00 0.01 0.03 0.05 0.05 0.07 0.09 0.08 0.06 0.02 0.01 0.01 0.00 0.00 0.00 0.00 0.00 0.01
0.03 0.01 0.02 0.02 0.01 0.00 0.00 0.01 0.01 0.02 0.01 0.02 0.02 0.13 0.02 0.06 0.03 0.00 0.00 0.00 0.00 0.00 0.01 0.00 0.00 0.00 0.00 0.00 0.00 0.00 0.01 0.01 0.03 0.08 0.15 0.19 0.16 0.12 0.10 0.06 0.04 0.02 0.02 0.02
0.00 0.00 0.01 0.01 0.01 0.01 0.00 0.00 0.00 0.00 0.01 0.01 0.00 0.01 0.02 0.11 0.02 0.00 0.00 0.00 0.00 0.00 0.00 0.00 0.00 0.00 0.00 0.00 0.00 0.00 0.00 0.00 0.00 0.01 0.00 0.01 0.03 0.05 0.07 0.07 0.07 0.04 0.02 0.03
0.00 0.00 0.00 0.00 0.00 0.00 0.00 0.00 0.03 0.02 0.01 0.01 0.02 0.07 0.09 0.26 0.26 0.08 0.07 0.00 0.00 0.00 0.01 0.00 0.01 0.01 0.02 0.01 0.00 0.00 0.00 0.02 0.00 0.00 0.00 0.00 0.01 0.01 0.02 0.01 0.01 0.01 0.01 0.03
0.00 0.00 0.00 0.00 0.00 0.02 0.01 0.00 0.00 0.01 0.02 0.01 0.00 0.00 0.03 0.06 0.27 0.17 0.04 0.01 0.00 0.00 0.00 0.00 0.00 0.00 0.00 0.01 0.01 0.01 0.01 0.01 0.01 0.01 0.01 0.02 0.01 0.01 0.02 0.02 0.01 0.00 0.00 0.03
0.00 0.00 0.00 0.00 0.01 0.03 0.03 0.01 0.00 0.00 0.01 0.00 0.01 0.02 0.03 0.07 0.19 0.16 0.08 0.04 0.02 0.03 0.03 0.02 0.01 0.01 0.02 0.02 0.01 0.01 0.02 0.05 0.03 0.01 0.03 0.04 0.04 0.04 0.05 0.06 0.06 0.04 0.03 0.03
0.01 0.01 0.00 0.00 0.00 0.02 0.03 0.05 0.00 0.00 0.01 0.01 0.01 0.01 0.02 0.06 0.11 0.13 0.08 0.04 0.03 0.02 0.01 0.00 0.00 0.00 0.00 0.00 0.01 0.01 0.01 0.03 0.07 0.02 0.03 0.05 0.06 0.07 0.08 0.09 0.10 0.10 0.07 0.13
0.01 0.02 0.03 0.02 0.01 0.01 0.02 0.05 0.03 0.03 0.04 0.05 0.05 0.07 0.07 0.08 0.15 0.14 0.14 0.10 0.08 0.05 0.02 0.02 0.01 0.00 0.00 0.00 0.00 0.00 0.00 0.00 0.01 0.01 0.05 0.07 0.10 0.11 0.11 0.11 0.09 0.09 0.08 0.16
0.01 0.01 0.02 0.04 0.04 0.04 0.05 0.08 0.09 0.08 0.06 0.04 0.04 0.06 0.07 0.08 0.09 0.09 0.11 0.10 0.09 0.10 0.07 0.07 0.09 0.04 0.02 0.01 0.01 0.00 0.00 0.00 0.01 0.02 0.04 0.11 0.16 0.13 0.13 0.13 0.10 0.09 0.09 0.10
0.07 0.06 0.06 0.05 0.04 0.04 0.06 0.07 0.06 0.03 0.02 0.03 0.02 0.02 0.03 0.04 0.06 0.05 0.09 0.13 0.12 0.13 0.18 0.22 0.23 0.10 0.05 0.05 0.06 0.01 0.00 0.00 0.01 0.01 0.03 0.06 0.07 0.08 0.09 0.15 0.16 0.13 0.10 0.08
0.12 0.11 0.17 0.09 0.03 0.02 0.01 0.04 0.06 0.02 0.01 0.03 0.04 0.04 0.05 0.06 0.07 0.08 0.12 0.17 0.18 0.21 0.25 0.28 0.24 0.12 0.08 0.12 0.15 0.04 0.01 0.01 0.01 0.02 0.03 0.04 0.06 0.09 0.09 0.09 0.12 0.14 0.14 0.15
0.44 0.40 0.38 0.26 0.20 0.15 0.09 0.05 0.03 0.04 0.04 0.06 0.08 0.09 0.10 0.08 0.05 0.06 0.08 0.11 0.16 0.25 0.23 0.20 0.18 0.17 0.16 0.21 0.13 0.05 0.04 0.04 0.05 0.07 0.08 0.08 0.10 0.11 0.11 0.12 0.14 0.15 0.16 0.17
0.54 0.38 0.38 0.40 0.37 0.31 0.21 0.22 0.20 0.15 0.11 0.10 0.09 0.10 0.09 0.07 0.06 0.05 0.06 0.07 0.12 0.15 0.13 0.12 0.16 0.23 0.25 0.22 0.16 0.12 0.12 0.14 0.15 0.15 0.16 0.18 0.20 0.20 0.21 0.19 0.17 0.16 0.15 0.13
0.17 0.14 0.13 0.16 0.28 0.28 0.21 0.24 0.28 0.25 0.12 0.13 0.14 0.15 0.16 0.17 0.16 0.14 0.11 0.11 0.11 0.13 0.12 0.15 0.23 0.28 0.27 0.18 0.15 0.17 0.21 0.26 0.28 0.29 0.30 0.32 0.30 0.27 0.23 0.19 0.19 0.15 0.16 0.19
0.07 0.07 0.07 0.06 0.04 0.05 0.05 0.04 0.05 0.08 0.15 0.18 0.18 0.13 0.12 0.15 0.17 0.16 0.18 0.17 0.17 0.17 0.17 0.19 0.19 0.21 0.21 0.19 0.25 0.29 0.30 0.32 0.32 0.33 0.31 0.29 0.25 0.24 0.21 0.21 0.19 0.19 0.21 0.19
0.00 0.00 0.00 0.00 0.00 0.00 0.00 0.00 0.00 0.00 0.00 0.01 0.04 0.07 0.08 0.07 0.07 0.07 0.08 0.11 0.13 0.17 0.17 0.18 0.18 0.20 0.20 0.20 0.21 0.20 0.19 0.19 0.23 0.22 0.21 0.22 0.25 0.27 0.23 0.19 0.17 0.17 0.17 0.13
0.00 0.00 0.00 0.00 0.00 0.00 0.00 0.00 0.00 0.00 0.00 0.00 0.00 0.01 0.02 0.02 0.04 0.06 0.03 0.02 0.04 0.08 0.10 0.10 0.14 0.17 0.19 0.19 0.18 0.17 0.16 0.16 0.17 0.18 0.20 0.23 0.25 0.24 0.20 0.18 0.17 0.15 0.16 0.15

GFSNGP_prec_precacc_120.txt.gz
Total_Precipitation_Accumulation
0.49 0.29 0.42 0.57 0.56 0.49 0.94 0.52 0.60 0.22 0.08 0.03 0.03 0.02 0.02 0.01 0.03 0.12 0.19 0.19 0.18 0.12 0.08 0.07 0.12 0.10 0.11 0.12 0.10 0.11 0.12 0.11 0.11 0.10 0.11 0.14 0.15 0.16 0.14 0.12 0.10 0.08 0.06 0.05
0.61 0.24 0.38 0.48 0.55 0.36 0.56 0.29 0.29 0.18 0.14 0.01 0.01 0.01 0.00 0.01 0.04 0.07 0.08 0.07 0.07 0.08 0.06 0.04 0.05 0.06 0.05 0.10 0.11 0.11 0.13 0.10 0.07 0.05 0.08 0.09 0.11 0.13 0.13 0.20 0.18 0.16 0.16 0.19
0.67 0.48 0.28 0.47 0.58 0.69 0.49 0.21 0.25 0.28 0.15 0.01 0.01 0.04 0.06 0.05 0.06 0.04 0.03 0.02 0.02 0.01 0.01 0.01 0.01 0.01 0.02 0.05 0.06 0.11 0.10 0.08 0.07 0.05 0.07 0.10 0.13 0.19 0.25 0.33 0.62 0.62 0.61 0.42
0.31 0.15 0.16 0.11 0.14 0.44 0.28 0.23 0.26 0.14 0.07 0.02 0.00 0.00 0.02 0.04 0.02 0.01 0.01 0.00 0.01 0.00 0.00 0.00 0.00 0.01 0.02 0.09 0.13 0.41 0.13 0.20 0.23 0.18 0.20 0.22 0.35 0.47 0.50 0.48 0.49 0.58 0.91 0.95
0.16 0.07 0.03 0.00 0.00 0.07 0.14 0.23 0.14 0.07 0.02 0.00 0.00 0.22 0.35 0.15 0.04 0.01 0.00 0.00 0.00 0.00 0.00 0.00 0.02 0.02 0.02 0.04 0.14 0.36 0.22 0.25 0.38 0.34 0.31 0.28 0.41 0.51 0.38 0.52 0.68 0.62 0.54 0.44
0.10 0.12 0.02 0.00 0.00 0.01 0.02 0.21 0.02 0.05 0.04 0.02 0.01 0.29 0.32 0.24 0.05 0.02 0.00 0.00 0.00 0.00 0.02 0.05 0.08 0.08 0.07 0.07 0.10 0.31 0.33 0.31 0.31 0.49 0.41 0.50 0.46 0.51 0.76 0.60 0.55 0.44 0.34 0.23
0.16 0.18 0.01 0.00 0.00 0.01 0.10 0.16 0.02 0.06 0.06 0.01 0.01 0.03 0.06 0.08 0.11 0.08 0.12 0.12 0.14 0.08 0.16 0.24 0.37 0.35 0.41 0.43 0.62 0.88 0.58 0.60 0.65 0.78 0.67 0.61 0.66 0.57 0.50 0.37 0.26 0.20 0.12 0.06
0.14 0.10 0.00 0.00 0.00 0.01 0.01 0.02 0.03 0.10 0.03 0.02 0.01 0.02 0.02 0.01 0.07 0.11 0.14 0.12 0.33 0.48 0.53 0.60 0.72 0.65 0.63 0.71 0.75 0.91 0.67 0.59 0.57 0.49 0.44 0.35 0.27 0.18 0.10 0.09 0.05 0.03 0.01 0.00
0.00 0.00 0.00 0.00 0.00 0.00 0.00 0.00 0.00 0.02 0.10 0.13 0.12 0.19 0.07 0.02 0.01 0.03 0.07 0.03 0.12 0.22 0.13 0.18 0.29 0.34 0.25 0.24 0.23 0.20 0.16 0.13 0.13 0.08 0.05 0.03 0.00 0.00 0.00 0.00 0.00 0.00 0.00 0.00
0.00 0.00 0.00 0.00 0.00 0.00 0.00 0.00 0.00 0.00 0.01 0.22 0.07 0.08 0.03 0.06 0.04 0.05 0.05 0.02 0.04 0.04 0.04 0.04 0.05 0.04 0.03 0.02 0.02 0.02 0.02 0.02 0.00 0.00 0.01 0.00 0.00 0.00 0.00 0.00 0.00 0.00 0.00 0.00
0.01 0.00 0.00 0.00 0.00 0.00 0.01 0.02 0.00 0.00 0.01 0.03 0.10 0.10 0.04 0.16 0.08 0.00 0.00 0.00 0.00 0.01 0.02 0.00 0.00 0.00 0.00 0.01 0.03 0.06 0.09 0.13 0.16 0.14 0.12 0.06 0.03 0.03 0.02 0.01 0.02 0.01 0.01 0.01
0.03 0.01 0.02 0.02 0.01 0.00 0.00 0.01 0.01 0.02 0.01 0.02 0.02 0.13 0.02 0.06 0.03 0.00 0.00 0.00 0.00 0.00 0.01 0.00 0.00 0.00 0.00 0.00 0.00 0.00 0.01 0.01 0.04 0.11 0.23 0.32 0.35 0.38 0.39 0.35 0.34 0.27 0.22 0.18
0.00 0.00 0.01 0.01 0.01 0.01 0.00 0.00 0.00 0.00 0.01 0.01 0.00 0.01 0.02 0.11 0.02 0.00 0.00 0.00 0.00 0.00 0.00 0.00 0.00 0.00 0.00 0.00 0.00 0.00 0.00 0.00 0.00 0.01 0.00 0.01 0.03 0.07 0.13 0.20 0.26 0.31 0.37 0.41
0.00 0.00 0.00 0.00 0.00 0.00 0.00 0.00 0.03 0.02 0.01 0.01 0.02 0.07 0.09 0.26 0.26 0.08 0.07 0.00 0.00 0.00 0.01 0.00 0.01 0.01 0.02 0.01 0.00 0.00 0.00 0.02 0.00 0.00 0.00 0.00 0.01 0.01 0.02 0.01 0.02 0.04 0.08 0.13
0.00 0.00 0.00 0.00 0.00 0.02 0.01 0.00 0.00 0.01 0.02 0.01 0.00 0.00 0.03 0.06 0.27 0.17 0.04 0.01 0.00 0.00 0.00 0.00 0.00 0.00 0.00 0.01 0.01 0.01 0.01 0.01 0.01 0.01 0.01 0.02 0.01 0.01 0.02 0.02 0.01 0.00 0.00 0.03
0.00 0.00 0.00 0.00 0.01 0.03 0.03 0.01 0.00 0.00 0.01 0.00 0.01 0.02 0.03 0.07 0.19 0.16 0.08 0.04 0.02 0.03 0.03 0.02 0.01 0.01 0.02 0.02 0.01 0.01 0.02 0.05 0.03 0.01 0.03 0.04 0.04 0.04 0.05 0.06 0.06 0.04 0.03 0.03
0.01 0.01 0.00 0.00 0.00 0.02 0.03 0.05 0.00 0.00 0.01 0.01 0.01 0.01 0.02 0.06 0.11 0.13 0.08 0.04 0.03 0.02 0.01 0.00 0.00 0.00 0.00 0.00 0.01 0.01 0.01 0.03 0.07 0.02 0.03 0.05 0.06 0.07 0.08 0.09 0.10 0.10 0.08 0.16
0.01 0.02 0.03 0.02 0.01 0.01 0.02 0.05 0.03 0.03 0.04 0.05 0.05 0.07 0.07 0.08 0.15 0.14 0.14 0.10 0.08 0.05 0.02 0.02 0.01 0.00 0.00 0.00 0.00 0.00 0.00 0.00 0.01 0.01 0.05 0.07 0.10 0.11 0.11 0.11 0.09 0.10 0.09 0.17
0.01 0.01 0.02 0.04 0.04 0.04 0.05 0.08 0.09 0.08 0.06 0.04 0.04 0.06 0.07 0.08 0.09 0.09 0.11 0.10 0.09 0.10 0.07 0.07 0.09 0.04 0.02 0.01 0.01 0.00 0.00 0.00 0.01 0.02 0.04 0.11 0.16 0.13 0.13 0.13 0.10 0.09 0.09 0.10
0.07 0.06 0.06 0.05 0.04 0.04 0.06 0.07 0.06 0.03 0.02 0.03 0.02 0.02 0.03 0.04 0.06 0.05 0.09 0.13 0.12 0.13 0.18 0.22 0.23 0.10 0.05 0.05 0.06 0.01 0.00 0.00 0.01 0.01 0.03 0.06 0.07 0.08 0.09 0.15 0.16 0.13 0.10 0.08
0.12 0.11 0.17 0.09 0.03 0.02 0.01 0.04 0.06 0.02 0.01 0.03 0.04 0.04 0.05 0.06 0.07 0.08 0.12 0.17 0.18 0.21 0.25 0.28 0.24 0.12 0.08 0.12 0.15 0.04 0.01 0.01 0.01 0.02 0.03 0.04 0.06 0.09 0.09 0.09 0.12 0.14 0.14 0.15
0.44 0.40 0.38 0.26 0.20 0.15 0.09 0.05 0.03 0.04 0.04 0.06 0.08 0.09 0.10 0.08 0.05 0.06 0.08 0.11 0.16 0.25 0.23 0.20 0.18 0.17 0.16 0.21 0.13 0.05 0.04 0.04 0.05 0.07 0.08 0.08 0.10 0.11 0.11 0.12 0.14 0.15 0.16 0.17
0.54 0.38 0.38 0.40 0.37 0.31 0.21 0.22 0.20 0.15 0.11 0.10 0.09 0.10 0.09 0.07 0.06 0.05 0.06 0.07 0.12 0.15 0.13 0.12 0.16 0.23 0.25 0.22 0.16 0.12 0.12 0.14 0.15 0.15 0.16 0.18 0.20 0.20 0.21 0.19 0.17 0.16 0.15 0.13
0.17 0.14 0.13 0.16 0.28 0.28 0.21 0.24 0.28 0.25 0.12 0.13 0.14 0.15 0.16 0.17 0.16 0.14 0.11 0.11 0.11 0.13 0.12 0.15 0.23 0.28 0.27 0.18 0.15 0.17 0.21 0.26 0.28 0.29 0.30 0.32 0.30 0.27 0.23 0.19 0.19 0.15 0.16 0.19
0.07 0.07 0.07 0.06 0.04 0.05 0.05 0.04 0.05 0.08 0.15 0.18 0.18 0.13 0.12 0.15 0.17 0.16 0.18 0.17 0.17 0.18 0.17 0.19 0.19 0.21 0.21 0.19 0.25 0.29 0.30 0.32 0.32 0.33 0.31 0.29 0.25 0.24 0.21 0.21 0.19 0.19 0.21 0.19
0.00 0.00 0.00 0.00 0.00 0.00 0.00 0.00 0.00 0.00 0.00 0.01 0.04 0.07 0.08 0.07 0.07 0.07 0.08 0.11 0.13 0.17 0.17 0.18 0.18 0.20 0.20 0.20 0.21 0.20 0.19 0.19 0.23 0.22 0.21 0.22 0.25 0.27 0.23 0.19 0.17 0.17 0.17 0.13
0.00 0.00 0.00 0.00 0.00 0.00 0.00 0.00 0.00 0.00 0.00 0.00 0.00 0.01 0.02 0.02 0.04 0.06 0.03 0.02 0.04 0.08 0.10 0.10 0.14 0.17 0.19 0.19 0.18 0.17 0.16 0.16 0.17 0.18 0.20 0.23 0.25 0.24 0.20 0.18 0.17 0.15 0.16 0.15

GFSNGP_prec_precacc_123.txt.gz
Total_Precipitation_Accumulation
0.49 0.29 0.42 0.57 0.57 0.49 0.94 0.52 0.62 0.24 0.08 0.03 0.03 0.03 0.07 0.16 0.40 0.62 0.54 0.61 0.53 0.34 0.25 0.18 0.19 0.13 0.12 0.14 0.13 0.16 0.22 0.21 0.16 0.12 0.13 0.16 0.16 0.17 0.17 0.15 0.14 0.18 0.19 0.20
0.61 0.24 0.38 0.48 0.55 0.36 0.57 0.29 0.29 0.18 0.14 0.01 0.01 0.01 0.01 0.05 0.15 0.32 0.41 0.35 0.13 0.11 0.10 0.08 0.08 0.09 0.07 0.14 0.11 0.13 0.18 0.14 0.08 0.09 0.12 0.13 0.14 0.14 0.15 0.21 0.19 0.16 0.17 0.21
0.67 0.48 0.28 0.47 0.58 0.69 0.49 0.21 0.25 0.28 0.15 0.01 0.01 0.04 0.06 0.06 0.07 0.07 0.11 0.13 0.09 0.07 0.07 0.07 0.05 0.05 0.05 0.06 0.07 0.11 0.10 0.08 0.08 0.07 0.09 0.12 0.15 0.20 0.29 0.39 0.71 0.68 0.69 0.52
0.31 0.15 0.16 0.11 0.14 0.44 0.28 0.23 0.26 0.14 0.07 0.02 0.00 0.00 0.02 0.04 0.02 0.01 0.01 0.01 0.02 0.02 0.03 0.06 0.04 0.03 0.04 0.10 0.13 0.41 0.13 0.20 0.23 0.19 0.20 0.22 0.35 0.47 0.51 0.49 0.51 0.61 0.99 1.13
0.16 0.07 0.03 0.00 0.00 0.07 0.14 0.23 0.14 0.07 0.02 0.00 0.00 0.22 0.35 0.15 0.04 0.01 0.00 0.00 0.00 0.00 0.00 0.00 0.02 0.02 0.02 0.04 0.14 0.36 0.22 0.25 0.38 0.35 0.32 0.28 0.42 0.51 0.39 0.52 0.69 0.63 0.56 0.48
0.10 0.12 0.02 0.00 0.00 0.01 0.02 0.21 0.02 0.05 0.04 0.02 0.01 0.29 0.32 0.24 0.05 0.02 0.00 0.00 0.00 0.00 0.02 0.05 0.08 0.08 0.07 0.07 0.10 0.31 0.33 0.31 0.31 0.49 0.41 0.51 0.47 0.51 0.76 0.60 0.55 0.45 0.35 0.24
0.16 0.18 0.01 0.00 0.00 0.01 0.10 0.16 0.02 0.06 0.06 0.01 0.01 0.03 0.06 0.08 0.11 0.08 0.12 0.12 0.14 0.08 0.16 0.24 0.37 0.35 0.41 0.43 0.62 0.88 0.58 0.60 0.65 0.78 0.67 0.62 0.67 0.58 0.50 0.37 0.27 0.20 0.13 0.07
0.14 0.10 0.00 0.00 0.00 0.01 0.01 0.02 0.03 0.10 0.03 0.02 0.01 0.02 0.02 0.01 0.07 0.11 0.14 0.12 0.33 0.48 0.53 0.60 0.72 0.65 0.63 0.71 0.75 0.91 0.67 0.59 0.57 0.49 0.44 0.35 0.27 0.18 0.10 0.09 0.06 0.04 0.02 0.01
0.00 0.00 0.00 0.00 0.00 0.00 0.00 0.00 0.00 0.02 0.10 0.13 0.12 0.19 0.07 0.02 0.01 0.03 0.07 0.03 0.12 0.22 0.13 0.18 0.29 0.34 0.25 0.24 0.23 0.20 0.16 0.13 0.13 0.08 0.05 0.03 0.00 0.00 0.00 0.00 0.00 0.00 0.00 0.00
0.00 0.00 0.00 0.00 0.00 0.00 0.00 0.00 0.00 0.00 0.01 0.22 0.07 0.08 0.03 0.06 0.04 0.05 0.05 0.02 0.04 0.04 0.04 0.04 0.05 0.04 0.03 0.02 0.02 0.02 0.02 0.02 0.00 0.00 0.01 0.00 0.00 0.00 0.00 0.00 0.00 0.00 0.00 0.00
0.01 0.00 0.00 0.00 0.00 0.00 0.01 0.02 0.00 0.00 0.01 0.03 0.10 0.10 0.04 0.16 0.08 0.00 0.00 0.00 0.00 0.01 0.02 0.00 0.00 0.00 0.00 0.01 0.03 0.06 0.09 0.13 0.16 0.14 0.12 0.06 0.03 0.03 0.02 0.01 0.02 0.01 0.01 0.02
0.03 0.01 0.02 0.02 0.01 0.00 0.00 0.01 0.01 0.02 0.01 0.02 0.02 0.13 0.02 0.06 0.03 0.00 0.00 0.00 0.00 0.00 0.01 0.00 0.00 0.00 0.00 0.00 0.00 0.00 0.01 0.01 0.04 0.11 0.23 0.32 0.35 0.38 0.40 0.38 0.37 0.29 0.25 0.22
0.00 0.00 0.01 0.01 0.01 0.01 0.00 0.00 0.00 0.00 0.01 0.01 0.00 0.01 0.02 0.11 0.02 0.00 0.00 0.00 0.00 0.00 0.00 0.00 0.00 0.00 0.00 0.00 0.00 0.00 0.00 0.00 0.00 0.01 0.00 0.01 0.03 0.07 0.13 0.20 0.27 0.32 0.39 0.45
0.00 0.00 0.00 0.00 0.00 0.00 0.00 0.00 0.03 0.02 0.01 0.01 0.02 0.07 0.09 0.26 0.26 0.08 0.07 0.00 0.00 0.00 0.01 0.00 0.01 0.01 0.02 0.01 0.00 0.00 0.00 0.02 0.00 0.00 0.00 0.00 0.01 0.01 0.02 0.01 0.02 0.04 0.08 0.14
0.00 0.00 0.00 0.00 0.00 0.02 0.01 0.00 0.00 0.01 0.02 0.01 0.00 0.00 0.03 0.06 0.27 0.17 0.04 0.01 0.00 0.00 0.00 0.00 0.00 0.00 0.00 0.01 0.01 0.01 0.01 0.01 0.01 0.01 0.01 0.02 0.01 0.01 0.02 0.02 0.01 0.00 0.00 0.03
0.00 0.00 0.00 0.00 0.01 0.03 0.03 0.01 0.00 0.00 0.01 0.00 0.01 0.02 0.03 0.07 0.19 0.16 0.08 0.04 0.02 0.03 0.03 0.02 0.01 0.01 0.02 0.02 0.01 0.01 0.02 0.05 0.03 0.01 0.03 0.04 0.04 0.04 0.05 0.06 0.06 0.04 0.03 0.03
0.01 0.01 0.00 0.00 0.00 0.02 0.03 0.05 0.00 0.00 0.01 0.01 0.01 0.01 0.02 0.06 0.11 0.13 0.08 0.04 0.03 0.02 0.01 0.00 0.00 0.00 0.00 0.00 0.01 0.01 0.01 0.03 0.07 0.02 0.03 0.05 0.06 0.07 0.08 0.09 0.10 0.10 0.08 0.16
0.01 0.02 0.03 0.02 0.01 0.01 0.02 0.05 0.03 0.03 0.04 0.05 0.05 0.07 0.07 0.08 0.15 0.14 0.14 0.10 0.08 0.05 0.02 0.02 0.01 0.00 0.00 0.00 0.00 0.00 0.00 0.00 0.01 0.01 0.05 0.07 0.10 0.11 0.11 0.11 0.09 0.10 0.09 0.17
0.01 0.01 0.02 0.04 0.04 0.04 0.05 0.08 0.09 0.08 0.06 0.04 0.04 0.06 0.07 0.08 0.09 0.09 0.11 0.10 0.09 0.10 0.07 0.07 0.09 0.04 0.02 0.01 0.01 0.00 0.00 0.00 0.01 0.02 0.04 0.11 0.16 0.13 0.13 0.13 0.10 0.09 0.09 0.10
0.07 0.06 0.06 0.05 0.04 0.04 0.06 0.07 0.06 0.03 0.02 0.03 0.02 0.02 0.03 0.04 0.06 0.05 0.09 0.13 0.12 0.13 0.18 0.22 0.23 0.10 0.05 0.05 0.06 0.01 0.00 0.00 0.01 0.01 0.03 0.06 0.07 0.08 0.09 0.15 0.16 0.13 0.10 0.08
0.12 0.11 0.17 0.09 0.03 0.02 0.01 0.04 0.06 0.02 0.01 0.03 0.04 0.04 0.05 0.06 0.07 0.08 0.12 0.17 0.18 0.21 0.25 0.28 0.24 0.12 0.08 0.12 0.15 0.04 0.01 0.01 0.01 0.02 0.03 0.04 0.06 0.09 0.09 0.09 0.12 0.14 0.14 0.15
0.44 0.40 0.38 0.26 0.20 0.15 0.09 0.05 0.03 0.04 0.04 0.06 0.08 0.09 0.10 0.08 0.05 0.06 0.08 0.11 0.16 0.25 0.23 0.20 0.18 0.17 0.16 0.21 0.13 0.05 0.04 0.04 0.05 0.07 0.08 0.08 0.10 0.11 0.11 0.12 0.14 0.15 0.16 0.17
0.54 0.38 0.38 0.40 0.37 0.31 0.21 0.22 0.20 0.15 0.11 0.10 0.09 0.10 0.09 0.07 0.06 0.05 0.06 0.07 0.12 0.15 0.13 0.12 0.16 0.23 0.25 0.22 0.16 0.12 0.12 0.14 0.15 0.15 0.16 0.18 0.20 0.20 0.21 0.19 0.17 0.16 0.15 0.13
0.17 0.14 0.13 0.16 0.28 0.28 0.21 0.24 0.28 0.25 0.12 0.13 0.14 0.15 0.16 0.17 0.16 0.14 0.11 0.11 0.11 0.13 0.12 0.15 0.23 0.28 0.27 0.18 0.16 0.17 0.21 0.26 0.28 0.29 0.30 0.32 0.30 0.27 0.23 0.19 0.19 0.15 0.16 0.19
0.07 0.07 0.07 0.06 0.04 0.05 0.05 0.04 0.05 0.08 0.15 0.18 0.18 0.13 0.12 0.15 0.17 0.16 0.18 0.17 0.17 0.18 0.17 0.19 0.19 0.21 0.21 0.19 0.25 0.29 0.30 0.32 0.32 0.33 0.31 0.29 0.25 0.24 0.21 0.21 0.19 0.19 0.21 0.19
0.00 0.00 0.00 0.00 0.00 0.00 0.00 0.00 0.00 0.00 0.00 0.01 0.04 0.07 0.08 0.07 0.07 0.07 0.08 0.11 0.13 0.17 0.17 0.18 0.18 0.20 0.20 0.20 0.21 0.20 0.19 0.19 0.23 0.22 0.21 0.22 0.25 0.27 0.23 0.19 0.17 0.17 0.17 0.13
0.00 0.00 0.00 0.00 0.00 0.00 0.00 0.00 0.00 0.00 0.00 0.00 0.00 0.01 0.02 0.02 0.04 0.06 0.03 0.02 0.04 0.08 0.10 0.10 0.14 0.17 0.19 0.19 0.18 0.17 0.16 0.16 0.17 0.18 0.20 0.23 0.25 0.24 0.20 0.18 0.17 0.15 0.16 0.15

GFSNGP_prec_precacc_126.txt.gz
Total_Precipitation_Accumulation
0.50 0.29 0.42 0.57 0.57 0.49 0.94 0.52 0.63 0.27 0.11 0.06 0.07 0.17 0.31 0.68 1.05 1.13 1.25 1.44 1.29 0.97 0.73 0.58 0.44 0.28 0.28 0.38 0.25 0.27 0.30 0.25 0.19 0.19 0.28 0.30 0.31 0.33 0.37 0.46 0.45 0.50 0.62 0.65
0.61 0.24 0.38 0.48 0.55 0.36 0.57 0.29 0.29 0.18 0.14 0.01 0.02 0.06 0.12 0.28 0.54 0.86 1.18 0.93 0.56 0.40 0.39 0.25 0.14 0.13 0.13 0.20 0.21 0.31 0.34 0.23 0.11 0.10 0.13 0.16 0.17 0.17 0.20 0.29 0.28 0.30 0.42 0.58
0.67 0.48 0.28 0.47 0.58 0.69 0.49 0.21 0.25 0.28 0.15 0.01 0.01 0.04 0.07 0.12 0.24 0.34 0.38 0.35 0.31 0.25 0.19 0.14 0.09 0.08 0.08 0.07 0.08 0.15 0.14 0.11 0.12 0.17 0.16 0.22 0.18 0.22 0.33 0.45 0.77 0.77 0.84 0.69
0.31 0.15 0.16 0.11 0.14 0.44 0.28 0.23 0.26 0.14 0.07 0.02 0.00 0.00 0.02 0.04 0.03 0.04 0.07 0.14 0.18 0.17 0.14 0.15 0.10 0.07 0.06 0.10 0.13 0.41 0.13 0.20 0.23 0.20 0.20 0.22 0.35 0.48 0.52 0.52 0.56 0.68 1.06 1.20
0.16 0.07 0.03 0.00 0.00 0.07 0.14 0.23 0.14 0.07 0.02 0.00 0.00 0.22 0.35 0.15 0.04 0.01 0.00 0.01 0.00 0.00 0.00 0.00 0.02 0.02 0.02 0.04 0.14 0.36 0.22 0.25 0.38 0.35 0.32 0.28 0.42 0.51 0.39 0.53 0.70 0.63 0.57 0.51
0.10 0.12 0.02 0.00 0.00 0.01 0.02 0.21 0.02 0.05 0.04 0.02 0.01 0.29 0.32 0.24 0.05 0.02 0.00 0.00 0.00 0.00 0.02 0.05 0.08 0.08 0.07 0.07 0.10 0.31 0.33 0.31 0.31 0.49 0.41 0.51 0.47 0.51 0.76 0.61 0.56 0.45 0.36 0.25
0.16 0.18 0.01 0.00 0.00 0.01 0.10 0.16 0.02 0.06 0.06 0.01 0.01 0.03 0.06 0.08 0.11 0.08 0.12 0.12 0.14 0.08 0.16 0.24 0.37 0.35 0.41 0.43 0.62 0.88 0.58 0.60 0.65 0.78 0.67 0.62 0.68 0.59 0.51 0.37 0.27 0.20 0.13 0.07
0.14 0.10 0.00 0.00 0.00 0.01 0.01 0.02 0.03 0.10 0.03 0.02 0.01 0.02 0.02 0.01 0.07 0.11 0.14 0.12 0.33 0.48 0.53 0.60 0.72 0.65 0.63 0.71 0.75 0.91 0.67 0.59 0.57 0.49 0.44 0.35 0.27 0.18 0.10 0.09 0.06 0.04 0.03 0.03
0.00 0.00 0.00 0.00 0.00 0.00 0.00 0.00 0.00 0.02 0.10 0.13 0.12 0.19 0.07 0.02 0.01 0.03 0.07 0.03 0.12 0.22 0.13 0.18 0.29 0.34 0.25 0.24 0.23 0.20 0.16 0.13 0.13 0.08 0.05 0.03 0.00 0.00 0.00 0.00 0.00 0.00 0.00 0.00
0.00 0.00 0.00 0.00 0.00 0.00 0.00 0.00 0.00 0.00 0.01 0.22 0.07 0.08 0.03 0.06 0.04 0.05 0.05 0.02 0.04 0.04 0.04 0.04 0.05 0.04 0.03 0.02 0.02 0.02 0.02 0.02 0.00 0.00 0.01 0.00 0.00 0.00 0.00 0.00 0.00 0.00 0.00 0.00
0.01 0.00 0.00 0.00 0.00 0.00 0.01 0.02 0.00 0.00 0.01 0.03 0.10 0.10 0.04 0.16 0.08 0.00 0.00 0.00 0.00 0.01 0.02 0.00 0.00 0.00 0.00 0.01 0.03 0.06 0.09 0.13 0.16 0.14 0.12 0.06 0.03 0.03 0.02 0.01 0.02 0.01 0.01 0.02
0.03 0.01 0.02 0.02 0.01 0.00 0.00 0.01 0.01 0.02 0.01 0.02 0.02 0.13 0.02 0.06 0.03 0.00 0.00 0.00 0.00 0.00 0.01 0.00 0.00 0.00 0.00 0.00 0.00 0.00 0.01 0.01 0.04 0.11 0.23 0.32 0.35 0.38 0.40 0.38 0.37 0.30 0.25 0.22
0.00 0.00 0.01 0.01 0.01 0.01 0.00 0.00 0.00 0.00 0.01 0.01 0.00 0.01 0.02 0.11 0.02 0.00 0.00 0.00 0.00 0.00 0.00 0.00 0.00 0.00 0.00 0.00 0.00 0.00 0.00 0.00 0.00 0.01 0.00 0.01 0.03 0.07 0.13 0.20 0.27 0.32 0.39 0.45
0.00 0.00 0.00 0.00 0.00 0.00 0.00 0.00 0.03 0.02 0.01 0.01 0.02 0.07 0.09 0.26 0.26 0.08 0.07 0.00 0.00 0.00 0.01 0.00 0.01 0.01 0.02 0.01 0.00 0.00 0.00 0.02 0.00 0.00 0.00 0.00 0.01 0.01 0.02 0.01 0.02 0.04 0.08 0.14
0.00 0.00 0.00 0.00 0.00 0.02 0.01 0.00 0.00 0.01 0.02 0.01 0.00 0.00 0.03 0.06 0.27 0.17 0.04 0.01 0.00 0.00 0.00 0.00 0.00 0.00 0.00 0.01 0.01 0.01 0.01 0.01 0.01 0.01 0.01 0.02 0.01 0.01 0.02 0.02 0.01 0.00 0.00 0.03
0.00 0.00 0.00 0.00 0.01 0.03 0.03 0.01 0.00 0.00 0.01 0.00 0.01 0.02 0.03 0.07 0.19 0.16 0.08 0.04 0.02 0.03 0.03 0.02 0.01 0.01 0.02 0.02 0.01 0.01 0.02 0.05 0.03 0.01 0.03 0.04 0.04 0.04 0.05 0.06 0.06 0.04 0.03 0.03
0.01 0.01 0.00 0.00 0.00 0.02 0.03 0.05 0.00 0.00 0.01 0.01 0.01 0.01 0.02 0.06 0.11 0.13 0.08 0.04 0.03 0.02 0.01 0.00 0.00 0.00 0.00 0.00 0.01 0.01 0.01 0.03 0.07 0.02 0.03 0.05 0.06 0.07 0.08 0.09 0.10 0.10 0.08 0.16
0.01 0.02 0.03 0.02 0.01 0.01 0.02 0.05 0.03 0.03 0.04 0.05 0.05 0.07 0.07 0.08 0.15 0.14 0.14 0.10 0.08 0.05 0.02 0.02 0.01 0.00 0.00 0.00 0.00 0.00 0.00 0.00 0.01 0.01 0.05 0.07 0.10 0.11 0.11 0.11 0.09 0.10 0.09 0.17
0.01 0.01 0.02 0.04 0.04 0.04 0.05 0.08 0.09 0.08 0.06 0.04 0.04 0.06 0.07 0.08 0.09 0.09 0.11 0.10 0.09 0.10 0.07 0.07 0.09 0.04 0.02 0.01 0.01 0.00 0.00 0.00 0.01 0.02 0.04 0.11 0.16 0.13 0.13 0.13 0.10 0.09 0.09 0.10
0.07 0.06 0.06 0.05 0.04 0.04 0.06 0.07 0.06 0.03 0.02 0.03 0.02 0.02 0.03 0.04 0.06 0.05 0.09 0.13 0.12 0.13 0.18 0.22 0.23 0.10 0.05 0.05 0.06 0.01 0.00 0.00 0.01 0.01 0.03 0.06 0.07 0.08 0.09 0.15 0.16 0.13 0.10 0.08
0.12 0.11 0.17 0.09 0.03 0.02 0.01 0.04 0.06 0.02 0.01 0.03 0.04 0.04 0.05 0.06 0.07 0.08 0.12 0.17 0.18 0.21 0.25 0.28 0.24 0.12 0.08 0.12 0.15 0.04 0.01 0.01 0.01 0.02 0.03 0.04 0.06 0.09 0.09 0.09 0.12 0.14 0.14 0.15
0.44 0.40 0.38 0.26 0.20 0.15 0.09 0.05 0.03 0.04 0.04 0.06 0.08 0.09 0.10 0.08 0.05 0.06 0.08 0.11 0.16 0.25 0.23 0.20 0.18 0.17 0.16 0.21 0.13 0.05 0.04 0.04 0.05 0.07 0.08 0.08 0.10 0.11 0.11 0.12 0.14 0.15 0.16 0.17
0.54 0.38 0.38 0.40 0.37 0.31 0.21 0.22 0.20 0.15 0.11 0.10 0.09 0.10 0.09 0.07 0.06 0.05 0.06 0.07 0.12 0.15 0.13 0.12 0.16 0.23 0.25 0.22 0.16 0.12 0.12 0.14 0.15 0.15 0.16 0.18 0.20 0.20 0.21 0.19 0.17 0.16 0.15 0.13
0.17 0.14 0.13 0.16 0.28 0.28 0.21 0.24 0.28 0.25 0.12 0.13 0.14 0.15 0.16 0.17 0.16 0.14 0.11 0.11 0.11 0.13 0.12 0.15 0.23 0.28 0.27 0.18 0.16 0.18 0.21 0.26 0.28 0.29 0.30 0.32 0.30 0.27 0.23 0.19 0.19 0.15 0.16 0.19
0.07 0.07 0.07 0.06 0.04 0.05 0.05 0.04 0.05 0.08 0.15 0.18 0.18 0.13 0.12 0.15 0.17 0.16 0.18 0.17 0.17 0.18 0.17 0.19 0.19 0.22 0.21 0.19 0.25 0.29 0.31 0.32 0.32 0.33 0.31 0.29 0.25 0.24 0.21 0.21 0.19 0.19 0.21 0.19
0.00 0.00 0.00 0.00 0.00 0.00 0.00 0.00 0.00 0.00 0.00 0.01 0.04 0.07 0.08 0.07 0.07 0.07 0.08 0.11 0.13 0.17 0.17 0.18 0.18 0.20 0.20 0.20 0.21 0.20 0.19 0.19 0.23 0.22 0.21 0.22 0.25 0.27 0.23 0.19 0.17 0.17 0.17 0.13
0.00 0.00 0.00 0.00 0.00 0.00 0.00 0.00 0.00 0.00 0.00 0.00 0.00 0.01 0.02 0.02 0.04 0.06 0.03 0.02 0.04 0.08 0.10 0.10 0.14 0.17 0.19 0.19 0.18 0.17 0.16 0.16 0.17 0.18 0.20 0.23 0.25 0.24 0.20 0.18 0.17 0.15 0.16 0.15

GFSNGP_prec_precacc_129.txt.gz
Total_Precipitation_Accumulation
0.50 0.29 0.42 0.57 0.57 0.49 0.94 0.52 0.66 0.34 0.16 0.12 0.20 0.45 0.75 1.16 1.41 1.43 1.69 2.08 2.11 2.00 1.71 1.29 0.88 0.79 0.81 0.70 0.52 0.41 0.36 0.42 0.41 0.43 0.62 0.65 0.64 0.71 0.67 0.81 0.71 0.66 0.73 0.78
0.61 0.24 0.38 0.48 0.55 0.36 0.57 0.29 0.29 0.18 0.15 0.03 0.11 0.26 0.47 0.84 1.05 1.44 1.80 1.49 1.08 0.83 0.68 0.52 0.47 0.48 0.45 0.58 0.59 0.45 0.40 0.29 0.17 0.18 0.27 0.36 0.33 0.37 0.43 0.51 0.61 0.64 0.64 0.76
0.67 0.48 0.28 0.47 0.58 0.69 0.49 0.21 0.25 0.28 0.15 0.02 0.04 0.16 0.28 0.46 0.64 0.72 0.73 0.61 0.53 0.49 0.34 0.28 0.27 0.28 0.33 0.37 0.39 0.37 0.21 0.12 0.14 0.21 0.27 0.33 0.22 0.25 0.38 0.55 0.90 0.88 0.99 0.87
0.31 0.15 0.16 0.11 0.14 0.44 0.28 0.23 0.26 0.14 0.07 0.02 0.01 0.04 0.07 0.07 0.08 0.13 0.20 0.29 0.35 0.34 0.29 0.30 0.19 0.11 0.07 0.11 0.14 0.43 0.14 0.21 0.26 0.23 0.23 0.24 0.36 0.48 0.53 0.54 0.61 0.78 1.18 1.30
0.16 0.07 0.03 0.00 0.00 0.07 0.14 0.23 0.14 0.07 0.02 0.00 0.00 0.22 0.35 0.15 0.04 0.01 0.00 0.01 0.00 0.00 0.00 0.00 0.02 0.02 0.02 0.04 0.14 0.37 0.22 0.25 0.38 0.36 0.32 0.28 0.42 0.51 0.39 0.53 0.70 0.64 0.59 0.55
0.10 0.12 0.02 0.00 0.00 0.01 0.02 0.21 0.02 0.05 0.04 0.02 0.01 0.29 0.32 0.24 0.05 0.02 0.00 0.00 0.00 0.00 0.02 0.05 0.08 0.08 0.07 0.07 0.10 0.31 0.33 0.31 0.31 0.49 0.41 0.51 0.47 0.51 0.76 0.61 0.56 0.45 0.36 0.26
0.16 0.18 0.01 0.00 0.00 0.01 0.10 0.16 0.02 0.06 0.06 0.01 0.01 0.03 0.06 0.08 0.11 0.08 0.12 0.12 0.14 0.08 0.16 0.24 0.37 0.35 0.41 0.43 0.62 0.88 0.58 0.60 0.65 0.78 0.67 0.62 0.68 0.59 0.51 0.37 0.27 0.20 0.13 0.07
0.14 0.10 0.00 0.00 0.00 0.01 0.01 0.02 0.03 0.10 0.03 0.02 0.01 0.02 0.02 0.01 0.07 0.11 0.14 0.12 0.33 0.48 0.53 0.60 0.72 0.65 0.63 0.71 0.75 0.91 0.67 0.59 0.57 0.49 0.44 0.35 0.27 0.18 0.10 0.09 0.06 0.04 0.03 0.03
0.00 0.00 0.00 0.00 0.00 0.00 0.00 0.00 0.00 0.02 0.10 0.13 0.12 0.19 0.07 0.02 0.01 0.03 0.07 0.03 0.12 0.22 0.13 0.18 0.29 0.34 0.25 0.24 0.23 0.20 0.16 0.13 0.13 0.08 0.05 0.03 0.00 0.00 0.00 0.00 0.00 0.00 0.00 0.00
0.00 0.00 0.00 0.00 0.00 0.00 0.00 0.00 0.00 0.00 0.01 0.22 0.07 0.08 0.03 0.06 0.04 0.05 0.05 0.02 0.04 0.04 0.04 0.04 0.05 0.04 0.03 0.02 0.02 0.02 0.02 0.02 0.00 0.00 0.01 0.00 0.00 0.00 0.00 0.00 0.00 0.00 0.00 0.00
0.01 0.00 0.00 0.00 0.00 0.00 0.01 0.02 0.00 0.00 0.01 0.03 0.10 0.10 0.04 0.16 0.08 0.00 0.00 0.00 0.00 0.01 0.02 0.00 0.00 0.00 0.00 0.01 0.03 0.06 0.09 0.13 0.16 0.14 0.12 0.06 0.03 0.03 0.02 0.01 0.02 0.01 0.01 0.02
0.03 0.01 0.02 0.02 0.01 0.00 0.00 0.01 0.01 0.02 0.01 0.02 0.02 0.13 0.02 0.06 0.03 0.00 0.00 0.00 0.00 0.00 0.01 0.00 0.00 0.00 0.00 0.00 0.00 0.00 0.01 0.01 0.04 0.11 0.23 0.32 0.35 0.38 0.40 0.38 0.37 0.30 0.25 0.22
0.00 0.00 0.01 0.01 0.01 0.01 0.00 0.00 0.00 0.00 0.01 0.01 0.00 0.01 0.02 0.11 0.02 0.00 0.00 0.00 0.00 0.00 0.00 0.00 0.00 0.00 0.00 0.00 0.00 0.00 0.00 0.00 0.00 0.01 0.00 0.01 0.03 0.07 0.13 0.20 0.27 0.32 0.39 0.45
0.00 0.00 0.00 0.00 0.00 0.00 0.00 0.00 0.03 0.02 0.01 0.01 0.02 0.07 0.09 0.26 0.26 0.08 0.07 0.00 0.00 0.00 0.01 0.00 0.01 0.01 0.02 0.01 0.00 0.00 0.00 0.02 0.00 0.00 0.00 0.00 0.01 0.01 0.02 0.01 0.02 0.04 0.08 0.14
0.00 0.00 0.00 0.00 0.00 0.02 0.01 0.00 0.00 0.01 0.02 0.01 0.00 0.00 0.03 0.06 0.27 0.17 0.04 0.01 0.00 0.00 0.00 0.00 0.00 0.00 0.00 0.01 0.01 0.01 0.01 0.01 0.01 0.01 0.01 0.02 0.01 0.01 0.02 0.02 0.01 0.00 0.00 0.03
0.00 0.00 0.00 0.00 0.01 0.03 0.03 0.01 0.00 0.00 0.01 0.00 0.01 0.02 0.03 0.07 0.19 0.16 0.08 0.04 0.02 0.03 0.03 0.02 0.01 0.01 0.02 0.02 0.01 0.01 0.02 0.05 0.03 0.01 0.03 0.04 0.04 0.04 0.05 0.06 0.06 0.04 0.03 0.03
0.01 0.01 0.00 0.00 0.00 0.02 0.03 0.05 0.00 0.00 0.01 0.01 0.01 0.01 0.02 0.06 0.11 0.13 0.08 0.04 0.03 0.02 0.01 0.00 0.00 0.00 0.00 0.00 0.01 0.01 0.01 0.03 0.07 0.02 0.03 0.05 0.06 0.07 0.08 0.09 0.10 0.10 0.08 0.16
0.01 0.02 0.03 0.02 0.01 0.01 0.02 0.05 0.03 0.03 0.04 0.05 0.05 0.07 0.07 0.08 0.15 0.14 0.14 0.10 0.08 0.05 0.02 0.02 0.01 0.00 0.00 0.00 0.00 0.00 0.00 0.00 0.01 0.01 0.05 0.07 0.10 0.11 0.11 0.11 0.09 0.10 0.09 0.17
0.01 0.01 0.02 0.04 0.04 0.04 0.05 0.08 0.09 0.08 0.06 0.04 0.04 0.06 0.07 0.08 0.09 0.09 0.11 0.10 0.09 0.10 0.07 0.07 0.09 0.04 0.02 0.01 0.01 0.00 0.00 0.00 0.01 0.02 0.04 0.11 0.16 0.13 0.13 0.13 0.10 0.09 0.09 0.10
0.07 0.06 0.06 0.05 0.04 0.04 0.06 0.07 0.06 0.03 0.02 0.03 0.02 0.02 0.03 0.04 0.06 0.05 0.09 0.13 0.12 0.13 0.18 0.22 0.23 0.10 0.05 0.05 0.06 0.01 0.00 0.00 0.01 0.01 0.03 0.06 0.07 0.08 0.09 0.15 0.16 0.13 0.10 0.08
0.12 0.11 0.17 0.09 0.03 0.02 0.01 0.04 0.06 0.02 0.01 0.03 0.04 0.04 0.05 0.06 0.07 0.08 0.12 0.17 0.18 0.21 0.25 0.28 0.24 0.12 0.08 0.12 0.15 0.04 0.01 0.01 0.01 0.02 0.03 0.04 0.06 0.09 0.09 0.09 0.12 0.14 0.14 0.15
0.44 0.40 0.38 0.26 0.20 0.15 0.09 0.05 0.03 0.04 0.04 0.06 0.08 0.09 0.10 0.08 0.05 0.06 0.08 0.11 0.16 0.25 0.23 0.20 0.18 0.17 0.16 0.21 0.13 0.05 0.04 0.04 0.05 0.07 0.08 0.08 0.10 0.11 0.11 0.12 0.14 0.15 0.16 0.17
0.54 0.38 0.38 0.40 0.37 0.31 0.21 0.22 0.20 0.15 0.11 0.10 0.09 0.10 0.09 0.07 0.06 0.05 0.06 0.07 0.12 0.15 0.13 0.12 0.16 0.23 0.25 0.22 0.16 0.12 0.12 0.14 0.15 0.16 0.16 0.18 0.20 0.20 0.21 0.19 0.17 0.16 0.15 0.13
0.17 0.14 0.13 0.16 0.28 0.28 0.21 0.24 0.28 0.25 0.12 0.13 0.14 0.15 0.16 0.17 0.16 0.14 0.11 0.11 0.11 0.13 0.12 0.15 0.23 0.28 0.27 0.18 0.16 0.18 0.21 0.26 0.29 0.29 0.30 0.32 0.30 0.27 0.23 0.19 0.19 0.15 0.16 0.19
0.07 0.07 0.07 0.06 0.04 0.05 0.05 0.04 0.05 0.08 0.15 0.18 0.18 0.13 0.12 0.15 0.17 0.16 0.18 0.17 0.17 0.18 0.17 0.19 0.19 0.22 0.21 0.19 0.25 0.29 0.31 0.32 0.32 0.33 0.31 0.29 0.25 0.24 0.21 0.21 0.19 0.19 0.21 0.19
0.00 0.00 0.00 0.00 0.00 0.00 0.00 0.00 0.00 0.00 0.00 0.01 0.04 0.07 0.08 0.07 0.07 0.07 0.08 0.11 0.13 0.17 0.17 0.18 0.18 0.20 0.20 0.20 0.21 0.20 0.19 0.19 0.23 0.22 0.21 0.22 0.25 0.27 0.23 0.19 0.17 0.17 0.17 0.13
0.00 0.00 0.00 0.00 0.00 0.00 0.00 0.00 0.00 0.00 0.00 0.00 0.00 0.01 0.02 0.02 0.04 0.06 0.03 0.02 0.04 0.08 0.10 0.10 0.14 0.17 0.19 0.19 0.18 0.17 0.16 0.16 0.17 0.18 0.20 0.23 0.25 0.24 0.20 0.18 0.17 0.15 0.16 0.15

GFSNGP_prec_precacc_132.txt.gz
Total_Precipitation_Accumulation
0.50 0.29 0.42 0.57 0.57 0.49 0.94 0.52 0.66 0.35 0.19 0.13 0.25 0.65 1.07 1.39 1.59 1.60 1.91 2.42 2.50 2.46 2.21 1.88 1.71 1.53 1.52 1.41 1.25 1.07 1.08 1.25 1.03 0.84 0.97 0.97 0.99 1.05 0.86 1.01 0.88 0.74 0.81 0.89
0.61 0.24 0.38 0.48 0.55 0.36 0.57 0.29 0.29 0.18 0.15 0.04 0.15 0.36 0.72 1.17 1.41 1.88 2.30 2.04 1.62 1.35 1.17 1.02 0.97 1.03 0.88 0.93 0.87 0.68 0.67 0.64 0.61 0.69 0.71 0.81 0.77 0.71 0.65 0.68 0.80 0.82 0.72 0.81
0.67 0.48 0.28 0.47 0.58 0.69 0.49 0.21 0.25 0.28 0.15 0.02 0.06 0.24 0.45 0.76 0.96 1.02 1.01 0.83 0.72 0.70 0.62 0.60 0.65 0.66 0.62 0.58 0.49 0.41 0.27 0.22 0.29 0.39 0.43 0.51 0.39 0.43 0.57 0.69 1.03 1.07 1.27 0.95
0.31 0.15 0.16 0.11 0.14 0.44 0.28 0.23 0.26 0.15 0.08 0.03 0.01 0.05 0.08 0.10 0.14 0.20 0.26 0.34 0.40 0.40 0.35 0.34 0.23 0.15 0.10 0.13 0.15 0.43 0.14 0.22 0.27 0.24 0.24 0.26 0.37 0.50 0.55 0.59 0.72 0.83 1.28 1.43
0.16 0.07 0.03 0.00 0.00 0.07 0.14 0.23 0.14 0.07 0.03 0.01 0.00 0.22 0.35 0.15 0.04 0.01 0.00 0.01 0.00 0.00 0.00 0.00 0.02 0.02 0.03 0.05 0.15 0.38 0.22 0.26 0.39 0.37 0.32 0.28 0.42 0.51 0.39 0.53 0.71 0.67 0.63 0.61
0.10 0.12 0.02 0.00 0.00 0.01 0.02 0.21 0.02 0.05 0.04 0.02 0.01 0.29 0.32 0.24 0.05 0.02 0.00 0.00 0.00 0.00 0.02 0.05 0.08 0.08 0.07 0.07 0.10 0.31 0.33 0.31 0.31 0.49 0.41 0.51 0.47 0.51 0.76 0.61 0.56 0.45 0.36 0.26
0.16 0.18 0.01 0.00 0.00 0.01 0.10 0.16 0.02 0.06 0.06 0.01 0.01 0.03 0.06 0.08 0.11 0.08 0.12 0.12 0.14 0.08 0.16 0.24 0.37 0.35 0.41 0.43 0.62 0.88 0.58 0.60 0.65 0.78 0.67 0.62 0.68 0.59 0.51 0.37 0.27 0.20 0.13 0.07
0.14 0.10 0.00 0.00 0.00 0.01 0.01 0.02 0.03 0.10 0.03 0.02 0.01 0.02 0.02 0.01 0.07 0.11 0.14 0.12 0.33 0.48 0.53 0.60 0.72 0.65 0.63 0.71 0.75 0.91 0.67 0.59 0.57 0.49 0.44 0.35 0.27 0.18 0.10 0.09 0.06 0.04 0.03 0.03
0.00 0.00 0.00 0.00 0.00 0.00 0.00 0.00 0.00 0.02 0.10 0.13 0.12 0.19 0.07 0.02 0.01 0.03 0.07 0.03 0.12 0.22 0.13 0.18 0.29 0.34 0.25 0.24 0.23 0.20 0.16 0.13 0.13 0.08 0.05 0.03 0.00 0.00 0.00 0.00 0.00 0.00 0.00 0.00
0.00 0.00 0.00 0.00 0.00 0.00 0.00 0.00 0.00 0.00 0.01 0.22 0.07 0.08 0.03 0.06 0.04 0.05 0.05 0.02 0.04 0.04 0.04 0.04 0.05 0.04 0.03 0.02 0.02 0.02 0.02 0.02 0.00 0.00 0.01 0.00 0.00 0.00 0.00 0.00 0.00 0.00 0.00 0.00
0.01 0.00 0.00 0.00 0.00 0.00 0.01 0.02 0.00 0.00 0.01 0.03 0.10 0.10 0.04 0.16 0.08 0.00 0.00 0.00 0.00 0.01 0.02 0.00 0.00 0.00 0.00 0.01 0.03 0.06 0.09 0.13 0.16 0.14 0.12 0.06 0.03 0.03 0.02 0.01 0.02 0.01 0.01 0.02
0.03 0.01 0.02 0.02 0.01 0.00 0.00 0.01 0.01 0.02 0.01 0.02 0.02 0.13 0.02 0.06 0.03 0.00 0.00 0.00 0.00 0.00 0.01 0.00 0.00 0.00 0.00 0.00 0.00 0.00 0.01 0.01 0.04 0.11 0.23 0.32 0.35 0.38 0.40 0.38 0.37 0.30 0.26 0.22
0.00 0.00 0.01 0.01 0.01 0.01 0.00 0.00 0.00 0.00 0.01 0.01 0.00 0.01 0.02 0.11 0.02 0.00 0.00 0.00 0.00 0.00 0.00 0.00 0.00 0.00 0.00 0.00 0.00 0.00 0.00 0.00 0.00 0.01 0.00 0.01 0.03 0.07 0.13 0.20 0.27 0.32 0.39 0.45
0.00 0.00 0.00 0.00 0.00 0.00 0.00 0.00 0.03 0.02 0.01 0.01 0.02 0.07 0.09 0.26 0.26 0.08 0.07 0.00 0.00 0.00 0.01 0.00 0.01 0.01 0.02 0.01 0.00 0.00 0.00 0.02 0.00 0.00 0.00 0.00 0.01 0.01 0.02 0.01 0.02 0.04 0.08 0.14
0.00 0.00 0.00 0.00 0.00 0.02 0.01 0.00 0.00 0.01 0.02 0.01 0.00 0.00 0.03 0.06 0.27 0.17 0.04 0.01 0.00 0.00 0.00 0.00 0.00 0.00 0.00 0.01 0.01 0.01 0.01 0.01 0.01 0.01 0.01 0.02 0.01 0.01 0.02 0.02 0.01 0.00 0.00 0.03
0.00 0.00 0.00 0.00 0.01 0.03 0.03 0.01 0.00 0.00 0.01 0.00 0.01 0.02 0.03 0.07 0.19 0.16 0.08 0.04 0.02 0.03 0.03 0.02 0.01 0.01 0.02 0.02 0.01 0.01 0.02 0.05 0.03 0.01 0.03 0.04 0.04 0.04 0.05 0.06 0.06 0.04 0.03 0.03
0.01 0.01 0.00 0.00 0.00 0.02 0.03 0.05 0.00 0.00 0.01 0.01 0.01 0.01 0.02 0.06 0.11 0.13 0.08 0.04 0.03 0.02 0.01 0.00 0.00 0.00 0.00 0.00 0.01 0.01 0.01 0.03 0.07 0.02 0.03 0.05 0.06 0.07 0.08 0.09 0.10 0.10 0.08 0.16
0.01 0.02 0.03 0.02 0.01 0.01 0.02 0.05 0.03 0.03 0.04 0.05 0.05 0.07 0.07 0.08 0.15 0.14 0.14 0.10 0.08 0.05 0.02 0.02 0.01 0.00 0.00 0.00 0.00 0.00 0.00 0.00 0.01 0.01 0.05 0.07 0.10 0.11 0.11 0.11 0.09 0.10 0.09 0.17
0.01 0.01 0.02 0.04 0.04 0.04 0.05 0.08 0.09 0.08 0.06 0.04 0.04 0.06 0.07 0.08 0.09 0.09 0.11 0.10 0.09 0.10 0.07 0.07 0.09 0.04 0.02 0.01 0.01 0.00 0.00 0.00 0.01 0.02 0.04 0.11 0.16 0.13 0.13 0.13 0.10 0.09 0.09 0.10
0.07 0.06 0.06 0.05 0.04 0.04 0.06 0.07 0.06 0.03 0.02 0.03 0.02 0.02 0.03 0.04 0.06 0.05 0.09 0.13 0.12 0.13 0.18 0.22 0.23 0.10 0.05 0.05 0.06 0.01 0.00 0.00 0.01 0.01 0.03 0.06 0.07 0.08 0.09 0.15 0.16 0.13 0.10 0.08
0.12 0.11 0.17 0.09 0.03 0.02 0.01 0.04 0.06 0.02 0.01 0.03 0.04 0.04 0.05 0.06 0.07 0.08 0.12 0.17 0.18 0.21 0.25 0.28 0.24 0.12 0.08 0.12 0.15 0.04 0.01 0.01 0.01 0.02 0.03 0.04 0.06 0.09 0.09 0.09 0.12 0.14 0.14 0.15
0.44 0.40 0.38 0.26 0.20 0.15 0.09 0.05 0.03 0.04 0.04 0.06 0.08 0.09 0.10 0.08 0.05 0.06 0.08 0.11 0.16 0.25 0.23 0.20 0.18 0.17 0.16 0.21 0.13 0.05 0.04 0.04 0.05 0.07 0.08 0.08 0.10 0.11 0.11 0.12 0.14 0.15 0.16 0.17
0.54 0.38 0.38 0.40 0.37 0.31 0.21 0.22 0.20 0.15 0.11 0.10 0.09 0.10 0.09 0.07 0.06 0.05 0.06 0.07 0.12 0.15 0.13 0.12 0.16 0.23 0.25 0.22 0.16 0.12 0.12 0.14 0.15 0.16 0.16 0.19 0.20 0.20 0.21 0.19 0.17 0.16 0.15 0.13
0.17 0.14 0.13 0.16 0.28 0.28 0.21 0.24 0.28 0.25 0.12 0.13 0.14 0.15 0.16 0.17 0.16 0.14 0.11 0.11 0.11 0.13 0.12 0.15 0.23 0.28 0.27 0.18 0.16 0.18 0.21 0.26 0.29 0.29 0.30 0.33 0.30 0.27 0.23 0.19 0.19 0.15 0.16 0.19
0.07 0.07 0.07 0.06 0.04 0.05 0.05 0.04 0.05 0.08 0.15 0.18 0.18 0.13 0.12 0.15 0.17 0.16 0.18 0.17 0.17 0.18 0.17 0.19 0.19 0.22 0.21 0.19 0.25 0.29 0.31 0.32 0.32 0.33 0.31 0.29 0.25 0.24 0.21 0.21 0.19 0.19 0.21 0.19
0.00 0.00 0.00 0.00 0.00 0.00 0.00 0.00 0.00 0.00 0.00 0.01 0.04 0.07 0.08 0.07 0.07 0.07 0.08 0.11 0.14 0.17 0.18 0.18 0.18 0.20 0.20 0.20 0.21 0.20 0.19 0.19 0.23 0.22 0.21 0.22 0.25 0.27 0.23 0.19 0.17 0.17 0.17 0.13
0.00 0.00 0.00 0.00 0.00 0.00 0.00 0.00 0.00 0.00 0.00 0.00 0.00 0.01 0.02 0.02 0.05 0.06 0.03 0.03 0.05 0.09 0.11 0.10 0.14 0.17 0.19 0.19 0.18 0.17 0.16 0.16 0.17 0.18 0.20 0.23 0.25 0.24 0.20 0.18 0.17 0.15 0.16 0.15

GFSNGP_prec_precacc_135.txt.gz
Total_Precipitation_Accumulation
0.50 0.29 0.42 0.57 0.57 0.49 0.94 0.52 0.66 0.35 0.19 0.13 0.27 0.76 1.32 1.61 1.78 1.74 2.00 2.50 2.64 2.69 2.52 2.19 2.09 2.08 2.13 2.05 1.84 1.45 1.33 1.58 1.40 1.10 1.18 1.44 1.32 1.17 0.93 1.19 1.19 1.06 0.95 1.00
0.61 0.24 0.38 0.48 0.55 0.36 0.57 0.29 0.29 0.18 0.15 0.04 0.17 0.41 0.85 1.35 1.63 2.09 2.57 2.40 1.99 1.77 1.60 1.46 1.42 1.47 1.38 1.47 1.35 1.20 1.32 1.30 1.15 1.41 1.42 1.58 1.54 1.32 0.83 1.08 1.09 1.29 1.07 0.99
0.67 0.48 0.28 0.47 0.58 0.69 0.49 0.21 0.25 0.28 0.15 0.02 0.07 0.25 0.47 0.83 1.06 1.15 1.18 1.01 0.92 0.96 0.89 0.83 0.85 0.80 0.80 0.85 0.79 0.79 0.79 0.77 0.82 0.97 0.98 1.12 0.98 1.04 1.02 1.05 1.25 1.24 1.46 1.13
0.31 0.15 0.16 0.11 0.14 0.44 0.28 0.23 0.26 0.15 0.08 0.03 0.01 0.05 0.08 0.10 0.14 0.20 0.27 0.35 0.41 0.41 0.37 0.37 0.26 0.17 0.14 0.17 0.20 0.49 0.22 0.32 0.44 0.43 0.46 0.48 0.56 0.65 0.67 0.74 0.84 0.89 1.35 1.59
0.16 0.07 0.03 0.00 0.00 0.07 0.14 0.23 0.14 0.08 0.03 0.01 0.00 0.22 0.35 0.15 0.04 0.01 0.00 0.01 0.00 0.00 0.00 0.00 0.02 0.02 0.03 0.05 0.15 0.38 0.23 0.26 0.39 0.38 0.33 0.29 0.43 0.52 0.41 0.55 0.74 0.67 0.63 0.62
0.10 0.12 0.02 0.00 0.00 0.01 0.02 0.21 0.02 0.06 0.04 0.02 0.01 0.29 0.32 0.24 0.05 0.02 0.00 0.00 0.00 0.00 0.02 0.05 0.08 0.08 0.07 0.07 0.10 0.31 0.33 0.31 0.31 0.49 0.41 0.51 0.47 0.51 0.76 0.61 0.56 0.45 0.36 0.26
0.16 0.18 0.01 0.00 0.00 0.01 0.10 0.16 0.02 0.06 0.06 0.01 0.01 0.03 0.06 0.08 0.11 0.08 0.12 0.12 0.14 0.08 0.16 0.24 0.37 0.35 0.41 0.43 0.62 0.88 0.58 0.60 0.65 0.78 0.67 0.62 0.68 0.59 0.51 0.37 0.27 0.20 0.13 0.07
0.14 0.10 0.00 0.00 0.00 0.01 0.01 0.02 0.03 0.10 0.03 0.02 0.01 0.02 0.02 0.01 0.07 0.11 0.14 0.12 0.33 0.48 0.53 0.60 0.72 0.65 0.63 0.71 0.75 0.91 0.67 0.59 0.57 0.49 0.44 0.35 0.27 0.18 0.10 0.09 0.06 0.04 0.03 0.03
0.00 0.00 0.00 0.00 0.00 0.00 0.00 0.00 0.00 0.02 0.10 0.13 0.12 0.19 0.07 0.02 0.01 0.03 0.07 0.03 0.12 0.22 0.13 0.18 0.29 0.34 0.25 0.24 0.23 0.20 0.16 0.13 0.13 0.08 0.05 0.03 0.00 0.00 0.00 0.00 0.00 0.00 0.00 0.00
0.00 0.00 0.00 0.00 0.00 0.00 0.00 0.00 0.00 0.00 0.01 0.22 0.07 0.08 0.03 0.06 0.04 0.05 0.05 0.02 0.04 0.04 0.04 0.04 0.05 0.04 0.03 0.02 0.02 0.02 0.02 0.02 0.00 0.00 0.01 0.00 0.00 0.00 0.00 0.00 0.00 0.00 0.00 0.00
0.01 0.00 0.00 0.00 0.00 0.00 0.01 0.02 0.00 0.00 0.01 0.03 0.10 0.10 0.04 0.16 0.08 0.00 0.00 0.00 0.00 0.01 0.02 0.00 0.00 0.00 0.00 0.01 0.03 0.06 0.09 0.13 0.16 0.14 0.12 0.06 0.03 0.03 0.02 0.01 0.03 0.01 0.01 0.02
0.03 0.01 0.02 0.02 0.01 0.00 0.00 0.01 0.01 0.02 0.01 0.02 0.02 0.13 0.02 0.06 0.03 0.00 0.00 0.00 0.00 0.00 0.01 0.00 0.00 0.00 0.00 0.00 0.00 0.00 0.01 0.01 0.04 0.11 0.23 0.32 0.35 0.38 0.40 0.38 0.37 0.30 0.26 0.22
0.00 0.00 0.01 0.01 0.01 0.01 0.00 0.00 0.00 0.00 0.01 0.01 0.00 0.01 0.02 0.11 0.02 0.00 0.00 0.00 0.00 0.00 0.00 0.00 0.00 0.00 0.00 0.00 0.00 0.00 0.00 0.00 0.00 0.01 0.00 0.01 0.03 0.07 0.13 0.20 0.27 0.32 0.39 0.45
0.00 0.00 0.00 0.00 0.00 0.00 0.00 0.00 0.03 0.02 0.01 0.01 0.02 0.07 0.09 0.26 0.26 0.08 0.07 0.00 0.00 0.00 0.01 0.00 0.01 0.01 0.02 0.01 0.00 0.00 0.00 0.02 0.00 0.00 0.00 0.00 0.01 0.01 0.02 0.01 0.02 0.04 0.08 0.14
0.00 0.00 0.00 0.00 0.00 0.02 0.01 0.00 0.00 0.01 0.02 0.01 0.00 0.00 0.03 0.06 0.27 0.17 0.04 0.01 0.00 0.00 0.00 0.00 0.00 0.00 0.00 0.01 0.01 0.01 0.01 0.01 0.01 0.01 0.01 0.02 0.01 0.01 0.02 0.02 0.01 0.00 0.00 0.03
0.00 0.00 0.00 0.00 0.01 0.03 0.03 0.01 0.00 0.00 0.01 0.00 0.01 0.02 0.03 0.07 0.19 0.16 0.08 0.04 0.02 0.03 0.03 0.02 0.01 0.01 0.02 0.02 0.01 0.01 0.02 0.05 0.03 0.01 0.03 0.04 0.04 0.04 0.05 0.06 0.06 0.04 0.03 0.03
0.01 0.01 0.00 0.00 0.00 0.02 0.03 0.05 0.00 0.00 0.01 0.01 0.01 0.01 0.02 0.06 0.11 0.13 0.08 0.04 0.03 0.02 0.01 0.00 0.00 0.00 0.00 0.00 0.01 0.01 0.01 0.03 0.07 0.02 0.03 0.05 0.06 0.07 0.08 0.09 0.10 0.10 0.08 0.16
0.01 0.02 0.03 0.02 0.01 0.01 0.02 0.05 0.03 0.03 0.04 0.05 0.05 0.07 0.07 0.08 0.15 0.14 0.14 0.10 0.08 0.05 0.02 0.02 0.01 0.00 0.00 0.00 0.00 0.00 0.00 0.00 0.01 0.01 0.05 0.07 0.10 0.11 0.11 0.11 0.09 0.10 0.09 0.17
0.01 0.01 0.02 0.04 0.04 0.04 0.05 0.08 0.09 0.08 0.06 0.04 0.04 0.06 0.07 0.08 0.09 0.09 0.11 0.10 0.09 0.10 0.07 0.07 0.09 0.04 0.02 0.01 0.01 0.00 0.00 0.00 0.01 0.02 0.04 0.11 0.16 0.13 0.13 0.13 0.10 0.09 0.09 0.10
0.07 0.06 0.06 0.05 0.04 0.04 0.06 0.07 0.06 0.03 0.02 0.03 0.02 0.02 0.03 0.04 0.06 0.05 0.09 0.13 0.12 0.13 0.18 0.22 0.23 0.10 0.05 0.05 0.06 0.01 0.00 0.00 0.01 0.01 0.03 0.06 0.07 0.08 0.09 0.15 0.16 0.13 0.10 0.08
0.12 0.11 0.17 0.09 0.03 0.02 0.01 0.04 0.06 0.02 0.01 0.03 0.04 0.04 0.05 0.06 0.07 0.08 0.12 0.17 0.18 0.21 0.25 0.28 0.24 0.12 0.08 0.12 0.15 0.04 0.01 0.01 0.01 0.02 0.03 0.04 0.06 0.09 0.09 0.09 0.12 0.14 0.14 0.15
0.44 0.40 0.38 0.26 0.20 0.15 0.09 0.05 0.03 0.04 0.04 0.06 0.08 0.09 0.10 0.08 0.05 0.06 0.08 0.11 0.16 0.25 0.23 0.20 0.18 0.17 0.16 0.21 0.13 0.05 0.04 0.04 0.05 0.07 0.08 0.08 0.10 0.11 0.11 0.12 0.14 0.15 0.16 0.17
0.54 0.38 0.38 0.40 0.37 0.31 0.21 0.22 0.20 0.15 0.11 0.10 0.09 0.10 0.09 0.07 0.06 0.05 0.06 0.07 0.12 0.15 0.13 0.12 0.16 0.23 0.25 0.22 0.16 0.12 0.13 0.14 0.15 0.16 0.16 0.19 0.20 0.20 0.21 0.19 0.17 0.16 0.15 0.13
0.17 0.14 0.13 0.16 0.28 0.28 0.21 0.24 0.28 0.25 0.12 0.13 0.14 0.15 0.16 0.17 0.16 0.14 0.11 0.11 0.11 0.13 0.12 0.15 0.23 0.28 0.28 0.19 0.17 0.19 0.22 0.26 0.29 0.29 0.30 0.33 0.30 0.27 0.24 0.19 0.19 0.15 0.16 0.19
0.07 0.07 0.07 0.06 0.04 0.05 0.05 0.04 0.05 0.08 0.15 0.18 0.18 0.13 0.12 0.15 0.17 0.16 0.18 0.17 0.17 0.18 0.17 0.19 0.20 0.23 0.23 0.21 0.27 0.30 0.31 0.32 0.32 0.33 0.31 0.29 0.25 0.24 0.21 0.21 0.19 0.19 0.21 0.19
0.00 0.00 0.00 0.00 0.00 0.00 0.00 0.00 0.00 0.00 0.00 0.01 0.04 0.07 0.08 0.07 0.07 0.07 0.08 0.11 0.14 0.17 0.18 0.19 0.20 0.22 0.22 0.22 0.22 0.20 0.19 0.19 0.23 0.22 0.21 0.22 0.25 0.28 0.23 0.19 0.17 0.17 0.17 0.13
0.00 0.00 0.00 0.00 0.00 0.00 0.00 0.00 0.00 0.00 0.00 0.00 0.00 0.01 0.02 0.02 0.05 0.06 0.03 0.03 0.05 0.09 0.12 0.12 0.16 0.19 0.21 0.20 0.19 0.17 0.16 0.16 0.17 0.18 0.20 0.23 0.25 0.24 0.20 0.18 0.17 0.15 0.16 0.15

GFSNGP_prec_precacc_138.txt.gz
Total_Precipitation_Accumulation
0.50 0.29 0.42 0.57 0.57 0.49 0.94 0.52 0.66 0.35 0.21 0.18 0.28 0.80 1.46 1.79 1.86 1.77 2.02 2.54 2.70 2.74 2.57 2.23 2.13 2.16 2.22 2.13 1.89 1.46 1.34 1.58 1.42 1.14 1.19 1.51 1.42 1.24 0.96 1.21 1.23 1.10 0.99 1.04
0.61 0.24 0.38 0.48 0.55 0.36 0.57 0.29 0.29 0.18 0.15 0.04 0.17 0.43 0.87 1.39 1.68 2.14 2.66 2.56 2.20 1.94 1.72 1.61 1.61 1.66 1.48 1.53 1.41 1.25 1.35 1.31 1.16 1.45 1.45 1.68 1.81 1.53 0.89 1.19 1.16 1.43 1.19 1.11
0.67 0.48 0.28 0.47 0.58 0.69 0.49 0.21 0.25 0.28 0.15 0.02 0.07 0.26 0.47 0.83 1.06 1.16 1.20 1.05 0.96 0.99 0.93 0.92 0.98 0.96 1.02 1.16 1.00 0.96 0.91 0.88 1.09 1.32 1.30 1.47 1.42 1.51 1.55 1.65 1.67 1.84 1.83 1.43
0.31 0.15 0.16 0.11 0.14 0.44 0.28 0.23 0.26 0.15 0.08 0.03 0.01 0.05 0.08 0.10 0.14 0.20 0.27 0.35 0.41 0.41 0.37 0.37 0.26 0.18 0.16 0.23 0.36 0.71 0.56 0.84 1.05 1.00 1.07 1.22 1.18 1.49 1.36 1.25 1.27 1.21 1.64 1.84
0.16 0.07 0.03 0.00 0.00 0.07 0.14 0.23 0.14 0.08 0.03 0.01 0.00 0.22 0.35 0.15 0.04 0.01 0.00 0.01 0.00 0.00 0.00 0.00 0.02 0.02 0.03 0.05 0.15 0.39 0.27 0.35 0.53 0.56 0.51 0.51 0.70 0.78 0.64 0.70 0.82 0.74 0.71 0.68
0.10 0.12 0.02 0.00 0.00 0.01 0.02 0.21 0.02 0.06 0.04 0.02 0.01 0.29 0.32 0.24 0.05 0.02 0.00 0.00 0.00 0.00 0.02 0.05 0.08 0.08 0.07 0.07 0.10 0.31 0.33 0.31 0.31 0.49 0.41 0.52 0.48 0.54 0.78 0.61 0.56 0.45 0.36 0.26
0.16 0.18 0.01 0.00 0.00 0.01 0.10 0.16 0.02 0.06 0.06 0.01 0.01 0.03 0.06 0.08 0.11 0.08 0.12 0.12 0.14 0.08 0.16 0.24 0.37 0.35 0.41 0.43 0.62 0.88 0.58 0.60 0.65 0.78 0.67 0.62 0.68 0.59 0.51 0.37 0.27 0.20 0.13 0.07
0.14 0.10 0.00 0.00 0.00 0.01 0.01 0.02 0.03 0.10 0.03 0.02 0.01 0.02 0.02 0.01 0.07 0.11 0.14 0.12 0.33 0.48 0.53 0.60 0.72 0.65 0.63 0.71 0.75 0.91 0.67 0.59 0.57 0.49 0.44 0.35 0.27 0.18 0.10 0.09 0.06 0.04 0.03 0.03
0.00 0.00 0.00 0.00 0.00 0.00 0.00 0.00 0.00 0.02 0.10 0.13 0.12 0.19 0.07 0.02 0.01 0.03 0.07 0.03 0.12 0.22 0.13 0.18 0.29 0.34 0.25 0.24 0.23 0.20 0.16 0.13 0.13 0.08 0.05 0.03 0.00 0.00 0.00 0.00 0.00 0.00 0.00 0.00
0.00 0.00 0.00 0.00 0.00 0.00 0.00 0.00 0.00 0.00 0.01 0.22 0.07 0.08 0.03 0.06 0.04 0.05 0.05 0.02 0.04 0.04 0.04 0.04 0.05 0.04 0.03 0.02 0.02 0.02 0.02 0.02 0.00 0.00 0.01 0.00 0.00 0.00 0.00 0.00 0.00 0.00 0.00 0.00
0.01 0.00 0.00 0.00 0.00 0.00 0.01 0.02 0.00 0.00 0.01 0.03 0.10 0.10 0.04 0.16 0.08 0.00 0.00 0.00 0.00 0.01 0.02 0.00 0.00 0.00 0.00 0.01 0.03 0.06 0.09 0.13 0.16 0.14 0.12 0.06 0.03 0.03 0.02 0.01 0.03 0.01 0.01 0.02
0.03 0.01 0.02 0.02 0.01 0.00 0.00 0.01 0.01 0.02 0.01 0.02 0.02 0.13 0.02 0.06 0.03 0.00 0.00 0.00 0.00 0.00 0.01 0.00 0.00 0.00 0.00 0.00 0.00 0.00 0.01 0.01 0.04 0.11 0.23 0.32 0.35 0.38 0.40 0.38 0.37 0.30 0.26 0.22
0.00 0.00 0.01 0.01 0.01 0.01 0.00 0.00 0.00 0.00 0.01 0.01 0.00 0.01 0.02 0.11 0.02 0.00 0.00 0.00 0.00 0.00 0.00 0.00 0.00 0.00 0.00 0.00 0.00 0.00 0.00 0.00 0.00 0.01 0.00 0.01 0.03 0.07 0.13 0.20 0.27 0.32 0.39 0.45
0.00 0.00 0.00 0.00 0.00 0.00 0.00 0.00 0.03 0.02 0.01 0.01 0.02 0.07 0.09 0.26 0.26 0.08 0.07 0.00 0.00 0.00 0.01 0.00 0.01 0.01 0.02 0.01 0.00 0.00 0.00 0.02 0.00 0.00 0.00 0.00 0.01 0.01 0.02 0.01 0.02 0.04 0.08 0.14
0.00 0.00 0.00 0.00 0.00 0.02 0.01 0.00 0.00 0.01 0.02 0.01 0.00 0.00 0.03 0.06 0.27 0.17 0.04 0.01 0.00 0.00 0.00 0.00 0.00 0.00 0.00 0.01 0.01 0.01 0.01 0.01 0.01 0.01 0.01 0.02 0.01 0.01 0.02 0.02 0.01 0.00 0.00 0.03
0.00 0.00 0.00 0.00 0.01 0.03 0.03 0.01 0.00 0.00 0.01 0.00 0.01 0.02 0.03 0.07 0.19 0.16 0.08 0.04 0.02 0.03 0.03 0.02 0.01 0.01 0.02 0.02 0.01 0.01 0.02 0.05 0.03 0.01 0.03 0.04 0.04 0.04 0.05 0.06 0.06 0.04 0.03 0.03
0.01 0.01 0.00 0.00 0.00 0.02 0.03 0.05 0.00 0.00 0.01 0.01 0.01 0.01 0.02 0.06 0.11 0.13 0.08 0.04 0.03 0.02 0.01 0.00 0.00 0.00 0.00 0.00 0.01 0.01 0.01 0.03 0.07 0.02 0.03 0.05 0.06 0.07 0.08 0.09 0.10 0.10 0.08 0.16
0.01 0.02 0.03 0.02 0.01 0.01 0.02 0.05 0.03 0.03 0.04 0.05 0.05 0.07 0.07 0.08 0.15 0.14 0.14 0.10 0.08 0.05 0.02 0.02 0.01 0.00 0.00 0.00 0.00 0.00 0.00 0.00 0.01 0.01 0.05 0.07 0.10 0.11 0.11 0.11 0.09 0.10 0.09 0.17
0.01 0.01 0.02 0.04 0.04 0.04 0.05 0.08 0.09 0.08 0.06 0.04 0.04 0.06 0.07 0.08 0.09 0.09 0.11 0.10 0.09 0.10 0.07 0.07 0.09 0.04 0.02 0.01 0.01 0.00 0.00 0.00 0.01 0.02 0.04 0.11 0.16 0.13 0.13 0.13 0.10 0.09 0.09 0.10
0.07 0.06 0.06 0.05 0.04 0.04 0.06 0.07 0.06 0.03 0.02 0.03 0.02 0.02 0.03 0.04 0.06 0.05 0.09 0.13 0.12 0.13 0.18 0.22 0.23 0.10 0.05 0.05 0.06 0.01 0.00 0.00 0.01 0.01 0.03 0.06 0.07 0.08 0.09 0.15 0.16 0.13 0.10 0.08
0.12 0.11 0.17 0.09 0.03 0.02 0.01 0.04 0.06 0.02 0.01 0.03 0.04 0.04 0.05 0.06 0.07 0.08 0.12 0.17 0.18 0.21 0.25 0.28 0.24 0.12 0.08 0.12 0.15 0.04 0.01 0.01 0.01 0.02 0.03 0.04 0.06 0.09 0.09 0.09 0.12 0.14 0.14 0.15
0.44 0.40 0.38 0.26 0.20 0.15 0.09 0.05 0.03 0.04 0.04 0.06 0.08 0.09 0.10 0.08 0.05 0.06 0.08 0.11 0.16 0.25 0.23 0.20 0.18 0.17 0.16 0.21 0.13 0.05 0.04 0.04 0.05 0.07 0.08 0.08 0.10 0.11 0.11 0.12 0.14 0.15 0.16 0.17
0.54 0.38 0.38 0.40 0.37 0.31 0.21 0.22 0.20 0.15 0.11 0.10 0.09 0.10 0.09 0.07 0.06 0.05 0.06 0.07 0.12 0.15 0.13 0.12 0.16 0.23 0.25 0.22 0.16 0.12 0.13 0.15 0.16 0.16 0.16 0.19 0.20 0.21 0.21 0.19 0.17 0.16 0.15 0.13
0.17 0.14 0.13 0.16 0.28 0.28 0.21 0.24 0.28 0.25 0.12 0.13 0.14 0.15 0.16 0.17 0.16 0.14 0.11 0.11 0.11 0.13 0.12 0.15 0.23 0.28 0.28 0.19 0.17 0.19 0.23 0.27 0.29 0.29 0.30 0.33 0.30 0.27 0.24 0.20 0.19 0.15 0.16 0.19
0.07 0.07 0.07 0.06 0.04 0.05 0.05 0.04 0.05 0.08 0.15 0.18 0.18 0.13 0.12 0.15 0.17 0.16 0.18 0.17 0.17 0.18 0.17 0.19 0.20 0.23 0.23 0.21 0.27 0.31 0.32 0.33 0.33 0.33 0.31 0.29 0.25 0.24 0.21 0.21 0.20 0.19 0.21 0.19
0.00 0.00 0.00 0.00 0.00 0.00 0.00 0.00 0.00 0.00 0.00 0.01 0.04 0.07 0.08 0.07 0.07 0.07 0.08 0.11 0.14 0.17 0.18 0.19 0.20 0.22 0.22 0.22 0.23 0.21 0.19 0.20 0.23 0.22 0.21 0.22 0.25 0.28 0.24 0.19 0.17 0.17 0.17 0.13
0.00 0.00 0.00 0.00 0.00 0.00 0.00 0.00 0.00 0.00 0.00 0.00 0.00 0.01 0.02 0.02 0.05 0.06 0.03 0.03 0.05 0.10 0.12 0.13 0.16 0.19 0.21 0.20 0.19 0.17 0.16 0.16 0.17 0.18 0.20 0.23 0.25 0.24 0.20 0.18 0.17 0.15 0.16 0.15

GFSNGP_prec_precacc_141.txt.gz
Total_Precipitation_Accumulation
0.50 0.29 0.42 0.57 0.57 0.49 0.94 0.52 0.67 0.36 0.23 0.22 0.35 0.90 1.57 1.85 1.87 1.77 2.02 2.55 2.70 2.75 2.57 2.23 2.14 2.16 2.22 2.15 1.90 1.46 1.34 1.58 1.43 1.20 1.29 1.60 1.46 1.25 0.99 1.27 1.26 1.14 1.01 1.05
0.61 0.24 0.38 0.48 0.55 0.36 0.57 0.29 0.29 0.18 0.15 0.04 0.17 0.44 0.89 1.40 1.68 2.14 2.66 2.56 2.20 1.94 1.72 1.61 1.61 1.66 1.48 1.53 1.42 1.26 1.37 1.39 1.21 1.46 1.46 1.73 1.88 1.56 0.92 1.30 1.30 1.55 1.25 1.16
0.67 0.48 0.28 0.47 0.58 0.69 0.49 0.21 0.25 0.28 0.15 0.02 0.07 0.26 0.47 0.83 1.06 1.16 1.20 1.05 0.96 0.99 0.93 0.92 0.98 0.96 1.02 1.16 1.00 0.97 0.99 1.08 1.23 1.37 1.31 1.47 1.42 1.53 1.57 1.71 1.77 1.94 1.88 1.46
0.31 0.15 0.16 0.11 0.14 0.44 0.28 0.23 0.26 0.15 0.08 0.03 0.01 0.05 0.08 0.10 0.14 0.20 0.27 0.35 0.41 0.41 0.37 0.37 0.26 0.18 0.16 0.23 0.37 0.73 0.61 0.92 1.14 1.11 1.16 1.26 1.25 1.72 1.57 1.44 1.65 1.71 1.90 2.08
0.16 0.07 0.03 0.00 0.00 0.07 0.14 0.23 0.14 0.08 0.03 0.01 0.00 0.22 0.35 0.15 0.04 0.01 0.00 0.01 0.00 0.00 0.00 0.00 0.02 0.02 0.03 0.05 0.15 0.39 0.28 0.36 0.58 0.66 0.64 0.63 0.91 1.22 1.03 1.01 1.19 1.17 0.98 0.94
0.10 0.12 0.02 0.00 0.00 0.01 0.02 0.21 0.02 0.06 0.04 0.02 0.01 0.29 0.32 0.24 0.05 0.02 0.00 0.00 0.00 0.00 0.02 0.05 0.08 0.08 0.07 0.07 0.10 0.31 0.33 0.31 0.31 0.50 0.48 0.67 0.75 0.82 1.01 0.86 0.78 0.62 0.47 0.33
0.16 0.18 0.01 0.00 0.00 0.01 0.10 0.16 0.02 0.06 0.06 0.01 0.01 0.03 0.06 0.08 0.11 0.08 0.12 0.12 0.14 0.08 0.16 0.24 0.37 0.35 0.41 0.43 0.62 0.88 0.58 0.60 0.65 0.78 0.67 0.62 0.70 0.60 0.52 0.38 0.27 0.21 0.13 0.07
0.14 0.10 0.00 0.00 0.00 0.01 0.01 0.02 0.03 0.10 0.03 0.02 0.01 0.02 0.02 0.01 0.07 0.11 0.14 0.12 0.33 0.48 0.53 0.60 0.72 0.65 0.63 0.71 0.75 0.91 0.67 0.59 0.57 0.49 0.44 0.35 0.27 0.18 0.10 0.09 0.06 0.04 0.03 0.03
0.00 0.00 0.00 0.00 0.00 0.00 0.00 0.00 0.00 0.02 0.10 0.13 0.12 0.19 0.07 0.02 0.01 0.03 0.07 0.03 0.12 0.22 0.13 0.18 0.29 0.34 0.25 0.24 0.23 0.20 0.16 0.13 0.13 0.08 0.05 0.03 0.00 0.00 0.00 0.00 0.00 0.00 0.00 0.00
0.00 0.00 0.00 0.00 0.00 0.00 0.00 0.00 0.00 0.00 0.01 0.22 0.07 0.08 0.03 0.06 0.04 0.05 0.05 0.02 0.04 0.04 0.04 0.04 0.05 0.04 0.03 0.02 0.02 0.02 0.02 0.02 0.00 0.00 0.01 0.00 0.00 0.00 0.00 0.00 0.00 0.00 0.00 0.00
0.01 0.00 0.00 0.00 0.00 0.00 0.01 0.02 0.00 0.00 0.01 0.03 0.10 0.10 0.04 0.16 0.08 0.00 0.00 0.00 0.00 0.01 0.02 0.00 0.00 0.00 0.00 0.01 0.03 0.06 0.09 0.13 0.16 0.14 0.12 0.06 0.03 0.03 0.02 0.01 0.03 0.01 0.01 0.02
0.03 0.01 0.02 0.02 0.01 0.00 0.00 0.01 0.01 0.02 0.01 0.02 0.02 0.13 0.02 0.06 0.03 0.00 0.00 0.00 0.00 0.00 0.01 0.00 0.00 0.00 0.00 0.00 0.00 0.00 0.01 0.01 0.04 0.11 0.23 0.32 0.35 0.38 0.40 0.38 0.37 0.30 0.26 0.22
0.00 0.00 0.01 0.01 0.01 0.01 0.00 0.00 0.00 0.00 0.01 0.01 0.00 0.01 0.02 0.11 0.02 0.00 0.00 0.00 0.00 0.00 0.00 0.00 0.00 0.00 0.00 0.00 0.00 0.00 0.00 0.00 0.00 0.01 0.00 0.01 0.03 0.07 0.13 0.20 0.27 0.32 0.39 0.45
0.00 0.00 0.00 0.00 0.00 0.00 0.00 0.00 0.03 0.02 0.01 0.01 0.02 0.07 0.09 0.26 0.26 0.08 0.07 0.00 0.00 0.00 0.01 0.00 0.01 0.01 0.02 0.01 0.00 0.00 0.00 0.02 0.00 0.00 0.00 0.00 0.01 0.01 0.02 0.01 0.02 0.04 0.08 0.14
0.00 0.00 0.00 0.00 0.00 0.02 0.01 0.00 0.00 0.01 0.02 0.01 0.00 0.00 0.03 0.06 0.27 0.17 0.04 0.01 0.00 0.00 0.00 0.00 0.00 0.00 0.00 0.01 0.01 0.01 0.01 0.01 0.01 0.01 0.01 0.02 0.01 0.01 0.02 0.02 0.01 0.00 0.00 0.03
0.00 0.00 0.00 0.00 0.01 0.03 0.03 0.01 0.00 0.00 0.01 0.00 0.01 0.02 0.03 0.07 0.19 0.16 0.08 0.04 0.02 0.03 0.03 0.02 0.01 0.01 0.02 0.02 0.01 0.01 0.02 0.05 0.03 0.01 0.03 0.04 0.04 0.04 0.05 0.06 0.06 0.04 0.03 0.03
0.01 0.01 0.00 0.00 0.00 0.02 0.03 0.05 0.00 0.00 0.01 0.01 0.01 0.01 0.02 0.06 0.11 0.13 0.08 0.04 0.03 0.02 0.01 0.00 0.00 0.00 0.00 0.00 0.01 0.01 0.01 0.03 0.07 0.02 0.03 0.05 0.06 0.07 0.08 0.09 0.10 0.10 0.08 0.16
0.01 0.02 0.03 0.02 0.01 0.01 0.02 0.05 0.03 0.03 0.04 0.05 0.05 0.07 0.07 0.08 0.15 0.14 0.14 0.10 0.08 0.05 0.02 0.02 0.01 0.00 0.00 0.00 0.00 0.00 0.00 0.00 0.01 0.01 0.05 0.07 0.10 0.11 0.11 0.11 0.09 0.10 0.09 0.17
0.01 0.01 0.02 0.04 0.04 0.04 0.05 0.08 0.09 0.08 0.06 0.04 0.04 0.06 0.07 0.08 0.09 0.09 0.11 0.10 0.09 0.10 0.07 0.07 0.09 0.04 0.02 0.01 0.01 0.00 0.00 0.00 0.01 0.02 0.04 0.11 0.16 0.13 0.13 0.13 0.10 0.09 0.09 0.10
0.07 0.06 0.06 0.05 0.04 0.04 0.06 0.07 0.06 0.03 0.02 0.03 0.02 0.02 0.03 0.04 0.06 0.05 0.09 0.13 0.12 0.13 0.18 0.22 0.23 0.10 0.05 0.05 0.06 0.01 0.00 0.00 0.01 0.01 0.03 0.06 0.07 0.08 0.09 0.15 0.16 0.13 0.10 0.08
0.12 0.11 0.17 0.09 0.03 0.02 0.01 0.04 0.06 0.02 0.01 0.03 0.04 0.04 0.05 0.06 0.07 0.08 0.12 0.17 0.18 0.21 0.25 0.28 0.24 0.12 0.08 0.12 0.15 0.04 0.01 0.01 0.01 0.02 0.03 0.04 0.06 0.09 0.09 0.09 0.12 0.14 0.14 0.15
0.44 0.40 0.38 0.26 0.20 0.15 0.09 0.05 0.03 0.04 0.04 0.06 0.08 0.09 0.10 0.08 0.05 0.06 0.08 0.11 0.16 0.25 0.23 0.20 0.18 0.17 0.16 0.21 0.13 0.05 0.04 0.04 0.05 0.07 0.08 0.08 0.10 0.11 0.11 0.12 0.14 0.15 0.16 0.17
0.54 0.38 0.38 0.40 0.37 0.31 0.21 0.22 0.20 0.15 0.11 0.10 0.09 0.10 0.09 0.07 0.06 0.05 0.06 0.07 0.12 0.15 0.13 0.12 0.16 0.23 0.25 0.22 0.16 0.12 0.13 0.15 0.16 0.16 0.16 0.19 0.20 0.21 0.21 0.19 0.17 0.16 0.15 0.13
0.17 0.14 0.13 0.16 0.28 0.28 0.21 0.24 0.28 0.25 0.12 0.13 0.14 0.15 0.16 0.17 0.16 0.14 0.11 0.11 0.11 0.13 0.12 0.15 0.23 0.28 0.28 0.19 0.17 0.19 0.23 0.27 0.29 0.29 0.30 0.33 0.30 0.27 0.24 0.20 0.19 0.15 0.16 0.19
0.07 0.07 0.07 0.06 0.04 0.05 0.05 0.04 0.05 0.08 0.15 0.18 0.18 0.13 0.12 0.15 0.17 0.16 0.18 0.17 0.17 0.18 0.17 0.19 0.20 0.23 0.23 0.21 0.27 0.31 0.32 0.33 0.33 0.33 0.31 0.29 0.25 0.24 0.21 0.21 0.20 0.19 0.21 0.19
0.00 0.00 0.00 0.00 0.00 0.00 0.00 0.00 0.00 0.00 0.00 0.01 0.04 0.07 0.08 0.07 0.07 0.07 0.08 0.11 0.14 0.17 0.18 0.19 0.20 0.22 0.22 0.22 0.23 0.21 0.19 0.20 0.23 0.22 0.21 0.23 0.26 0.28 0.24 0.19 0.17 0.17 0.17 0.13
0.00 0.00 0.00 0.00 0.00 0.00 0.00 0.00 0.00 0.00 0.00 0.00 0.00 0.01 0.02 0.02 0.05 0.06 0.03 0.03 0.05 0.10 0.12 0.13 0.16 0.20 0.22 0.22 0.21 0.18 0.17 0.17 0.19 0.21 0.24 0.25 0.25 0.24 0.20 0.18 0.17 0.15 0.16 0.15

GFSNGP_prec_precacc_144.txt.gz
Total_Precipitation_Accumulation
0.50 0.29 0.42 0.57 0.57 0.49 0.94 0.52 0.67 0.37 0.24 0.23 0.37 0.91 1.59 1.88 1.88 1.78 2.02 2.55 2.70 2.75 2.57 2.23 2.14 2.16 2.23 2.16 1.91 1.46 1.34 1.58 1.43 1.21 1.31 1.67 1.56 1.36 1.02 1.28 1.30 1.20 1.05 1.09
0.61 0.24 0.38 0.48 0.55 0.36 0.57 0.29 0.29 0.18 0.15 0.04 0.17 0.44 0.89 1.40 1.68 2.14 2.66 2.56 2.20 1.94 1.72 1.61 1.61 1.66 1.48 1.53 1.42 1.26 1.37 1.40 1.21 1.47 1.46 1.74 1.92 1.61 0.99 1.36 1.38 1.62 1.36 1.27
0.67 0.48 0.28 0.47 0.58 0.69 0.49 0.21 0.25 0.28 0.15 0.02 0.07 0.26 0.47 0.83 1.06 1.16 1.20 1.05 0.96 0.99 0.93 0.92 0.98 0.96 1.02 1.16 1.00 0.97 0.99 1.09 1.24 1.38 1.31 1.47 1.42 1.53 1.57 1.71 1.77 1.97 1.94 1.50
0.31 0.15 0.16 0.11 0.14 0.44 0.28 0.23 0.26 0.15 0.08 0.03 0.01 0.05 0.08 0.10 0.14 0.20 0.27 0.35 0.41 0.41 0.37 0.37 0.26 0.18 0.16 0.23 0.37 0.73 0.61 0.92 1.14 1.11 1.16 1.27 1.26 1.73 1.57 1.44 1.66 1.76 1.93 2.10
0.16 0.07 0.03 0.00 0.00 0.07 0.14 0.23 0.14 0.08 0.03 0.01 0.00 0.22 0.35 0.15 0.04 0.01 0.00 0.01 0.00 0.00 0.00 0.00 0.02 0.02 0.03 0.05 0.15 0.39 0.28 0.36 0.58 0.66 0.64 0.65 0.98 1.29 1.07 1.02 1.25 1.32 1.10 1.04
0.10 0.12 0.02 0.00 0.00 0.01 0.02 0.21 0.02 0.06 0.04 0.02 0.01 0.29 0.32 0.24 0.05 0.02 0.00 0.00 0.00 0.00 0.02 0.05 0.08 0.08 0.07 0.07 0.10 0.31 0.33 0.31 0.31 0.50 0.48 0.68 0.76 0.85 1.05 0.91 0.90 0.86 0.72 0.51
0.16 0.18 0.01 0.00 0.00 0.01 0.10 0.16 0.02 0.06 0.06 0.01 0.01 0.03 0.06 0.08 0.11 0.08 0.12 0.12 0.14 0.08 0.16 0.24 0.37 0.35 0.41 0.43 0.62 0.88 0.58 0.60 0.65 0.78 0.67 0.62 0.71 0.62 0.54 0.42 0.33 0.30 0.24 0.18
0.14 0.10 0.00 0.00 0.00 0.01 0.01 0.02 0.03 0.10 0.03 0.02 0.01 0.02 0.02 0.01 0.07 0.11 0.14 0.12 0.33 0.48 0.53 0.60 0.72 0.65 0.63 0.71 0.75 0.91 0.67 0.59 0.57 0.49 0.44 0.35 0.27 0.18 0.10 0.09 0.06 0.04 0.03 0.03
0.00 0.00 0.00 0.00 0.00 0.00 0.00 0.00 0.00 0.02 0.10 0.13 0.12 0.19 0.07 0.02 0.01 0.03 0.07 0.03 0.12 0.22 0.13 0.18 0.29 0.34 0.25 0.24 0.23 0.20 0.16 0.13 0.13 0.08 0.05 0.03 0.00 0.00 0.00 0.00 0.00 0.00 0.00 0.00
0.00 0.00 0.00 0.00 0.00 0.00 0.00 0.00 0.00 0.00 0.01 0.22 0.07 0.08 0.03 0.06 0.04 0.05 0.05 0.02 0.04 0.04 0.04 0.04 0.05 0.04 0.03 0.02 0.02 0.02 0.02 0.02 0.00 0.00 0.01 0.00 0.00 0.00 0.00 0.00 0.00 0.00 0.00 0.00
0.01 0.00 0.00 0.00 0.00 0.00 0.01 0.02 0.00 0.00 0.01 0.03 0.10 0.10 0.04 0.16 0.08 0.00 0.00 0.00 0.00 0.01 0.02 0.00 0.00 0.00 0.00 0.01 0.03 0.06 0.09 0.13 0.16 0.14 0.12 0.06 0.03 0.03 0.02 0.01 0.03 0.01 0.01 0.02
0.03 0.01 0.02 0.02 0.01 0.00 0.00 0.01 0.01 0.02 0.01 0.02 0.02 0.13 0.02 0.06 0.03 0.00 0.00 0.00 0.00 0.00 0.01 0.00 0.00 0.00 0.00 0.00 0.00 0.00 0.01 0.01 0.04 0.11 0.23 0.32 0.35 0.38 0.40 0.38 0.37 0.30 0.26 0.22
0.00 0.00 0.01 0.01 0.01 0.01 0.00 0.00 0.00 0.00 0.01 0.01 0.00 0.01 0.02 0.11 0.02 0.00 0.00 0.00 0.00 0.00 0.00 0.00 0.00 0.00 0.00 0.00 0.00 0.00 0.00 0.00 0.00 0.01 0.00 0.01 0.03 0.07 0.13 0.20 0.27 0.32 0.39 0.45
0.00 0.00 0.00 0.00 0.00 0.00 0.00 0.00 0.03 0.02 0.01 0.01 0.02 0.07 0.09 0.26 0.26 0.08 0.07 0.00 0.00 0.00 0.01 0.00 0.01 0.01 0.02 0.01 0.00 0.00 0.00 0.02 0.00 0.00 0.00 0.00 0.01 0.01 0.02 0.01 0.02 0.04 0.08 0.14
0.00 0.00 0.00 0.00 0.00 0.02 0.01 0.00 0.00 0.01 0.02 0.01 0.00 0.00 0.03 0.06 0.27 0.17 0.04 0.01 0.00 0.00 0.00 0.00 0.00 0.00 0.00 0.01 0.01 0.01 0.01 0.01 0.01 0.01 0.01 0.02 0.01 0.01 0.02 0.02 0.01 0.00 0.00 0.03
0.00 0.00 0.00 0.00 0.01 0.03 0.03 0.01 0.00 0.00 0.01 0.00 0.01 0.02 0.03 0.07 0.19 0.16 0.08 0.04 0.02 0.03 0.03 0.02 0.01 0.01 0.02 0.02 0.01 0.01 0.02 0.05 0.03 0.01 0.03 0.04 0.04 0.04 0.05 0.06 0.06 0.04 0.03 0.03
0.01 0.01 0.00 0.00 0.00 0.02 0.03 0.05 0.00 0.00 0.01 0.01 0.01 0.01 0.02 0.06 0.11 0.13 0.08 0.04 0.03 0.02 0.01 0.00 0.00 0.00 0.00 0.00 0.01 0.01 0.01 0.03 0.07 0.02 0.03 0.05 0.06 0.07 0.08 0.09 0.10 0.10 0.08 0.16
0.01 0.02 0.03 0.02 0.01 0.01 0.02 0.05 0.03 0.03 0.04 0.05 0.05 0.07 0.07 0.08 0.15 0.14 0.14 0.10 0.08 0.05 0.02 0.02 0.01 0.00 0.00 0.00 0.00 0.00 0.00 0.00 0.01 0.01 0.05 0.07 0.10 0.11 0.11 0.11 0.09 0.10 0.09 0.17
0.01 0.01 0.02 0.04 0.04 0.04 0.05 0.08 0.09 0.08 0.06 0.04 0.04 0.06 0.07 0.08 0.09 0.09 0.11 0.10 0.09 0.10 0.07 0.07 0.09 0.04 0.02 0.01 0.01 0.00 0.00 0.00 0.01 0.02 0.04 0.11 0.16 0.13 0.13 0.13 0.10 0.09 0.09 0.10
0.07 0.06 0.06 0.05 0.04 0.04 0.06 0.07 0.06 0.03 0.02 0.03 0.02 0.02 0.03 0.04 0.06 0.05 0.09 0.13 0.12 0.13 0.18 0.22 0.23 0.10 0.05 0.05 0.06 0.01 0.00 0.00 0.01 0.01 0.03 0.06 0.07 0.08 0.09 0.15 0.16 0.13 0.10 0.08
0.12 0.11 0.17 0.09 0.03 0.02 0.01 0.04 0.06 0.02 0.01 0.03 0.04 0.04 0.05 0.06 0.07 0.08 0.12 0.17 0.18 0.21 0.25 0.28 0.24 0.12 0.08 0.12 0.15 0.04 0.01 0.01 0.01 0.02 0.03 0.04 0.06 0.09 0.09 0.09 0.12 0.14 0.14 0.15
0.44 0.40 0.38 0.26 0.20 0.15 0.09 0.05 0.03 0.04 0.04 0.06 0.08 0.09 0.10 0.08 0.05 0.06 0.08 0.11 0.16 0.25 0.23 0.20 0.18 0.17 0.16 0.21 0.13 0.05 0.04 0.04 0.05 0.07 0.08 0.08 0.10 0.11 0.11 0.12 0.14 0.15 0.16 0.17
0.54 0.38 0.38 0.40 0.37 0.31 0.21 0.22 0.20 0.15 0.11 0.10 0.09 0.10 0.09 0.07 0.06 0.05 0.06 0.07 0.12 0.15 0.13 0.12 0.16 0.23 0.25 0.22 0.16 0.12 0.13 0.15 0.16 0.16 0.16 0.19 0.20 0.21 0.21 0.19 0.17 0.16 0.15 0.13
0.17 0.14 0.13 0.16 0.28 0.28 0.21 0.24 0.28 0.25 0.12 0.13 0.14 0.15 0.16 0.17 0.16 0.14 0.11 0.11 0.11 0.13 0.12 0.15 0.23 0.28 0.28 0.19 0.17 0.19 0.23 0.27 0.29 0.29 0.30 0.33 0.30 0.27 0.24 0.20 0.20 0.15 0.16 0.19
0.07 0.07 0.07 0.06 0.04 0.05 0.05 0.04 0.05 0.08 0.15 0.18 0.18 0.13 0.12 0.15 0.17 0.16 0.18 0.17 0.17 0.18 0.17 0.19 0.20 0.23 0.23 0.21 0.27 0.31 0.32 0.34 0.35 0.36 0.32 0.29 0.25 0.24 0.22 0.22 0.21 0.20 0.21 0.19
0.00 0.00 0.00 0.00 0.00 0.00 0.00 0.00 0.00 0.00 0.00 0.01 0.04 0.07 0.08 0.07 0.07 0.07 0.08 0.11 0.14 0.17 0.18 0.19 0.20 0.22 0.22 0.22 0.23 0.22 0.23 0.24 0.27 0.25 0.23 0.26 0.29 0.32 0.28 0.22 0.19 0.18 0.18 0.13
0.00 0.00 0.00 0.00 0.00 0.00 0.00 0.00 0.00 0.00 0.00 0.00 0.00 0.01 0.02 0.02 0.05 0.07 0.03 0.03 0.05 0.10 0.12 0.13 0.16 0.20 0.22 0.23 0.23 0.23 0.21 0.20 0.22 0.24 0.29 0.33 0.34 0.30 0.23 0.20 0.18 0.16 0.16 0.15

GFSNGP_prec_precacc_147.txt.gz
Total_Precipitation_Accumulation
0.50 0.29 0.42 0.57 0.57 0.49 0.94 0.52 0.67 0.37 0.24 0.23 0.37 0.91 1.59 1.88 1.88 1.78 2.02 2.55 2.70 2.75 2.57 2.23 2.14 2.17 2.23 2.16 1.91 1.46 1.34 1.58 1.43 1.21 1.31 1.67 1.57 1.39 1.05 1.30 1.31 1.22 1.07 1.11
0.61 0.24 0.38 0.48 0.55 0.36 0.57 0.29 0.29 0.18 0.15 0.04 0.17 0.44 0.89 1.40 1.68 2.14 2.66 2.56 2.20 1.94 1.72 1.61 1.61 1.66 1.48 1.53 1.42 1.26 1.37 1.40 1.21 1.47 1.46 1.74 1.92 1.62 0.99 1.37 1.38 1.63 1.36 1.28
0.67 0.48 0.28 0.47 0.58 0.69 0.49 0.21 0.25 0.28 0.15 0.02 0.07 0.26 0.47 0.83 1.06 1.16 1.20 1.05 0.96 0.99 0.93 0.92 0.98 0.96 1.02 1.16 1.00 0.97 0.99 1.09 1.24 1.38 1.31 1.47 1.42 1.53 1.57 1.71 1.77 1.97 1.94 1.50
0.31 0.15 0.16 0.11 0.14 0.44 0.28 0.23 0.26 0.15 0.08 0.03 0.01 0.05 0.08 0.10 0.14 0.20 0.27 0.35 0.41 0.41 0.37 0.37 0.26 0.18 0.16 0.23 0.37 0.73 0.61 0.92 1.15 1.12 1.16 1.27 1.27 1.73 1.57 1.44 1.66 1.76 1.93 2.10
0.16 0.07 0.03 0.00 0.00 0.07 0.14 0.23 0.14 0.08 0.03 0.01 0.00 0.22 0.35 0.15 0.04 0.01 0.00 0.01 0.00 0.00 0.00 0.00 0.02 0.02 0.03 0.05 0.15 0.39 0.28 0.36 0.58 0.66 0.64 0.65 0.98 1.29 1.07 1.02 1.26 1.32 1.10 1.04
0.10 0.12 0.02 0.00 0.00 0.01 0.02 0.21 0.02 0.06 0.04 0.02 0.01 0.29 0.32 0.24 0.05 0.02 0.00 0.00 0.00 0.00 0.02 0.05 0.08 0.08 0.07 0.07 0.10 0.31 0.33 0.31 0.31 0.50 0.48 0.68 0.76 0.85 1.05 0.91 0.91 0.87 0.73 0.54
0.16 0.18 0.01 0.00 0.00 0.01 0.10 0.16 0.02 0.06 0.06 0.01 0.01 0.03 0.06 0.08 0.11 0.08 0.12 0.12 0.14 0.08 0.16 0.24 0.37 0.35 0.41 0.43 0.62 0.88 0.58 0.60 0.65 0.78 0.67 0.62 0.71 0.62 0.54 0.42 0.33 0.30 0.25 0.20
0.14 0.10 0.00 0.00 0.00 0.01 0.01 0.02 0.03 0.10 0.03 0.02 0.01 0.02 0.02 0.01 0.07 0.11 0.14 0.12 0.33 0.48 0.53 0.60 0.72 0.65 0.63 0.71 0.75 0.91 0.67 0.59 0.57 0.49 0.44 0.35 0.27 0.18 0.10 0.09 0.06 0.04 0.03 0.03
0.00 0.00 0.00 0.00 0.00 0.00 0.00 0.00 0.00 0.02 0.10 0.13 0.12 0.19 0.07 0.02 0.01 0.03 0.07 0.03 0.12 0.22 0.13 0.18 0.29 0.34 0.25 0.24 0.23 0.20 0.16 0.13 0.13 0.08 0.05 0.03 0.00 0.00 0.00 0.00 0.00 0.00 0.00 0.00
0.00 0.00 0.00 0.00 0.00 0.00 0.00 0.00 0.00 0.00 0.01 0.22 0.07 0.08 0.03 0.06 0.04 0.05 0.05 0.02 0.04 0.04 0.04 0.04 0.05 0.04 0.03 0.02 0.02 0.02 0.02 0.02 0.00 0.00 0.01 0.00 0.00 0.00 0.00 0.00 0.00 0.00 0.00 0.00
0.01 0.00 0.00 0.00 0.00 0.00 0.01 0.02 0.00 0.00 0.01 0.03 0.10 0.10 0.04 0.16 0.08 0.00 0.00 0.00 0.00 0.01 0.02 0.00 0.00 0.00 0.00 0.01 0.03 0.06 0.09 0.13 0.16 0.14 0.12 0.06 0.03 0.03 0.02 0.01 0.03 0.01 0.01 0.02
0.03 0.01 0.02 0.02 0.01 0.00 0.00 0.01 0.01 0.02 0.01 0.02 0.02 0.13 0.02 0.06 0.03 0.00 0.00 0.00 0.00 0.00 0.01 0.00 0.00 0.00 0.00 0.00 0.00 0.00 0.01 0.01 0.04 0.11 0.23 0.32 0.35 0.38 0.40 0.38 0.37 0.30 0.26 0.22
0.00 0.00 0.01 0.01 0.01 0.01 0.00 0.00 0.00 0.00 0.01 0.01 0.00 0.01 0.02 0.11 0.02 0.00 0.00 0.00 0.00 0.00 0.00 0.00 0.00 0.00 0.00 0.00 0.00 0.00 0.00 0.00 0.00 0.01 0.00 0.01 0.03 0.07 0.13 0.20 0.27 0.32 0.39 0.45
0.00 0.00 0.00 0.00 0.00 0.00 0.00 0.00 0.03 0.02 0.01 0.01 0.02 0.07 0.09 0.26 0.26 0.08 0.07 0.00 0.00 0.00 0.01 0.00 0.01 0.01 0.02 0.01 0.00 0.00 0.00 0.02 0.00 0.00 0.00 0.00 0.01 0.01 0.02 0.01 0.02 0.04 0.08 0.14
0.00 0.00 0.00 0.00 0.00 0.02 0.01 0.00 0.00 0.01 0.02 0.01 0.00 0.00 0.03 0.06 0.27 0.17 0.04 0.01 0.00 0.00 0.00 0.00 0.00 0.00 0.00 0.01 0.01 0.01 0.01 0.01 0.01 0.01 0.01 0.02 0.01 0.01 0.02 0.02 0.01 0.00 0.00 0.03
0.00 0.00 0.00 0.00 0.01 0.03 0.03 0.01 0.00 0.00 0.01 0.00 0.01 0.02 0.03 0.07 0.19 0.16 0.08 0.04 0.02 0.03 0.03 0.02 0.01 0.01 0.02 0.02 0.01 0.01 0.02 0.05 0.03 0.01 0.03 0.04 0.04 0.04 0.05 0.06 0.06 0.04 0.03 0.03
0.01 0.01 0.00 0.00 0.00 0.02 0.03 0.05 0.00 0.00 0.01 0.01 0.01 0.01 0.02 0.06 0.11 0.13 0.08 0.04 0.03 0.02 0.01 0.00 0.00 0.00 0.00 0.00 0.01 0.01 0.01 0.03 0.07 0.02 0.03 0.05 0.06 0.07 0.08 0.09 0.10 0.10 0.08 0.16
0.01 0.02 0.03 0.02 0.01 0.01 0.02 0.05 0.03 0.03 0.04 0.05 0.05 0.07 0.07 0.08 0.15 0.14 0.14 0.10 0.08 0.05 0.02 0.02 0.01 0.00 0.00 0.00 0.00 0.00 0.00 0.00 0.01 0.01 0.05 0.07 0.10 0.11 0.11 0.11 0.09 0.10 0.09 0.17
0.01 0.01 0.02 0.04 0.04 0.04 0.05 0.08 0.09 0.08 0.06 0.04 0.04 0.06 0.07 0.08 0.09 0.09 0.11 0.10 0.09 0.10 0.07 0.07 0.09 0.04 0.02 0.01 0.01 0.00 0.00 0.00 0.01 0.02 0.04 0.11 0.16 0.13 0.13 0.13 0.10 0.09 0.09 0.10
0.07 0.06 0.06 0.05 0.04 0.04 0.06 0.07 0.06 0.03 0.02 0.03 0.02 0.02 0.03 0.04 0.06 0.05 0.09 0.13 0.12 0.13 0.18 0.22 0.23 0.10 0.05 0.05 0.06 0.01 0.00 0.00 0.01 0.01 0.03 0.06 0.07 0.08 0.09 0.15 0.16 0.13 0.10 0.08
0.12 0.11 0.17 0.09 0.03 0.02 0.01 0.04 0.06 0.02 0.01 0.03 0.04 0.04 0.05 0.06 0.07 0.08 0.12 0.17 0.18 0.21 0.25 0.28 0.24 0.12 0.08 0.12 0.15 0.04 0.01 0.01 0.01 0.02 0.03 0.04 0.06 0.09 0.09 0.09 0.12 0.14 0.14 0.15
0.44 0.40 0.38 0.26 0.20 0.15 0.09 0.05 0.03 0.04 0.04 0.06 0.08 0.09 0.10 0.08 0.05 0.06 0.08 0.11 0.16 0.25 0.23 0.20 0.18 0.17 0.16 0.21 0.13 0.05 0.04 0.04 0.05 0.07 0.08 0.08 0.10 0.11 0.11 0.12 0.14 0.15 0.16 0.17
0.54 0.38 0.38 0.40 0.37 0.31 0.21 0.22 0.20 0.15 0.11 0.10 0.09 0.10 0.09 0.07 0.06 0.05 0.06 0.07 0.12 0.15 0.13 0.12 0.16 0.23 0.25 0.22 0.16 0.12 0.13 0.15 0.16 0.16 0.16 0.19 0.21 0.21 0.21 0.19 0.17 0.16 0.15 0.14
0.17 0.14 0.13 0.16 0.28 0.28 0.21 0.24 0.28 0.25 0.12 0.13 0.14 0.15 0.16 0.17 0.16 0.14 0.11 0.11 0.11 0.13 0.12 0.15 0.23 0.28 0.28 0.19 0.17 0.19 0.23 0.27 0.29 0.29 0.30 0.34 0.31 0.28 0.24 0.21 0.21 0.17 0.17 0.20
0.07 0.07 0.07 0.06 0.04 0.05 0.05 0.04 0.05 0.08 0.15 0.18 0.18 0.13 0.12 0.15 0.17 0.16 0.18 0.17 0.17 0.18 0.17 0.19 0.20 0.23 0.23 0.21 0.27 0.31 0.32 0.34 0.35 0.37 0.35 0.32 0.27 0.27 0.25 0.25 0.23 0.22 0.24 0.22
0.00 0.00 0.00 0.00 0.00 0.00 0.00 0.00 0.00 0.00 0.00 0.01 0.04 0.07 0.08 0.07 0.07 0.07 0.08 0.11 0.14 0.17 0.18 0.19 0.20 0.22 0.22 0.22 0.23 0.22 0.23 0.24 0.29 0.27 0.25 0.28 0.32 0.36 0.31 0.25 0.21 0.21 0.20 0.14
0.00 0.00 0.00 0.00 0.00 0.00 0.00 0.00 0.00 0.00 0.00 0.00 0.00 0.01 0.02 0.02 0.05 0.07 0.03 0.03 0.05 0.10 0.12 0.13 0.16 0.20 0.22 0.23 0.23 0.23 0.22 0.21 0.24 0.26 0.30 0.34 0.36 0.32 0.24 0.21 0.19 0.17 0.17 0.15

GFSNGP_prec_precacc_150.txt.gz
Total_Precipitation_Accumulation
0.50 0.29 0.42 0.57 0.57 0.49 0.94 0.52 0.67 0.37 0.24 0.23 0.37 0.91 1.59 1.88 1.88 1.78 2.02 2.55 2.70 2.75 2.57 2.23 2.14 2.17 2.23 2.16 1.91 1.47 1.35 1.59 1.43 1.22 1.32 1.67 1.57 1.39 1.05 1.30 1.31 1.22 1.07 1.11
0.61 0.24 0.38 0.48 0.55 0.36 0.57 0.29 0.29 0.18 0.15 0.04 0.17 0.44 0.89 1.40 1.68 2.14 2.66 2.56 2.20 1.94 1.72 1.61 1.61 1.66 1.48 1.53 1.42 1.26 1.38 1.40 1.21 1.47 1.46 1.74 1.92 1.62 0.99 1.37 1.38 1.63 1.36 1.28
0.67 0.48 0.28 0.47 0.58 0.69 0.49 0.21 0.25 0.28 0.15 0.02 0.07 0.26 0.47 0.83 1.06 1.16 1.20 1.05 0.96 0.99 0.93 0.92 0.98 0.96 1.02 1.16 1.00 0.97 0.99 1.09 1.24 1.38 1.31 1.47 1.42 1.53 1.57 1.71 1.77 1.97 1.94 1.50
0.31 0.15 0.16 0.11 0.14 0.44 0.28 0.23 0.26 0.15 0.08 0.03 0.01 0.05 0.08 0.10 0.14 0.20 0.27 0.35 0.41 0.41 0.37 0.37 0.26 0.18 0.16 0.23 0.37 0.73 0.61 0.92 1.15 1.12 1.16 1.27 1.27 1.73 1.57 1.44 1.66 1.76 1.93 2.10
0.16 0.07 0.03 0.00 0.00 0.07 0.14 0.23 0.14 0.08 0.03 0.01 0.00 0.22 0.35 0.15 0.04 0.01 0.00 0.01 0.00 0.00 0.00 0.00 0.02 0.02 0.03 0.05 0.15 0.39 0.28 0.36 0.58 0.66 0.64 0.65 0.98 1.29 1.07 1.02 1.26 1.32 1.10 1.04
0.10 0.12 0.02 0.00 0.00 0.01 0.02 0.21 0.02 0.06 0.04 0.02 0.01 0.29 0.32 0.24 0.05 0.02 0.00 0.00 0.00 0.00 0.02 0.05 0.08 0.08 0.07 0.07 0.10 0.31 0.33 0.31 0.31 0.50 0.48 0.68 0.76 0.85 1.05 0.91 0.91 0.87 0.73 0.54
0.16 0.18 0.01 0.00 0.00 0.01 0.10 0.16 0.02 0.06 0.06 0.01 0.01 0.03 0.06 0.08 0.11 0.08 0.12 0.12 0.14 0.08 0.16 0.24 0.37 0.35 0.41 0.43 0.62 0.88 0.58 0.60 0.65 0.78 0.67 0.62 0.71 0.62 0.54 0.42 0.33 0.30 0.25 0.20
0.14 0.10 0.00 0.00 0.00 0.01 0.01 0.02 0.03 0.10 0.03 0.02 0.01 0.02 0.02 0.01 0.07 0.11 0.14 0.12 0.33 0.48 0.53 0.60 0.72 0.65 0.63 0.71 0.75 0.91 0.67 0.59 0.57 0.49 0.44 0.35 0.27 0.18 0.10 0.09 0.06 0.04 0.03 0.03
0.00 0.00 0.00 0.00 0.00 0.00 0.00 0.00 0.00 0.02 0.10 0.13 0.12 0.19 0.07 0.02 0.01 0.03 0.07 0.03 0.12 0.22 0.13 0.18 0.29 0.34 0.25 0.24 0.23 0.20 0.16 0.13 0.13 0.08 0.05 0.03 0.00 0.00 0.00 0.00 0.00 0.00 0.00 0.00
0.00 0.00 0.00 0.00 0.00 0.00 0.00 0.00 0.00 0.00 0.01 0.22 0.07 0.08 0.03 0.06 0.04 0.05 0.05 0.02 0.04 0.04 0.04 0.04 0.05 0.04 0.03 0.02 0.02 0.02 0.02 0.02 0.00 0.00 0.01 0.00 0.00 0.00 0.00 0.00 0.00 0.00 0.00 0.00
0.01 0.00 0.00 0.00 0.00 0.00 0.01 0.02 0.00 0.00 0.01 0.03 0.10 0.10 0.04 0.16 0.08 0.00 0.00 0.00 0.00 0.01 0.02 0.00 0.00 0.00 0.00 0.01 0.03 0.06 0.09 0.13 0.16 0.14 0.12 0.06 0.03 0.03 0.02 0.01 0.03 0.01 0.01 0.02
0.03 0.01 0.02 0.02 0.01 0.00 0.00 0.01 0.01 0.02 0.01 0.02 0.02 0.13 0.02 0.06 0.03 0.00 0.00 0.00 0.00 0.00 0.01 0.00 0.00 0.00 0.00 0.00 0.00 0.00 0.01 0.01 0.04 0.11 0.23 0.32 0.35 0.38 0.40 0.38 0.37 0.30 0.26 0.22
0.00 0.00 0.01 0.01 0.01 0.01 0.00 0.00 0.00 0.00 0.01 0.01 0.00 0.01 0.02 0.11 0.02 0.00 0.00 0.00 0.00 0.00 0.00 0.00 0.00 0.00 0.00 0.00 0.00 0.00 0.00 0.00 0.00 0.01 0.00 0.01 0.03 0.07 0.13 0.20 0.27 0.32 0.39 0.45
0.00 0.00 0.00 0.00 0.00 0.00 0.00 0.00 0.03 0.02 0.01 0.01 0.02 0.07 0.09 0.26 0.26 0.08 0.07 0.00 0.00 0.00 0.01 0.00 0.01 0.01 0.02 0.01 0.00 0.00 0.00 0.02 0.00 0.00 0.00 0.00 0.01 0.01 0.02 0.01 0.02 0.04 0.08 0.14
0.00 0.00 0.00 0.00 0.00 0.02 0.01 0.00 0.00 0.01 0.02 0.01 0.00 0.00 0.03 0.06 0.27 0.17 0.04 0.01 0.00 0.00 0.00 0.00 0.00 0.00 0.00 0.01 0.01 0.01 0.01 0.01 0.01 0.01 0.01 0.02 0.01 0.01 0.02 0.02 0.01 0.00 0.00 0.03
0.00 0.00 0.00 0.00 0.01 0.03 0.03 0.01 0.00 0.00 0.01 0.00 0.01 0.02 0.03 0.07 0.19 0.16 0.08 0.04 0.02 0.03 0.03 0.02 0.01 0.01 0.02 0.02 0.01 0.01 0.02 0.05 0.03 0.01 0.03 0.04 0.04 0.04 0.05 0.06 0.06 0.04 0.03 0.03
0.01 0.01 0.00 0.00 0.00 0.02 0.03 0.05 0.00 0.00 0.01 0.01 0.01 0.01 0.02 0.06 0.11 0.13 0.08 0.04 0.03 0.02 0.01 0.00 0.00 0.00 0.00 0.00 0.01 0.01 0.01 0.03 0.07 0.02 0.03 0.05 0.06 0.07 0.08 0.09 0.10 0.10 0.08 0.16
0.01 0.02 0.03 0.02 0.01 0.01 0.02 0.05 0.03 0.03 0.04 0.05 0.05 0.07 0.07 0.08 0.15 0.14 0.14 0.10 0.08 0.05 0.02 0.02 0.01 0.00 0.00 0.00 0.00 0.00 0.00 0.00 0.01 0.01 0.05 0.07 0.10 0.11 0.11 0.11 0.09 0.10 0.09 0.17
0.01 0.01 0.02 0.04 0.04 0.04 0.05 0.08 0.09 0.08 0.06 0.04 0.04 0.06 0.07 0.08 0.09 0.09 0.11 0.10 0.09 0.10 0.07 0.07 0.09 0.04 0.02 0.01 0.01 0.00 0.00 0.00 0.01 0.02 0.04 0.11 0.16 0.13 0.13 0.13 0.10 0.09 0.09 0.10
0.07 0.06 0.06 0.05 0.04 0.04 0.06 0.07 0.06 0.03 0.02 0.03 0.02 0.02 0.03 0.04 0.06 0.05 0.09 0.13 0.12 0.13 0.18 0.22 0.23 0.10 0.05 0.05 0.06 0.01 0.00 0.00 0.01 0.01 0.03 0.06 0.07 0.08 0.09 0.15 0.16 0.13 0.10 0.08
0.12 0.11 0.17 0.09 0.03 0.02 0.01 0.04 0.06 0.02 0.01 0.03 0.04 0.04 0.05 0.06 0.07 0.08 0.12 0.17 0.18 0.21 0.25 0.28 0.24 0.12 0.08 0.12 0.15 0.04 0.01 0.01 0.01 0.02 0.03 0.04 0.06 0.09 0.09 0.09 0.12 0.14 0.14 0.15
0.44 0.40 0.38 0.26 0.20 0.15 0.09 0.05 0.03 0.04 0.04 0.06 0.08 0.09 0.10 0.08 0.05 0.06 0.08 0.11 0.16 0.25 0.23 0.20 0.18 0.17 0.16 0.21 0.13 0.05 0.04 0.04 0.05 0.07 0.08 0.08 0.10 0.11 0.11 0.13 0.15 0.15 0.16 0.17
0.54 0.38 0.38 0.40 0.37 0.31 0.21 0.22 0.20 0.15 0.11 0.10 0.09 0.10 0.09 0.07 0.06 0.05 0.06 0.07 0.12 0.15 0.13 0.12 0.16 0.23 0.25 0.22 0.16 0.12 0.13 0.15 0.16 0.16 0.16 0.19 0.21 0.21 0.22 0.20 0.18 0.16 0.15 0.14
0.17 0.14 0.13 0.16 0.28 0.28 0.21 0.24 0.28 0.25 0.12 0.13 0.14 0.15 0.16 0.17 0.16 0.14 0.11 0.11 0.11 0.13 0.12 0.15 0.23 0.28 0.28 0.19 0.17 0.19 0.23 0.27 0.29 0.29 0.30 0.35 0.32 0.29 0.26 0.22 0.22 0.17 0.18 0.21
0.07 0.07 0.07 0.06 0.04 0.05 0.05 0.04 0.05 0.08 0.15 0.18 0.18 0.13 0.12 0.15 0.17 0.16 0.18 0.17 0.17 0.18 0.17 0.19 0.20 0.23 0.23 0.21 0.27 0.31 0.32 0.34 0.35 0.37 0.35 0.32 0.28 0.28 0.26 0.26 0.24 0.23 0.25 0.23
0.00 0.00 0.00 0.00 0.00 0.00 0.00 0.00 0.00 0.00 0.00 0.01 0.04 0.07 0.08 0.07 0.07 0.07 0.08 0.11 0.14 0.17 0.18 0.19 0.20 0.23 0.22 0.22 0.23 0.22 0.23 0.24 0.29 0.27 0.26 0.29 0.33 0.37 0.32 0.26 0.22 0.22 0.20 0.16
0.00 0.00 0.00 0.00 0.00 0.00 0.00 0.00 0.00 0.00 0.00 0.00 0.00 0.01 0.02 0.02 0.05 0.07 0.03 0.03 0.05 0.10 0.12 0.13 0.17 0.20 0.22 0.23 0.23 0.23 0.22 0.22 0.25 0.27 0.31 0.35 0.37 0.32 0.25 0.22 0.20 0.18 0.17 0.16